<?xml version='1.0' encoding='UTF-8'?><gpx version="1.1" creator="JPX - https://github.com/jenetics/jpx" xmlns="http://www.topografix.com/GPX/1/1"><trk><trkseg><trkpt lat="43.8838573" lon="7.9971248"><ele>42.0</ele><time>2026-05-02T06:13:34.385Z</time></trkpt><trkpt lat="43.8838444" lon="7.9972162"><ele>42.0</ele><time>2026-05-02T06:14:23.445Z</time></trkpt><trkpt lat="43.8838755" lon="7.9973031"><ele>42.0</ele><time>2026-05-02T06:14:47.453Z</time></trkpt><trkpt lat="43.8839252" lon="7.9972309"><ele>42.0</ele><time>2026-05-02T06:14:57.287Z</time></trkpt><trkpt lat="43.8838691" lon="7.9971901"><ele>42.0</ele><time>2026-05-02T06:17:42.859Z</time></trkpt><trkpt lat="43.8836899" lon="7.997051"><ele>42.0</ele><time>2026-05-02T06:20:20.364Z</time></trkpt><trkpt lat="43.883529" lon="7.9969466"><ele>42.0</ele><time>2026-05-02T06:20:21.355Z</time></trkpt><trkpt lat="43.8834656" lon="7.9968946"><ele>42.0</ele><time>2026-05-02T06:20:24.474Z</time></trkpt><trkpt lat="43.8835536" lon="7.9969326"><ele>42.0</ele><time>2026-05-02T06:20:35.389Z</time></trkpt><trkpt lat="43.8836238" lon="7.9969157"><ele>42.0</ele><time>2026-05-02T06:20:40.426Z</time></trkpt><trkpt lat="43.8837158" lon="7.996926"><ele>42.0</ele><time>2026-05-02T06:20:44.446Z</time></trkpt><trkpt lat="43.8837823" lon="7.9969558"><ele>42.0</ele><time>2026-05-02T06:20:46.423Z</time></trkpt><trkpt lat="43.8834593" lon="7.9966943"><ele>42.0</ele><time>2026-05-02T06:20:48.462Z</time></trkpt><trkpt lat="43.8833183" lon="7.9966152"><ele>37.666666666666664</ele><time>2026-05-02T06:20:49.423Z</time></trkpt><trkpt lat="43.8830517" lon="7.9963433"><ele>33.33333333333333</ele><time>2026-05-02T06:20:51.256Z</time></trkpt><trkpt lat="43.8829983" lon="7.9962917"><ele>29.0</ele><time>2026-05-02T06:20:52.255Z</time></trkpt><trkpt lat="43.8829183" lon="7.9962233"><ele>28.999999999999996</ele><time>2026-05-02T06:20:54.255Z</time></trkpt><trkpt lat="43.8828433" lon="7.99619"><ele>29.0</ele><time>2026-05-02T06:20:58.255Z</time></trkpt><trkpt lat="43.8827567" lon="7.9962183"><ele>29.0</ele><time>2026-05-02T06:21:01.255Z</time></trkpt><trkpt lat="43.8826767" lon="7.9962767"><ele>29.0</ele><time>2026-05-02T06:21:04.256Z</time></trkpt><trkpt lat="43.8826117" lon="7.9963617"><ele>28.999999999999996</ele><time>2026-05-02T06:21:06.255Z</time></trkpt><trkpt lat="43.88256" lon="7.9964583"><ele>29.0</ele><time>2026-05-02T06:21:08.255Z</time></trkpt><trkpt lat="43.8825083" lon="7.9965583"><ele>28.0</ele><time>2026-05-02T06:21:10.255Z</time></trkpt><trkpt lat="43.88246" lon="7.9966617"><ele>27.0</ele><time>2026-05-02T06:21:12.256Z</time></trkpt><trkpt lat="43.8824117" lon="7.9967833"><ele>26.0</ele><time>2026-05-02T06:21:14.255Z</time></trkpt><trkpt lat="43.8823633" lon="7.9968983"><ele>25.0</ele><time>2026-05-02T06:21:16.255Z</time></trkpt><trkpt lat="43.8823167" lon="7.9970133"><ele>24.0</ele><time>2026-05-02T06:21:18.255Z</time></trkpt><trkpt lat="43.8822783" lon="7.9971267"><ele>24.0</ele><time>2026-05-02T06:21:20.255Z</time></trkpt><trkpt lat="43.8822467" lon="7.99726"><ele>24.0</ele><time>2026-05-02T06:21:22.255Z</time></trkpt><trkpt lat="43.8822" lon="7.9973767"><ele>24.0</ele><time>2026-05-02T06:21:24.255Z</time></trkpt><trkpt lat="43.882165" lon="7.9974967"><ele>24.0</ele><time>2026-05-02T06:21:26.255Z</time></trkpt><trkpt lat="43.88212" lon="7.9975983"><ele>24.0</ele><time>2026-05-02T06:21:28.255Z</time></trkpt><trkpt lat="43.882085" lon="7.9977133"><ele>24.6</ele><time>2026-05-02T06:21:30.256Z</time></trkpt><trkpt lat="43.8820467" lon="7.99783"><ele>25.2</ele><time>2026-05-02T06:21:32.256Z</time></trkpt><trkpt lat="43.8819883" lon="7.9979283"><ele>25.800000000000004</ele><time>2026-05-02T06:21:34.256Z</time></trkpt><trkpt lat="43.8819417" lon="7.9980367"><ele>26.400000000000002</ele><time>2026-05-02T06:21:36.256Z</time></trkpt><trkpt lat="43.8819033" lon="7.99815"><ele>27.0</ele><time>2026-05-02T06:21:38.256Z</time></trkpt><trkpt lat="43.8818533" lon="7.9982483"><ele>26.200000000000003</ele><time>2026-05-02T06:21:40.256Z</time></trkpt><trkpt lat="43.8817967" lon="7.9983433"><ele>25.400000000000002</ele><time>2026-05-02T06:21:42.256Z</time></trkpt><trkpt lat="43.8817467" lon="7.998445"><ele>24.6</ele><time>2026-05-02T06:21:44.256Z</time></trkpt><trkpt lat="43.881685" lon="7.9985333"><ele>23.799999999999997</ele><time>2026-05-02T06:21:46.257Z</time></trkpt><trkpt lat="43.8815817" lon="7.998645"><ele>23.0</ele><time>2026-05-02T06:21:49.256Z</time></trkpt><trkpt lat="43.8815217" lon="7.9987367"><ele>23.0</ele><time>2026-05-02T06:21:51.256Z</time></trkpt><trkpt lat="43.8814567" lon="7.9988233"><ele>23.0</ele><time>2026-05-02T06:21:53.256Z</time></trkpt><trkpt lat="43.881375" lon="7.998905"><ele>23.0</ele><time>2026-05-02T06:21:55.256Z</time></trkpt><trkpt lat="43.8813" lon="7.9989867"><ele>23.0</ele><time>2026-05-02T06:21:57.256Z</time></trkpt><trkpt lat="43.8812283" lon="7.9990667"><ele>23.0</ele><time>2026-05-02T06:21:59.256Z</time></trkpt><trkpt lat="43.8811533" lon="7.99916"><ele>22.0</ele><time>2026-05-02T06:22:01.256Z</time></trkpt><trkpt lat="43.881085" lon="7.99924"><ele>21.0</ele><time>2026-05-02T06:22:03.256Z</time></trkpt><trkpt lat="43.881025" lon="7.999345"><ele>20.0</ele><time>2026-05-02T06:22:05.256Z</time></trkpt><trkpt lat="43.880965" lon="7.99946"><ele>19.0</ele><time>2026-05-02T06:22:07.256Z</time></trkpt><trkpt lat="43.880915" lon="7.99959"><ele>18.0</ele><time>2026-05-02T06:22:09.256Z</time></trkpt><trkpt lat="43.8808683" lon="7.9997183"><ele>18.0</ele><time>2026-05-02T06:22:11.256Z</time></trkpt><trkpt lat="43.880835" lon="7.9998583"><ele>18.0</ele><time>2026-05-02T06:22:13.256Z</time></trkpt><trkpt lat="43.8808033" lon="7.999975"><ele>18.0</ele><time>2026-05-02T06:22:15.256Z</time></trkpt><trkpt lat="43.8807817" lon="8.00012"><ele>18.0</ele><time>2026-05-02T06:22:17.256Z</time></trkpt><trkpt lat="43.880765" lon="8.0002783"><ele>18.0</ele><time>2026-05-02T06:22:19.256Z</time></trkpt><trkpt lat="43.8807317" lon="8.0004083"><ele>18.0</ele><time>2026-05-02T06:22:21.256Z</time></trkpt><trkpt lat="43.8806917" lon="8.0005433"><ele>18.0</ele><time>2026-05-02T06:22:23.256Z</time></trkpt><trkpt lat="43.88066" lon="8.0006817"><ele>18.0</ele><time>2026-05-02T06:22:25.256Z</time></trkpt><trkpt lat="43.8806233" lon="8.0008233"><ele>18.0</ele><time>2026-05-02T06:22:27.256Z</time></trkpt><trkpt lat="43.8805833" lon="8.0009633"><ele>18.0</ele><time>2026-05-02T06:22:29.256Z</time></trkpt><trkpt lat="43.8805533" lon="8.0010983"><ele>18.4</ele><time>2026-05-02T06:22:31.257Z</time></trkpt><trkpt lat="43.88053" lon="8.001265"><ele>18.8</ele><time>2026-05-02T06:22:33.257Z</time></trkpt><trkpt lat="43.8804867" lon="8.0014133"><ele>19.2</ele><time>2026-05-02T06:22:35.256Z</time></trkpt><trkpt lat="43.88044" lon="8.0015433"><ele>19.6</ele><time>2026-05-02T06:22:37.256Z</time></trkpt><trkpt lat="43.880395" lon="8.00167"><ele>20.0</ele><time>2026-05-02T06:22:39.257Z</time></trkpt><trkpt lat="43.88034" lon="8.0017667"><ele>20.4</ele><time>2026-05-02T06:22:41.256Z</time></trkpt><trkpt lat="43.880275" lon="8.001875"><ele>20.8</ele><time>2026-05-02T06:22:43.257Z</time></trkpt><trkpt lat="43.8802167" lon="8.0019867"><ele>21.200000000000003</ele><time>2026-05-02T06:22:45.256Z</time></trkpt><trkpt lat="43.8801733" lon="8.00212"><ele>21.6</ele><time>2026-05-02T06:22:47.256Z</time></trkpt><trkpt lat="43.88016" lon="8.0022617"><ele>22.0</ele><time>2026-05-02T06:22:49.256Z</time></trkpt><trkpt lat="43.8801733" lon="8.0024317"><ele>23.5</ele><time>2026-05-02T06:22:51.257Z</time></trkpt><trkpt lat="43.8801883" lon="8.0026"><ele>25.0</ele><time>2026-05-02T06:22:53.256Z</time></trkpt><trkpt lat="43.8801967" lon="8.00276"><ele>26.5</ele><time>2026-05-02T06:22:55.256Z</time></trkpt><trkpt lat="43.8802033" lon="8.0029167"><ele>28.0</ele><time>2026-05-02T06:22:57.256Z</time></trkpt><trkpt lat="43.8802117" lon="8.0030733"><ele>28.0</ele><time>2026-05-02T06:22:59.257Z</time></trkpt><trkpt lat="43.88022" lon="8.0032333"><ele>27.999999999999996</ele><time>2026-05-02T06:23:01.256Z</time></trkpt><trkpt lat="43.880225" lon="8.00339"><ele>27.999999999999996</ele><time>2026-05-02T06:23:03.256Z</time></trkpt><trkpt lat="43.8802283" lon="8.00354"><ele>28.0</ele><time>2026-05-02T06:23:05.256Z</time></trkpt><trkpt lat="43.880225" lon="8.003695"><ele>28.0</ele><time>2026-05-02T06:23:07.256Z</time></trkpt><trkpt lat="43.8802183" lon="8.0038233"><ele>28.2</ele><time>2026-05-02T06:23:09.256Z</time></trkpt><trkpt lat="43.8802033" lon="8.0039617"><ele>28.4</ele><time>2026-05-02T06:23:11.256Z</time></trkpt><trkpt lat="43.8801833" lon="8.004105"><ele>28.599999999999998</ele><time>2026-05-02T06:23:13.256Z</time></trkpt><trkpt lat="43.8801533" lon="8.004235"><ele>28.799999999999997</ele><time>2026-05-02T06:23:15.256Z</time></trkpt><trkpt lat="43.8801617" lon="8.00434"><ele>29.0</ele><time>2026-05-02T06:23:16.256Z</time></trkpt><trkpt lat="43.8801433" lon="8.0044983"><ele>28.0</ele><time>2026-05-02T06:23:18.256Z</time></trkpt><trkpt lat="43.880115" lon="8.0046383"><ele>27.0</ele><time>2026-05-02T06:23:20.256Z</time></trkpt><trkpt lat="43.880055" lon="8.0047783"><ele>26.0</ele><time>2026-05-02T06:23:22.256Z</time></trkpt><trkpt lat="43.88" lon="8.0049067"><ele>25.0</ele><time>2026-05-02T06:23:24.256Z</time></trkpt><trkpt lat="43.8799467" lon="8.0050533"><ele>24.0</ele><time>2026-05-02T06:23:26.256Z</time></trkpt><trkpt lat="43.8798933" lon="8.0052083"><ele>22.2</ele><time>2026-05-02T06:23:28.256Z</time></trkpt><trkpt lat="43.879835" lon="8.00533"><ele>20.4</ele><time>2026-05-02T06:23:30.256Z</time></trkpt><trkpt lat="43.879785" lon="8.0054417"><ele>18.6</ele><time>2026-05-02T06:23:32.256Z</time></trkpt><trkpt lat="43.8797233" lon="8.00555"><ele>16.8</ele><time>2026-05-02T06:23:34.257Z</time></trkpt><trkpt lat="43.879645" lon="8.0056533"><ele>15.0</ele><time>2026-05-02T06:23:36.256Z</time></trkpt><trkpt lat="43.8795617" lon="8.0057417"><ele>15.0</ele><time>2026-05-02T06:23:38.256Z</time></trkpt><trkpt lat="43.8794767" lon="8.0058283"><ele>15.0</ele><time>2026-05-02T06:23:40.256Z</time></trkpt><trkpt lat="43.8793733" lon="8.00585"><ele>15.0</ele><time>2026-05-02T06:23:42.257Z</time></trkpt><trkpt lat="43.87927" lon="8.005885"><ele>15.0</ele><time>2026-05-02T06:23:44.256Z</time></trkpt><trkpt lat="43.879195" lon="8.0059833"><ele>15.0</ele><time>2026-05-02T06:23:46.256Z</time></trkpt><trkpt lat="43.8791183" lon="8.0060667"><ele>14.0</ele><time>2026-05-02T06:23:48.256Z</time></trkpt><trkpt lat="43.8790233" lon="8.0061383"><ele>13.0</ele><time>2026-05-02T06:23:50.256Z</time></trkpt><trkpt lat="43.8789367" lon="8.0062283"><ele>12.0</ele><time>2026-05-02T06:23:52.256Z</time></trkpt><trkpt lat="43.8788517" lon="8.00635"><ele>11.0</ele><time>2026-05-02T06:23:54.256Z</time></trkpt><trkpt lat="43.8787633" lon="8.006445"><ele>11.0</ele><time>2026-05-02T06:23:56.256Z</time></trkpt><trkpt lat="43.878675" lon="8.0065317"><ele>11.0</ele><time>2026-05-02T06:23:58.256Z</time></trkpt><trkpt lat="43.8785867" lon="8.0066233"><ele>11.0</ele><time>2026-05-02T06:24:00.256Z</time></trkpt><trkpt lat="43.8784983" lon="8.006715"><ele>11.0</ele><time>2026-05-02T06:24:02.256Z</time></trkpt><trkpt lat="43.8784117" lon="8.0067833"><ele>11.0</ele><time>2026-05-02T06:24:04.256Z</time></trkpt><trkpt lat="43.8783283" lon="8.0068667"><ele>11.0</ele><time>2026-05-02T06:24:06.257Z</time></trkpt><trkpt lat="43.878245" lon="8.0069583"><ele>11.0</ele><time>2026-05-02T06:24:08.257Z</time></trkpt><trkpt lat="43.8781667" lon="8.007065"><ele>11.0</ele><time>2026-05-02T06:24:10.256Z</time></trkpt><trkpt lat="43.8780867" lon="8.007155"><ele>11.0</ele><time>2026-05-02T06:24:12.257Z</time></trkpt><trkpt lat="43.8780117" lon="8.0072483"><ele>11.0</ele><time>2026-05-02T06:24:14.256Z</time></trkpt><trkpt lat="43.8779383" lon="8.0073467"><ele>11.0</ele><time>2026-05-02T06:24:16.257Z</time></trkpt><trkpt lat="43.8778517" lon="8.0074083"><ele>11.0</ele><time>2026-05-02T06:24:18.256Z</time></trkpt><trkpt lat="43.87777" lon="8.0074883"><ele>11.0</ele><time>2026-05-02T06:24:20.256Z</time></trkpt><trkpt lat="43.8777" lon="8.0075783"><ele>11.0</ele><time>2026-05-02T06:24:22.256Z</time></trkpt><trkpt lat="43.8776267" lon="8.0076833"><ele>11.0</ele><time>2026-05-02T06:24:24.256Z</time></trkpt><trkpt lat="43.8775633" lon="8.0078083"><ele>11.600000000000001</ele><time>2026-05-02T06:24:26.256Z</time></trkpt><trkpt lat="43.877475" lon="8.0079"><ele>12.2</ele><time>2026-05-02T06:24:28.256Z</time></trkpt><trkpt lat="43.8773867" lon="8.0079867"><ele>12.799999999999999</ele><time>2026-05-02T06:24:30.256Z</time></trkpt><trkpt lat="43.8772967" lon="8.0080433"><ele>13.399999999999999</ele><time>2026-05-02T06:24:32.256Z</time></trkpt><trkpt lat="43.8771933" lon="8.0080867"><ele>14.0</ele><time>2026-05-02T06:24:34.257Z</time></trkpt><trkpt lat="43.8770867" lon="8.0081367"><ele>14.0</ele><time>2026-05-02T06:24:36.256Z</time></trkpt><trkpt lat="43.8769867" lon="8.0081817"><ele>13.999999999999998</ele><time>2026-05-02T06:24:38.256Z</time></trkpt><trkpt lat="43.876875" lon="8.0082033"><ele>13.999999999999998</ele><time>2026-05-02T06:24:40.256Z</time></trkpt><trkpt lat="43.8767733" lon="8.00823"><ele>14.0</ele><time>2026-05-02T06:24:42.256Z</time></trkpt><trkpt lat="43.876685" lon="8.0082117"><ele>14.0</ele><time>2026-05-02T06:24:44.256Z</time></trkpt><trkpt lat="43.8765967" lon="8.00817"><ele>13.6</ele><time>2026-05-02T06:24:46.256Z</time></trkpt><trkpt lat="43.87651" lon="8.0081567"><ele>13.2</ele><time>2026-05-02T06:24:48.256Z</time></trkpt><trkpt lat="43.876415" lon="8.00816"><ele>12.799999999999999</ele><time>2026-05-02T06:24:50.256Z</time></trkpt><trkpt lat="43.8763283" lon="8.0082067"><ele>12.399999999999999</ele><time>2026-05-02T06:24:52.257Z</time></trkpt><trkpt lat="43.8762117" lon="8.008255"><ele>12.0</ele><time>2026-05-02T06:24:54.256Z</time></trkpt><trkpt lat="43.8761417" lon="8.0083467"><ele>12.0</ele><time>2026-05-02T06:24:56.256Z</time></trkpt><trkpt lat="43.8761483" lon="8.0085333"><ele>12.0</ele><time>2026-05-02T06:24:58.257Z</time></trkpt><trkpt lat="43.876155" lon="8.0086217"><ele>12.0</ele><time>2026-05-02T06:24:59.256Z</time></trkpt><trkpt lat="43.8761583" lon="8.008715"><ele>12.0</ele><time>2026-05-02T06:25:00.256Z</time></trkpt><trkpt lat="43.8761633" lon="8.00882"><ele>12.0</ele><time>2026-05-02T06:25:01.256Z</time></trkpt><trkpt lat="43.8761667" lon="8.0089117"><ele>12.0</ele><time>2026-05-02T06:25:02.256Z</time></trkpt><trkpt lat="43.8761667" lon="8.0090083"><ele>12.0</ele><time>2026-05-02T06:25:03.256Z</time></trkpt><trkpt lat="43.87617" lon="8.0091083"><ele>12.0</ele><time>2026-05-02T06:25:04.256Z</time></trkpt><trkpt lat="43.8761733" lon="8.0092133"><ele>12.0</ele><time>2026-05-02T06:25:05.256Z</time></trkpt><trkpt lat="43.8761867" lon="8.0093917"><ele>12.0</ele><time>2026-05-02T06:25:07.256Z</time></trkpt><trkpt lat="43.8761983" lon="8.0094783"><ele>12.0</ele><time>2026-05-02T06:25:08.256Z</time></trkpt><trkpt lat="43.87623" lon="8.0095917"><ele>12.0</ele><time>2026-05-02T06:25:09.256Z</time></trkpt><trkpt lat="43.87625" lon="8.00973"><ele>11.833333333333334</ele><time>2026-05-02T06:25:11.256Z</time></trkpt><trkpt lat="43.8762533" lon="8.0098683"><ele>11.666666666666666</ele><time>2026-05-02T06:25:13.256Z</time></trkpt><trkpt lat="43.87624" lon="8.0099767"><ele>11.5</ele><time>2026-05-02T06:25:15.256Z</time></trkpt><trkpt lat="43.876205" lon="8.01009"><ele>11.333333333333332</ele><time>2026-05-02T06:25:17.256Z</time></trkpt><trkpt lat="43.8761683" lon="8.010205"><ele>11.166666666666666</ele><time>2026-05-02T06:25:19.256Z</time></trkpt><trkpt lat="43.8761333" lon="8.01028"><ele>11.0</ele><time>2026-05-02T06:25:21.256Z</time></trkpt><trkpt lat="43.876065" lon="8.0103083"><ele>11.0</ele><time>2026-05-02T06:25:24.256Z</time></trkpt><trkpt lat="43.875985" lon="8.01026"><ele>11.0</ele><time>2026-05-02T06:25:27.256Z</time></trkpt><trkpt lat="43.8759067" lon="8.010205"><ele>11.0</ele><time>2026-05-02T06:25:29.256Z</time></trkpt><trkpt lat="43.8758317" lon="8.0101583"><ele>11.0</ele><time>2026-05-02T06:25:31.256Z</time></trkpt><trkpt lat="43.87574" lon="8.01011"><ele>11.0</ele><time>2026-05-02T06:25:33.256Z</time></trkpt><trkpt lat="43.875685" lon="8.0100583"><ele>11.0</ele><time>2026-05-02T06:25:34.256Z</time></trkpt><trkpt lat="43.8756217" lon="8.0100383"><ele>11.0</ele><time>2026-05-02T06:25:35.256Z</time></trkpt><trkpt lat="43.8755117" lon="8.009995"><ele>11.0</ele><time>2026-05-02T06:25:37.257Z</time></trkpt><trkpt lat="43.87541" lon="8.009965"><ele>11.0</ele><time>2026-05-02T06:25:39.257Z</time></trkpt><trkpt lat="43.8752967" lon="8.0099317"><ele>11.0</ele><time>2026-05-02T06:25:41.257Z</time></trkpt><trkpt lat="43.87518" lon="8.0099033"><ele>10.600000000000001</ele><time>2026-05-02T06:25:43.256Z</time></trkpt><trkpt lat="43.8751167" lon="8.0098867"><ele>10.200000000000001</ele><time>2026-05-02T06:25:44.257Z</time></trkpt><trkpt lat="43.875" lon="8.00986"><ele>9.8</ele><time>2026-05-02T06:25:46.256Z</time></trkpt><trkpt lat="43.874895" lon="8.0098333"><ele>9.4</ele><time>2026-05-02T06:25:48.256Z</time></trkpt><trkpt lat="43.87479" lon="8.0098083"><ele>9.0</ele><time>2026-05-02T06:25:50.256Z</time></trkpt><trkpt lat="43.874675" lon="8.0097883"><ele>9.0</ele><time>2026-05-02T06:25:52.256Z</time></trkpt><trkpt lat="43.874565" lon="8.0097667"><ele>9.0</ele><time>2026-05-02T06:25:54.256Z</time></trkpt><trkpt lat="43.8744717" lon="8.0097417"><ele>9.0</ele><time>2026-05-02T06:25:56.256Z</time></trkpt><trkpt lat="43.87437" lon="8.0097117"><ele>9.0</ele><time>2026-05-02T06:25:58.256Z</time></trkpt><trkpt lat="43.87426" lon="8.00967"><ele>9.0</ele><time>2026-05-02T06:26:00.256Z</time></trkpt><trkpt lat="43.8741617" lon="8.009625"><ele>9.0</ele><time>2026-05-02T06:26:02.256Z</time></trkpt><trkpt lat="43.8740717" lon="8.0095683"><ele>9.0</ele><time>2026-05-02T06:26:04.256Z</time></trkpt><trkpt lat="43.873985" lon="8.009505"><ele>9.0</ele><time>2026-05-02T06:26:06.256Z</time></trkpt><trkpt lat="43.8738933" lon="8.00944"><ele>9.0</ele><time>2026-05-02T06:26:08.256Z</time></trkpt><trkpt lat="43.8738033" lon="8.009365"><ele>9.0</ele><time>2026-05-02T06:26:10.256Z</time></trkpt><trkpt lat="43.8736983" lon="8.0092933"><ele>9.0</ele><time>2026-05-02T06:26:12.256Z</time></trkpt><trkpt lat="43.8735883" lon="8.00922"><ele>9.0</ele><time>2026-05-02T06:26:14.256Z</time></trkpt><trkpt lat="43.8734967" lon="8.00914"><ele>9.0</ele><time>2026-05-02T06:26:16.257Z</time></trkpt><trkpt lat="43.8734367" lon="8.0091"><ele>9.0</ele><time>2026-05-02T06:26:17.256Z</time></trkpt><trkpt lat="43.8733433" lon="8.0090067"><ele>9.0</ele><time>2026-05-02T06:26:19.257Z</time></trkpt><trkpt lat="43.8732633" lon="8.0089183"><ele>10.0</ele><time>2026-05-02T06:26:21.256Z</time></trkpt><trkpt lat="43.8731883" lon="8.00882"><ele>11.0</ele><time>2026-05-02T06:26:24.257Z</time></trkpt><trkpt lat="43.873115" lon="8.008745"><ele>12.0</ele><time>2026-05-02T06:26:26.256Z</time></trkpt><trkpt lat="43.8730517" lon="8.00872"><ele>13.0</ele><time>2026-05-02T06:26:27.256Z</time></trkpt><trkpt lat="43.870793" lon="8.0042482"><ele>13.0</ele><time>2026-05-02T06:27:27.772Z</time></trkpt><trkpt lat="43.8708383" lon="8.0043733"><ele>13.0</ele><time>2026-05-02T06:27:31.256Z</time></trkpt><trkpt lat="43.8707533" lon="8.0042583"><ele>13.0</ele><time>2026-05-02T06:27:33.256Z</time></trkpt><trkpt lat="43.8707083" lon="8.004145"><ele>13.0</ele><time>2026-05-02T06:27:35.256Z</time></trkpt><trkpt lat="43.87065" lon="8.0040133"><ele>13.0</ele><time>2026-05-02T06:27:37.256Z</time></trkpt><trkpt lat="43.87061" lon="8.003885"><ele>12.999999999999998</ele><time>2026-05-02T06:27:39.257Z</time></trkpt><trkpt lat="43.870555" lon="8.0037533"><ele>13.0</ele><time>2026-05-02T06:27:41.256Z</time></trkpt><trkpt lat="43.870505" lon="8.0036467"><ele>13.0</ele><time>2026-05-02T06:27:43.256Z</time></trkpt><trkpt lat="43.8704217" lon="8.0035967"><ele>13.0</ele><time>2026-05-02T06:27:45.256Z</time></trkpt><trkpt lat="43.8703583" lon="8.0036233"><ele>12.999999999999998</ele><time>2026-05-02T06:27:47.257Z</time></trkpt><trkpt lat="43.8702867" lon="8.0036417"><ele>13.0</ele><time>2026-05-02T06:27:49.257Z</time></trkpt><trkpt lat="43.8701883" lon="8.003655"><ele>12.999999999999998</ele><time>2026-05-02T06:27:53.256Z</time></trkpt><trkpt lat="43.87012" lon="8.003655"><ele>13.0</ele><time>2026-05-02T06:27:55.256Z</time></trkpt><trkpt lat="43.8700683" lon="8.0037517"><ele>13.0</ele><time>2026-05-02T06:27:58.256Z</time></trkpt><trkpt lat="43.8700633" lon="8.0038633"><ele>13.0</ele><time>2026-05-02T06:28:00.256Z</time></trkpt><trkpt lat="43.87005" lon="8.0039967"><ele>12.999999999999998</ele><time>2026-05-02T06:28:02.256Z</time></trkpt><trkpt lat="43.87004" lon="8.0041267"><ele>13.0</ele><time>2026-05-02T06:28:04.256Z</time></trkpt><trkpt lat="43.8700283" lon="8.0042467"><ele>11.833333333333332</ele><time>2026-05-02T06:28:06.256Z</time></trkpt><trkpt lat="43.870015" lon="8.0043517"><ele>10.666666666666666</ele><time>2026-05-02T06:28:08.257Z</time></trkpt><trkpt lat="43.8700083" lon="8.00445"><ele>9.5</ele><time>2026-05-02T06:28:10.256Z</time></trkpt><trkpt lat="43.8699983" lon="8.0045717"><ele>8.333333333333332</ele><time>2026-05-02T06:28:13.256Z</time></trkpt><trkpt lat="43.870005" lon="8.00469"><ele>7.166666666666666</ele><time>2026-05-02T06:28:16.256Z</time></trkpt><trkpt lat="43.8700083" lon="8.0048133"><ele>6.0</ele><time>2026-05-02T06:28:19.256Z</time></trkpt><trkpt lat="43.8700067" lon="8.0049067"><ele>6.0</ele><time>2026-05-02T06:28:22.256Z</time></trkpt><trkpt lat="43.87002" lon="8.0049933"><ele>6.0</ele><time>2026-05-02T06:28:25.256Z</time></trkpt><trkpt lat="43.87016" lon="8.004935"><ele>6.0</ele><time>2026-05-02T06:29:15.256Z</time></trkpt><trkpt lat="43.8701517" lon="8.004825"><ele>6.0</ele><time>2026-05-02T06:35:14.256Z</time></trkpt><trkpt lat="43.8701467" lon="8.00473"><ele>6.0</ele><time>2026-05-02T06:35:17.255Z</time></trkpt><trkpt lat="43.8701483" lon="8.0046317"><ele>6.0</ele><time>2026-05-02T06:35:20.255Z</time></trkpt><trkpt lat="43.8701483" lon="8.0045317"><ele>7.0</ele><time>2026-05-02T06:35:23.256Z</time></trkpt><trkpt lat="43.8701517" lon="8.0044233"><ele>8.0</ele><time>2026-05-02T06:35:26.255Z</time></trkpt><trkpt lat="43.87016" lon="8.0043283"><ele>9.0</ele><time>2026-05-02T06:35:29.255Z</time></trkpt><trkpt lat="43.870175" lon="8.0042033"><ele>10.0</ele><time>2026-05-02T06:35:32.256Z</time></trkpt><trkpt lat="43.8701783" lon="8.004115"><ele>11.0</ele><time>2026-05-02T06:35:34.255Z</time></trkpt><trkpt lat="43.8701833" lon="8.0040233"><ele>12.0</ele><time>2026-05-02T06:35:36.255Z</time></trkpt><trkpt lat="43.8701867" lon="8.0039317"><ele>13.0</ele><time>2026-05-02T06:35:38.255Z</time></trkpt><trkpt lat="43.8701983" lon="8.00384"><ele>12.999999999999998</ele><time>2026-05-02T06:35:40.255Z</time></trkpt><trkpt lat="43.8702" lon="8.0037417"><ele>13.0</ele><time>2026-05-02T06:35:42.255Z</time></trkpt><trkpt lat="43.8701967" lon="8.00362"><ele>13.0</ele><time>2026-05-02T06:35:45.256Z</time></trkpt><trkpt lat="43.8702067" lon="8.00351"><ele>13.0</ele><time>2026-05-02T06:35:48.255Z</time></trkpt><trkpt lat="43.8702133" lon="8.00339"><ele>12.999999999999998</ele><time>2026-05-02T06:35:51.255Z</time></trkpt><trkpt lat="43.8702283" lon="8.00329"><ele>13.0</ele><time>2026-05-02T06:35:54.255Z</time></trkpt><trkpt lat="43.8702567" lon="8.0031967"><ele>12.285714285714285</ele><time>2026-05-02T06:35:57.255Z</time></trkpt><trkpt lat="43.87024" lon="8.0030817"><ele>11.571428571428573</ele><time>2026-05-02T06:36:00.255Z</time></trkpt><trkpt lat="43.870195" lon="8.0030017"><ele>10.857142857142858</ele><time>2026-05-02T06:36:02.255Z</time></trkpt><trkpt lat="43.8701617" lon="8.0029233"><ele>10.142857142857142</ele><time>2026-05-02T06:36:04.256Z</time></trkpt><trkpt lat="43.87012" lon="8.0028417"><ele>9.428571428571427</ele><time>2026-05-02T06:36:06.256Z</time></trkpt><trkpt lat="43.8700783" lon="8.0027617"><ele>8.714285714285714</ele><time>2026-05-02T06:36:08.256Z</time></trkpt><trkpt lat="43.8700317" lon="8.0026767"><ele>8.0</ele><time>2026-05-02T06:36:10.256Z</time></trkpt><trkpt lat="43.8699867" lon="8.002595"><ele>7.571428571428571</ele><time>2026-05-02T06:36:12.256Z</time></trkpt><trkpt lat="43.8699433" lon="8.0025083"><ele>7.142857142857142</ele><time>2026-05-02T06:36:14.256Z</time></trkpt><trkpt lat="43.8699017" lon="8.002425"><ele>6.7142857142857135</ele><time>2026-05-02T06:36:16.256Z</time></trkpt><trkpt lat="43.869865" lon="8.00234"><ele>6.285714285714286</ele><time>2026-05-02T06:36:18.256Z</time></trkpt><trkpt lat="43.869825" lon="8.0022617"><ele>5.857142857142858</ele><time>2026-05-02T06:36:20.256Z</time></trkpt><trkpt lat="43.86979" lon="8.0021867"><ele>5.428571428571429</ele><time>2026-05-02T06:36:22.256Z</time></trkpt><trkpt lat="43.8697567" lon="8.0021083"><ele>5.0</ele><time>2026-05-02T06:36:24.256Z</time></trkpt><trkpt lat="43.8697233" lon="8.0020317"><ele>5.0</ele><time>2026-05-02T06:36:26.257Z</time></trkpt><trkpt lat="43.8696933" lon="8.00195"><ele>5.0</ele><time>2026-05-02T06:36:28.256Z</time></trkpt><trkpt lat="43.8696567" lon="8.0018667"><ele>5.0</ele><time>2026-05-02T06:36:30.256Z</time></trkpt><trkpt lat="43.869625" lon="8.00179"><ele>5.0</ele><time>2026-05-02T06:36:32.256Z</time></trkpt><trkpt lat="43.8695933" lon="8.0017117"><ele>5.0</ele><time>2026-05-02T06:36:34.256Z</time></trkpt><trkpt lat="43.8695467" lon="8.0016033"><ele>5.0</ele><time>2026-05-02T06:36:37.256Z</time></trkpt><trkpt lat="43.8695017" lon="8.0014833"><ele>5.142857142857142</ele><time>2026-05-02T06:36:40.256Z</time></trkpt><trkpt lat="43.8694667" lon="8.001405"><ele>5.285714285714286</ele><time>2026-05-02T06:36:42.256Z</time></trkpt><trkpt lat="43.8694367" lon="8.0013183"><ele>5.428571428571429</ele><time>2026-05-02T06:36:44.257Z</time></trkpt><trkpt lat="43.8694033" lon="8.0012317"><ele>5.571428571428571</ele><time>2026-05-02T06:36:46.256Z</time></trkpt><trkpt lat="43.86937" lon="8.00115"><ele>5.714285714285714</ele><time>2026-05-02T06:36:48.256Z</time></trkpt><trkpt lat="43.86933" lon="8.00106"><ele>5.857142857142857</ele><time>2026-05-02T06:36:50.256Z</time></trkpt><trkpt lat="43.8692883" lon="8.0009717"><ele>6.0</ele><time>2026-05-02T06:36:52.257Z</time></trkpt><trkpt lat="43.86925" lon="8.000885"><ele>5.5</ele><time>2026-05-02T06:36:54.256Z</time></trkpt><trkpt lat="43.8691983" lon="8.0007883"><ele>5.0</ele><time>2026-05-02T06:36:56.257Z</time></trkpt><trkpt lat="43.8691533" lon="8.0006983"><ele>4.5</ele><time>2026-05-02T06:36:58.256Z</time></trkpt><trkpt lat="43.86911" lon="8.0006083"><ele>4.0</ele><time>2026-05-02T06:37:00.256Z</time></trkpt><trkpt lat="43.86907" lon="8.0005217"><ele>3.5</ele><time>2026-05-02T06:37:02.256Z</time></trkpt><trkpt lat="43.86902" lon="8.000425"><ele>3.0</ele><time>2026-05-02T06:37:04.256Z</time></trkpt><trkpt lat="43.8689883" lon="8.0003433"><ele>2.9999999999999996</ele><time>2026-05-02T06:37:06.256Z</time></trkpt><trkpt lat="43.8689467" lon="8.00026"><ele>3.0</ele><time>2026-05-02T06:37:08.256Z</time></trkpt><trkpt lat="43.868915" lon="8.00018"><ele>3.0</ele><time>2026-05-02T06:37:10.256Z</time></trkpt><trkpt lat="43.868885" lon="8.0001"><ele>3.0</ele><time>2026-05-02T06:37:12.256Z</time></trkpt><trkpt lat="43.86885" lon="8.0000217"><ele>3.0</ele><time>2026-05-02T06:37:14.256Z</time></trkpt><trkpt lat="43.8688117" lon="7.9999433"><ele>2.9999999999999996</ele><time>2026-05-02T06:37:16.256Z</time></trkpt><trkpt lat="43.868765" lon="7.9998283"><ele>3.0</ele><time>2026-05-02T06:37:19.256Z</time></trkpt><trkpt lat="43.8687233" lon="7.99973"><ele>3.0</ele><time>2026-05-02T06:37:21.256Z</time></trkpt><trkpt lat="43.8686733" lon="7.9996317"><ele>3.0</ele><time>2026-05-02T06:37:23.256Z</time></trkpt><trkpt lat="43.8686167" lon="7.9995283"><ele>3.0</ele><time>2026-05-02T06:37:25.256Z</time></trkpt><trkpt lat="43.868565" lon="7.9994267"><ele>3.0</ele><time>2026-05-02T06:37:27.256Z</time></trkpt><trkpt lat="43.868515" lon="7.9993283"><ele>3.0</ele><time>2026-05-02T06:37:29.256Z</time></trkpt><trkpt lat="43.868455" lon="7.9992317"><ele>3.0</ele><time>2026-05-02T06:37:31.257Z</time></trkpt><trkpt lat="43.8683967" lon="7.999135"><ele>3.0</ele><time>2026-05-02T06:37:33.257Z</time></trkpt><trkpt lat="43.8683517" lon="7.999045"><ele>3.0</ele><time>2026-05-02T06:37:35.256Z</time></trkpt><trkpt lat="43.8683067" lon="7.9989533"><ele>3.0</ele><time>2026-05-02T06:37:37.257Z</time></trkpt><trkpt lat="43.8682583" lon="7.9988533"><ele>3.0</ele><time>2026-05-02T06:37:39.256Z</time></trkpt><trkpt lat="43.8682067" lon="7.998755"><ele>3.0</ele><time>2026-05-02T06:37:41.257Z</time></trkpt><trkpt lat="43.868165" lon="7.9986617"><ele>3.0</ele><time>2026-05-02T06:37:43.256Z</time></trkpt><trkpt lat="43.8681167" lon="7.9985617"><ele>3.0</ele><time>2026-05-02T06:37:45.256Z</time></trkpt><trkpt lat="43.8680583" lon="7.9984533"><ele>3.0</ele><time>2026-05-02T06:37:47.257Z</time></trkpt><trkpt lat="43.8679883" lon="7.9983283"><ele>3.0</ele><time>2026-05-02T06:37:49.256Z</time></trkpt><trkpt lat="43.867945" lon="7.998255"><ele>3.0</ele><time>2026-05-02T06:37:50.256Z</time></trkpt><trkpt lat="43.86787" lon="7.9981483"><ele>3.0</ele><time>2026-05-02T06:37:52.256Z</time></trkpt><trkpt lat="43.86783" lon="7.9980567"><ele>3.666666666666667</ele><time>2026-05-02T06:37:54.256Z</time></trkpt><trkpt lat="43.8678083" lon="7.9979733"><ele>4.333333333333334</ele><time>2026-05-02T06:37:56.256Z</time></trkpt><trkpt lat="43.8677733" lon="7.9978867"><ele>5.0</ele><time>2026-05-02T06:37:58.256Z</time></trkpt><trkpt lat="43.8677283" lon="7.9977817"><ele>5.666666666666667</ele><time>2026-05-02T06:38:01.256Z</time></trkpt><trkpt lat="43.8676933" lon="7.9976967"><ele>6.333333333333334</ele><time>2026-05-02T06:38:03.256Z</time></trkpt><trkpt lat="43.8676583" lon="7.9975983"><ele>7.0</ele><time>2026-05-02T06:38:05.257Z</time></trkpt><trkpt lat="43.86761" lon="7.9974933"><ele>7.000000000000001</ele><time>2026-05-02T06:38:07.256Z</time></trkpt><trkpt lat="43.8675733" lon="7.9974083"><ele>7.0</ele><time>2026-05-02T06:38:09.256Z</time></trkpt><trkpt lat="43.8675267" lon="7.9973017"><ele>7.0</ele><time>2026-05-02T06:38:11.256Z</time></trkpt><trkpt lat="43.8674883" lon="7.9972217"><ele>7.0</ele><time>2026-05-02T06:38:13.256Z</time></trkpt><trkpt lat="43.86744" lon="7.9971183"><ele>7.000000000000001</ele><time>2026-05-02T06:38:15.256Z</time></trkpt><trkpt lat="43.867395" lon="7.9970167"><ele>7.0</ele><time>2026-05-02T06:38:17.256Z</time></trkpt><trkpt lat="43.8673517" lon="7.99692"><ele>7.000000000000001</ele><time>2026-05-02T06:38:19.257Z</time></trkpt><trkpt lat="43.86731" lon="7.9968267"><ele>7.0</ele><time>2026-05-02T06:38:21.256Z</time></trkpt><trkpt lat="43.8672783" lon="7.99672"><ele>7.0</ele><time>2026-05-02T06:38:23.257Z</time></trkpt><trkpt lat="43.8672367" lon="7.9966317"><ele>7.0</ele><time>2026-05-02T06:38:25.256Z</time></trkpt><trkpt lat="43.8671933" lon="7.996545"><ele>7.000000000000001</ele><time>2026-05-02T06:38:27.257Z</time></trkpt><trkpt lat="43.86715" lon="7.996455"><ele>7.0</ele><time>2026-05-02T06:38:29.256Z</time></trkpt><trkpt lat="43.86711" lon="7.99635"><ele>9.166666666666668</ele><time>2026-05-02T06:38:31.256Z</time></trkpt><trkpt lat="43.8670617" lon="7.9962517"><ele>11.333333333333334</ele><time>2026-05-02T06:38:33.256Z</time></trkpt><trkpt lat="43.86702" lon="7.99616"><ele>13.5</ele><time>2026-05-02T06:38:35.256Z</time></trkpt><trkpt lat="43.866965" lon="7.9960667"><ele>15.666666666666668</ele><time>2026-05-02T06:38:37.257Z</time></trkpt><trkpt lat="43.86691" lon="7.9959833"><ele>17.833333333333336</ele><time>2026-05-02T06:38:39.256Z</time></trkpt><trkpt lat="43.8668617" lon="7.9958867"><ele>20.0</ele><time>2026-05-02T06:38:41.256Z</time></trkpt><trkpt lat="43.8668117" lon="7.9957883"><ele>18.166666666666668</ele><time>2026-05-02T06:38:43.256Z</time></trkpt><trkpt lat="43.8667667" lon="7.995695"><ele>16.333333333333336</ele><time>2026-05-02T06:38:45.256Z</time></trkpt><trkpt lat="43.866725" lon="7.9955883"><ele>14.5</ele><time>2026-05-02T06:38:47.256Z</time></trkpt><trkpt lat="43.8666733" lon="7.9954883"><ele>12.666666666666668</ele><time>2026-05-02T06:38:48.256Z</time></trkpt><trkpt lat="43.866625" lon="7.9954067"><ele>10.833333333333334</ele><time>2026-05-02T06:38:49.256Z</time></trkpt><trkpt lat="43.866595" lon="7.9953183"><ele>9.0</ele><time>2026-05-02T06:38:51.256Z</time></trkpt><trkpt lat="43.8665533" lon="7.9952033"><ele>9.0</ele><time>2026-05-02T06:38:53.256Z</time></trkpt><trkpt lat="43.8665083" lon="7.9950817"><ele>9.0</ele><time>2026-05-02T06:38:55.256Z</time></trkpt><trkpt lat="43.8664567" lon="7.9949667"><ele>9.0</ele><time>2026-05-02T06:38:57.257Z</time></trkpt><trkpt lat="43.8667283" lon="7.9953617"><ele>36.0</ele><time>2026-05-02T06:38:59.257Z</time></trkpt><trkpt lat="43.8656167" lon="7.9931733"><ele>36.0</ele><time>2026-05-02T06:39:36.256Z</time></trkpt><trkpt lat="43.865595" lon="7.9930767"><ele>36.0</ele><time>2026-05-02T06:39:38.256Z</time></trkpt><trkpt lat="43.8655433" lon="7.99299"><ele>36.0</ele><time>2026-05-02T06:39:40.256Z</time></trkpt><trkpt lat="43.8655067" lon="7.99288"><ele>36.0</ele><time>2026-05-02T06:39:42.256Z</time></trkpt><trkpt lat="43.86547" lon="7.9927733"><ele>36.0</ele><time>2026-05-02T06:39:44.256Z</time></trkpt><trkpt lat="43.8654367" lon="7.9926717"><ele>36.0</ele><time>2026-05-02T06:39:46.256Z</time></trkpt><trkpt lat="43.8654" lon="7.992565"><ele>38.166666666666664</ele><time>2026-05-02T06:39:48.256Z</time></trkpt><trkpt lat="43.8653633" lon="7.9924567"><ele>40.33333333333333</ele><time>2026-05-02T06:39:50.257Z</time></trkpt><trkpt lat="43.86533" lon="7.9923433"><ele>42.5</ele><time>2026-05-02T06:39:52.256Z</time></trkpt><trkpt lat="43.8652967" lon="7.9922383"><ele>44.666666666666664</ele><time>2026-05-02T06:39:54.256Z</time></trkpt><trkpt lat="43.8652733" lon="7.992135"><ele>46.83333333333333</ele><time>2026-05-02T06:39:56.257Z</time></trkpt><trkpt lat="43.8652483" lon="7.9920367"><ele>49.0</ele><time>2026-05-02T06:39:58.257Z</time></trkpt><trkpt lat="43.8652133" lon="7.991915"><ele>48.99999999999999</ele><time>2026-05-02T06:40:00.256Z</time></trkpt><trkpt lat="43.8651783" lon="7.9918033"><ele>49.0</ele><time>2026-05-02T06:40:02.257Z</time></trkpt><trkpt lat="43.8651533" lon="7.9916933"><ele>49.0</ele><time>2026-05-02T06:40:04.257Z</time></trkpt><trkpt lat="43.86513" lon="7.9915867"><ele>49.0</ele><time>2026-05-02T06:40:06.256Z</time></trkpt><trkpt lat="43.8651083" lon="7.9914817"><ele>48.99999999999999</ele><time>2026-05-02T06:40:08.256Z</time></trkpt><trkpt lat="43.8650933" lon="7.991375"><ele>49.0</ele><time>2026-05-02T06:40:10.256Z</time></trkpt><trkpt lat="43.8650883" lon="7.99126"><ele>44.33333333333333</ele><time>2026-05-02T06:40:12.256Z</time></trkpt><trkpt lat="43.86507" lon="7.9911533"><ele>39.666666666666664</ele><time>2026-05-02T06:40:14.256Z</time></trkpt><trkpt lat="43.8650517" lon="7.9910433"><ele>35.0</ele><time>2026-05-02T06:40:16.256Z</time></trkpt><trkpt lat="43.865025" lon="7.990935"><ele>30.333333333333332</ele><time>2026-05-02T06:40:18.257Z</time></trkpt><trkpt lat="43.865" lon="7.9908283"><ele>25.666666666666664</ele><time>2026-05-02T06:40:20.257Z</time></trkpt><trkpt lat="43.8649717" lon="7.990725"><ele>21.0</ele><time>2026-05-02T06:40:22.256Z</time></trkpt><trkpt lat="43.8649533" lon="7.9906117"><ele>21.0</ele><time>2026-05-02T06:40:24.256Z</time></trkpt><trkpt lat="43.8649317" lon="7.9905017"><ele>21.0</ele><time>2026-05-02T06:40:26.256Z</time></trkpt><trkpt lat="43.8648983" lon="7.990395"><ele>21.0</ele><time>2026-05-02T06:40:28.257Z</time></trkpt><trkpt lat="43.864875" lon="7.9902833"><ele>21.0</ele><time>2026-05-02T06:40:30.256Z</time></trkpt><trkpt lat="43.8648417" lon="7.9901783"><ele>21.0</ele><time>2026-05-02T06:40:32.256Z</time></trkpt><trkpt lat="43.8648133" lon="7.9900733"><ele>21.0</ele><time>2026-05-02T06:40:34.256Z</time></trkpt><trkpt lat="43.864795" lon="7.9899583"><ele>22.333333333333332</ele><time>2026-05-02T06:40:36.256Z</time></trkpt><trkpt lat="43.86477" lon="7.9898483"><ele>23.666666666666664</ele><time>2026-05-02T06:40:38.256Z</time></trkpt><trkpt lat="43.86474" lon="7.9897483"><ele>25.0</ele><time>2026-05-02T06:40:40.256Z</time></trkpt><trkpt lat="43.8647183" lon="7.9896417"><ele>26.333333333333332</ele><time>2026-05-02T06:40:42.257Z</time></trkpt><trkpt lat="43.8646967" lon="7.9895333"><ele>27.666666666666664</ele><time>2026-05-02T06:40:44.257Z</time></trkpt><trkpt lat="43.86468" lon="7.9894233"><ele>29.0</ele><time>2026-05-02T06:40:46.256Z</time></trkpt><trkpt lat="43.864655" lon="7.9893183"><ele>28.999999999999996</ele><time>2026-05-02T06:40:48.256Z</time></trkpt><trkpt lat="43.8646417" lon="7.9892067"><ele>29.0</ele><time>2026-05-02T06:40:50.257Z</time></trkpt><trkpt lat="43.8646317" lon="7.98909"><ele>29.0</ele><time>2026-05-02T06:40:52.257Z</time></trkpt><trkpt lat="43.8646233" lon="7.9889717"><ele>29.0</ele><time>2026-05-02T06:40:54.256Z</time></trkpt><trkpt lat="43.864615" lon="7.98885"><ele>28.999999999999996</ele><time>2026-05-02T06:40:56.257Z</time></trkpt><trkpt lat="43.8646017" lon="7.9887483"><ele>29.0</ele><time>2026-05-02T06:40:58.256Z</time></trkpt><trkpt lat="43.8646" lon="7.9886283"><ele>30.333333333333332</ele><time>2026-05-02T06:41:00.257Z</time></trkpt><trkpt lat="43.8645917" lon="7.98851"><ele>31.666666666666664</ele><time>2026-05-02T06:41:02.256Z</time></trkpt><trkpt lat="43.86458" lon="7.9883933"><ele>33.0</ele><time>2026-05-02T06:41:04.256Z</time></trkpt><trkpt lat="43.8645783" lon="7.9882567"><ele>34.333333333333336</ele><time>2026-05-02T06:41:06.256Z</time></trkpt><trkpt lat="43.86458" lon="7.988125"><ele>35.66666666666667</ele><time>2026-05-02T06:41:08.256Z</time></trkpt><trkpt lat="43.8645783" lon="7.9880067"><ele>37.0</ele><time>2026-05-02T06:41:10.257Z</time></trkpt><trkpt lat="43.8645733" lon="7.987885"><ele>37.333333333333336</ele><time>2026-05-02T06:41:12.256Z</time></trkpt><trkpt lat="43.8645617" lon="7.9877683"><ele>37.66666666666667</ele><time>2026-05-02T06:41:14.257Z</time></trkpt><trkpt lat="43.86456" lon="7.9876417"><ele>38.0</ele><time>2026-05-02T06:41:16.256Z</time></trkpt><trkpt lat="43.864555" lon="7.9875233"><ele>38.333333333333336</ele><time>2026-05-02T06:41:18.256Z</time></trkpt><trkpt lat="43.864545" lon="7.98741"><ele>38.666666666666664</ele><time>2026-05-02T06:41:20.256Z</time></trkpt><trkpt lat="43.86454" lon="7.9872933"><ele>39.0</ele><time>2026-05-02T06:41:22.256Z</time></trkpt><trkpt lat="43.86453" lon="7.9871783"><ele>40.333333333333336</ele><time>2026-05-02T06:41:24.256Z</time></trkpt><trkpt lat="43.86453" lon="7.9870567"><ele>41.666666666666664</ele><time>2026-05-02T06:41:26.256Z</time></trkpt><trkpt lat="43.864535" lon="7.9869333"><ele>43.0</ele><time>2026-05-02T06:41:28.256Z</time></trkpt><trkpt lat="43.864535" lon="7.986815"><ele>44.33333333333333</ele><time>2026-05-02T06:41:30.256Z</time></trkpt><trkpt lat="43.8645233" lon="7.9867033"><ele>45.666666666666664</ele><time>2026-05-02T06:41:32.256Z</time></trkpt><trkpt lat="43.86452" lon="7.9865817"><ele>47.0</ele><time>2026-05-02T06:41:34.256Z</time></trkpt><trkpt lat="43.8645" lon="7.98647"><ele>47.666666666666664</ele><time>2026-05-02T06:41:36.256Z</time></trkpt><trkpt lat="43.8644933" lon="7.9863617"><ele>48.33333333333333</ele><time>2026-05-02T06:41:38.256Z</time></trkpt><trkpt lat="43.8644867" lon="7.986245"><ele>49.0</ele><time>2026-05-02T06:41:40.256Z</time></trkpt><trkpt lat="43.8644883" lon="7.9861167"><ele>49.666666666666664</ele><time>2026-05-02T06:41:42.256Z</time></trkpt><trkpt lat="43.8644883" lon="7.98599"><ele>50.333333333333336</ele><time>2026-05-02T06:41:44.256Z</time></trkpt><trkpt lat="43.8644833" lon="7.9858633"><ele>51.0</ele><time>2026-05-02T06:41:46.256Z</time></trkpt><trkpt lat="43.8644833" lon="7.985745"><ele>51.166666666666664</ele><time>2026-05-02T06:41:48.256Z</time></trkpt><trkpt lat="43.86448" lon="7.9856217"><ele>51.33333333333333</ele><time>2026-05-02T06:41:50.256Z</time></trkpt><trkpt lat="43.864475" lon="7.9855"><ele>51.5</ele><time>2026-05-02T06:41:52.256Z</time></trkpt><trkpt lat="43.8644717" lon="7.98538"><ele>51.666666666666664</ele><time>2026-05-02T06:41:54.256Z</time></trkpt><trkpt lat="43.8644633" lon="7.98526"><ele>51.83333333333333</ele><time>2026-05-02T06:41:56.257Z</time></trkpt><trkpt lat="43.8644583" lon="7.9851417"><ele>52.0</ele><time>2026-05-02T06:41:58.256Z</time></trkpt><trkpt lat="43.8644433" lon="7.98503"><ele>51.33333333333333</ele><time>2026-05-02T06:42:00.256Z</time></trkpt><trkpt lat="43.8644317" lon="7.9849183"><ele>50.666666666666664</ele><time>2026-05-02T06:42:02.256Z</time></trkpt><trkpt lat="43.8644083" lon="7.984815"><ele>50.0</ele><time>2026-05-02T06:42:04.256Z</time></trkpt><trkpt lat="43.864385" lon="7.9847017"><ele>49.33333333333333</ele><time>2026-05-02T06:42:06.256Z</time></trkpt><trkpt lat="43.8643867" lon="7.9845783"><ele>48.666666666666664</ele><time>2026-05-02T06:42:08.256Z</time></trkpt><trkpt lat="43.8643767" lon="7.9844533"><ele>48.0</ele><time>2026-05-02T06:42:10.256Z</time></trkpt><trkpt lat="43.864375" lon="7.9843317"><ele>48.0</ele><time>2026-05-02T06:42:12.257Z</time></trkpt><trkpt lat="43.86436" lon="7.9842117"><ele>48.0</ele><time>2026-05-02T06:42:14.256Z</time></trkpt><trkpt lat="43.8643567" lon="7.9841033"><ele>48.0</ele><time>2026-05-02T06:42:16.256Z</time></trkpt><trkpt lat="43.8643433" lon="7.9839917"><ele>48.0</ele><time>2026-05-02T06:42:18.256Z</time></trkpt><trkpt lat="43.8643083" lon="7.9838617"><ele>48.0</ele><time>2026-05-02T06:42:20.256Z</time></trkpt><trkpt lat="43.8642733" lon="7.9837417"><ele>48.0</ele><time>2026-05-02T06:42:22.256Z</time></trkpt><trkpt lat="43.8642483" lon="7.9836267"><ele>42.833333333333336</ele><time>2026-05-02T06:42:24.256Z</time></trkpt><trkpt lat="43.8642167" lon="7.983515"><ele>37.666666666666664</ele><time>2026-05-02T06:42:26.256Z</time></trkpt><trkpt lat="43.8641883" lon="7.983405"><ele>32.5</ele><time>2026-05-02T06:42:28.256Z</time></trkpt><trkpt lat="43.8641767" lon="7.9833083"><ele>27.333333333333336</ele><time>2026-05-02T06:42:30.256Z</time></trkpt><trkpt lat="43.8641517" lon="7.9831883"><ele>22.166666666666668</ele><time>2026-05-02T06:42:32.256Z</time></trkpt><trkpt lat="43.8641133" lon="7.9830783"><ele>17.0</ele><time>2026-05-02T06:42:34.256Z</time></trkpt><trkpt lat="43.8640917" lon="7.9829517"><ele>17.0</ele><time>2026-05-02T06:42:36.256Z</time></trkpt><trkpt lat="43.86407" lon="7.9828167"><ele>17.0</ele><time>2026-05-02T06:42:38.257Z</time></trkpt><trkpt lat="43.8640517" lon="7.9826917"><ele>17.0</ele><time>2026-05-02T06:42:40.256Z</time></trkpt><trkpt lat="43.8640317" lon="7.9825667"><ele>17.0</ele><time>2026-05-02T06:42:42.256Z</time></trkpt><trkpt lat="43.8640083" lon="7.9824367"><ele>17.0</ele><time>2026-05-02T06:42:44.256Z</time></trkpt><trkpt lat="43.8639783" lon="7.982315"><ele>19.4</ele><time>2026-05-02T06:42:46.257Z</time></trkpt><trkpt lat="43.8639533" lon="7.9821867"><ele>21.799999999999997</ele><time>2026-05-02T06:42:48.256Z</time></trkpt><trkpt lat="43.8639333" lon="7.9820567"><ele>24.2</ele><time>2026-05-02T06:42:50.257Z</time></trkpt><trkpt lat="43.86392" lon="7.98192"><ele>26.599999999999998</ele><time>2026-05-02T06:42:52.256Z</time></trkpt><trkpt lat="43.8639" lon="7.981785"><ele>29.0</ele><time>2026-05-02T06:42:54.256Z</time></trkpt><trkpt lat="43.8638733" lon="7.98166"><ele>31.2</ele><time>2026-05-02T06:42:56.257Z</time></trkpt><trkpt lat="43.8638383" lon="7.9815367"><ele>33.4</ele><time>2026-05-02T06:42:58.256Z</time></trkpt><trkpt lat="43.86381" lon="7.9814067"><ele>35.6</ele><time>2026-05-02T06:43:00.256Z</time></trkpt><trkpt lat="43.863785" lon="7.98128"><ele>37.8</ele><time>2026-05-02T06:43:02.257Z</time></trkpt><trkpt lat="43.863765" lon="7.9811433"><ele>40.0</ele><time>2026-05-02T06:43:04.256Z</time></trkpt><trkpt lat="43.8637433" lon="7.9810117"><ele>40.0</ele><time>2026-05-02T06:43:06.256Z</time></trkpt><trkpt lat="43.86372" lon="7.9808917"><ele>40.0</ele><time>2026-05-02T06:43:08.256Z</time></trkpt><trkpt lat="43.8636917" lon="7.9807667"><ele>40.0</ele><time>2026-05-02T06:43:10.256Z</time></trkpt><trkpt lat="43.86366" lon="7.9806467"><ele>40.0</ele><time>2026-05-02T06:43:12.256Z</time></trkpt><trkpt lat="43.8636317" lon="7.9805233"><ele>40.0</ele><time>2026-05-02T06:43:14.256Z</time></trkpt><trkpt lat="43.8635983" lon="7.9804033"><ele>42.2</ele><time>2026-05-02T06:43:16.257Z</time></trkpt><trkpt lat="43.86356" lon="7.9802683"><ele>44.4</ele><time>2026-05-02T06:43:18.257Z</time></trkpt><trkpt lat="43.8635217" lon="7.9801383"><ele>46.599999999999994</ele><time>2026-05-02T06:43:20.257Z</time></trkpt><trkpt lat="43.863475" lon="7.980025"><ele>48.8</ele><time>2026-05-02T06:43:22.256Z</time></trkpt><trkpt lat="43.863425" lon="7.97991"><ele>51.0</ele><time>2026-05-02T06:43:24.256Z</time></trkpt><trkpt lat="43.8633783" lon="7.97979"><ele>46.4</ele><time>2026-05-02T06:43:26.256Z</time></trkpt><trkpt lat="43.8633417" lon="7.9796567"><ele>41.8</ele><time>2026-05-02T06:43:28.256Z</time></trkpt><trkpt lat="43.8633067" lon="7.97953"><ele>37.199999999999996</ele><time>2026-05-02T06:43:30.256Z</time></trkpt><trkpt lat="43.8632667" lon="7.9794"><ele>32.599999999999994</ele><time>2026-05-02T06:43:32.256Z</time></trkpt><trkpt lat="43.86323" lon="7.979275"><ele>28.0</ele><time>2026-05-02T06:43:34.256Z</time></trkpt><trkpt lat="43.8632" lon="7.979145"><ele>28.0</ele><time>2026-05-02T06:43:36.256Z</time></trkpt><trkpt lat="43.8631667" lon="7.9790233"><ele>27.999999999999996</ele><time>2026-05-02T06:43:38.256Z</time></trkpt><trkpt lat="43.8631433" lon="7.97889"><ele>27.999999999999996</ele><time>2026-05-02T06:43:40.256Z</time></trkpt><trkpt lat="43.8631217" lon="7.97876"><ele>28.0</ele><time>2026-05-02T06:43:42.256Z</time></trkpt><trkpt lat="43.8631017" lon="7.97864"><ele>28.0</ele><time>2026-05-02T06:43:44.256Z</time></trkpt><trkpt lat="43.86308" lon="7.9785233"><ele>28.0</ele><time>2026-05-02T06:43:46.256Z</time></trkpt><trkpt lat="43.863065" lon="7.978395"><ele>27.999999999999996</ele><time>2026-05-02T06:43:48.256Z</time></trkpt><trkpt lat="43.8630483" lon="7.9782417"><ele>27.999999999999996</ele><time>2026-05-02T06:43:50.256Z</time></trkpt><trkpt lat="43.8630367" lon="7.978095"><ele>28.0</ele><time>2026-05-02T06:43:52.256Z</time></trkpt><trkpt lat="43.8630233" lon="7.9779433"><ele>28.0</ele><time>2026-05-02T06:43:54.256Z</time></trkpt><trkpt lat="43.863" lon="7.9777883"><ele>29.25</ele><time>2026-05-02T06:43:56.256Z</time></trkpt><trkpt lat="43.8629783" lon="7.9776283"><ele>30.5</ele><time>2026-05-02T06:43:58.256Z</time></trkpt><trkpt lat="43.8629617" lon="7.977465"><ele>31.75</ele><time>2026-05-02T06:44:00.256Z</time></trkpt><trkpt lat="43.8629467" lon="7.9773"><ele>33.0</ele><time>2026-05-02T06:44:02.256Z</time></trkpt><trkpt lat="43.862935" lon="7.977135"><ele>34.0</ele><time>2026-05-02T06:44:04.256Z</time></trkpt><trkpt lat="43.8629133" lon="7.9769683"><ele>35.0</ele><time>2026-05-02T06:44:06.257Z</time></trkpt><trkpt lat="43.862885" lon="7.9768083"><ele>36.0</ele><time>2026-05-02T06:44:08.257Z</time></trkpt><trkpt lat="43.862855" lon="7.9766567"><ele>37.0</ele><time>2026-05-02T06:44:10.256Z</time></trkpt><trkpt lat="43.8628217" lon="7.976515"><ele>37.75</ele><time>2026-05-02T06:44:12.257Z</time></trkpt><trkpt lat="43.8627917" lon="7.97637"><ele>38.5</ele><time>2026-05-02T06:44:14.256Z</time></trkpt><trkpt lat="43.86277" lon="7.9762067"><ele>39.25</ele><time>2026-05-02T06:44:16.256Z</time></trkpt><trkpt lat="43.8627267" lon="7.9760517"><ele>40.0</ele><time>2026-05-02T06:44:18.257Z</time></trkpt><trkpt lat="43.8626783" lon="7.9759033"><ele>40.0</ele><time>2026-05-02T06:44:20.256Z</time></trkpt><trkpt lat="43.86262" lon="7.975765"><ele>40.0</ele><time>2026-05-02T06:44:22.256Z</time></trkpt><trkpt lat="43.862565" lon="7.97562"><ele>40.0</ele><time>2026-05-02T06:44:24.256Z</time></trkpt><trkpt lat="43.86251" lon="7.975475"><ele>40.0</ele><time>2026-05-02T06:44:26.257Z</time></trkpt><trkpt lat="43.862445" lon="7.9753283"><ele>36.5</ele><time>2026-05-02T06:44:28.256Z</time></trkpt><trkpt lat="43.8623733" lon="7.9751917"><ele>33.0</ele><time>2026-05-02T06:44:30.256Z</time></trkpt><trkpt lat="43.86231" lon="7.9750567"><ele>29.5</ele><time>2026-05-02T06:44:32.256Z</time></trkpt><trkpt lat="43.8622417" lon="7.9749267"><ele>26.0</ele><time>2026-05-02T06:44:34.256Z</time></trkpt><trkpt lat="43.8621717" lon="7.9748"><ele>26.0</ele><time>2026-05-02T06:44:36.256Z</time></trkpt><trkpt lat="43.8621033" lon="7.9746717"><ele>26.0</ele><time>2026-05-02T06:44:38.256Z</time></trkpt><trkpt lat="43.8620317" lon="7.9745483"><ele>26.0</ele><time>2026-05-02T06:44:40.256Z</time></trkpt><trkpt lat="43.8619683" lon="7.9744183"><ele>26.0</ele><time>2026-05-02T06:44:42.256Z</time></trkpt><trkpt lat="43.8619083" lon="7.97428"><ele>28.0</ele><time>2026-05-02T06:44:44.256Z</time></trkpt><trkpt lat="43.8618517" lon="7.9741367"><ele>30.0</ele><time>2026-05-02T06:44:46.256Z</time></trkpt><trkpt lat="43.8617967" lon="7.97399"><ele>32.0</ele><time>2026-05-02T06:44:48.257Z</time></trkpt><trkpt lat="43.8617433" lon="7.9738467"><ele>34.0</ele><time>2026-05-02T06:44:50.256Z</time></trkpt><trkpt lat="43.8617117" lon="7.97376"><ele>36.0</ele><time>2026-05-02T06:44:51.256Z</time></trkpt><trkpt lat="43.8616817" lon="7.9736817"><ele>31.75</ele><time>2026-05-02T06:44:52.256Z</time></trkpt><trkpt lat="43.8616283" lon="7.97353"><ele>27.5</ele><time>2026-05-02T06:44:54.256Z</time></trkpt><trkpt lat="43.8615917" lon="7.9733717"><ele>23.25</ele><time>2026-05-02T06:44:56.256Z</time></trkpt><trkpt lat="43.861555" lon="7.97322"><ele>19.0</ele><time>2026-05-02T06:44:58.256Z</time></trkpt><trkpt lat="43.86151" lon="7.9730667"><ele>19.0</ele><time>2026-05-02T06:45:00.256Z</time></trkpt><trkpt lat="43.8614783" lon="7.972915"><ele>19.0</ele><time>2026-05-02T06:45:02.256Z</time></trkpt><trkpt lat="43.8614533" lon="7.97276"><ele>19.0</ele><time>2026-05-02T06:45:04.256Z</time></trkpt><trkpt lat="43.8614333" lon="7.9726083"><ele>19.0</ele><time>2026-05-02T06:45:06.256Z</time></trkpt><trkpt lat="43.86142" lon="7.97246"><ele>19.0</ele><time>2026-05-02T06:45:08.256Z</time></trkpt><trkpt lat="43.8614083" lon="7.9723033"><ele>19.2</ele><time>2026-05-02T06:45:10.256Z</time></trkpt><trkpt lat="43.8613967" lon="7.9721367"><ele>19.4</ele><time>2026-05-02T06:45:12.256Z</time></trkpt><trkpt lat="43.8613783" lon="7.97197"><ele>19.6</ele><time>2026-05-02T06:45:14.256Z</time></trkpt><trkpt lat="43.8613583" lon="7.9717983"><ele>19.8</ele><time>2026-05-02T06:45:16.256Z</time></trkpt><trkpt lat="43.86135" lon="7.971705"><ele>20.0</ele><time>2026-05-02T06:45:17.256Z</time></trkpt><trkpt lat="43.86134" lon="7.971615"><ele>20.0</ele><time>2026-05-02T06:45:18.257Z</time></trkpt><trkpt lat="43.8613267" lon="7.9715233"><ele>20.0</ele><time>2026-05-02T06:45:19.256Z</time></trkpt><trkpt lat="43.861305" lon="7.9714283"><ele>20.0</ele><time>2026-05-02T06:45:20.256Z</time></trkpt><trkpt lat="43.8612833" lon="7.97133"><ele>20.0</ele><time>2026-05-02T06:45:21.256Z</time></trkpt><trkpt lat="43.8612567" lon="7.9712317"><ele>20.0</ele><time>2026-05-02T06:45:22.257Z</time></trkpt><trkpt lat="43.8612267" lon="7.9711333"><ele>20.0</ele><time>2026-05-02T06:45:23.257Z</time></trkpt><trkpt lat="43.861195" lon="7.971035"><ele>20.0</ele><time>2026-05-02T06:45:24.257Z</time></trkpt><trkpt lat="43.86116" lon="7.9709367"><ele>20.333333333333336</ele><time>2026-05-02T06:45:25.257Z</time></trkpt><trkpt lat="43.861125" lon="7.97084"><ele>20.666666666666668</ele><time>2026-05-02T06:45:26.256Z</time></trkpt><trkpt lat="43.8610867" lon="7.9707433"><ele>21.0</ele><time>2026-05-02T06:45:27.256Z</time></trkpt><trkpt lat="43.8610517" lon="7.97065"><ele>21.333333333333332</ele><time>2026-05-02T06:45:28.256Z</time></trkpt><trkpt lat="43.8610083" lon="7.97056"><ele>21.666666666666664</ele><time>2026-05-02T06:45:29.256Z</time></trkpt><trkpt lat="43.8609667" lon="7.9704783"><ele>22.0</ele><time>2026-05-02T06:45:30.256Z</time></trkpt><trkpt lat="43.8609317" lon="7.9704"><ele>19.200000000000003</ele><time>2026-05-02T06:45:31.256Z</time></trkpt><trkpt lat="43.860875" lon="7.97026"><ele>16.400000000000002</ele><time>2026-05-02T06:45:33.256Z</time></trkpt><trkpt lat="43.860825" lon="7.9701217"><ele>13.600000000000001</ele><time>2026-05-02T06:45:35.256Z</time></trkpt><trkpt lat="43.8607783" lon="7.9699933"><ele>10.8</ele><time>2026-05-02T06:45:37.257Z</time></trkpt><trkpt lat="43.8607267" lon="7.9698767"><ele>8.0</ele><time>2026-05-02T06:45:39.256Z</time></trkpt><trkpt lat="43.8606633" lon="7.9697567"><ele>8.0</ele><time>2026-05-02T06:45:41.256Z</time></trkpt><trkpt lat="43.86059" lon="7.9696367"><ele>8.0</ele><time>2026-05-02T06:45:43.257Z</time></trkpt><trkpt lat="43.86051" lon="7.9695217"><ele>8.0</ele><time>2026-05-02T06:45:45.256Z</time></trkpt><trkpt lat="43.8604283" lon="7.9694067"><ele>8.0</ele><time>2026-05-02T06:45:47.256Z</time></trkpt><trkpt lat="43.8603583" lon="7.9692933"><ele>8.0</ele><time>2026-05-02T06:45:49.256Z</time></trkpt><trkpt lat="43.8602867" lon="7.969175"><ele>8.0</ele><time>2026-05-02T06:45:51.256Z</time></trkpt><trkpt lat="43.8602067" lon="7.9690367"><ele>8.0</ele><time>2026-05-02T06:45:53.256Z</time></trkpt><trkpt lat="43.8601667" lon="7.9689683"><ele>8.0</ele><time>2026-05-02T06:45:54.256Z</time></trkpt><trkpt lat="43.8600783" lon="7.9688333"><ele>8.0</ele><time>2026-05-02T06:45:56.256Z</time></trkpt><trkpt lat="43.8600283" lon="7.9687667"><ele>8.0</ele><time>2026-05-02T06:45:57.256Z</time></trkpt><trkpt lat="43.85998" lon="7.9687017"><ele>7.999999999999999</ele><time>2026-05-02T06:45:58.257Z</time></trkpt><trkpt lat="43.85993" lon="7.9686433"><ele>8.0</ele><time>2026-05-02T06:45:59.256Z</time></trkpt><trkpt lat="43.859875" lon="7.9685883"><ele>8.0</ele><time>2026-05-02T06:46:00.256Z</time></trkpt><trkpt lat="43.8598167" lon="7.9685317"><ele>7.999999999999999</ele><time>2026-05-02T06:46:01.256Z</time></trkpt><trkpt lat="43.85976" lon="7.9684733"><ele>8.0</ele><time>2026-05-02T06:46:02.256Z</time></trkpt><trkpt lat="43.8597033" lon="7.9684167"><ele>8.0</ele><time>2026-05-02T06:46:03.256Z</time></trkpt><trkpt lat="43.8596433" lon="7.968365"><ele>8.0</ele><time>2026-05-02T06:46:04.256Z</time></trkpt><trkpt lat="43.8595817" lon="7.968315"><ele>7.999999999999999</ele><time>2026-05-02T06:46:05.256Z</time></trkpt><trkpt lat="43.859525" lon="7.9682683"><ele>8.0</ele><time>2026-05-02T06:46:06.256Z</time></trkpt><trkpt lat="43.8594667" lon="7.96822"><ele>8.0</ele><time>2026-05-02T06:46:07.256Z</time></trkpt><trkpt lat="43.85941" lon="7.968175"><ele>7.999999999999999</ele><time>2026-05-02T06:46:08.256Z</time></trkpt><trkpt lat="43.8593533" lon="7.9681333"><ele>8.0</ele><time>2026-05-02T06:46:09.256Z</time></trkpt><trkpt lat="43.8592933" lon="7.9680883"><ele>8.0</ele><time>2026-05-02T06:46:10.256Z</time></trkpt><trkpt lat="43.859235" lon="7.9680467"><ele>8.0</ele><time>2026-05-02T06:46:11.256Z</time></trkpt><trkpt lat="43.8591783" lon="7.9680083"><ele>7.999999999999999</ele><time>2026-05-02T06:46:12.256Z</time></trkpt><trkpt lat="43.8591183" lon="7.9679717"><ele>8.0</ele><time>2026-05-02T06:46:13.256Z</time></trkpt><trkpt lat="43.8590533" lon="7.9679417"><ele>8.0</ele><time>2026-05-02T06:46:14.256Z</time></trkpt><trkpt lat="43.8589917" lon="7.9679067"><ele>7.999999999999999</ele><time>2026-05-02T06:46:15.256Z</time></trkpt><trkpt lat="43.8589267" lon="7.967875"><ele>8.0</ele><time>2026-05-02T06:46:16.256Z</time></trkpt><trkpt lat="43.858865" lon="7.9678417"><ele>8.0</ele><time>2026-05-02T06:46:17.256Z</time></trkpt><trkpt lat="43.8587417" lon="7.967775"><ele>7.999999999999999</ele><time>2026-05-02T06:46:19.256Z</time></trkpt><trkpt lat="43.85868" lon="7.9677467"><ele>8.0</ele><time>2026-05-02T06:46:20.256Z</time></trkpt><trkpt lat="43.8585633" lon="7.9677"><ele>8.0</ele><time>2026-05-02T06:46:22.256Z</time></trkpt><trkpt lat="43.8584867" lon="7.9676717"><ele>8.0</ele><time>2026-05-02T06:46:23.256Z</time></trkpt><trkpt lat="43.8584183" lon="7.9676467"><ele>7.999999999999999</ele><time>2026-05-02T06:46:24.256Z</time></trkpt><trkpt lat="43.8583567" lon="7.9676233"><ele>8.0</ele><time>2026-05-02T06:46:25.256Z</time></trkpt><trkpt lat="43.8582383" lon="7.9675783"><ele>7.0</ele><time>2026-05-02T06:46:27.256Z</time></trkpt><trkpt lat="43.858135" lon="7.9675317"><ele>6.000000000000001</ele><time>2026-05-02T06:46:29.257Z</time></trkpt><trkpt lat="43.8580183" lon="7.967485"><ele>5.0</ele><time>2026-05-02T06:46:31.257Z</time></trkpt><trkpt lat="43.857955" lon="7.9674633"><ele>4.0</ele><time>2026-05-02T06:46:32.256Z</time></trkpt><trkpt lat="43.8578933" lon="7.9674367"><ele>3.0</ele><time>2026-05-02T06:46:33.256Z</time></trkpt><trkpt lat="43.8577783" lon="7.9673867"><ele>3.5</ele><time>2026-05-02T06:46:35.256Z</time></trkpt><trkpt lat="43.85766" lon="7.96733"><ele>4.0</ele><time>2026-05-02T06:46:37.256Z</time></trkpt><trkpt lat="43.8575983" lon="7.9673033"><ele>4.5</ele><time>2026-05-02T06:46:38.256Z</time></trkpt><trkpt lat="43.8575367" lon="7.9672783"><ele>5.0</ele><time>2026-05-02T06:46:39.256Z</time></trkpt><trkpt lat="43.8574733" lon="7.96725"><ele>5.5</ele><time>2026-05-02T06:46:40.256Z</time></trkpt><trkpt lat="43.8574117" lon="7.9672267"><ele>6.0</ele><time>2026-05-02T06:46:41.257Z</time></trkpt><trkpt lat="43.8573117" lon="7.9671783"><ele>6.0</ele><time>2026-05-02T06:46:43.256Z</time></trkpt><trkpt lat="43.8572" lon="7.9671233"><ele>6.0</ele><time>2026-05-02T06:46:45.256Z</time></trkpt><trkpt lat="43.8570783" lon="7.967075"><ele>6.0</ele><time>2026-05-02T06:46:47.256Z</time></trkpt><trkpt lat="43.8570167" lon="7.96705"><ele>6.0</ele><time>2026-05-02T06:46:48.256Z</time></trkpt><trkpt lat="43.8569417" lon="7.96702"><ele>6.0</ele><time>2026-05-02T06:46:49.256Z</time></trkpt><trkpt lat="43.8568783" lon="7.9669917"><ele>5.999999999999999</ele><time>2026-05-02T06:46:50.256Z</time></trkpt><trkpt lat="43.8568183" lon="7.966965"><ele>6.0</ele><time>2026-05-02T06:46:51.256Z</time></trkpt><trkpt lat="43.8566933" lon="7.9669183"><ele>6.0</ele><time>2026-05-02T06:46:53.257Z</time></trkpt><trkpt lat="43.8566317" lon="7.966895"><ele>6.0</ele><time>2026-05-02T06:46:54.256Z</time></trkpt><trkpt lat="43.85657" lon="7.9668717"><ele>6.0</ele><time>2026-05-02T06:46:55.256Z</time></trkpt><trkpt lat="43.85651" lon="7.966845"><ele>5.999999999999999</ele><time>2026-05-02T06:46:56.256Z</time></trkpt><trkpt lat="43.8564483" lon="7.966825"><ele>6.0</ele><time>2026-05-02T06:46:57.256Z</time></trkpt><trkpt lat="43.8563833" lon="7.9668083"><ele>5.166666666666667</ele><time>2026-05-02T06:46:58.256Z</time></trkpt><trkpt lat="43.8563217" lon="7.96679"><ele>4.333333333333333</ele><time>2026-05-02T06:46:59.256Z</time></trkpt><trkpt lat="43.8562467" lon="7.9667533"><ele>3.5</ele><time>2026-05-02T06:47:01.256Z</time></trkpt><trkpt lat="43.856155" lon="7.9667083"><ele>2.6666666666666665</ele><time>2026-05-02T06:47:03.256Z</time></trkpt><trkpt lat="43.8560617" lon="7.9666667"><ele>1.8333333333333333</ele><time>2026-05-02T06:47:05.257Z</time></trkpt><trkpt lat="43.8559933" lon="7.96663"><ele>1.0</ele><time>2026-05-02T06:47:07.257Z</time></trkpt><trkpt lat="43.8558633" lon="7.9665867"><ele>3.166666666666667</ele><time>2026-05-02T06:47:09.256Z</time></trkpt><trkpt lat="43.85578" lon="7.9665567"><ele>5.333333333333334</ele><time>2026-05-02T06:47:10.256Z</time></trkpt><trkpt lat="43.8557083" lon="7.9665333"><ele>7.5</ele><time>2026-05-02T06:47:11.257Z</time></trkpt><trkpt lat="43.8556467" lon="7.9665117"><ele>9.666666666666668</ele><time>2026-05-02T06:47:12.256Z</time></trkpt><trkpt lat="43.8555467" lon="7.9664617"><ele>11.833333333333334</ele><time>2026-05-02T06:47:14.256Z</time></trkpt><trkpt lat="43.8554617" lon="7.9664217"><ele>14.0</ele><time>2026-05-02T06:47:16.256Z</time></trkpt><trkpt lat="43.8553583" lon="7.9663867"><ele>14.000000000000002</ele><time>2026-05-02T06:47:18.257Z</time></trkpt><trkpt lat="43.8552967" lon="7.96636"><ele>14.0</ele><time>2026-05-02T06:47:19.256Z</time></trkpt><trkpt lat="43.855235" lon="7.9663317"><ele>14.0</ele><time>2026-05-02T06:47:20.256Z</time></trkpt><trkpt lat="43.8551567" lon="7.9662833"><ele>14.0</ele><time>2026-05-02T06:47:22.256Z</time></trkpt><trkpt lat="43.8550383" lon="7.96623"><ele>14.000000000000002</ele><time>2026-05-02T06:47:24.257Z</time></trkpt><trkpt lat="43.8549617" lon="7.9661983"><ele>14.0</ele><time>2026-05-02T06:47:25.256Z</time></trkpt><trkpt lat="43.8548917" lon="7.9661667"><ele>13.166666666666668</ele><time>2026-05-02T06:47:26.256Z</time></trkpt><trkpt lat="43.854785" lon="7.9661067"><ele>12.333333333333334</ele><time>2026-05-02T06:47:28.256Z</time></trkpt><trkpt lat="43.8547233" lon="7.9660767"><ele>11.5</ele><time>2026-05-02T06:47:29.256Z</time></trkpt><trkpt lat="43.8546517" lon="7.9660417"><ele>10.666666666666668</ele><time>2026-05-02T06:47:30.256Z</time></trkpt><trkpt lat="43.8545833" lon="7.966005"><ele>9.833333333333334</ele><time>2026-05-02T06:47:31.256Z</time></trkpt><trkpt lat="43.854525" lon="7.96597"><ele>9.0</ele><time>2026-05-02T06:47:32.256Z</time></trkpt><trkpt lat="43.8544667" lon="7.965935"><ele>9.0</ele><time>2026-05-02T06:47:33.256Z</time></trkpt><trkpt lat="43.8543683" lon="7.9658633"><ele>9.0</ele><time>2026-05-02T06:47:35.257Z</time></trkpt><trkpt lat="43.854255" lon="7.9657883"><ele>9.0</ele><time>2026-05-02T06:47:37.256Z</time></trkpt><trkpt lat="43.8541517" lon="7.9657067"><ele>9.0</ele><time>2026-05-02T06:47:39.256Z</time></trkpt><trkpt lat="43.8540667" lon="7.9656383"><ele>9.666666666666666</ele><time>2026-05-02T06:47:41.256Z</time></trkpt><trkpt lat="43.8540017" lon="7.9655867"><ele>10.333333333333332</ele><time>2026-05-02T06:47:43.256Z</time></trkpt><trkpt lat="43.8539683" lon="7.9654933"><ele>11.0</ele><time>2026-05-02T06:47:46.257Z</time></trkpt><trkpt lat="43.8539267" lon="7.965395"><ele>11.666666666666666</ele><time>2026-05-02T06:47:48.256Z</time></trkpt><trkpt lat="43.85387" lon="7.9652933"><ele>12.333333333333332</ele><time>2026-05-02T06:47:50.256Z</time></trkpt><trkpt lat="43.8538033" lon="7.9652017"><ele>13.0</ele><time>2026-05-02T06:47:52.256Z</time></trkpt><trkpt lat="43.8537233" lon="7.9650883"><ele>13.4</ele><time>2026-05-02T06:47:54.256Z</time></trkpt><trkpt lat="43.8536383" lon="7.9649683"><ele>13.8</ele><time>2026-05-02T06:47:56.256Z</time></trkpt><trkpt lat="43.8535917" lon="7.964825"><ele>14.2</ele><time>2026-05-02T06:47:58.256Z</time></trkpt><trkpt lat="43.8535717" lon="7.9647133"><ele>14.6</ele><time>2026-05-02T06:48:00.256Z</time></trkpt><trkpt lat="43.85357" lon="7.9646167"><ele>15.0</ele><time>2026-05-02T06:48:02.256Z</time></trkpt><trkpt lat="43.85355" lon="7.964525"><ele>15.0</ele><time>2026-05-02T06:48:05.257Z</time></trkpt><trkpt lat="43.8535383" lon="7.964435"><ele>15.0</ele><time>2026-05-02T06:48:11.256Z</time></trkpt><trkpt lat="43.8535133" lon="7.964345"><ele>15.0</ele><time>2026-05-02T06:48:18.256Z</time></trkpt><trkpt lat="43.8534983" lon="7.964235"><ele>15.0</ele><time>2026-05-02T06:48:23.256Z</time></trkpt><trkpt lat="43.8534867" lon="7.9641483"><ele>15.0</ele><time>2026-05-02T06:48:25.256Z</time></trkpt><trkpt lat="43.8534767" lon="7.9640383"><ele>15.0</ele><time>2026-05-02T06:48:27.256Z</time></trkpt><trkpt lat="43.8534667" lon="7.9639017"><ele>14.4</ele><time>2026-05-02T06:48:29.256Z</time></trkpt><trkpt lat="43.8534567" lon="7.9637517"><ele>13.8</ele><time>2026-05-02T06:48:31.256Z</time></trkpt><trkpt lat="43.8534433" lon="7.9636017"><ele>13.2</ele><time>2026-05-02T06:48:33.256Z</time></trkpt><trkpt lat="43.853435" lon="7.9634517"><ele>12.6</ele><time>2026-05-02T06:48:35.256Z</time></trkpt><trkpt lat="43.8534233" lon="7.9632983"><ele>12.0</ele><time>2026-05-02T06:48:37.256Z</time></trkpt><trkpt lat="43.8533817" lon="7.9631567"><ele>11.6</ele><time>2026-05-02T06:48:39.256Z</time></trkpt><trkpt lat="43.8533167" lon="7.9630383"><ele>11.2</ele><time>2026-05-02T06:48:41.256Z</time></trkpt><trkpt lat="43.8532517" lon="7.9629467"><ele>10.8</ele><time>2026-05-02T06:48:43.256Z</time></trkpt><trkpt lat="43.853205" lon="7.9628333"><ele>10.4</ele><time>2026-05-02T06:48:45.256Z</time></trkpt><trkpt lat="43.8531633" lon="7.9627117"><ele>10.0</ele><time>2026-05-02T06:48:47.256Z</time></trkpt><trkpt lat="43.8531317" lon="7.9626033"><ele>10.571428571428571</ele><time>2026-05-02T06:48:49.256Z</time></trkpt><trkpt lat="43.8531167" lon="7.9624983"><ele>11.142857142857142</ele><time>2026-05-02T06:48:51.257Z</time></trkpt><trkpt lat="43.853105" lon="7.9623867"><ele>11.714285714285715</ele><time>2026-05-02T06:48:53.256Z</time></trkpt><trkpt lat="43.853105" lon="7.962275"><ele>12.285714285714285</ele><time>2026-05-02T06:48:55.256Z</time></trkpt><trkpt lat="43.8531267" lon="7.9621883"><ele>12.857142857142858</ele><time>2026-05-02T06:48:57.256Z</time></trkpt><trkpt lat="43.8531667" lon="7.962115"><ele>13.428571428571429</ele><time>2026-05-02T06:48:59.256Z</time></trkpt><trkpt lat="43.853225" lon="7.9620433"><ele>14.0</ele><time>2026-05-02T06:49:01.257Z</time></trkpt><trkpt lat="43.8532883" lon="7.961965"><ele>14.000000000000002</ele><time>2026-05-02T06:49:03.257Z</time></trkpt><trkpt lat="43.8533633" lon="7.9619017"><ele>14.0</ele><time>2026-05-02T06:49:05.256Z</time></trkpt><trkpt lat="43.8534167" lon="7.9618433"><ele>14.0</ele><time>2026-05-02T06:49:07.256Z</time></trkpt><trkpt lat="43.85347" lon="7.96177"><ele>14.0</ele><time>2026-05-02T06:49:09.256Z</time></trkpt><trkpt lat="43.85353" lon="7.9617017"><ele>14.000000000000002</ele><time>2026-05-02T06:49:11.256Z</time></trkpt><trkpt lat="43.85359" lon="7.9616183"><ele>14.0</ele><time>2026-05-02T06:49:13.256Z</time></trkpt><trkpt lat="43.8536467" lon="7.9615183"><ele>13.500000000000002</ele><time>2026-05-02T06:49:15.256Z</time></trkpt><trkpt lat="43.8537017" lon="7.96141"><ele>13.0</ele><time>2026-05-02T06:49:17.256Z</time></trkpt><trkpt lat="43.853755" lon="7.961295"><ele>12.5</ele><time>2026-05-02T06:49:19.256Z</time></trkpt><trkpt lat="43.8538" lon="7.9611983"><ele>12.0</ele><time>2026-05-02T06:49:21.256Z</time></trkpt><trkpt lat="43.8538417" lon="7.9611067"><ele>11.5</ele><time>2026-05-02T06:49:23.256Z</time></trkpt><trkpt lat="43.8538817" lon="7.9610317"><ele>11.0</ele><time>2026-05-02T06:49:25.256Z</time></trkpt><trkpt lat="43.853915" lon="7.9609433"><ele>11.833333333333332</ele><time>2026-05-02T06:49:27.256Z</time></trkpt><trkpt lat="43.85395" lon="7.9608583"><ele>12.666666666666666</ele><time>2026-05-02T06:49:29.257Z</time></trkpt><trkpt lat="43.8539883" lon="7.9607717"><ele>13.5</ele><time>2026-05-02T06:49:31.257Z</time></trkpt><trkpt lat="43.8540267" lon="7.9606833"><ele>14.333333333333332</ele><time>2026-05-02T06:49:33.256Z</time></trkpt><trkpt lat="43.8540633" lon="7.9605883"><ele>15.166666666666666</ele><time>2026-05-02T06:49:35.257Z</time></trkpt><trkpt lat="43.854095" lon="7.9604917"><ele>16.0</ele><time>2026-05-02T06:49:37.256Z</time></trkpt><trkpt lat="43.85411" lon="7.960385"><ele>15.999999999999998</ele><time>2026-05-02T06:49:39.257Z</time></trkpt><trkpt lat="43.8541233" lon="7.960255"><ele>16.0</ele><time>2026-05-02T06:49:41.256Z</time></trkpt><trkpt lat="43.8541433" lon="7.96014"><ele>16.0</ele><time>2026-05-02T06:49:43.256Z</time></trkpt><trkpt lat="43.8541667" lon="7.9600333"><ele>16.0</ele><time>2026-05-02T06:49:45.256Z</time></trkpt><trkpt lat="43.854195" lon="7.9599483"><ele>15.999999999999998</ele><time>2026-05-02T06:49:47.257Z</time></trkpt><trkpt lat="43.8542233" lon="7.9598567"><ele>16.0</ele><time>2026-05-02T06:49:49.257Z</time></trkpt><trkpt lat="43.8542567" lon="7.9597783"><ele>16.666666666666664</ele><time>2026-05-02T06:49:51.257Z</time></trkpt><trkpt lat="43.8543083" lon="7.9596617"><ele>17.333333333333332</ele><time>2026-05-02T06:49:54.256Z</time></trkpt><trkpt lat="43.8543667" lon="7.959565"><ele>18.0</ele><time>2026-05-02T06:49:57.256Z</time></trkpt><trkpt lat="43.8544183" lon="7.9594817"><ele>18.666666666666668</ele><time>2026-05-02T06:50:00.256Z</time></trkpt><trkpt lat="43.8544883" lon="7.9594133"><ele>19.333333333333336</ele><time>2026-05-02T06:50:03.256Z</time></trkpt><trkpt lat="43.8545767" lon="7.959415"><ele>20.0</ele><time>2026-05-02T06:50:06.256Z</time></trkpt><trkpt lat="43.8546583" lon="7.959455"><ele>20.0</ele><time>2026-05-02T06:50:09.256Z</time></trkpt><trkpt lat="43.8547217" lon="7.9594867"><ele>20.0</ele><time>2026-05-02T06:50:11.256Z</time></trkpt><trkpt lat="43.8547867" lon="7.9595133"><ele>20.0</ele><time>2026-05-02T06:50:13.256Z</time></trkpt><trkpt lat="43.8548483" lon="7.9595317"><ele>20.0</ele><time>2026-05-02T06:50:15.256Z</time></trkpt><trkpt lat="43.8549367" lon="7.9595583"><ele>20.0</ele><time>2026-05-02T06:50:18.257Z</time></trkpt><trkpt lat="43.8550017" lon="7.9595683"><ele>20.0</ele><time>2026-05-02T06:50:20.257Z</time></trkpt><trkpt lat="43.85507" lon="7.95958"><ele>20.0</ele><time>2026-05-02T06:50:22.256Z</time></trkpt><trkpt lat="43.8551417" lon="7.9595917"><ele>21.142857142857142</ele><time>2026-05-02T06:50:24.256Z</time></trkpt><trkpt lat="43.8552133" lon="7.9596017"><ele>22.285714285714285</ele><time>2026-05-02T06:50:26.257Z</time></trkpt><trkpt lat="43.8552833" lon="7.9596067"><ele>23.42857142857143</ele><time>2026-05-02T06:50:28.256Z</time></trkpt><trkpt lat="43.855365" lon="7.9595683"><ele>24.57142857142857</ele><time>2026-05-02T06:50:31.257Z</time></trkpt><trkpt lat="43.8554233" lon="7.959525"><ele>25.714285714285715</ele><time>2026-05-02T06:50:33.256Z</time></trkpt><trkpt lat="43.8554933" lon="7.9594767"><ele>26.857142857142858</ele><time>2026-05-02T06:50:36.256Z</time></trkpt><trkpt lat="43.8555617" lon="7.95946"><ele>28.0</ele><time>2026-05-02T06:50:39.256Z</time></trkpt><trkpt lat="43.8556217" lon="7.959425"><ele>28.0</ele><time>2026-05-02T06:50:42.256Z</time></trkpt><trkpt lat="43.8556317" lon="7.9593233"><ele>28.0</ele><time>2026-05-02T06:50:45.257Z</time></trkpt><trkpt lat="43.8556333" lon="7.9592283"><ele>28.0</ele><time>2026-05-02T06:50:48.256Z</time></trkpt><trkpt lat="43.855635" lon="7.9591233"><ele>28.0</ele><time>2026-05-02T06:50:51.257Z</time></trkpt><trkpt lat="43.8556517" lon="7.9590367"><ele>28.0</ele><time>2026-05-02T06:50:54.256Z</time></trkpt><trkpt lat="43.8556817" lon="7.9589367"><ele>28.0</ele><time>2026-05-02T06:50:58.256Z</time></trkpt><trkpt lat="43.8556967" lon="7.958845"><ele>28.0</ele><time>2026-05-02T06:51:01.256Z</time></trkpt><trkpt lat="43.8557167" lon="7.9587417"><ele>30.57142857142857</ele><time>2026-05-02T06:51:04.257Z</time></trkpt><trkpt lat="43.8557333" lon="7.9586483"><ele>33.14285714285714</ele><time>2026-05-02T06:51:07.256Z</time></trkpt><trkpt lat="43.8557483" lon="7.9585517"><ele>35.714285714285715</ele><time>2026-05-02T06:51:10.256Z</time></trkpt><trkpt lat="43.8557517" lon="7.9584383"><ele>38.285714285714285</ele><time>2026-05-02T06:51:14.256Z</time></trkpt><trkpt lat="43.8557383" lon="7.9583483"><ele>40.857142857142854</ele><time>2026-05-02T06:51:17.256Z</time></trkpt><trkpt lat="43.8557367" lon="7.958245"><ele>43.42857142857143</ele><time>2026-05-02T06:51:21.256Z</time></trkpt><trkpt lat="43.855725" lon="7.9581533"><ele>46.0</ele><time>2026-05-02T06:51:24.256Z</time></trkpt><trkpt lat="43.85572" lon="7.9580617"><ele>47.42857142857143</ele><time>2026-05-02T06:51:27.256Z</time></trkpt><trkpt lat="43.8556933" lon="7.9579583"><ele>48.857142857142854</ele><time>2026-05-02T06:51:31.256Z</time></trkpt><trkpt lat="43.8556567" lon="7.95788"><ele>50.285714285714285</ele><time>2026-05-02T06:51:34.256Z</time></trkpt><trkpt lat="43.8556367" lon="7.95777"><ele>51.714285714285715</ele><time>2026-05-02T06:51:37.256Z</time></trkpt><trkpt lat="43.8556083" lon="7.9576683"><ele>53.14285714285714</ele><time>2026-05-02T06:51:40.257Z</time></trkpt><trkpt lat="43.855565" lon="7.957585"><ele>54.57142857142857</ele><time>2026-05-02T06:51:43.256Z</time></trkpt><trkpt lat="43.85553" lon="7.9575033"><ele>56.0</ele><time>2026-05-02T06:51:46.256Z</time></trkpt><trkpt lat="43.8555033" lon="7.95741"><ele>57.333333333333336</ele><time>2026-05-02T06:51:49.256Z</time></trkpt><trkpt lat="43.8554867" lon="7.9573083"><ele>58.66666666666667</ele><time>2026-05-02T06:51:52.256Z</time></trkpt><trkpt lat="43.855465" lon="7.9572017"><ele>60.0</ele><time>2026-05-02T06:51:56.256Z</time></trkpt><trkpt lat="43.8554317" lon="7.9570983"><ele>61.33333333333333</ele><time>2026-05-02T06:52:00.257Z</time></trkpt><trkpt lat="43.8554033" lon="7.9570117"><ele>62.666666666666664</ele><time>2026-05-02T06:52:03.257Z</time></trkpt><trkpt lat="43.855365" lon="7.9569233"><ele>64.0</ele><time>2026-05-02T06:52:06.256Z</time></trkpt><trkpt lat="43.8553217" lon="7.9568283"><ele>63.99999999999999</ele><time>2026-05-02T06:52:09.256Z</time></trkpt><trkpt lat="43.85528" lon="7.9567317"><ele>64.0</ele><time>2026-05-02T06:52:12.256Z</time></trkpt><trkpt lat="43.855255" lon="7.9566333"><ele>64.0</ele><time>2026-05-02T06:52:15.256Z</time></trkpt><trkpt lat="43.8552533" lon="7.9565417"><ele>64.0</ele><time>2026-05-02T06:52:18.256Z</time></trkpt><trkpt lat="43.85528" lon="7.9564417"><ele>63.99999999999999</ele><time>2026-05-02T06:52:21.256Z</time></trkpt><trkpt lat="43.8553167" lon="7.9563467"><ele>64.0</ele><time>2026-05-02T06:52:24.256Z</time></trkpt><trkpt lat="43.8553083" lon="7.9562333"><ele>65.0</ele><time>2026-05-02T06:52:27.256Z</time></trkpt><trkpt lat="43.8552867" lon="7.956125"><ele>66.0</ele><time>2026-05-02T06:52:30.256Z</time></trkpt><trkpt lat="43.8552567" lon="7.95602"><ele>67.0</ele><time>2026-05-02T06:52:33.256Z</time></trkpt><trkpt lat="43.8552333" lon="7.9559233"><ele>68.0</ele><time>2026-05-02T06:52:36.256Z</time></trkpt><trkpt lat="43.8552233" lon="7.9558317"><ele>69.0</ele><time>2026-05-02T06:52:39.257Z</time></trkpt><trkpt lat="43.8552067" lon="7.9557467"><ele>70.0</ele><time>2026-05-02T06:52:42.256Z</time></trkpt><trkpt lat="43.8551883" lon="7.95564"><ele>71.0</ele><time>2026-05-02T06:52:46.256Z</time></trkpt><trkpt lat="43.8552067" lon="7.9555483"><ele>72.16666666666667</ele><time>2026-05-02T06:52:49.256Z</time></trkpt><trkpt lat="43.8552583" lon="7.9554817"><ele>73.33333333333334</ele><time>2026-05-02T06:52:52.256Z</time></trkpt><trkpt lat="43.8553083" lon="7.9554167"><ele>74.5</ele><time>2026-05-02T06:52:55.256Z</time></trkpt><trkpt lat="43.8553833" lon="7.9553767"><ele>75.66666666666667</ele><time>2026-05-02T06:52:59.257Z</time></trkpt><trkpt lat="43.8554367" lon="7.9553033"><ele>76.83333333333333</ele><time>2026-05-02T06:53:03.257Z</time></trkpt><trkpt lat="43.8554733" lon="7.9552217"><ele>78.0</ele><time>2026-05-02T06:53:06.257Z</time></trkpt><trkpt lat="43.8555" lon="7.9551033"><ele>79.14285714285715</ele><time>2026-05-02T06:53:09.256Z</time></trkpt><trkpt lat="43.8555233" lon="7.9550133"><ele>80.28571428571428</ele><time>2026-05-02T06:53:12.256Z</time></trkpt><trkpt lat="43.8555517" lon="7.9549067"><ele>81.42857142857143</ele><time>2026-05-02T06:53:16.256Z</time></trkpt><trkpt lat="43.8555717" lon="7.9548233"><ele>82.57142857142858</ele><time>2026-05-02T06:53:19.256Z</time></trkpt><trkpt lat="43.8555833" lon="7.954715"><ele>83.71428571428572</ele><time>2026-05-02T06:53:23.256Z</time></trkpt><trkpt lat="43.855595" lon="7.95462"><ele>84.85714285714286</ele><time>2026-05-02T06:53:26.256Z</time></trkpt><trkpt lat="43.8556083" lon="7.9545283"><ele>86.0</ele><time>2026-05-02T06:53:28.256Z</time></trkpt><trkpt lat="43.8555833" lon="7.954445"><ele>86.00000000000001</ele><time>2026-05-02T06:53:31.256Z</time></trkpt><trkpt lat="43.8555633" lon="7.9543433"><ele>86.0</ele><time>2026-05-02T06:53:35.257Z</time></trkpt><trkpt lat="43.8555617" lon="7.954245"><ele>86.0</ele><time>2026-05-02T06:53:39.256Z</time></trkpt><trkpt lat="43.85556" lon="7.95414"><ele>86.0</ele><time>2026-05-02T06:53:43.256Z</time></trkpt><trkpt lat="43.85556" lon="7.95404"><ele>86.0</ele><time>2026-05-02T06:53:46.256Z</time></trkpt><trkpt lat="43.8555667" lon="7.9539483"><ele>86.00000000000001</ele><time>2026-05-02T06:53:49.256Z</time></trkpt><trkpt lat="43.8555583" lon="7.953855"><ele>86.0</ele><time>2026-05-02T06:53:52.256Z</time></trkpt><trkpt lat="43.8555483" lon="7.9537633"><ele>87.14285714285715</ele><time>2026-05-02T06:53:55.256Z</time></trkpt><trkpt lat="43.8555467" lon="7.9536733"><ele>88.28571428571429</ele><time>2026-05-02T06:53:58.256Z</time></trkpt><trkpt lat="43.8555733" lon="7.95358"><ele>89.42857142857143</ele><time>2026-05-02T06:54:02.257Z</time></trkpt><trkpt lat="43.855625" lon="7.95353"><ele>90.57142857142858</ele><time>2026-05-02T06:54:07.256Z</time></trkpt><trkpt lat="43.8555667" lon="7.9534767"><ele>91.71428571428571</ele><time>2026-05-02T06:54:51.256Z</time></trkpt><trkpt lat="43.8555783" lon="7.9533883"><ele>92.85714285714286</ele><time>2026-05-02T06:54:55.256Z</time></trkpt><trkpt lat="43.8556333" lon="7.95331"><ele>94.0</ele><time>2026-05-02T06:54:59.256Z</time></trkpt><trkpt lat="43.85567" lon="7.9532"><ele>95.71428571428571</ele><time>2026-05-02T06:55:03.256Z</time></trkpt><trkpt lat="43.8556733" lon="7.9531017"><ele>97.42857142857142</ele><time>2026-05-02T06:55:06.256Z</time></trkpt><trkpt lat="43.8556583" lon="7.95299"><ele>99.14285714285714</ele><time>2026-05-02T06:55:10.256Z</time></trkpt><trkpt lat="43.8556467" lon="7.9528917"><ele>100.85714285714286</ele><time>2026-05-02T06:55:14.256Z</time></trkpt><trkpt lat="43.8556433" lon="7.9527933"><ele>102.57142857142857</ele><time>2026-05-02T06:55:18.256Z</time></trkpt><trkpt lat="43.8556367" lon="7.9527017"><ele>104.28571428571429</ele><time>2026-05-02T06:55:22.257Z</time></trkpt><trkpt lat="43.8556433" lon="7.95261"><ele>106.0</ele><time>2026-05-02T06:55:27.256Z</time></trkpt><trkpt lat="43.855635" lon="7.9525167"><ele>108.0</ele><time>2026-05-02T06:55:34.256Z</time></trkpt><trkpt lat="43.8555883" lon="7.95245"><ele>110.0</ele><time>2026-05-02T06:55:38.256Z</time></trkpt><trkpt lat="43.8555667" lon="7.9523483"><ele>112.0</ele><time>2026-05-02T06:55:42.256Z</time></trkpt><trkpt lat="43.85555" lon="7.9522633"><ele>114.0</ele><time>2026-05-02T06:55:45.256Z</time></trkpt><trkpt lat="43.8555283" lon="7.9521717"><ele>116.0</ele><time>2026-05-02T06:55:49.257Z</time></trkpt><trkpt lat="43.855555" lon="7.9520867"><ele>118.0</ele><time>2026-05-02T06:55:53.256Z</time></trkpt><trkpt lat="43.8555933" lon="7.9520133"><ele>120.0</ele><time>2026-05-02T06:55:57.256Z</time></trkpt><trkpt lat="43.8555967" lon="7.951905"><ele>120.0</ele><time>2026-05-02T06:56:02.256Z</time></trkpt><trkpt lat="43.855575" lon="7.9518083"><ele>120.0</ele><time>2026-05-02T06:56:06.257Z</time></trkpt><trkpt lat="43.855545" lon="7.9517017"><ele>120.0</ele><time>2026-05-02T06:56:10.256Z</time></trkpt><trkpt lat="43.855515" lon="7.95162"><ele>120.0</ele><time>2026-05-02T06:56:13.256Z</time></trkpt><trkpt lat="43.8554833" lon="7.9515417"><ele>120.0</ele><time>2026-05-02T06:56:16.256Z</time></trkpt><trkpt lat="43.8554483" lon="7.9514383"><ele>120.0</ele><time>2026-05-02T06:56:20.256Z</time></trkpt><trkpt lat="43.85542" lon="7.9513567"><ele>120.0</ele><time>2026-05-02T06:56:23.256Z</time></trkpt><trkpt lat="43.85537" lon="7.9512617"><ele>120.85714285714286</ele><time>2026-05-02T06:56:27.256Z</time></trkpt><trkpt lat="43.8553283" lon="7.9511867"><ele>121.71428571428571</ele><time>2026-05-02T06:56:31.256Z</time></trkpt><trkpt lat="43.8552683" lon="7.95111"><ele>122.57142857142857</ele><time>2026-05-02T06:56:36.256Z</time></trkpt><trkpt lat="43.85522" lon="7.9510333"><ele>123.42857142857143</ele><time>2026-05-02T06:56:40.256Z</time></trkpt><trkpt lat="43.855175" lon="7.950945"><ele>124.28571428571428</ele><time>2026-05-02T06:56:44.256Z</time></trkpt><trkpt lat="43.85515" lon="7.9508483"><ele>125.14285714285714</ele><time>2026-05-02T06:56:48.257Z</time></trkpt><trkpt lat="43.8551283" lon="7.9507567"><ele>126.0</ele><time>2026-05-02T06:56:52.256Z</time></trkpt><trkpt lat="43.8551" lon="7.9506767"><ele>131.0</ele><time>2026-05-02T06:56:55.256Z</time></trkpt><trkpt lat="43.8550667" lon="7.9505967"><ele>136.0</ele><time>2026-05-02T06:56:58.256Z</time></trkpt><trkpt lat="43.8550317" lon="7.950515"><ele>141.0</ele><time>2026-05-02T06:57:01.256Z</time></trkpt><trkpt lat="43.8549967" lon="7.9504383"><ele>146.0</ele><time>2026-05-02T06:57:04.257Z</time></trkpt><trkpt lat="43.8549683" lon="7.95036"><ele>151.0</ele><time>2026-05-02T06:57:07.256Z</time></trkpt><trkpt lat="43.85494" lon="7.950275"><ele>156.0</ele><time>2026-05-02T06:57:10.256Z</time></trkpt><trkpt lat="43.854905" lon="7.9501717"><ele>161.0</ele><time>2026-05-02T06:57:14.256Z</time></trkpt><trkpt lat="43.85487" lon="7.950085"><ele>160.57142857142858</ele><time>2026-05-02T06:57:17.256Z</time></trkpt><trkpt lat="43.8548383" lon="7.9499983"><ele>160.14285714285714</ele><time>2026-05-02T06:57:20.256Z</time></trkpt><trkpt lat="43.854795" lon="7.9499183"><ele>159.71428571428572</ele><time>2026-05-02T06:57:23.256Z</time></trkpt><trkpt lat="43.8547583" lon="7.949845"><ele>159.28571428571428</ele><time>2026-05-02T06:57:26.256Z</time></trkpt><trkpt lat="43.8547283" lon="7.9497633"><ele>158.85714285714286</ele><time>2026-05-02T06:57:29.256Z</time></trkpt><trkpt lat="43.8546983" lon="7.9496767"><ele>158.42857142857144</ele><time>2026-05-02T06:57:32.256Z</time></trkpt><trkpt lat="43.8546717" lon="7.949585"><ele>158.0</ele><time>2026-05-02T06:57:35.256Z</time></trkpt><trkpt lat="43.8546417" lon="7.9494967"><ele>158.00000000000003</ele><time>2026-05-02T06:57:38.257Z</time></trkpt><trkpt lat="43.8546183" lon="7.94941"><ele>158.0</ele><time>2026-05-02T06:57:41.256Z</time></trkpt><trkpt lat="43.8545883" lon="7.9493067"><ele>158.0</ele><time>2026-05-02T06:57:44.256Z</time></trkpt><trkpt lat="43.8545533" lon="7.9492017"><ele>158.0</ele><time>2026-05-02T06:57:47.256Z</time></trkpt><trkpt lat="43.8545217" lon="7.9491083"><ele>158.0</ele><time>2026-05-02T06:57:50.256Z</time></trkpt><trkpt lat="43.85449" lon="7.949025"><ele>158.00000000000003</ele><time>2026-05-02T06:57:53.257Z</time></trkpt><trkpt lat="43.854465" lon="7.9489383"><ele>158.0</ele><time>2026-05-02T06:57:56.256Z</time></trkpt><trkpt lat="43.8544417" lon="7.94885"><ele>157.57142857142858</ele><time>2026-05-02T06:57:59.256Z</time></trkpt><trkpt lat="43.85441" lon="7.9487633"><ele>157.14285714285714</ele><time>2026-05-02T06:58:02.256Z</time></trkpt><trkpt lat="43.85438" lon="7.9486667"><ele>156.71428571428572</ele><time>2026-05-02T06:58:05.256Z</time></trkpt><trkpt lat="43.85436" lon="7.9485767"><ele>156.28571428571428</ele><time>2026-05-02T06:58:08.256Z</time></trkpt><trkpt lat="43.8543417" lon="7.94848"><ele>155.85714285714286</ele><time>2026-05-02T06:58:11.257Z</time></trkpt><trkpt lat="43.854335" lon="7.9483617"><ele>155.42857142857144</ele><time>2026-05-02T06:58:14.256Z</time></trkpt><trkpt lat="43.85432" lon="7.9482717"><ele>155.0</ele><time>2026-05-02T06:58:16.256Z</time></trkpt><trkpt lat="43.854315" lon="7.9481433"><ele>154.71428571428572</ele><time>2026-05-02T06:58:19.256Z</time></trkpt><trkpt lat="43.8542967" lon="7.948015"><ele>154.42857142857142</ele><time>2026-05-02T06:58:22.256Z</time></trkpt><trkpt lat="43.85427" lon="7.94793"><ele>154.14285714285714</ele><time>2026-05-02T06:58:24.256Z</time></trkpt><trkpt lat="43.85425" lon="7.947845"><ele>153.85714285714286</ele><time>2026-05-02T06:58:26.256Z</time></trkpt><trkpt lat="43.8542333" lon="7.9477583"><ele>153.57142857142858</ele><time>2026-05-02T06:58:28.256Z</time></trkpt><trkpt lat="43.8542183" lon="7.947635"><ele>153.28571428571428</ele><time>2026-05-02T06:58:31.256Z</time></trkpt><trkpt lat="43.8542233" lon="7.9475417"><ele>153.0</ele><time>2026-05-02T06:58:33.256Z</time></trkpt><trkpt lat="43.85424" lon="7.94744"><ele>153.6</ele><time>2026-05-02T06:58:35.256Z</time></trkpt><trkpt lat="43.8542867" lon="7.94732"><ele>154.20000000000002</ele><time>2026-05-02T06:58:37.256Z</time></trkpt><trkpt lat="43.854345" lon="7.947195"><ele>154.8</ele><time>2026-05-02T06:58:39.256Z</time></trkpt><trkpt lat="43.8544017" lon="7.9470783"><ele>155.4</ele><time>2026-05-02T06:58:41.256Z</time></trkpt><trkpt lat="43.8544533" lon="7.9469567"><ele>156.0</ele><time>2026-05-02T06:58:43.256Z</time></trkpt><trkpt lat="43.8544933" lon="7.9468283"><ele>156.0</ele><time>2026-05-02T06:58:45.256Z</time></trkpt><trkpt lat="43.854525" lon="7.946715"><ele>156.0</ele><time>2026-05-02T06:58:47.256Z</time></trkpt><trkpt lat="43.8545583" lon="7.9466"><ele>156.0</ele><time>2026-05-02T06:58:49.257Z</time></trkpt><trkpt lat="43.8545933" lon="7.9464783"><ele>156.0</ele><time>2026-05-02T06:58:51.256Z</time></trkpt><trkpt lat="43.8546167" lon="7.9463483"><ele>156.0</ele><time>2026-05-02T06:58:53.256Z</time></trkpt><trkpt lat="43.8546217" lon="7.9462183"><ele>156.71428571428572</ele><time>2026-05-02T06:58:55.256Z</time></trkpt><trkpt lat="43.8546333" lon="7.9460917"><ele>157.42857142857142</ele><time>2026-05-02T06:58:57.256Z</time></trkpt><trkpt lat="43.85465" lon="7.9459817"><ele>158.14285714285714</ele><time>2026-05-02T06:58:59.256Z</time></trkpt><trkpt lat="43.8546767" lon="7.94589"><ele>158.85714285714286</ele><time>2026-05-02T06:59:01.257Z</time></trkpt><trkpt lat="43.8547167" lon="7.94582"><ele>159.57142857142856</ele><time>2026-05-02T06:59:03.256Z</time></trkpt><trkpt lat="43.8547617" lon="7.9457467"><ele>160.28571428571428</ele><time>2026-05-02T06:59:05.256Z</time></trkpt><trkpt lat="43.8548083" lon="7.9456833"><ele>161.0</ele><time>2026-05-02T06:59:07.256Z</time></trkpt><trkpt lat="43.8548583" lon="7.9456267"><ele>160.75</ele><time>2026-05-02T06:59:09.256Z</time></trkpt><trkpt lat="43.85491" lon="7.9455767"><ele>160.5</ele><time>2026-05-02T06:59:11.257Z</time></trkpt><trkpt lat="43.8549667" lon="7.9455333"><ele>160.25</ele><time>2026-05-02T06:59:13.256Z</time></trkpt><trkpt lat="43.85502" lon="7.9454867"><ele>160.0</ele><time>2026-05-02T06:59:15.256Z</time></trkpt><trkpt lat="43.855075" lon="7.9454433"><ele>159.75</ele><time>2026-05-02T06:59:17.257Z</time></trkpt><trkpt lat="43.855125" lon="7.94539"><ele>159.5</ele><time>2026-05-02T06:59:19.256Z</time></trkpt><trkpt lat="43.855175" lon="7.9453317"><ele>159.25</ele><time>2026-05-02T06:59:21.256Z</time></trkpt><trkpt lat="43.8552283" lon="7.94528"><ele>159.0</ele><time>2026-05-02T06:59:23.256Z</time></trkpt><trkpt lat="43.855305" lon="7.9452067"><ele>159.0</ele><time>2026-05-02T06:59:26.256Z</time></trkpt><trkpt lat="43.8553733" lon="7.9451283"><ele>159.0</ele><time>2026-05-02T06:59:29.256Z</time></trkpt><trkpt lat="43.8554183" lon="7.9450467"><ele>159.0</ele><time>2026-05-02T06:59:32.256Z</time></trkpt><trkpt lat="43.8554333" lon="7.9449333"><ele>159.0</ele><time>2026-05-02T06:59:35.256Z</time></trkpt><trkpt lat="43.855425" lon="7.9448433"><ele>159.0</ele><time>2026-05-02T06:59:37.256Z</time></trkpt><trkpt lat="43.8554167" lon="7.9447183"><ele>159.0</ele><time>2026-05-02T06:59:40.256Z</time></trkpt><trkpt lat="43.855405" lon="7.9446283"><ele>161.0</ele><time>2026-05-02T06:59:42.256Z</time></trkpt><trkpt lat="43.855395" lon="7.9445267"><ele>163.0</ele><time>2026-05-02T06:59:44.256Z</time></trkpt><trkpt lat="43.8554033" lon="7.9444217"><ele>165.0</ele><time>2026-05-02T06:59:46.256Z</time></trkpt><trkpt lat="43.8554433" lon="7.944335"><ele>167.0</ele><time>2026-05-02T06:59:48.256Z</time></trkpt><trkpt lat="43.855505" lon="7.9442717"><ele>169.0</ele><time>2026-05-02T06:59:50.256Z</time></trkpt><trkpt lat="43.8555833" lon="7.9442333"><ele>171.0</ele><time>2026-05-02T06:59:52.256Z</time></trkpt><trkpt lat="43.8556617" lon="7.9442033"><ele>170.99999999999997</ele><time>2026-05-02T06:59:54.256Z</time></trkpt><trkpt lat="43.855735" lon="7.9441967"><ele>171.0</ele><time>2026-05-02T06:59:56.256Z</time></trkpt><trkpt lat="43.8558083" lon="7.94421"><ele>171.0</ele><time>2026-05-02T06:59:58.257Z</time></trkpt><trkpt lat="43.8558817" lon="7.9442167"><ele>171.0</ele><time>2026-05-02T07:00:00.256Z</time></trkpt><trkpt lat="43.8559517" lon="7.9442267"><ele>171.0</ele><time>2026-05-02T07:00:02.256Z</time></trkpt><trkpt lat="43.8560233" lon="7.944235"><ele>170.99999999999997</ele><time>2026-05-02T07:00:04.256Z</time></trkpt><trkpt lat="43.8560933" lon="7.9442367"><ele>171.0</ele><time>2026-05-02T07:00:06.256Z</time></trkpt><trkpt lat="43.8561617" lon="7.9442467"><ele>170.7142857142857</ele><time>2026-05-02T07:00:08.256Z</time></trkpt><trkpt lat="43.85623" lon="7.9442667"><ele>170.42857142857142</ele><time>2026-05-02T07:00:10.256Z</time></trkpt><trkpt lat="43.856295" lon="7.944275"><ele>170.14285714285714</ele><time>2026-05-02T07:00:12.256Z</time></trkpt><trkpt lat="43.856385" lon="7.9442933"><ele>169.85714285714283</ele><time>2026-05-02T07:00:15.256Z</time></trkpt><trkpt lat="43.856455" lon="7.9442933"><ele>169.57142857142856</ele><time>2026-05-02T07:00:17.256Z</time></trkpt><trkpt lat="43.8565217" lon="7.94427"><ele>169.28571428571428</ele><time>2026-05-02T07:00:19.256Z</time></trkpt><trkpt lat="43.85658" lon="7.9442183"><ele>169.0</ele><time>2026-05-02T07:00:21.257Z</time></trkpt><trkpt lat="43.85663" lon="7.9441367"><ele>170.83333333333334</ele><time>2026-05-02T07:00:23.256Z</time></trkpt><trkpt lat="43.8566683" lon="7.9440433"><ele>172.66666666666669</ele><time>2026-05-02T07:00:25.256Z</time></trkpt><trkpt lat="43.856695" lon="7.9439367"><ele>174.5</ele><time>2026-05-02T07:00:27.256Z</time></trkpt><trkpt lat="43.856715" lon="7.94383"><ele>176.33333333333334</ele><time>2026-05-02T07:00:29.256Z</time></trkpt><trkpt lat="43.85674" lon="7.94373"><ele>178.16666666666666</ele><time>2026-05-02T07:00:31.256Z</time></trkpt><trkpt lat="43.8567683" lon="7.9436333"><ele>180.0</ele><time>2026-05-02T07:00:33.256Z</time></trkpt><trkpt lat="43.85681" lon="7.9435533"><ele>180.0</ele><time>2026-05-02T07:00:35.256Z</time></trkpt><trkpt lat="43.8568717" lon="7.9435"><ele>180.0</ele><time>2026-05-02T07:00:37.256Z</time></trkpt><trkpt lat="43.85695" lon="7.94348"><ele>180.0</ele><time>2026-05-02T07:00:39.256Z</time></trkpt><trkpt lat="43.8570317" lon="7.9434633"><ele>180.0</ele><time>2026-05-02T07:00:41.256Z</time></trkpt><trkpt lat="43.8571183" lon="7.94345"><ele>180.0</ele><time>2026-05-02T07:00:43.256Z</time></trkpt><trkpt lat="43.8572017" lon="7.9434283"><ele>180.0</ele><time>2026-05-02T07:00:45.257Z</time></trkpt><trkpt lat="43.8572867" lon="7.9434167"><ele>180.0</ele><time>2026-05-02T07:00:47.256Z</time></trkpt><trkpt lat="43.8573717" lon="7.9434117"><ele>180.0</ele><time>2026-05-02T07:00:49.256Z</time></trkpt><trkpt lat="43.8574433" lon="7.9434217"><ele>180.0</ele><time>2026-05-02T07:00:51.256Z</time></trkpt><trkpt lat="43.8575117" lon="7.9434433"><ele>180.0</ele><time>2026-05-02T07:00:53.256Z</time></trkpt><trkpt lat="43.857575" lon="7.9434683"><ele>180.0</ele><time>2026-05-02T07:00:55.256Z</time></trkpt><trkpt lat="43.8576383" lon="7.943495"><ele>180.0</ele><time>2026-05-02T07:00:57.256Z</time></trkpt><trkpt lat="43.857725" lon="7.9435383"><ele>180.7142857142857</ele><time>2026-05-02T07:01:00.256Z</time></trkpt><trkpt lat="43.857795" lon="7.9435617"><ele>181.42857142857144</ele><time>2026-05-02T07:01:02.256Z</time></trkpt><trkpt lat="43.8578683" lon="7.94359"><ele>182.14285714285714</ele><time>2026-05-02T07:01:04.256Z</time></trkpt><trkpt lat="43.8579417" lon="7.94361"><ele>182.85714285714283</ele><time>2026-05-02T07:01:06.257Z</time></trkpt><trkpt lat="43.8580133" lon="7.94363"><ele>183.57142857142856</ele><time>2026-05-02T07:01:08.256Z</time></trkpt><trkpt lat="43.858085" lon="7.9436383"><ele>184.28571428571428</ele><time>2026-05-02T07:01:10.256Z</time></trkpt><trkpt lat="43.8581517" lon="7.9436383"><ele>185.0</ele><time>2026-05-02T07:01:12.256Z</time></trkpt><trkpt lat="43.85823" lon="7.9436467"><ele>184.99999999999997</ele><time>2026-05-02T07:01:14.256Z</time></trkpt><trkpt lat="43.858295" lon="7.9436517"><ele>185.0</ele><time>2026-05-02T07:01:16.257Z</time></trkpt><trkpt lat="43.858365" lon="7.94365"><ele>185.0</ele><time>2026-05-02T07:01:18.256Z</time></trkpt><trkpt lat="43.85843" lon="7.9436317"><ele>185.0</ele><time>2026-05-02T07:01:20.256Z</time></trkpt><trkpt lat="43.858515" lon="7.9435767"><ele>185.0</ele><time>2026-05-02T07:01:23.257Z</time></trkpt><trkpt lat="43.8585583" lon="7.9435083"><ele>184.99999999999997</ele><time>2026-05-02T07:01:25.256Z</time></trkpt><trkpt lat="43.85859" lon="7.94343"><ele>185.0</ele><time>2026-05-02T07:01:27.256Z</time></trkpt><trkpt lat="43.8586117" lon="7.94334"><ele>183.0</ele><time>2026-05-02T07:01:29.256Z</time></trkpt><trkpt lat="43.8586183" lon="7.9432417"><ele>181.0</ele><time>2026-05-02T07:01:31.257Z</time></trkpt><trkpt lat="43.858615" lon="7.9431417"><ele>179.0</ele><time>2026-05-02T07:01:33.256Z</time></trkpt><trkpt lat="43.858605" lon="7.9430383"><ele>177.0</ele><time>2026-05-02T07:01:35.256Z</time></trkpt><trkpt lat="43.8585833" lon="7.94293"><ele>175.0</ele><time>2026-05-02T07:01:37.256Z</time></trkpt><trkpt lat="43.8585617" lon="7.9428267"><ele>173.0</ele><time>2026-05-02T07:01:39.257Z</time></trkpt><trkpt lat="43.858545" lon="7.942725"><ele>173.0</ele><time>2026-05-02T07:01:41.256Z</time></trkpt><trkpt lat="43.8585333" lon="7.94262"><ele>173.0</ele><time>2026-05-02T07:01:43.256Z</time></trkpt><trkpt lat="43.8585267" lon="7.9425133"><ele>173.0</ele><time>2026-05-02T07:01:45.257Z</time></trkpt><trkpt lat="43.8585267" lon="7.9424133"><ele>173.0</ele><time>2026-05-02T07:01:47.257Z</time></trkpt><trkpt lat="43.8585217" lon="7.9422867"><ele>173.0</ele><time>2026-05-02T07:01:49.256Z</time></trkpt><trkpt lat="43.8585133" lon="7.942185"><ele>173.0</ele><time>2026-05-02T07:01:51.256Z</time></trkpt><trkpt lat="43.8584967" lon="7.94209"><ele>171.7142857142857</ele><time>2026-05-02T07:01:53.256Z</time></trkpt><trkpt lat="43.8584717" lon="7.9419967"><ele>170.42857142857144</ele><time>2026-05-02T07:01:55.256Z</time></trkpt><trkpt lat="43.8584433" lon="7.941905"><ele>169.14285714285714</ele><time>2026-05-02T07:01:57.256Z</time></trkpt><trkpt lat="43.85842" lon="7.9418133"><ele>167.85714285714283</ele><time>2026-05-02T07:01:59.256Z</time></trkpt><trkpt lat="43.8584" lon="7.941725"><ele>166.57142857142856</ele><time>2026-05-02T07:02:01.256Z</time></trkpt><trkpt lat="43.858375" lon="7.94162"><ele>165.28571428571428</ele><time>2026-05-02T07:02:03.256Z</time></trkpt><trkpt lat="43.8583583" lon="7.9415167"><ele>164.0</ele><time>2026-05-02T07:02:05.256Z</time></trkpt><trkpt lat="43.8583517" lon="7.94141"><ele>166.42857142857142</ele><time>2026-05-02T07:02:07.256Z</time></trkpt><trkpt lat="43.8583567" lon="7.9413017"><ele>168.85714285714286</ele><time>2026-05-02T07:02:09.256Z</time></trkpt><trkpt lat="43.8583717" lon="7.9411933"><ele>171.28571428571428</ele><time>2026-05-02T07:02:11.256Z</time></trkpt><trkpt lat="43.8583867" lon="7.9411"><ele>173.71428571428572</ele><time>2026-05-02T07:02:13.256Z</time></trkpt><trkpt lat="43.858405" lon="7.9410033"><ele>176.14285714285714</ele><time>2026-05-02T07:02:15.256Z</time></trkpt><trkpt lat="43.8584267" lon="7.940905"><ele>178.57142857142856</ele><time>2026-05-02T07:02:17.256Z</time></trkpt><trkpt lat="43.8584467" lon="7.9408033"><ele>181.0</ele><time>2026-05-02T07:02:19.256Z</time></trkpt><trkpt lat="43.8584617" lon="7.9407017"><ele>181.0</ele><time>2026-05-02T07:02:21.256Z</time></trkpt><trkpt lat="43.85847" lon="7.9406033"><ele>181.0</ele><time>2026-05-02T07:02:23.256Z</time></trkpt><trkpt lat="43.8584717" lon="7.94051"><ele>181.0</ele><time>2026-05-02T07:02:25.256Z</time></trkpt><trkpt lat="43.8584717" lon="7.9404083"><ele>181.0</ele><time>2026-05-02T07:02:27.256Z</time></trkpt><trkpt lat="43.85847" lon="7.9403033"><ele>181.0</ele><time>2026-05-02T07:02:29.257Z</time></trkpt><trkpt lat="43.858465" lon="7.940205"><ele>181.0</ele><time>2026-05-02T07:02:31.257Z</time></trkpt><trkpt lat="43.8584633" lon="7.9401067"><ele>181.0</ele><time>2026-05-02T07:02:33.256Z</time></trkpt><trkpt lat="43.8584583" lon="7.9400167"><ele>186.33333333333334</ele><time>2026-05-02T07:02:35.256Z</time></trkpt><trkpt lat="43.8584483" lon="7.9399017"><ele>191.66666666666669</ele><time>2026-05-02T07:02:38.257Z</time></trkpt><trkpt lat="43.8584417" lon="7.9397883"><ele>197.0</ele><time>2026-05-02T07:02:41.256Z</time></trkpt><trkpt lat="43.85838" lon="7.9397533"><ele>202.33333333333334</ele><time>2026-05-02T07:02:45.256Z</time></trkpt><trkpt lat="43.8583283" lon="7.939845"><ele>207.66666666666666</ele><time>2026-05-02T07:02:49.256Z</time></trkpt><trkpt lat="43.8583" lon="7.939975"><ele>213.0</ele><time>2026-05-02T07:02:52.256Z</time></trkpt><trkpt lat="43.8582917" lon="7.9400667"><ele>212.99999999999997</ele><time>2026-05-02T07:02:54.256Z</time></trkpt><trkpt lat="43.8582867" lon="7.9401583"><ele>213.0</ele><time>2026-05-02T07:02:56.256Z</time></trkpt><trkpt lat="43.85828" lon="7.940255"><ele>213.0</ele><time>2026-05-02T07:02:58.256Z</time></trkpt><trkpt lat="43.858275" lon="7.9403483"><ele>213.0</ele><time>2026-05-02T07:03:00.257Z</time></trkpt><trkpt lat="43.8582717" lon="7.9404433"><ele>213.0</ele><time>2026-05-02T07:03:02.256Z</time></trkpt><trkpt lat="43.8582633" lon="7.9405333"><ele>212.99999999999997</ele><time>2026-05-02T07:03:04.256Z</time></trkpt><trkpt lat="43.858265" lon="7.9406217"><ele>213.0</ele><time>2026-05-02T07:03:06.257Z</time></trkpt><trkpt lat="43.8582283" lon="7.940705"><ele>213.0</ele><time>2026-05-02T07:03:08.256Z</time></trkpt><trkpt lat="43.85819" lon="7.9407783"><ele>213.0</ele><time>2026-05-02T07:03:10.256Z</time></trkpt><trkpt lat="43.858155" lon="7.9408517"><ele>213.0</ele><time>2026-05-02T07:03:12.257Z</time></trkpt><trkpt lat="43.858105" lon="7.94096"><ele>213.0</ele><time>2026-05-02T07:03:15.257Z</time></trkpt><trkpt lat="43.8580617" lon="7.94107"><ele>213.0</ele><time>2026-05-02T07:03:18.256Z</time></trkpt><trkpt lat="43.858025" lon="7.9411783"><ele>213.0</ele><time>2026-05-02T07:03:21.257Z</time></trkpt><trkpt lat="43.8579783" lon="7.941245"><ele>213.0</ele><time>2026-05-02T07:03:24.256Z</time></trkpt><trkpt lat="43.8579317" lon="7.9411833"><ele>213.0</ele><time>2026-05-02T07:03:28.256Z</time></trkpt><trkpt lat="43.8579167" lon="7.9410883"><ele>213.0</ele><time>2026-05-02T07:03:31.257Z</time></trkpt><trkpt lat="43.8578867" lon="7.9409867"><ele>213.0</ele><time>2026-05-02T07:03:34.256Z</time></trkpt><trkpt lat="43.8578633" lon="7.9408733"><ele>213.0</ele><time>2026-05-02T07:03:37.256Z</time></trkpt><trkpt lat="43.8578383" lon="7.94076"><ele>213.0</ele><time>2026-05-02T07:03:40.256Z</time></trkpt><trkpt lat="43.8578" lon="7.9406567"><ele>213.0</ele><time>2026-05-02T07:03:43.257Z</time></trkpt><trkpt lat="43.85776" lon="7.9405517"><ele>213.0</ele><time>2026-05-02T07:03:46.257Z</time></trkpt><trkpt lat="43.8577067" lon="7.94046"><ele>213.0</ele><time>2026-05-02T07:03:49.257Z</time></trkpt><trkpt lat="43.857645" lon="7.940375"><ele>213.0</ele><time>2026-05-02T07:03:52.256Z</time></trkpt><trkpt lat="43.85758" lon="7.9403"><ele>213.0</ele><time>2026-05-02T07:03:55.256Z</time></trkpt><trkpt lat="43.8575183" lon="7.9402283"><ele>213.0</ele><time>2026-05-02T07:03:58.257Z</time></trkpt><trkpt lat="43.857465" lon="7.9401617"><ele>214.7142857142857</ele><time>2026-05-02T07:04:01.257Z</time></trkpt><trkpt lat="43.8574067" lon="7.940095"><ele>216.42857142857144</ele><time>2026-05-02T07:04:04.256Z</time></trkpt><trkpt lat="43.85734" lon="7.940025"><ele>218.14285714285717</ele><time>2026-05-02T07:04:07.256Z</time></trkpt><trkpt lat="43.857305" lon="7.9399417"><ele>219.85714285714286</ele><time>2026-05-02T07:04:10.256Z</time></trkpt><trkpt lat="43.857285" lon="7.939855"><ele>221.57142857142858</ele><time>2026-05-02T07:04:13.256Z</time></trkpt><trkpt lat="43.85728" lon="7.939765"><ele>223.2857142857143</ele><time>2026-05-02T07:04:16.257Z</time></trkpt><trkpt lat="43.8572633" lon="7.939655"><ele>225.00000000000003</ele><time>2026-05-02T07:04:20.256Z</time></trkpt><trkpt lat="43.857235" lon="7.9395533"><ele>226.00000000000003</ele><time>2026-05-02T07:04:24.256Z</time></trkpt><trkpt lat="43.857215" lon="7.93947"><ele>227.0</ele><time>2026-05-02T07:04:27.257Z</time></trkpt><trkpt lat="43.8572083" lon="7.9393583"><ele>228.00000000000003</ele><time>2026-05-02T07:04:31.256Z</time></trkpt><trkpt lat="43.85722" lon="7.9392633"><ele>229.00000000000003</ele><time>2026-05-02T07:04:35.256Z</time></trkpt><trkpt lat="43.857255" lon="7.9391483"><ele>230.0</ele><time>2026-05-02T07:04:39.256Z</time></trkpt><trkpt lat="43.857295" lon="7.9390517"><ele>231.00000000000003</ele><time>2026-05-02T07:04:43.256Z</time></trkpt><trkpt lat="43.8573133" lon="7.938965"><ele>232.00000000000003</ele><time>2026-05-02T07:04:46.256Z</time></trkpt><trkpt lat="43.8572933" lon="7.93888"><ele>233.42857142857144</ele><time>2026-05-02T07:04:50.256Z</time></trkpt><trkpt lat="43.8572183" lon="7.9388867"><ele>234.85714285714286</ele><time>2026-05-02T07:04:53.256Z</time></trkpt><trkpt lat="43.8571367" lon="7.9389167"><ele>236.28571428571428</ele><time>2026-05-02T07:04:57.256Z</time></trkpt><trkpt lat="43.8570717" lon="7.9389317"><ele>237.71428571428572</ele><time>2026-05-02T07:05:00.256Z</time></trkpt><trkpt lat="43.8570033" lon="7.938925"><ele>239.1428571428571</ele><time>2026-05-02T07:05:03.257Z</time></trkpt><trkpt lat="43.8569367" lon="7.9389117"><ele>240.57142857142856</ele><time>2026-05-02T07:05:06.256Z</time></trkpt><trkpt lat="43.8568783" lon="7.9388767"><ele>242.0</ele><time>2026-05-02T07:05:09.256Z</time></trkpt><trkpt lat="43.856805" lon="7.938835"><ele>244.00000000000003</ele><time>2026-05-02T07:05:13.256Z</time></trkpt><trkpt lat="43.8567333" lon="7.938825"><ele>246.0</ele><time>2026-05-02T07:05:16.256Z</time></trkpt><trkpt lat="43.85665" lon="7.938815"><ele>248.0</ele><time>2026-05-02T07:05:19.256Z</time></trkpt><trkpt lat="43.85658" lon="7.9387967"><ele>250.0</ele><time>2026-05-02T07:05:22.256Z</time></trkpt><trkpt lat="43.8565067" lon="7.9387683"><ele>252.00000000000003</ele><time>2026-05-02T07:05:25.256Z</time></trkpt><trkpt lat="43.85643" lon="7.938745"><ele>254.0</ele><time>2026-05-02T07:05:28.256Z</time></trkpt><trkpt lat="43.8563567" lon="7.9387233"><ele>254.0</ele><time>2026-05-02T07:05:31.257Z</time></trkpt><trkpt lat="43.8562933" lon="7.938685"><ele>254.0</ele><time>2026-05-02T07:05:34.256Z</time></trkpt><trkpt lat="43.856215" lon="7.93866"><ele>254.0</ele><time>2026-05-02T07:05:37.256Z</time></trkpt><trkpt lat="43.856145" lon="7.938615"><ele>254.0</ele><time>2026-05-02T07:05:40.256Z</time></trkpt><trkpt lat="43.8560867" lon="7.9385533"><ele>254.0</ele><time>2026-05-02T07:05:43.256Z</time></trkpt><trkpt lat="43.8560333" lon="7.93848"><ele>254.0</ele><time>2026-05-02T07:05:46.256Z</time></trkpt><trkpt lat="43.855985" lon="7.93841"><ele>254.0</ele><time>2026-05-02T07:05:49.256Z</time></trkpt><trkpt lat="43.85593" lon="7.9383383"><ele>256.6666666666667</ele><time>2026-05-02T07:05:52.256Z</time></trkpt><trkpt lat="43.8558783" lon="7.93828"><ele>259.33333333333337</ele><time>2026-05-02T07:05:55.256Z</time></trkpt><trkpt lat="43.8557933" lon="7.9382517"><ele>262.0</ele><time>2026-05-02T07:05:58.256Z</time></trkpt><trkpt lat="43.855725" lon="7.93824"><ele>264.6666666666667</ele><time>2026-05-02T07:06:00.257Z</time></trkpt><trkpt lat="43.855655" lon="7.938245"><ele>267.3333333333333</ele><time>2026-05-02T07:06:02.256Z</time></trkpt><trkpt lat="43.8555667" lon="7.9382583"><ele>270.0</ele><time>2026-05-02T07:06:05.256Z</time></trkpt><trkpt lat="43.8554567" lon="7.9382633"><ele>270.0</ele><time>2026-05-02T07:06:09.256Z</time></trkpt><trkpt lat="43.8553667" lon="7.9383017"><ele>270.0</ele><time>2026-05-02T07:06:12.257Z</time></trkpt><trkpt lat="43.8552983" lon="7.9383417"><ele>270.0</ele><time>2026-05-02T07:06:14.256Z</time></trkpt><trkpt lat="43.8552117" lon="7.938355"><ele>270.0</ele><time>2026-05-02T07:06:17.256Z</time></trkpt><trkpt lat="43.85515" lon="7.9382817"><ele>270.0</ele><time>2026-05-02T07:06:20.256Z</time></trkpt><trkpt lat="43.8551833" lon="7.9381967"><ele>270.0</ele><time>2026-05-02T07:06:22.256Z</time></trkpt><trkpt lat="43.8552483" lon="7.93812"><ele>270.0</ele><time>2026-05-02T07:06:25.256Z</time></trkpt><trkpt lat="43.8553033" lon="7.9380717"><ele>270.0</ele><time>2026-05-02T07:06:27.256Z</time></trkpt><trkpt lat="43.85535" lon="7.9380083"><ele>270.0</ele><time>2026-05-02T07:06:29.256Z</time></trkpt><trkpt lat="43.8553983" lon="7.9379067"><ele>270.0</ele><time>2026-05-02T07:06:32.256Z</time></trkpt><trkpt lat="43.855445" lon="7.9378017"><ele>270.0</ele><time>2026-05-02T07:06:35.256Z</time></trkpt><trkpt lat="43.8554867" lon="7.9376933"><ele>270.0</ele><time>2026-05-02T07:06:38.256Z</time></trkpt><trkpt lat="43.85552" lon="7.9375783"><ele>271.5</ele><time>2026-05-02T07:06:41.256Z</time></trkpt><trkpt lat="43.85556" lon="7.9374717"><ele>273.0</ele><time>2026-05-02T07:06:44.256Z</time></trkpt><trkpt lat="43.8555917" lon="7.9373917"><ele>274.5</ele><time>2026-05-02T07:06:46.256Z</time></trkpt><trkpt lat="43.855635" lon="7.93729"><ele>276.0</ele><time>2026-05-02T07:06:49.256Z</time></trkpt><trkpt lat="43.85566" lon="7.937185"><ele>277.5</ele><time>2026-05-02T07:06:52.256Z</time></trkpt><trkpt lat="43.85569" lon="7.9370767"><ele>279.0</ele><time>2026-05-02T07:06:55.256Z</time></trkpt><trkpt lat="43.8557317" lon="7.9369767"><ele>278.99999999999994</ele><time>2026-05-02T07:06:58.256Z</time></trkpt><trkpt lat="43.85577" lon="7.9369"><ele>279.0</ele><time>2026-05-02T07:07:00.256Z</time></trkpt><trkpt lat="43.8558067" lon="7.9368017"><ele>279.0</ele><time>2026-05-02T07:07:03.256Z</time></trkpt><trkpt lat="43.855845" lon="7.9367183"><ele>279.0</ele><time>2026-05-02T07:07:06.257Z</time></trkpt><trkpt lat="43.8558933" lon="7.936615"><ele>279.0</ele><time>2026-05-02T07:07:09.256Z</time></trkpt><trkpt lat="43.85591" lon="7.9365217"><ele>278.99999999999994</ele><time>2026-05-02T07:07:11.256Z</time></trkpt><trkpt lat="43.8559217" lon="7.936435"><ele>279.0</ele><time>2026-05-02T07:07:13.256Z</time></trkpt><trkpt lat="43.85593" lon="7.93634"><ele>279.0</ele><time>2026-05-02T07:07:16.257Z</time></trkpt><trkpt lat="43.8559383" lon="7.9362533"><ele>279.0</ele><time>2026-05-02T07:07:18.256Z</time></trkpt><trkpt lat="43.85594" lon="7.93614"><ele>279.0</ele><time>2026-05-02T07:07:21.256Z</time></trkpt><trkpt lat="43.8559467" lon="7.936035"><ele>279.0</ele><time>2026-05-02T07:07:24.256Z</time></trkpt><trkpt lat="43.8559417" lon="7.93592"><ele>279.0</ele><time>2026-05-02T07:07:27.257Z</time></trkpt><trkpt lat="43.8559283" lon="7.93583"><ele>279.0</ele><time>2026-05-02T07:07:29.256Z</time></trkpt><trkpt lat="43.8559167" lon="7.935705"><ele>279.3333333333333</ele><time>2026-05-02T07:07:32.256Z</time></trkpt><trkpt lat="43.8559133" lon="7.9355967"><ele>279.6666666666667</ele><time>2026-05-02T07:07:34.256Z</time></trkpt><trkpt lat="43.8558917" lon="7.9355017"><ele>280.0</ele><time>2026-05-02T07:07:36.256Z</time></trkpt><trkpt lat="43.8558817" lon="7.9354017"><ele>280.33333333333337</ele><time>2026-05-02T07:07:39.256Z</time></trkpt><trkpt lat="43.8559017" lon="7.9353133"><ele>280.6666666666667</ele><time>2026-05-02T07:07:42.256Z</time></trkpt><trkpt lat="43.8559383" lon="7.9352367"><ele>281.0</ele><time>2026-05-02T07:07:46.256Z</time></trkpt><trkpt lat="43.856035" lon="7.93519"><ele>280.0</ele><time>2026-05-02T07:09:10.256Z</time></trkpt><trkpt lat="43.8561" lon="7.935135"><ele>279.0</ele><time>2026-05-02T07:09:14.256Z</time></trkpt><trkpt lat="43.8561567" lon="7.9350583"><ele>278.0</ele><time>2026-05-02T07:09:17.256Z</time></trkpt><trkpt lat="43.85622" lon="7.9350083"><ele>277.0</ele><time>2026-05-02T07:09:20.256Z</time></trkpt><trkpt lat="43.8562817" lon="7.93493"><ele>276.0</ele><time>2026-05-02T07:09:23.256Z</time></trkpt><trkpt lat="43.8563133" lon="7.9348483"><ele>275.0</ele><time>2026-05-02T07:09:25.256Z</time></trkpt><trkpt lat="43.8563267" lon="7.93475"><ele>275.0</ele><time>2026-05-02T07:09:27.257Z</time></trkpt><trkpt lat="43.8563333" lon="7.9346433"><ele>275.0</ele><time>2026-05-02T07:09:29.256Z</time></trkpt><trkpt lat="43.8563433" lon="7.9345483"><ele>275.0</ele><time>2026-05-02T07:09:31.256Z</time></trkpt><trkpt lat="43.8563833" lon="7.93443"><ele>275.0</ele><time>2026-05-02T07:09:34.256Z</time></trkpt><trkpt lat="43.8564133" lon="7.934345"><ele>275.0</ele><time>2026-05-02T07:09:36.256Z</time></trkpt><trkpt lat="43.856465" lon="7.9342317"><ele>275.0</ele><time>2026-05-02T07:09:39.256Z</time></trkpt><trkpt lat="43.8564967" lon="7.934145"><ele>277.0</ele><time>2026-05-02T07:09:41.256Z</time></trkpt><trkpt lat="43.8565617" lon="7.9340533"><ele>279.0</ele><time>2026-05-02T07:09:44.256Z</time></trkpt><trkpt lat="43.8566233" lon="7.9339783"><ele>281.0</ele><time>2026-05-02T07:09:47.256Z</time></trkpt><trkpt lat="43.8566783" lon="7.9339033"><ele>283.0</ele><time>2026-05-02T07:09:50.256Z</time></trkpt><trkpt lat="43.8567333" lon="7.9338183"><ele>285.0</ele><time>2026-05-02T07:09:53.256Z</time></trkpt><trkpt lat="43.856775" lon="7.9337517"><ele>287.0</ele><time>2026-05-02T07:09:55.256Z</time></trkpt><trkpt lat="43.8568167" lon="7.93368"><ele>287.0</ele><time>2026-05-02T07:09:57.256Z</time></trkpt><trkpt lat="43.8568783" lon="7.9336033"><ele>287.0</ele><time>2026-05-02T07:10:00.256Z</time></trkpt><trkpt lat="43.856955" lon="7.9335383"><ele>287.0</ele><time>2026-05-02T07:10:03.256Z</time></trkpt><trkpt lat="43.8570433" lon="7.933485"><ele>287.0</ele><time>2026-05-02T07:10:06.256Z</time></trkpt><trkpt lat="43.857115" lon="7.9334433"><ele>287.0</ele><time>2026-05-02T07:10:08.256Z</time></trkpt><trkpt lat="43.8571833" lon="7.9333933"><ele>287.0</ele><time>2026-05-02T07:10:10.256Z</time></trkpt><trkpt lat="43.857245" lon="7.9333283"><ele>287.5</ele><time>2026-05-02T07:10:12.257Z</time></trkpt><trkpt lat="43.8573117" lon="7.9332817"><ele>288.0</ele><time>2026-05-02T07:10:14.256Z</time></trkpt><trkpt lat="43.8573867" lon="7.933285"><ele>288.5</ele><time>2026-05-02T07:10:16.256Z</time></trkpt><trkpt lat="43.8574683" lon="7.9333133"><ele>289.0</ele><time>2026-05-02T07:10:18.256Z</time></trkpt><trkpt lat="43.857555" lon="7.9333617"><ele>289.5</ele><time>2026-05-02T07:10:20.256Z</time></trkpt><trkpt lat="43.8576283" lon="7.9334267"><ele>290.0</ele><time>2026-05-02T07:10:22.256Z</time></trkpt><trkpt lat="43.857695" lon="7.9335067"><ele>290.0</ele><time>2026-05-02T07:10:24.256Z</time></trkpt><trkpt lat="43.8577483" lon="7.93358"><ele>290.0</ele><time>2026-05-02T07:10:26.257Z</time></trkpt><trkpt lat="43.8577917" lon="7.9336517"><ele>290.0</ele><time>2026-05-02T07:10:28.256Z</time></trkpt><trkpt lat="43.85783" lon="7.9337317"><ele>290.0</ele><time>2026-05-02T07:10:31.257Z</time></trkpt><trkpt lat="43.85785" lon="7.933825"><ele>290.0</ele><time>2026-05-02T07:10:38.257Z</time></trkpt><trkpt lat="43.8578867" lon="7.9339167"><ele>290.0</ele><time>2026-05-02T07:10:42.256Z</time></trkpt><trkpt lat="43.8579367" lon="7.9339867"><ele>290.0</ele><time>2026-05-02T07:10:45.256Z</time></trkpt><trkpt lat="43.8579983" lon="7.9340083"><ele>290.0</ele><time>2026-05-02T07:10:49.256Z</time></trkpt><trkpt lat="43.8580217" lon="7.9339233"><ele>290.0</ele><time>2026-05-02T07:10:54.256Z</time></trkpt><trkpt lat="43.857985" lon="7.93383"><ele>290.0</ele><time>2026-05-02T07:10:58.256Z</time></trkpt><trkpt lat="43.857965" lon="7.9337367"><ele>290.0</ele><time>2026-05-02T07:11:01.256Z</time></trkpt><trkpt lat="43.8579367" lon="7.93365"><ele>290.0</ele><time>2026-05-02T07:11:04.256Z</time></trkpt><trkpt lat="43.85791" lon="7.9335583"><ele>290.0</ele><time>2026-05-02T07:11:07.256Z</time></trkpt><trkpt lat="43.8578933" lon="7.9334733"><ele>290.0</ele><time>2026-05-02T07:11:10.256Z</time></trkpt><trkpt lat="43.8578367" lon="7.9333767"><ele>292.6666666666667</ele><time>2026-05-02T07:11:14.256Z</time></trkpt><trkpt lat="43.8577833" lon="7.93328"><ele>295.33333333333337</ele><time>2026-05-02T07:11:17.256Z</time></trkpt><trkpt lat="43.85775" lon="7.933205"><ele>298.0</ele><time>2026-05-02T07:11:19.257Z</time></trkpt><trkpt lat="43.8577167" lon="7.93311"><ele>300.6666666666667</ele><time>2026-05-02T07:11:22.256Z</time></trkpt><trkpt lat="43.8576533" lon="7.9330233"><ele>303.3333333333333</ele><time>2026-05-02T07:11:25.256Z</time></trkpt><trkpt lat="43.85762" lon="7.9329467"><ele>306.0</ele><time>2026-05-02T07:11:29.256Z</time></trkpt><trkpt lat="43.8575533" lon="7.93289"><ele>306.0</ele><time>2026-05-02T07:11:33.256Z</time></trkpt><trkpt lat="43.8574883" lon="7.9328583"><ele>306.0</ele><time>2026-05-02T07:11:36.257Z</time></trkpt><trkpt lat="43.8574083" lon="7.9328383"><ele>306.0</ele><time>2026-05-02T07:11:41.257Z</time></trkpt><trkpt lat="43.8574917" lon="7.9328283"><ele>306.0</ele><time>2026-05-02T07:11:50.256Z</time></trkpt><trkpt lat="43.8575567" lon="7.9328283"><ele>306.0</ele><time>2026-05-02T07:11:52.256Z</time></trkpt><trkpt lat="43.8576233" lon="7.9328117"><ele>306.0</ele><time>2026-05-02T07:11:55.256Z</time></trkpt><trkpt lat="43.8575467" lon="7.93277"><ele>306.0</ele><time>2026-05-02T07:12:00.256Z</time></trkpt><trkpt lat="43.8574533" lon="7.9327683"><ele>306.0</ele><time>2026-05-02T07:12:03.256Z</time></trkpt><trkpt lat="43.8573617" lon="7.93277"><ele>306.0</ele><time>2026-05-02T07:12:06.256Z</time></trkpt><trkpt lat="43.8572767" lon="7.93277"><ele>306.0</ele><time>2026-05-02T07:12:09.256Z</time></trkpt><trkpt lat="43.8571933" lon="7.932775"><ele>306.0</ele><time>2026-05-02T07:12:12.256Z</time></trkpt><trkpt lat="43.8572533" lon="7.932715"><ele>306.0</ele><time>2026-05-02T07:12:22.256Z</time></trkpt><trkpt lat="43.8573583" lon="7.932715"><ele>306.0</ele><time>2026-05-02T07:12:24.256Z</time></trkpt><trkpt lat="43.8574233" lon="7.9326983"><ele>306.0</ele><time>2026-05-02T07:12:26.256Z</time></trkpt><trkpt lat="43.857495" lon="7.932635"><ele>306.0</ele><time>2026-05-02T07:12:30.256Z</time></trkpt><trkpt lat="43.8575567" lon="7.9326133"><ele>306.0</ele><time>2026-05-02T07:12:32.256Z</time></trkpt><trkpt lat="43.85764" lon="7.9326017"><ele>306.0</ele><time>2026-05-02T07:12:34.256Z</time></trkpt><trkpt lat="43.8577083" lon="7.9326333"><ele>306.0</ele><time>2026-05-02T07:12:36.256Z</time></trkpt><trkpt lat="43.85776" lon="7.9326883"><ele>306.0</ele><time>2026-05-02T07:12:38.257Z</time></trkpt><trkpt lat="43.8578117" lon="7.9327583"><ele>306.0</ele><time>2026-05-02T07:12:41.256Z</time></trkpt><trkpt lat="43.857865" lon="7.9328283"><ele>306.6666666666667</ele><time>2026-05-02T07:12:44.256Z</time></trkpt><trkpt lat="43.8579117" lon="7.93292"><ele>307.3333333333333</ele><time>2026-05-02T07:12:47.256Z</time></trkpt><trkpt lat="43.8579167" lon="7.9330167"><ele>308.0</ele><time>2026-05-02T07:12:51.257Z</time></trkpt><trkpt lat="43.85792" lon="7.9331367"><ele>308.66666666666663</ele><time>2026-05-02T07:12:55.256Z</time></trkpt><trkpt lat="43.85798" lon="7.933215"><ele>309.3333333333333</ele><time>2026-05-02T07:12:59.256Z</time></trkpt><trkpt lat="43.8580433" lon="7.9332583"><ele>310.0</ele><time>2026-05-02T07:13:02.256Z</time></trkpt><trkpt lat="43.858095" lon="7.9332017"><ele>310.0</ele><time>2026-05-02T07:13:06.256Z</time></trkpt><trkpt lat="43.8580967" lon="7.933095"><ele>310.0</ele><time>2026-05-02T07:13:10.257Z</time></trkpt><trkpt lat="43.858135" lon="7.9330083"><ele>310.0</ele><time>2026-05-02T07:13:15.257Z</time></trkpt><trkpt lat="43.8580717" lon="7.932955"><ele>310.0</ele><time>2026-05-02T07:13:20.256Z</time></trkpt><trkpt lat="43.8581083" lon="7.93287"><ele>310.0</ele><time>2026-05-02T07:13:28.256Z</time></trkpt><trkpt lat="43.85814" lon="7.9327883"><ele>310.0</ele><time>2026-05-02T07:13:32.256Z</time></trkpt><trkpt lat="43.8581433" lon="7.9326983"><ele>310.0</ele><time>2026-05-02T07:13:36.256Z</time></trkpt><trkpt lat="43.8581267" lon="7.932605"><ele>313.3333333333333</ele><time>2026-05-02T07:13:40.256Z</time></trkpt><trkpt lat="43.8580667" lon="7.9325383"><ele>316.66666666666663</ele><time>2026-05-02T07:13:44.256Z</time></trkpt><trkpt lat="43.8579933" lon="7.9324733"><ele>320.0</ele><time>2026-05-02T07:13:48.256Z</time></trkpt><trkpt lat="43.857925" lon="7.93241"><ele>323.3333333333333</ele><time>2026-05-02T07:13:52.256Z</time></trkpt><trkpt lat="43.8578533" lon="7.9323683"><ele>326.6666666666667</ele><time>2026-05-02T07:13:56.256Z</time></trkpt><trkpt lat="43.857775" lon="7.93236"><ele>330.0</ele><time>2026-05-02T07:14:00.256Z</time></trkpt><trkpt lat="43.8577083" lon="7.9323733"><ele>330.0</ele><time>2026-05-02T07:14:03.256Z</time></trkpt><trkpt lat="43.8576267" lon="7.93237"><ele>330.0</ele><time>2026-05-02T07:14:06.256Z</time></trkpt><trkpt lat="43.85755" lon="7.9323583"><ele>330.0</ele><time>2026-05-02T07:14:09.256Z</time></trkpt><trkpt lat="43.8574533" lon="7.9323417"><ele>330.0</ele><time>2026-05-02T07:14:11.256Z</time></trkpt><trkpt lat="43.8573717" lon="7.9323283"><ele>330.0</ele><time>2026-05-02T07:14:13.256Z</time></trkpt><trkpt lat="43.8572917" lon="7.932325"><ele>330.0</ele><time>2026-05-02T07:14:15.256Z</time></trkpt><trkpt lat="43.8572267" lon="7.932315"><ele>330.3333333333333</ele><time>2026-05-02T07:14:17.256Z</time></trkpt><trkpt lat="43.8571433" lon="7.9322883"><ele>330.6666666666667</ele><time>2026-05-02T07:14:20.257Z</time></trkpt><trkpt lat="43.8570767" lon="7.9322917"><ele>331.0</ele><time>2026-05-02T07:14:22.257Z</time></trkpt><trkpt lat="43.8569917" lon="7.93232"><ele>331.33333333333337</ele><time>2026-05-02T07:14:24.256Z</time></trkpt><trkpt lat="43.8569083" lon="7.9323333"><ele>331.6666666666667</ele><time>2026-05-02T07:14:25.256Z</time></trkpt><trkpt lat="43.856845" lon="7.9323517"><ele>332.0</ele><time>2026-05-02T07:14:27.256Z</time></trkpt><trkpt lat="43.8567583" lon="7.9323667"><ele>332.0</ele><time>2026-05-02T07:14:30.256Z</time></trkpt><trkpt lat="43.856695" lon="7.93236"><ele>332.0</ele><time>2026-05-02T07:14:34.256Z</time></trkpt><trkpt lat="43.8566333" lon="7.9323"><ele>332.0</ele><time>2026-05-02T07:14:42.256Z</time></trkpt><trkpt lat="43.85659" lon="7.9322117"><ele>332.0</ele><time>2026-05-02T07:14:45.256Z</time></trkpt><trkpt lat="43.85656" lon="7.9321067"><ele>332.0</ele><time>2026-05-02T07:14:48.256Z</time></trkpt><trkpt lat="43.8565117" lon="7.932005"><ele>332.0</ele><time>2026-05-02T07:14:51.256Z</time></trkpt><trkpt lat="43.85646" lon="7.9319333"><ele>332.0</ele><time>2026-05-02T07:14:53.256Z</time></trkpt><trkpt lat="43.8564317" lon="7.931855"><ele>332.0</ele><time>2026-05-02T07:14:55.256Z</time></trkpt><trkpt lat="43.8563917" lon="7.9317367"><ele>332.0</ele><time>2026-05-02T07:14:58.256Z</time></trkpt><trkpt lat="43.8563533" lon="7.9316433"><ele>332.0</ele><time>2026-05-02T07:15:00.256Z</time></trkpt><trkpt lat="43.856305" lon="7.93156"><ele>332.0</ele><time>2026-05-02T07:15:02.256Z</time></trkpt><trkpt lat="43.8562433" lon="7.9314867"><ele>332.0</ele><time>2026-05-02T07:15:04.256Z</time></trkpt><trkpt lat="43.8561783" lon="7.9314233"><ele>331.1666666666667</ele><time>2026-05-02T07:15:06.256Z</time></trkpt><trkpt lat="43.8561083" lon="7.9313817"><ele>330.33333333333337</ele><time>2026-05-02T07:15:08.256Z</time></trkpt><trkpt lat="43.856045" lon="7.93134"><ele>329.5</ele><time>2026-05-02T07:15:10.256Z</time></trkpt><trkpt lat="43.8559917" lon="7.931275"><ele>328.6666666666667</ele><time>2026-05-02T07:15:12.256Z</time></trkpt><trkpt lat="43.8559517" lon="7.9311683"><ele>327.8333333333333</ele><time>2026-05-02T07:15:14.256Z</time></trkpt><trkpt lat="43.855905" lon="7.931065"><ele>327.0</ele><time>2026-05-02T07:15:16.256Z</time></trkpt><trkpt lat="43.8558467" lon="7.930965"><ele>328.3333333333333</ele><time>2026-05-02T07:15:18.256Z</time></trkpt><trkpt lat="43.8557983" lon="7.930865"><ele>329.6666666666667</ele><time>2026-05-02T07:15:20.257Z</time></trkpt><trkpt lat="43.855755" lon="7.9307767"><ele>331.0</ele><time>2026-05-02T07:15:22.256Z</time></trkpt><trkpt lat="43.85571" lon="7.93068"><ele>332.33333333333337</ele><time>2026-05-02T07:15:24.256Z</time></trkpt><trkpt lat="43.8556633" lon="7.9305633"><ele>333.6666666666667</ele><time>2026-05-02T07:15:26.256Z</time></trkpt><trkpt lat="43.855655" lon="7.9304417"><ele>335.0</ele><time>2026-05-02T07:15:28.256Z</time></trkpt><trkpt lat="43.8556383" lon="7.9303233"><ele>335.0</ele><time>2026-05-02T07:15:30.256Z</time></trkpt><trkpt lat="43.8556083" lon="7.9302033"><ele>335.0</ele><time>2026-05-02T07:15:32.256Z</time></trkpt><trkpt lat="43.8555783" lon="7.930095"><ele>335.0</ele><time>2026-05-02T07:15:34.256Z</time></trkpt><trkpt lat="43.8555467" lon="7.9299967"><ele>335.0</ele><time>2026-05-02T07:15:36.256Z</time></trkpt><trkpt lat="43.8555133" lon="7.9299067"><ele>335.0</ele><time>2026-05-02T07:15:38.256Z</time></trkpt><trkpt lat="43.8554817" lon="7.9298133"><ele>335.0</ele><time>2026-05-02T07:15:40.256Z</time></trkpt><trkpt lat="43.8554117" lon="7.9297333"><ele>336.4285714285714</ele><time>2026-05-02T07:15:43.256Z</time></trkpt><trkpt lat="43.8553483" lon="7.9297217"><ele>337.85714285714283</ele><time>2026-05-02T07:15:46.256Z</time></trkpt><trkpt lat="43.8553283" lon="7.9296383"><ele>339.2857142857143</ele><time>2026-05-02T07:15:53.256Z</time></trkpt><trkpt lat="43.8553783" lon="7.9295617"><ele>340.71428571428567</ele><time>2026-05-02T07:15:55.256Z</time></trkpt><trkpt lat="43.8554267" lon="7.929475"><ele>342.1428571428571</ele><time>2026-05-02T07:15:57.256Z</time></trkpt><trkpt lat="43.85546" lon="7.9293833"><ele>343.57142857142856</ele><time>2026-05-02T07:15:59.256Z</time></trkpt><trkpt lat="43.8554967" lon="7.929275"><ele>345.0</ele><time>2026-05-02T07:16:02.256Z</time></trkpt><trkpt lat="43.8555017" lon="7.92918"><ele>345.57142857142856</ele><time>2026-05-02T07:16:05.256Z</time></trkpt><trkpt lat="43.855485" lon="7.9290767"><ele>346.1428571428571</ele><time>2026-05-02T07:16:08.257Z</time></trkpt><trkpt lat="43.855475" lon="7.9289783"><ele>346.71428571428567</ele><time>2026-05-02T07:16:10.256Z</time></trkpt><trkpt lat="43.8554733" lon="7.9288733"><ele>347.2857142857143</ele><time>2026-05-02T07:16:12.256Z</time></trkpt><trkpt lat="43.8554733" lon="7.9287733"><ele>347.85714285714283</ele><time>2026-05-02T07:16:14.256Z</time></trkpt><trkpt lat="43.855465" lon="7.9286833"><ele>348.4285714285714</ele><time>2026-05-02T07:16:16.256Z</time></trkpt><trkpt lat="43.85543" lon="7.92859"><ele>349.0</ele><time>2026-05-02T07:16:18.256Z</time></trkpt><trkpt lat="43.8554033" lon="7.928495"><ele>348.99999999999994</ele><time>2026-05-02T07:16:20.256Z</time></trkpt><trkpt lat="43.8554083" lon="7.928395"><ele>349.0</ele><time>2026-05-02T07:16:22.257Z</time></trkpt><trkpt lat="43.85546" lon="7.9283267"><ele>349.0</ele><time>2026-05-02T07:16:24.256Z</time></trkpt><trkpt lat="43.8555267" lon="7.928325"><ele>349.0</ele><time>2026-05-02T07:16:28.256Z</time></trkpt><trkpt lat="43.85559" lon="7.92831"><ele>349.0</ele><time>2026-05-02T07:16:38.257Z</time></trkpt><trkpt lat="43.85566" lon="7.9283"><ele>348.99999999999994</ele><time>2026-05-02T07:17:12.256Z</time></trkpt><trkpt lat="43.8557283" lon="7.9283517"><ele>349.0</ele><time>2026-05-02T07:17:16.256Z</time></trkpt><trkpt lat="43.8557983" lon="7.9283717"><ele>348.2857142857143</ele><time>2026-05-02T07:17:19.256Z</time></trkpt><trkpt lat="43.855875" lon="7.92839"><ele>347.57142857142856</ele><time>2026-05-02T07:17:22.256Z</time></trkpt><trkpt lat="43.85594" lon="7.92839"><ele>346.8571428571429</ele><time>2026-05-02T07:17:24.256Z</time></trkpt><trkpt lat="43.856025" lon="7.9283833"><ele>346.1428571428571</ele><time>2026-05-02T07:17:27.256Z</time></trkpt><trkpt lat="43.8560917" lon="7.9283533"><ele>345.42857142857144</ele><time>2026-05-02T07:17:30.256Z</time></trkpt><trkpt lat="43.8561433" lon="7.9283017"><ele>344.7142857142857</ele><time>2026-05-02T07:17:33.256Z</time></trkpt><trkpt lat="43.8561833" lon="7.9282317"><ele>344.0</ele><time>2026-05-02T07:17:36.256Z</time></trkpt><trkpt lat="43.856235" lon="7.9281733"><ele>347.5</ele><time>2026-05-02T07:17:39.256Z</time></trkpt><trkpt lat="43.8563" lon="7.9281233"><ele>351.0</ele><time>2026-05-02T07:17:43.257Z</time></trkpt><trkpt lat="43.856335" lon="7.9281983"><ele>354.5</ele><time>2026-05-02T07:17:51.256Z</time></trkpt><trkpt lat="43.8563433" lon="7.9283183"><ele>358.0</ele><time>2026-05-02T07:17:55.256Z</time></trkpt><trkpt lat="43.856345" lon="7.9284133"><ele>361.5</ele><time>2026-05-02T07:17:58.257Z</time></trkpt><trkpt lat="43.8563083" lon="7.92851"><ele>365.0</ele><time>2026-05-02T07:18:01.256Z</time></trkpt><trkpt lat="43.8562583" lon="7.9286067"><ele>365.5714285714286</ele><time>2026-05-02T07:18:04.256Z</time></trkpt><trkpt lat="43.8562383" lon="7.92871"><ele>366.14285714285717</ele><time>2026-05-02T07:18:07.256Z</time></trkpt><trkpt lat="43.8562633" lon="7.9287967"><ele>366.7142857142857</ele><time>2026-05-02T07:18:10.256Z</time></trkpt><trkpt lat="43.8563167" lon="7.9288633"><ele>367.28571428571433</ele><time>2026-05-02T07:18:13.256Z</time></trkpt><trkpt lat="43.8563767" lon="7.9289183"><ele>367.85714285714283</ele><time>2026-05-02T07:18:16.256Z</time></trkpt><trkpt lat="43.8564483" lon="7.9289683"><ele>368.42857142857144</ele><time>2026-05-02T07:18:19.257Z</time></trkpt><trkpt lat="43.856515" lon="7.9290183"><ele>369.0</ele><time>2026-05-02T07:18:22.256Z</time></trkpt><trkpt lat="43.8565867" lon="7.9290667"><ele>369.0</ele><time>2026-05-02T07:18:25.256Z</time></trkpt><trkpt lat="43.8566417" lon="7.9291167"><ele>369.0</ele><time>2026-05-02T07:18:27.256Z</time></trkpt><trkpt lat="43.8567117" lon="7.92916"><ele>369.0</ele><time>2026-05-02T07:18:29.256Z</time></trkpt><trkpt lat="43.8568033" lon="7.9291817"><ele>369.0</ele><time>2026-05-02T07:18:32.256Z</time></trkpt><trkpt lat="43.856895" lon="7.929155"><ele>369.0</ele><time>2026-05-02T07:18:35.257Z</time></trkpt><trkpt lat="43.8569767" lon="7.929125"><ele>369.0</ele><time>2026-05-02T07:18:38.256Z</time></trkpt><trkpt lat="43.857045" lon="7.9290817"><ele>370.3333333333333</ele><time>2026-05-02T07:18:40.256Z</time></trkpt><trkpt lat="43.857125" lon="7.9290517"><ele>371.6666666666667</ele><time>2026-05-02T07:18:43.256Z</time></trkpt><trkpt lat="43.8571983" lon="7.92901"><ele>373.0</ele><time>2026-05-02T07:18:46.256Z</time></trkpt><trkpt lat="43.8572667" lon="7.92894"><ele>374.33333333333337</ele><time>2026-05-02T07:18:49.257Z</time></trkpt><trkpt lat="43.8573233" lon="7.9288683"><ele>375.6666666666667</ele><time>2026-05-02T07:18:52.256Z</time></trkpt><trkpt lat="43.857385" lon="7.92878"><ele>377.0</ele><time>2026-05-02T07:18:55.256Z</time></trkpt><trkpt lat="43.8574367" lon="7.92872"><ele>377.0</ele><time>2026-05-02T07:18:57.256Z</time></trkpt><trkpt lat="43.8574967" lon="7.9286217"><ele>377.0</ele><time>2026-05-02T07:19:00.257Z</time></trkpt><trkpt lat="43.8575467" lon="7.928525"><ele>377.0</ele><time>2026-05-02T07:19:03.256Z</time></trkpt><trkpt lat="43.8575917" lon="7.9284417"><ele>377.0</ele><time>2026-05-02T07:19:06.256Z</time></trkpt><trkpt lat="43.857635" lon="7.92837"><ele>377.0</ele><time>2026-05-02T07:19:10.257Z</time></trkpt><trkpt lat="43.8576733" lon="7.9282917"><ele>377.0</ele><time>2026-05-02T07:19:13.257Z</time></trkpt><trkpt lat="43.8577083" lon="7.9281967"><ele>377.4285714285714</ele><time>2026-05-02T07:19:23.256Z</time></trkpt><trkpt lat="43.8577117" lon="7.9280833"><ele>377.85714285714283</ele><time>2026-05-02T07:19:26.256Z</time></trkpt><trkpt lat="43.8577" lon="7.9279767"><ele>378.2857142857143</ele><time>2026-05-02T07:19:29.256Z</time></trkpt><trkpt lat="43.8576817" lon="7.9278917"><ele>378.71428571428567</ele><time>2026-05-02T07:19:32.256Z</time></trkpt><trkpt lat="43.8576733" lon="7.9278033"><ele>379.14285714285717</ele><time>2026-05-02T07:19:35.256Z</time></trkpt><trkpt lat="43.8576333" lon="7.92772"><ele>379.57142857142856</ele><time>2026-05-02T07:19:38.256Z</time></trkpt><trkpt lat="43.8576083" lon="7.9276267"><ele>380.0</ele><time>2026-05-02T07:19:41.256Z</time></trkpt><trkpt lat="43.8576133" lon="7.9275333"><ele>382.33333333333337</ele><time>2026-05-02T07:19:45.256Z</time></trkpt><trkpt lat="43.85767" lon="7.9274583"><ele>384.6666666666667</ele><time>2026-05-02T07:19:49.256Z</time></trkpt><trkpt lat="43.8577383" lon="7.9274083"><ele>387.0</ele><time>2026-05-02T07:19:53.256Z</time></trkpt><trkpt lat="43.85781" lon="7.9273567"><ele>389.33333333333337</ele><time>2026-05-02T07:19:57.256Z</time></trkpt><trkpt lat="43.8578867" lon="7.9273967"><ele>391.6666666666667</ele><time>2026-05-02T07:20:02.256Z</time></trkpt><trkpt lat="43.85796" lon="7.9274383"><ele>394.0</ele><time>2026-05-02T07:20:06.256Z</time></trkpt><trkpt lat="43.858025" lon="7.9274567"><ele>394.00000000000006</ele><time>2026-05-02T07:20:09.257Z</time></trkpt><trkpt lat="43.8580983" lon="7.9274433"><ele>394.0</ele><time>2026-05-02T07:20:12.257Z</time></trkpt><trkpt lat="43.8581583" lon="7.927415"><ele>394.0</ele><time>2026-05-02T07:20:14.256Z</time></trkpt><trkpt lat="43.8582267" lon="7.92737"><ele>394.0</ele><time>2026-05-02T07:20:16.255Z</time></trkpt><trkpt lat="43.858295" lon="7.9272983"><ele>394.00000000000006</ele><time>2026-05-02T07:20:18.255Z</time></trkpt><trkpt lat="43.8583483" lon="7.9272017"><ele>394.0</ele><time>2026-05-02T07:20:21.255Z</time></trkpt><trkpt lat="43.85841" lon="7.92717"><ele>393.1666666666667</ele><time>2026-05-02T07:20:26.255Z</time></trkpt><trkpt lat="43.858495" lon="7.92716"><ele>392.33333333333337</ele><time>2026-05-02T07:20:43.255Z</time></trkpt><trkpt lat="43.858585" lon="7.9272133"><ele>391.5</ele><time>2026-05-02T07:20:46.256Z</time></trkpt><trkpt lat="43.85866" lon="7.92726"><ele>390.66666666666663</ele><time>2026-05-02T07:20:49.255Z</time></trkpt><trkpt lat="43.8587167" lon="7.9273117"><ele>389.8333333333333</ele><time>2026-05-02T07:20:53.255Z</time></trkpt><trkpt lat="43.8588283" lon="7.92728"><ele>389.0</ele><time>2026-05-02T07:21:07.255Z</time></trkpt><trkpt lat="43.8589267" lon="7.927275"><ele>389.0</ele><time>2026-05-02T07:21:10.255Z</time></trkpt><trkpt lat="43.85899" lon="7.92723"><ele>389.0</ele><time>2026-05-02T07:21:12.255Z</time></trkpt><trkpt lat="43.8590633" lon="7.9271833"><ele>389.0</ele><time>2026-05-02T07:21:14.255Z</time></trkpt><trkpt lat="43.8591333" lon="7.92718"><ele>389.0</ele><time>2026-05-02T07:21:16.255Z</time></trkpt><trkpt lat="43.8591967" lon="7.9272017"><ele>389.0</ele><time>2026-05-02T07:21:18.255Z</time></trkpt><trkpt lat="43.8592517" lon="7.9272483"><ele>389.0</ele><time>2026-05-02T07:21:20.255Z</time></trkpt><trkpt lat="43.859335" lon="7.9272833"><ele>389.0</ele><time>2026-05-02T07:21:23.255Z</time></trkpt><trkpt lat="43.8594117" lon="7.9272883"><ele>388.8571428571429</ele><time>2026-05-02T07:21:25.255Z</time></trkpt><trkpt lat="43.8594883" lon="7.92727"><ele>388.71428571428567</ele><time>2026-05-02T07:21:27.255Z</time></trkpt><trkpt lat="43.85956" lon="7.92725"><ele>388.57142857142856</ele><time>2026-05-02T07:21:29.255Z</time></trkpt><trkpt lat="43.8596417" lon="7.9272333"><ele>388.42857142857144</ele><time>2026-05-02T07:21:31.255Z</time></trkpt><trkpt lat="43.8597133" lon="7.9272083"><ele>388.28571428571433</ele><time>2026-05-02T07:21:33.255Z</time></trkpt><trkpt lat="43.8597717" lon="7.9271567"><ele>388.1428571428571</ele><time>2026-05-02T07:21:35.256Z</time></trkpt><trkpt lat="43.8598367" lon="7.9271183"><ele>388.0</ele><time>2026-05-02T07:21:37.255Z</time></trkpt><trkpt lat="43.8599033" lon="7.927105"><ele>388.0</ele><time>2026-05-02T07:21:39.255Z</time></trkpt><trkpt lat="43.8599617" lon="7.9270283"><ele>388.0</ele><time>2026-05-02T07:21:41.255Z</time></trkpt><trkpt lat="43.86" lon="7.9269317"><ele>388.0</ele><time>2026-05-02T07:21:43.256Z</time></trkpt><trkpt lat="43.8600117" lon="7.92683"><ele>388.0</ele><time>2026-05-02T07:21:45.256Z</time></trkpt><trkpt lat="43.86" lon="7.926735"><ele>388.0</ele><time>2026-05-02T07:21:47.256Z</time></trkpt><trkpt lat="43.8599867" lon="7.92664"><ele>388.0</ele><time>2026-05-02T07:21:49.255Z</time></trkpt><trkpt lat="43.8599683" lon="7.9265433"><ele>388.0</ele><time>2026-05-02T07:21:51.255Z</time></trkpt><trkpt lat="43.8599533" lon="7.9264283"><ele>388.1428571428571</ele><time>2026-05-02T07:21:54.256Z</time></trkpt><trkpt lat="43.85993" lon="7.9263383"><ele>388.28571428571433</ele><time>2026-05-02T07:21:58.255Z</time></trkpt><trkpt lat="43.8599133" lon="7.92625"><ele>388.42857142857144</ele><time>2026-05-02T07:22:03.255Z</time></trkpt><trkpt lat="43.85985" lon="7.9262667"><ele>388.57142857142856</ele><time>2026-05-02T07:22:27.255Z</time></trkpt><trkpt lat="43.8598217" lon="7.92635"><ele>388.71428571428567</ele><time>2026-05-02T07:22:31.256Z</time></trkpt><trkpt lat="43.8598717" lon="7.9264117"><ele>388.8571428571429</ele><time>2026-05-02T07:22:37.255Z</time></trkpt><trkpt lat="43.859895" lon="7.9263217"><ele>389.0</ele><time>2026-05-02T07:27:29.256Z</time></trkpt><trkpt lat="43.85985" lon="7.9262083"><ele>388.99999999999994</ele><time>2026-05-02T07:27:32.256Z</time></trkpt><trkpt lat="43.85981" lon="7.9261283"><ele>389.0</ele><time>2026-05-02T07:27:34.256Z</time></trkpt><trkpt lat="43.8597817" lon="7.926005"><ele>389.0</ele><time>2026-05-02T07:27:37.256Z</time></trkpt><trkpt lat="43.8597583" lon="7.9258833"><ele>389.0</ele><time>2026-05-02T07:27:40.257Z</time></trkpt><trkpt lat="43.8597383" lon="7.92577"><ele>388.99999999999994</ele><time>2026-05-02T07:27:43.256Z</time></trkpt><trkpt lat="43.8597417" lon="7.9256617"><ele>389.0</ele><time>2026-05-02T07:27:46.256Z</time></trkpt><trkpt lat="43.8597283" lon="7.92555"><ele>389.16666666666663</ele><time>2026-05-02T07:27:50.256Z</time></trkpt><trkpt lat="43.8597167" lon="7.9254583"><ele>389.3333333333333</ele><time>2026-05-02T07:27:53.256Z</time></trkpt><trkpt lat="43.8597333" lon="7.92535"><ele>389.5</ele><time>2026-05-02T07:27:57.256Z</time></trkpt><trkpt lat="43.859745" lon="7.9252533"><ele>389.66666666666663</ele><time>2026-05-02T07:28:00.256Z</time></trkpt><trkpt lat="43.8597717" lon="7.9251217"><ele>389.8333333333333</ele><time>2026-05-02T07:28:05.256Z</time></trkpt><trkpt lat="43.85982" lon="7.92503"><ele>390.0</ele><time>2026-05-02T07:28:09.256Z</time></trkpt><trkpt lat="43.8598417" lon="7.9249267"><ele>391.1666666666667</ele><time>2026-05-02T07:28:13.256Z</time></trkpt><trkpt lat="43.8598517" lon="7.9248267"><ele>392.33333333333337</ele><time>2026-05-02T07:28:17.256Z</time></trkpt><trkpt lat="43.8598217" lon="7.9246733"><ele>393.5</ele><time>2026-05-02T07:29:19.256Z</time></trkpt><trkpt lat="43.8598083" lon="7.9245"><ele>394.6666666666667</ele><time>2026-05-02T07:29:25.256Z</time></trkpt><trkpt lat="43.859815" lon="7.92441"><ele>395.83333333333337</ele><time>2026-05-02T07:29:28.256Z</time></trkpt><trkpt lat="43.859855" lon="7.9243333"><ele>397.0</ele><time>2026-05-02T07:29:31.256Z</time></trkpt><trkpt lat="43.8599217" lon="7.9242767"><ele>397.00000000000006</ele><time>2026-05-02T07:29:34.256Z</time></trkpt><trkpt lat="43.8599933" lon="7.9242417"><ele>397.0</ele><time>2026-05-02T07:29:37.256Z</time></trkpt><trkpt lat="43.8600567" lon="7.9242333"><ele>397.0</ele><time>2026-05-02T07:29:39.257Z</time></trkpt><trkpt lat="43.860145" lon="7.924225"><ele>397.0</ele><time>2026-05-02T07:29:42.256Z</time></trkpt><trkpt lat="43.86023" lon="7.92426"><ele>397.00000000000006</ele><time>2026-05-02T07:29:45.256Z</time></trkpt><trkpt lat="43.8603267" lon="7.92425"><ele>397.0</ele><time>2026-05-02T07:29:48.256Z</time></trkpt><trkpt lat="43.860395" lon="7.9242217"><ele>397.2857142857143</ele><time>2026-05-02T07:29:50.256Z</time></trkpt><trkpt lat="43.860465" lon="7.9242017"><ele>397.57142857142856</ele><time>2026-05-02T07:29:52.256Z</time></trkpt><trkpt lat="43.8605283" lon="7.9241833"><ele>397.8571428571429</ele><time>2026-05-02T07:29:54.256Z</time></trkpt><trkpt lat="43.860595" lon="7.9241583"><ele>398.1428571428571</ele><time>2026-05-02T07:29:56.256Z</time></trkpt><trkpt lat="43.8606583" lon="7.9241133"><ele>398.42857142857144</ele><time>2026-05-02T07:29:58.256Z</time></trkpt><trkpt lat="43.860715" lon="7.9240567"><ele>398.7142857142857</ele><time>2026-05-02T07:30:00.256Z</time></trkpt><trkpt lat="43.8607767" lon="7.9239917"><ele>399.0</ele><time>2026-05-02T07:30:02.256Z</time></trkpt><trkpt lat="43.8608383" lon="7.92392"><ele>399.0</ele><time>2026-05-02T07:30:04.256Z</time></trkpt><trkpt lat="43.8608967" lon="7.9238617"><ele>399.0</ele><time>2026-05-02T07:30:06.257Z</time></trkpt><trkpt lat="43.8609467" lon="7.9237867"><ele>399.0</ele><time>2026-05-02T07:30:08.256Z</time></trkpt><trkpt lat="43.8609983" lon="7.9237167"><ele>399.0</ele><time>2026-05-02T07:30:10.256Z</time></trkpt><trkpt lat="43.861045" lon="7.9236567"><ele>399.0</ele><time>2026-05-02T07:30:12.256Z</time></trkpt><trkpt lat="43.8611083" lon="7.9235617"><ele>399.0</ele><time>2026-05-02T07:30:15.256Z</time></trkpt><trkpt lat="43.86117" lon="7.9234717"><ele>399.1666666666667</ele><time>2026-05-02T07:30:18.256Z</time></trkpt><trkpt lat="43.8612383" lon="7.9233833"><ele>399.33333333333337</ele><time>2026-05-02T07:30:21.257Z</time></trkpt><trkpt lat="43.861285" lon="7.92332"><ele>399.5</ele><time>2026-05-02T07:30:23.256Z</time></trkpt><trkpt lat="43.861345" lon="7.9232217"><ele>399.6666666666667</ele><time>2026-05-02T07:30:26.256Z</time></trkpt><trkpt lat="43.8613833" lon="7.92315"><ele>399.83333333333337</ele><time>2026-05-02T07:30:28.256Z</time></trkpt><trkpt lat="43.8614233" lon="7.9230717"><ele>400.0</ele><time>2026-05-02T07:30:30.256Z</time></trkpt><trkpt lat="43.8614533" lon="7.92299"><ele>400.00000000000006</ele><time>2026-05-02T07:30:32.256Z</time></trkpt><trkpt lat="43.86148" lon="7.9228983"><ele>400.0</ele><time>2026-05-02T07:30:34.257Z</time></trkpt><trkpt lat="43.8615017" lon="7.9228067"><ele>400.0</ele><time>2026-05-02T07:30:36.256Z</time></trkpt><trkpt lat="43.8615233" lon="7.9226983"><ele>400.0</ele><time>2026-05-02T07:30:38.256Z</time></trkpt><trkpt lat="43.8615433" lon="7.9226133"><ele>400.00000000000006</ele><time>2026-05-02T07:30:40.256Z</time></trkpt><trkpt lat="43.8615683" lon="7.92252"><ele>400.0</ele><time>2026-05-02T07:30:42.257Z</time></trkpt><trkpt lat="43.8616017" lon="7.9224"><ele>401.1666666666667</ele><time>2026-05-02T07:30:44.256Z</time></trkpt><trkpt lat="43.8616417" lon="7.92229"><ele>402.33333333333337</ele><time>2026-05-02T07:30:46.256Z</time></trkpt><trkpt lat="43.8616833" lon="7.9221833"><ele>403.5</ele><time>2026-05-02T07:30:48.257Z</time></trkpt><trkpt lat="43.861725" lon="7.922075"><ele>404.66666666666663</ele><time>2026-05-02T07:30:50.256Z</time></trkpt><trkpt lat="43.8617717" lon="7.9219783"><ele>405.8333333333333</ele><time>2026-05-02T07:30:52.256Z</time></trkpt><trkpt lat="43.8618183" lon="7.9218867"><ele>407.0</ele><time>2026-05-02T07:30:54.256Z</time></trkpt><trkpt lat="43.8618567" lon="7.9218"><ele>406.49999999999994</ele><time>2026-05-02T07:30:56.256Z</time></trkpt><trkpt lat="43.861895" lon="7.9217267"><ele>406.0</ele><time>2026-05-02T07:30:58.256Z</time></trkpt><trkpt lat="43.86195" lon="7.921625"><ele>405.5</ele><time>2026-05-02T07:31:01.256Z</time></trkpt><trkpt lat="43.8620033" lon="7.9215217"><ele>405.0</ele><time>2026-05-02T07:31:04.256Z</time></trkpt><trkpt lat="43.86204" lon="7.92145"><ele>404.49999999999994</ele><time>2026-05-02T07:31:06.256Z</time></trkpt><trkpt lat="43.862085" lon="7.9213517"><ele>404.0</ele><time>2026-05-02T07:31:09.256Z</time></trkpt><trkpt lat="43.86213" lon="7.9212667"><ele>403.99999999999994</ele><time>2026-05-02T07:31:12.256Z</time></trkpt><trkpt lat="43.8621733" lon="7.9211817"><ele>404.0</ele><time>2026-05-02T07:31:15.256Z</time></trkpt><trkpt lat="43.8622067" lon="7.9210967"><ele>404.0</ele><time>2026-05-02T07:31:18.257Z</time></trkpt><trkpt lat="43.8622583" lon="7.92102"><ele>404.0</ele><time>2026-05-02T07:31:21.256Z</time></trkpt><trkpt lat="43.8623133" lon="7.9209283"><ele>403.99999999999994</ele><time>2026-05-02T07:31:24.256Z</time></trkpt><trkpt lat="43.8623667" lon="7.9208267"><ele>404.0</ele><time>2026-05-02T07:31:27.256Z</time></trkpt><trkpt lat="43.86241" lon="7.92075"><ele>405.85714285714283</ele><time>2026-05-02T07:31:29.256Z</time></trkpt><trkpt lat="43.86246" lon="7.9206733"><ele>407.71428571428567</ele><time>2026-05-02T07:31:31.256Z</time></trkpt><trkpt lat="43.8625117" lon="7.9206017"><ele>409.57142857142856</ele><time>2026-05-02T07:31:33.256Z</time></trkpt><trkpt lat="43.862555" lon="7.9205233"><ele>411.42857142857144</ele><time>2026-05-02T07:31:35.256Z</time></trkpt><trkpt lat="43.8626033" lon="7.9204467"><ele>413.2857142857143</ele><time>2026-05-02T07:31:37.256Z</time></trkpt><trkpt lat="43.8626533" lon="7.9203867"><ele>415.14285714285717</ele><time>2026-05-02T07:31:39.256Z</time></trkpt><trkpt lat="43.8627317" lon="7.920325"><ele>417.0</ele><time>2026-05-02T07:31:42.256Z</time></trkpt><trkpt lat="43.8628083" lon="7.9202583"><ele>417.0</ele><time>2026-05-02T07:31:45.256Z</time></trkpt><trkpt lat="43.8628767" lon="7.9201933"><ele>417.0</ele><time>2026-05-02T07:31:48.256Z</time></trkpt><trkpt lat="43.86294" lon="7.9201117"><ele>417.0</ele><time>2026-05-02T07:31:51.256Z</time></trkpt><trkpt lat="43.8629983" lon="7.9200533"><ele>417.0</ele><time>2026-05-02T07:31:54.256Z</time></trkpt><trkpt lat="43.8630633" lon="7.9199683"><ele>417.0</ele><time>2026-05-02T07:31:57.256Z</time></trkpt><trkpt lat="43.8631233" lon="7.9199267"><ele>417.0</ele><time>2026-05-02T07:31:59.257Z</time></trkpt><trkpt lat="43.8631833" lon="7.9198767"><ele>418.42857142857144</ele><time>2026-05-02T07:32:01.256Z</time></trkpt><trkpt lat="43.8632417" lon="7.9198167"><ele>419.85714285714283</ele><time>2026-05-02T07:32:03.256Z</time></trkpt><trkpt lat="43.8632983" lon="7.9197683"><ele>421.2857142857143</ele><time>2026-05-02T07:32:05.256Z</time></trkpt><trkpt lat="43.8633583" lon="7.9197183"><ele>422.7142857142857</ele><time>2026-05-02T07:32:07.256Z</time></trkpt><trkpt lat="43.8634283" lon="7.919675"><ele>424.1428571428571</ele><time>2026-05-02T07:32:10.256Z</time></trkpt><trkpt lat="43.8634967" lon="7.91963"><ele>425.57142857142856</ele><time>2026-05-02T07:32:13.256Z</time></trkpt><trkpt lat="43.8635617" lon="7.9196017"><ele>427.0</ele><time>2026-05-02T07:32:17.257Z</time></trkpt><trkpt lat="43.8636467" lon="7.9195567"><ele>428.50000000000006</ele><time>2026-05-02T07:32:20.256Z</time></trkpt><trkpt lat="43.8637133" lon="7.9195283"><ele>430.0</ele><time>2026-05-02T07:32:22.256Z</time></trkpt><trkpt lat="43.863775" lon="7.9195083"><ele>431.5</ele><time>2026-05-02T07:32:24.256Z</time></trkpt><trkpt lat="43.8638617" lon="7.9194767"><ele>433.0</ele><time>2026-05-02T07:32:27.256Z</time></trkpt><trkpt lat="43.8639483" lon="7.91942"><ele>434.50000000000006</ele><time>2026-05-02T07:32:30.256Z</time></trkpt><trkpt lat="43.8640183" lon="7.9193483"><ele>436.0</ele><time>2026-05-02T07:32:33.256Z</time></trkpt><trkpt lat="43.8640767" lon="7.9193133"><ele>436.00000000000006</ele><time>2026-05-02T07:32:35.256Z</time></trkpt><trkpt lat="43.86414" lon="7.9192867"><ele>436.0</ele><time>2026-05-02T07:32:37.257Z</time></trkpt><trkpt lat="43.864205" lon="7.9192533"><ele>436.0</ele><time>2026-05-02T07:32:39.256Z</time></trkpt><trkpt lat="43.8642717" lon="7.9192333"><ele>436.0</ele><time>2026-05-02T07:32:41.256Z</time></trkpt><trkpt lat="43.86436" lon="7.9192"><ele>436.00000000000006</ele><time>2026-05-02T07:32:44.257Z</time></trkpt><trkpt lat="43.8644433" lon="7.9191667"><ele>436.0</ele><time>2026-05-02T07:32:47.256Z</time></trkpt><trkpt lat="43.8645117" lon="7.91917"><ele>437.8571428571429</ele><time>2026-05-02T07:32:50.257Z</time></trkpt><trkpt lat="43.8645583" lon="7.9192333"><ele>439.7142857142857</ele><time>2026-05-02T07:32:53.256Z</time></trkpt><trkpt lat="43.864585" lon="7.91934"><ele>441.57142857142856</ele><time>2026-05-02T07:32:57.256Z</time></trkpt><trkpt lat="43.8646417" lon="7.9194133"><ele>443.42857142857144</ele><time>2026-05-02T07:33:01.256Z</time></trkpt><trkpt lat="43.86471" lon="7.9194383"><ele>445.2857142857142</ele><time>2026-05-02T07:33:04.257Z</time></trkpt><trkpt lat="43.86478" lon="7.9194583"><ele>447.1428571428571</ele><time>2026-05-02T07:33:07.257Z</time></trkpt><trkpt lat="43.86485" lon="7.91948"><ele>449.0</ele><time>2026-05-02T07:33:10.256Z</time></trkpt><trkpt lat="43.8649217" lon="7.9194733"><ele>449.0</ele><time>2026-05-02T07:33:13.256Z</time></trkpt><trkpt lat="43.8650033" lon="7.919485"><ele>448.99999999999994</ele><time>2026-05-02T07:33:16.256Z</time></trkpt><trkpt lat="43.8650767" lon="7.919515"><ele>449.0</ele><time>2026-05-02T07:33:19.256Z</time></trkpt><trkpt lat="43.8651467" lon="7.9195333"><ele>449.0</ele><time>2026-05-02T07:33:22.256Z</time></trkpt><trkpt lat="43.8652283" lon="7.9195283"><ele>448.99999999999994</ele><time>2026-05-02T07:33:25.257Z</time></trkpt><trkpt lat="43.8652933" lon="7.9195217"><ele>449.0</ele><time>2026-05-02T07:33:27.256Z</time></trkpt><trkpt lat="43.8653583" lon="7.9195117"><ele>449.0</ele><time>2026-05-02T07:33:29.256Z</time></trkpt><trkpt lat="43.865435" lon="7.91947"><ele>449.8333333333333</ele><time>2026-05-02T07:33:32.256Z</time></trkpt><trkpt lat="43.8655117" lon="7.9193967"><ele>450.66666666666663</ele><time>2026-05-02T07:33:35.256Z</time></trkpt><trkpt lat="43.8655833" lon="7.919335"><ele>451.5</ele><time>2026-05-02T07:33:38.256Z</time></trkpt><trkpt lat="43.865645" lon="7.9192667"><ele>452.33333333333337</ele><time>2026-05-02T07:33:41.256Z</time></trkpt><trkpt lat="43.8656933" lon="7.9191983"><ele>453.1666666666667</ele><time>2026-05-02T07:33:44.256Z</time></trkpt><trkpt lat="43.86575" lon="7.9191233"><ele>454.0</ele><time>2026-05-02T07:33:48.257Z</time></trkpt><trkpt lat="43.8658083" lon="7.91905"><ele>454.28571428571433</ele><time>2026-05-02T07:33:52.256Z</time></trkpt><trkpt lat="43.8658533" lon="7.9189817"><ele>454.5714285714286</ele><time>2026-05-02T07:33:55.256Z</time></trkpt><trkpt lat="43.865905" lon="7.9188933"><ele>454.8571428571429</ele><time>2026-05-02T07:33:59.256Z</time></trkpt><trkpt lat="43.8659467" lon="7.9188233"><ele>455.1428571428571</ele><time>2026-05-02T07:34:02.256Z</time></trkpt><trkpt lat="43.865995" lon="7.9187417"><ele>455.4285714285714</ele><time>2026-05-02T07:34:05.256Z</time></trkpt><trkpt lat="43.86604" lon="7.91868"><ele>455.71428571428567</ele><time>2026-05-02T07:34:08.256Z</time></trkpt><trkpt lat="43.8661017" lon="7.9185917"><ele>456.0</ele><time>2026-05-02T07:34:12.256Z</time></trkpt><trkpt lat="43.8661733" lon="7.918515"><ele>456.0</ele><time>2026-05-02T07:34:15.256Z</time></trkpt><trkpt lat="43.8662233" lon="7.918455"><ele>455.99999999999994</ele><time>2026-05-02T07:34:17.256Z</time></trkpt><trkpt lat="43.8662667" lon="7.9183867"><ele>456.0</ele><time>2026-05-02T07:34:19.256Z</time></trkpt><trkpt lat="43.866305" lon="7.9183083"><ele>456.0</ele><time>2026-05-02T07:34:21.257Z</time></trkpt><trkpt lat="43.8663433" lon="7.9182333"><ele>455.99999999999994</ele><time>2026-05-02T07:34:23.256Z</time></trkpt><trkpt lat="43.8663883" lon="7.91816"><ele>456.0</ele><time>2026-05-02T07:34:26.256Z</time></trkpt><trkpt lat="43.8664333" lon="7.9180883"><ele>456.0</ele><time>2026-05-02T07:34:29.256Z</time></trkpt><trkpt lat="43.86648" lon="7.918015"><ele>458.8</ele><time>2026-05-02T07:34:32.256Z</time></trkpt><trkpt lat="43.8665283" lon="7.9179367"><ele>461.6</ele><time>2026-05-02T07:34:36.256Z</time></trkpt><trkpt lat="43.866555" lon="7.917735"><ele>464.4</ele><time>2026-05-02T07:35:18.256Z</time></trkpt><trkpt lat="43.8665717" lon="7.9176183"><ele>467.2</ele><time>2026-05-02T07:38:25.256Z</time></trkpt><trkpt lat="43.8665983" lon="7.917525"><ele>470.0</ele><time>2026-05-02T07:38:28.256Z</time></trkpt><trkpt lat="43.8666483" lon="7.9174017"><ele>470.8333333333333</ele><time>2026-05-02T07:38:31.256Z</time></trkpt><trkpt lat="43.8666733" lon="7.9172817"><ele>471.66666666666663</ele><time>2026-05-02T07:38:34.256Z</time></trkpt><trkpt lat="43.866695" lon="7.91719"><ele>472.5</ele><time>2026-05-02T07:38:36.256Z</time></trkpt><trkpt lat="43.866715" lon="7.9170933"><ele>473.33333333333337</ele><time>2026-05-02T07:38:38.256Z</time></trkpt><trkpt lat="43.8667417" lon="7.9169717"><ele>474.1666666666667</ele><time>2026-05-02T07:38:41.256Z</time></trkpt><trkpt lat="43.866755" lon="7.9168833"><ele>475.0</ele><time>2026-05-02T07:38:43.256Z</time></trkpt><trkpt lat="43.8667717" lon="7.9167933"><ele>473.83333333333337</ele><time>2026-05-02T07:38:45.256Z</time></trkpt><trkpt lat="43.8668" lon="7.9166917"><ele>472.6666666666667</ele><time>2026-05-02T07:38:48.256Z</time></trkpt><trkpt lat="43.8668417" lon="7.9166033"><ele>471.5</ele><time>2026-05-02T07:38:51.256Z</time></trkpt><trkpt lat="43.8668867" lon="7.9165"><ele>470.33333333333337</ele><time>2026-05-02T07:38:54.256Z</time></trkpt><trkpt lat="43.8669333" lon="7.9164033"><ele>469.1666666666667</ele><time>2026-05-02T07:38:57.256Z</time></trkpt><trkpt lat="43.8669583" lon="7.9162883"><ele>468.0</ele><time>2026-05-02T07:39:00.256Z</time></trkpt><trkpt lat="43.86698" lon="7.9162033"><ele>468.0</ele><time>2026-05-02T07:39:02.257Z</time></trkpt><trkpt lat="43.867005" lon="7.9161133"><ele>468.00000000000006</ele><time>2026-05-02T07:39:04.256Z</time></trkpt><trkpt lat="43.86703" lon="7.9160283"><ele>468.0</ele><time>2026-05-02T07:39:06.256Z</time></trkpt><trkpt lat="43.86705" lon="7.9159433"><ele>468.0</ele><time>2026-05-02T07:39:08.256Z</time></trkpt><trkpt lat="43.8670883" lon="7.9158333"><ele>468.00000000000006</ele><time>2026-05-02T07:39:11.256Z</time></trkpt><trkpt lat="43.8671283" lon="7.9157567"><ele>468.0</ele><time>2026-05-02T07:39:14.256Z</time></trkpt><trkpt lat="43.8671733" lon="7.9156917"><ele>468.0</ele><time>2026-05-02T07:39:17.256Z</time></trkpt><trkpt lat="43.867215" lon="7.9156067"><ele>469.8571428571429</ele><time>2026-05-02T07:39:21.256Z</time></trkpt><trkpt lat="43.8672567" lon="7.9155117"><ele>471.7142857142858</ele><time>2026-05-02T07:39:25.256Z</time></trkpt><trkpt lat="43.8672583" lon="7.9154167"><ele>473.57142857142856</ele><time>2026-05-02T07:39:29.256Z</time></trkpt><trkpt lat="43.8672633" lon="7.91531"><ele>475.42857142857144</ele><time>2026-05-02T07:39:34.256Z</time></trkpt><trkpt lat="43.8672783" lon="7.9152117"><ele>477.2857142857143</ele><time>2026-05-02T07:39:41.256Z</time></trkpt><trkpt lat="43.8672883" lon="7.9151133"><ele>479.1428571428571</ele><time>2026-05-02T07:39:46.256Z</time></trkpt><trkpt lat="43.8673417" lon="7.9150633"><ele>480.99999999999994</ele><time>2026-05-02T07:39:54.256Z</time></trkpt><trkpt lat="43.8673783" lon="7.9149817"><ele>482.00000000000006</ele><time>2026-05-02T07:39:58.256Z</time></trkpt><trkpt lat="43.86741" lon="7.9149033"><ele>483.0</ele><time>2026-05-02T07:40:03.257Z</time></trkpt><trkpt lat="43.86744" lon="7.914795"><ele>484.0</ele><time>2026-05-02T07:40:07.256Z</time></trkpt><trkpt lat="43.8675033" lon="7.9147183"><ele>485.0</ele><time>2026-05-02T07:40:15.256Z</time></trkpt><trkpt lat="43.86755" lon="7.914655"><ele>486.00000000000006</ele><time>2026-05-02T07:40:18.256Z</time></trkpt><trkpt lat="43.8675967" lon="7.9145533"><ele>487.0</ele><time>2026-05-02T07:40:20.256Z</time></trkpt><trkpt lat="43.8676217" lon="7.9144317"><ele>487.00000000000006</ele><time>2026-05-02T07:40:23.256Z</time></trkpt><trkpt lat="43.8676533" lon="7.914325"><ele>487.0</ele><time>2026-05-02T07:40:26.256Z</time></trkpt><trkpt lat="43.867665" lon="7.914215"><ele>487.0</ele><time>2026-05-02T07:40:30.256Z</time></trkpt><trkpt lat="43.867675" lon="7.9141183"><ele>487.0</ele><time>2026-05-02T07:40:33.256Z</time></trkpt><trkpt lat="43.8676867" lon="7.9140117"><ele>487.00000000000006</ele><time>2026-05-02T07:40:37.256Z</time></trkpt><trkpt lat="43.8677" lon="7.9139183"><ele>487.0</ele><time>2026-05-02T07:40:40.256Z</time></trkpt><trkpt lat="43.86771" lon="7.91381"><ele>490.83333333333337</ele><time>2026-05-02T07:40:43.256Z</time></trkpt><trkpt lat="43.8677067" lon="7.9137083"><ele>494.6666666666667</ele><time>2026-05-02T07:40:46.256Z</time></trkpt><trkpt lat="43.8677067" lon="7.913605"><ele>498.5</ele><time>2026-05-02T07:40:49.257Z</time></trkpt><trkpt lat="43.8677133" lon="7.9135133"><ele>502.33333333333337</ele><time>2026-05-02T07:40:53.256Z</time></trkpt><trkpt lat="43.8677033" lon="7.913345"><ele>506.1666666666667</ele><time>2026-05-02T07:41:41.256Z</time></trkpt><trkpt lat="43.8677017" lon="7.9132417"><ele>510.0</ele><time>2026-05-02T07:41:45.256Z</time></trkpt><trkpt lat="43.8677067" lon="7.9131467"><ele>512.8571428571429</ele><time>2026-05-02T07:41:48.257Z</time></trkpt><trkpt lat="43.8677217" lon="7.91304"><ele>515.7142857142858</ele><time>2026-05-02T07:41:53.256Z</time></trkpt><trkpt lat="43.867735" lon="7.9129517"><ele>518.5714285714286</ele><time>2026-05-02T07:41:55.256Z</time></trkpt><trkpt lat="43.8677433" lon="7.91286"><ele>521.4285714285714</ele><time>2026-05-02T07:41:57.257Z</time></trkpt><trkpt lat="43.8677617" lon="7.912775"><ele>524.2857142857142</ele><time>2026-05-02T07:41:59.256Z</time></trkpt><trkpt lat="43.8677983" lon="7.9126667"><ele>527.1428571428571</ele><time>2026-05-02T07:42:02.256Z</time></trkpt><trkpt lat="43.8678267" lon="7.9125867"><ele>530.0</ele><time>2026-05-02T07:42:06.256Z</time></trkpt><trkpt lat="43.8678633" lon="7.9125133"><ele>529.9999999999999</ele><time>2026-05-02T07:42:10.256Z</time></trkpt><trkpt lat="43.8679167" lon="7.91245"><ele>530.0</ele><time>2026-05-02T07:42:14.256Z</time></trkpt><trkpt lat="43.86799" lon="7.9124617"><ele>530.0</ele><time>2026-05-02T07:42:18.256Z</time></trkpt><trkpt lat="43.8680233" lon="7.912565"><ele>530.0</ele><time>2026-05-02T07:42:22.256Z</time></trkpt><trkpt lat="43.8681017" lon="7.91261"><ele>530.0</ele><time>2026-05-02T07:42:26.256Z</time></trkpt><trkpt lat="43.868165" lon="7.912645"><ele>529.9999999999999</ele><time>2026-05-02T07:42:29.256Z</time></trkpt><trkpt lat="43.8682267" lon="7.912685"><ele>530.0</ele><time>2026-05-02T07:42:32.256Z</time></trkpt><trkpt lat="43.8683033" lon="7.9127233"><ele>530.0</ele><time>2026-05-02T07:42:36.256Z</time></trkpt><trkpt lat="43.86837" lon="7.9127633"><ele>530.0</ele><time>2026-05-02T07:42:40.256Z</time></trkpt><trkpt lat="43.8684483" lon="7.9128033"><ele>530.0</ele><time>2026-05-02T07:43:02.256Z</time></trkpt><trkpt lat="43.8685233" lon="7.91286"><ele>530.0</ele><time>2026-05-02T07:43:05.256Z</time></trkpt><trkpt lat="43.8686033" lon="7.91289"><ele>530.0</ele><time>2026-05-02T07:43:08.256Z</time></trkpt><trkpt lat="43.8686917" lon="7.9128767"><ele>530.0</ele><time>2026-05-02T07:43:11.256Z</time></trkpt><trkpt lat="43.8687767" lon="7.9128867"><ele>529.5714285714286</ele><time>2026-05-02T07:43:14.256Z</time></trkpt><trkpt lat="43.8688467" lon="7.9129333"><ele>529.1428571428571</ele><time>2026-05-02T07:43:16.256Z</time></trkpt><trkpt lat="43.86892" lon="7.9129733"><ele>528.7142857142858</ele><time>2026-05-02T07:43:18.256Z</time></trkpt><trkpt lat="43.868985" lon="7.9129967"><ele>528.2857142857142</ele><time>2026-05-02T07:43:20.256Z</time></trkpt><trkpt lat="43.86905" lon="7.9130067"><ele>527.8571428571429</ele><time>2026-05-02T07:43:22.256Z</time></trkpt><trkpt lat="43.8691267" lon="7.9129883"><ele>527.4285714285714</ele><time>2026-05-02T07:43:25.256Z</time></trkpt><trkpt lat="43.8691883" lon="7.9129483"><ele>527.0</ele><time>2026-05-02T07:43:28.256Z</time></trkpt><trkpt lat="43.86925" lon="7.91293"><ele>526.4285714285714</ele><time>2026-05-02T07:43:32.257Z</time></trkpt><trkpt lat="43.8693133" lon="7.9129567"><ele>525.8571428571429</ele><time>2026-05-02T07:43:35.256Z</time></trkpt><trkpt lat="43.86938" lon="7.9129633"><ele>525.2857142857142</ele><time>2026-05-02T07:43:37.256Z</time></trkpt><trkpt lat="43.8694583" lon="7.912955"><ele>524.7142857142858</ele><time>2026-05-02T07:43:39.256Z</time></trkpt><trkpt lat="43.86952" lon="7.9129367"><ele>524.1428571428571</ele><time>2026-05-02T07:43:41.256Z</time></trkpt><trkpt lat="43.869595" lon="7.9129233"><ele>523.5714285714286</ele><time>2026-05-02T07:43:44.256Z</time></trkpt><trkpt lat="43.86967" lon="7.9129017"><ele>523.0</ele><time>2026-05-02T07:43:48.256Z</time></trkpt><trkpt lat="43.8697467" lon="7.9128617"><ele>523.0</ele><time>2026-05-02T07:43:51.256Z</time></trkpt><trkpt lat="43.8697933" lon="7.9127467"><ele>523.0</ele><time>2026-05-02T07:43:54.257Z</time></trkpt><trkpt lat="43.8698117" lon="7.9126417"><ele>523.0</ele><time>2026-05-02T07:43:56.256Z</time></trkpt><trkpt lat="43.8698533" lon="7.91256"><ele>523.0</ele><time>2026-05-02T07:43:58.256Z</time></trkpt><trkpt lat="43.8699067" lon="7.9124933"><ele>523.0</ele><time>2026-05-02T07:44:00.256Z</time></trkpt><trkpt lat="43.8699583" lon="7.9124267"><ele>523.0</ele><time>2026-05-02T07:44:02.257Z</time></trkpt><trkpt lat="43.8700017" lon="7.912355"><ele>524.6666666666667</ele><time>2026-05-02T07:44:06.256Z</time></trkpt><trkpt lat="43.870025" lon="7.9122633"><ele>526.3333333333334</ele><time>2026-05-02T07:44:12.257Z</time></trkpt><trkpt lat="43.87007" lon="7.91216"><ele>528.0</ele><time>2026-05-02T07:44:15.256Z</time></trkpt><trkpt lat="43.870115" lon="7.9120567"><ele>529.6666666666666</ele><time>2026-05-02T07:44:18.256Z</time></trkpt><trkpt lat="43.870165" lon="7.9119817"><ele>531.3333333333333</ele><time>2026-05-02T07:44:21.256Z</time></trkpt><trkpt lat="43.870235" lon="7.911885"><ele>533.0</ele><time>2026-05-02T07:45:05.256Z</time></trkpt><trkpt lat="43.8703" lon="7.9119183"><ele>530.1428571428571</ele><time>2026-05-02T07:45:09.256Z</time></trkpt><trkpt lat="43.8703533" lon="7.9119833"><ele>527.2857142857142</ele><time>2026-05-02T07:45:12.257Z</time></trkpt><trkpt lat="43.8704117" lon="7.9120317"><ele>524.4285714285714</ele><time>2026-05-02T07:45:15.256Z</time></trkpt><trkpt lat="43.8704617" lon="7.9121083"><ele>521.5714285714286</ele><time>2026-05-02T07:45:19.256Z</time></trkpt><trkpt lat="43.8704767" lon="7.9121933"><ele>518.7142857142858</ele><time>2026-05-02T07:45:22.257Z</time></trkpt><trkpt lat="43.8705333" lon="7.912245"><ele>515.8571428571429</ele><time>2026-05-02T07:45:28.256Z</time></trkpt><trkpt lat="43.8705983" lon="7.91222"><ele>513.0</ele><time>2026-05-02T07:45:31.256Z</time></trkpt><trkpt lat="43.87066" lon="7.912185"><ele>513.0000000000001</ele><time>2026-05-02T07:45:33.256Z</time></trkpt><trkpt lat="43.87072" lon="7.9121383"><ele>513.0</ele><time>2026-05-02T07:45:35.257Z</time></trkpt><trkpt lat="43.8707767" lon="7.9121833"><ele>513.0</ele><time>2026-05-02T07:45:41.256Z</time></trkpt><trkpt lat="43.8707633" lon="7.912275"><ele>513.0</ele><time>2026-05-02T07:45:44.256Z</time></trkpt><trkpt lat="43.8707367" lon="7.9123583"><ele>513.0</ele><time>2026-05-02T07:45:49.256Z</time></trkpt><trkpt lat="43.8706717" lon="7.9124083"><ele>513.0000000000001</ele><time>2026-05-02T07:45:53.256Z</time></trkpt><trkpt lat="43.8706317" lon="7.9124883"><ele>513.0</ele><time>2026-05-02T07:45:56.257Z</time></trkpt><trkpt lat="43.8706383" lon="7.91259"><ele>510.3333333333333</ele><time>2026-05-02T07:45:58.256Z</time></trkpt><trkpt lat="43.87068" lon="7.9126783"><ele>507.66666666666663</ele><time>2026-05-02T07:46:00.257Z</time></trkpt><trkpt lat="43.870735" lon="7.91278"><ele>505.0</ele><time>2026-05-02T07:46:03.256Z</time></trkpt><trkpt lat="43.87079" lon="7.9128767"><ele>502.3333333333333</ele><time>2026-05-02T07:46:06.256Z</time></trkpt><trkpt lat="43.87082" lon="7.9129667"><ele>499.66666666666663</ele><time>2026-05-02T07:46:09.256Z</time></trkpt><trkpt lat="43.8708567" lon="7.9130517"><ele>497.0</ele><time>2026-05-02T07:46:13.257Z</time></trkpt><trkpt lat="43.8709" lon="7.913145"><ele>496.99999999999994</ele><time>2026-05-02T07:46:16.257Z</time></trkpt><trkpt lat="43.8709367" lon="7.9132533"><ele>497.0</ele><time>2026-05-02T07:46:19.257Z</time></trkpt><trkpt lat="43.8709467" lon="7.913375"><ele>497.0</ele><time>2026-05-02T07:46:22.256Z</time></trkpt><trkpt lat="43.8709417" lon="7.913465"><ele>497.0</ele><time>2026-05-02T07:46:24.256Z</time></trkpt><trkpt lat="43.8709583" lon="7.91359"><ele>496.99999999999994</ele><time>2026-05-02T07:46:27.256Z</time></trkpt><trkpt lat="43.8709917" lon="7.9136783"><ele>497.0</ele><time>2026-05-02T07:46:30.256Z</time></trkpt><trkpt lat="43.8710233" lon="7.9137667"><ele>490.1428571428571</ele><time>2026-05-02T07:46:33.256Z</time></trkpt><trkpt lat="43.87111" lon="7.9137767"><ele>483.2857142857143</ele><time>2026-05-02T07:46:37.257Z</time></trkpt><trkpt lat="43.8711767" lon="7.9137833"><ele>476.42857142857144</ele><time>2026-05-02T07:46:40.256Z</time></trkpt><trkpt lat="43.87123" lon="7.9138467"><ele>469.57142857142856</ele><time>2026-05-02T07:46:43.256Z</time></trkpt><trkpt lat="43.871255" lon="7.913935"><ele>462.71428571428567</ele><time>2026-05-02T07:46:46.257Z</time></trkpt><trkpt lat="43.8712683" lon="7.9140283"><ele>455.85714285714283</ele><time>2026-05-02T07:46:51.256Z</time></trkpt><trkpt lat="43.8713133" lon="7.9141317"><ele>449.0</ele><time>2026-05-02T07:46:55.256Z</time></trkpt><trkpt lat="43.8713733" lon="7.9142017"><ele>446.8333333333333</ele><time>2026-05-02T07:46:59.256Z</time></trkpt><trkpt lat="43.87144" lon="7.9142717"><ele>444.66666666666663</ele><time>2026-05-02T07:47:03.256Z</time></trkpt><trkpt lat="43.8714617" lon="7.9143933"><ele>442.5</ele><time>2026-05-02T07:47:07.256Z</time></trkpt><trkpt lat="43.8714717" lon="7.91451"><ele>440.33333333333337</ele><time>2026-05-02T07:47:10.256Z</time></trkpt><trkpt lat="43.8714583" lon="7.9146017"><ele>438.1666666666667</ele><time>2026-05-02T07:47:12.256Z</time></trkpt><trkpt lat="43.8714467" lon="7.9147"><ele>436.0</ele><time>2026-05-02T07:47:15.256Z</time></trkpt><trkpt lat="43.8715117" lon="7.9147633"><ele>436.00000000000006</ele><time>2026-05-02T07:47:18.256Z</time></trkpt><trkpt lat="43.87158" lon="7.9147733"><ele>436.0</ele><time>2026-05-02T07:47:21.256Z</time></trkpt><trkpt lat="43.87153" lon="7.91487"><ele>436.0</ele><time>2026-05-02T07:47:26.256Z</time></trkpt><trkpt lat="43.87147" lon="7.9149633"><ele>436.0</ele><time>2026-05-02T07:47:29.256Z</time></trkpt><trkpt lat="43.8714267" lon="7.9150533"><ele>436.00000000000006</ele><time>2026-05-02T07:47:32.256Z</time></trkpt><trkpt lat="43.8713867" lon="7.9151267"><ele>436.0</ele><time>2026-05-02T07:47:35.256Z</time></trkpt><trkpt lat="43.8713567" lon="7.915205"><ele>432.33333333333337</ele><time>2026-05-02T07:47:38.256Z</time></trkpt><trkpt lat="43.8712967" lon="7.91528"><ele>428.6666666666667</ele><time>2026-05-02T07:48:01.257Z</time></trkpt><trkpt lat="43.871235" lon="7.9152367"><ele>425.0</ele><time>2026-05-02T07:48:06.256Z</time></trkpt><trkpt lat="43.87117" lon="7.915225"><ele>421.33333333333337</ele><time>2026-05-02T07:48:11.256Z</time></trkpt><trkpt lat="43.8710933" lon="7.915255"><ele>417.6666666666667</ele><time>2026-05-02T07:48:14.257Z</time></trkpt><trkpt lat="43.8710317" lon="7.9153083"><ele>414.0</ele><time>2026-05-02T07:48:17.256Z</time></trkpt><trkpt lat="43.87097" lon="7.9153867"><ele>416.5</ele><time>2026-05-02T07:48:20.256Z</time></trkpt><trkpt lat="43.8709033" lon="7.9154533"><ele>419.0</ele><time>2026-05-02T07:48:23.256Z</time></trkpt><trkpt lat="43.8708467" lon="7.91551"><ele>421.5</ele><time>2026-05-02T07:48:26.256Z</time></trkpt><trkpt lat="43.8707817" lon="7.9155583"><ele>424.0</ele><time>2026-05-02T07:48:29.256Z</time></trkpt><trkpt lat="43.8707183" lon="7.915595"><ele>426.5</ele><time>2026-05-02T07:48:31.256Z</time></trkpt><trkpt lat="43.87065" lon="7.9156433"><ele>429.0</ele><time>2026-05-02T07:48:33.256Z</time></trkpt><trkpt lat="43.8705717" lon="7.9156933"><ele>429.0</ele><time>2026-05-02T07:48:35.256Z</time></trkpt><trkpt lat="43.8705" lon="7.9157633"><ele>429.0</ele><time>2026-05-02T07:48:37.257Z</time></trkpt><trkpt lat="43.8703983" lon="7.9158767"><ele>429.0</ele><time>2026-05-02T07:48:39.256Z</time></trkpt><trkpt lat="43.8703467" lon="7.915935"><ele>429.0</ele><time>2026-05-02T07:48:40.256Z</time></trkpt><trkpt lat="43.8702733" lon="7.916035"><ele>429.0</ele><time>2026-05-02T07:48:42.256Z</time></trkpt><trkpt lat="43.8701933" lon="7.9161183"><ele>427.79999999999995</ele><time>2026-05-02T07:48:44.256Z</time></trkpt><trkpt lat="43.87012" lon="7.9162017"><ele>426.59999999999997</ele><time>2026-05-02T07:48:46.257Z</time></trkpt><trkpt lat="43.8700183" lon="7.916275"><ele>425.4</ele><time>2026-05-02T07:48:48.256Z</time></trkpt><trkpt lat="43.8699567" lon="7.91632"><ele>424.2</ele><time>2026-05-02T07:48:49.256Z</time></trkpt><trkpt lat="43.8698933" lon="7.9163583"><ele>423.0</ele><time>2026-05-02T07:48:50.256Z</time></trkpt><trkpt lat="43.8698" lon="7.91643"><ele>423.0</ele><time>2026-05-02T07:48:52.256Z</time></trkpt><trkpt lat="43.8697267" lon="7.9164717"><ele>423.0</ele><time>2026-05-02T07:48:54.256Z</time></trkpt><trkpt lat="43.8696667" lon="7.916505"><ele>423.0</ele><time>2026-05-02T07:48:56.257Z</time></trkpt><trkpt lat="43.8695983" lon="7.9165267"><ele>423.0</ele><time>2026-05-02T07:48:58.256Z</time></trkpt><trkpt lat="43.8695333" lon="7.9165417"><ele>423.0</ele><time>2026-05-02T07:49:00.256Z</time></trkpt><trkpt lat="43.8694517" lon="7.9165567"><ele>423.0</ele><time>2026-05-02T07:49:02.256Z</time></trkpt><trkpt lat="43.8693633" lon="7.9165667"><ele>424.79999999999995</ele><time>2026-05-02T07:49:04.256Z</time></trkpt><trkpt lat="43.869265" lon="7.9165517"><ele>426.6</ele><time>2026-05-02T07:49:06.256Z</time></trkpt><trkpt lat="43.8691617" lon="7.9165717"><ele>428.40000000000003</ele><time>2026-05-02T07:49:08.256Z</time></trkpt><trkpt lat="43.8690717" lon="7.9165933"><ele>430.20000000000005</ele><time>2026-05-02T07:49:10.256Z</time></trkpt><trkpt lat="43.8689883" lon="7.9166417"><ele>432.0</ele><time>2026-05-02T07:49:12.256Z</time></trkpt><trkpt lat="43.868915" lon="7.91669"><ele>432.0</ele><time>2026-05-02T07:49:14.256Z</time></trkpt><trkpt lat="43.8688583" lon="7.91673"><ele>432.0</ele><time>2026-05-02T07:49:16.256Z</time></trkpt><trkpt lat="43.8687817" lon="7.9168"><ele>432.0</ele><time>2026-05-02T07:49:19.256Z</time></trkpt><trkpt lat="43.8687" lon="7.9168617"><ele>432.0</ele><time>2026-05-02T07:49:22.256Z</time></trkpt><trkpt lat="43.8686433" lon="7.916915"><ele>432.0</ele><time>2026-05-02T07:49:24.256Z</time></trkpt><trkpt lat="43.8685867" lon="7.916975"><ele>432.0</ele><time>2026-05-02T07:49:26.256Z</time></trkpt><trkpt lat="43.8685283" lon="7.9170317"><ele>432.3333333333333</ele><time>2026-05-02T07:49:28.256Z</time></trkpt><trkpt lat="43.8684733" lon="7.9170783"><ele>432.66666666666663</ele><time>2026-05-02T07:49:30.257Z</time></trkpt><trkpt lat="43.8683933" lon="7.91712"><ele>433.0</ele><time>2026-05-02T07:49:33.256Z</time></trkpt><trkpt lat="43.8683233" lon="7.9171633"><ele>433.3333333333333</ele><time>2026-05-02T07:49:35.256Z</time></trkpt><trkpt lat="43.868255" lon="7.9172"><ele>433.66666666666663</ele><time>2026-05-02T07:49:37.256Z</time></trkpt><trkpt lat="43.8681833" lon="7.9172483"><ele>434.0</ele><time>2026-05-02T07:49:39.257Z</time></trkpt><trkpt lat="43.86811" lon="7.9172917"><ele>433.99999999999994</ele><time>2026-05-02T07:49:41.256Z</time></trkpt><trkpt lat="43.8680317" lon="7.9173583"><ele>434.0</ele><time>2026-05-02T07:49:43.256Z</time></trkpt><trkpt lat="43.8679683" lon="7.9174233"><ele>434.0</ele><time>2026-05-02T07:49:45.256Z</time></trkpt><trkpt lat="43.8678983" lon="7.917515"><ele>434.0</ele><time>2026-05-02T07:49:47.256Z</time></trkpt><trkpt lat="43.8678383" lon="7.9176017"><ele>433.99999999999994</ele><time>2026-05-02T07:49:49.257Z</time></trkpt><trkpt lat="43.8678083" lon="7.9176933"><ele>434.0</ele><time>2026-05-02T07:49:51.256Z</time></trkpt><trkpt lat="43.86779" lon="7.917855"><ele>433.49999999999994</ele><time>2026-05-02T07:49:53.256Z</time></trkpt><trkpt lat="43.86779" lon="7.9179833"><ele>433.0</ele><time>2026-05-02T07:49:55.257Z</time></trkpt><trkpt lat="43.867805" lon="7.9180933"><ele>432.5</ele><time>2026-05-02T07:49:57.256Z</time></trkpt><trkpt lat="43.8678517" lon="7.9181933"><ele>432.0</ele><time>2026-05-02T07:49:59.256Z</time></trkpt><trkpt lat="43.8679133" lon="7.9182867"><ele>431.49999999999994</ele><time>2026-05-02T07:50:01.256Z</time></trkpt><trkpt lat="43.86798" lon="7.91837"><ele>431.0</ele><time>2026-05-02T07:50:03.256Z</time></trkpt><trkpt lat="43.868045" lon="7.9184517"><ele>432.49999999999994</ele><time>2026-05-02T07:50:05.256Z</time></trkpt><trkpt lat="43.8681033" lon="7.918525"><ele>434.0</ele><time>2026-05-02T07:50:07.256Z</time></trkpt><trkpt lat="43.8681433" lon="7.9185933"><ele>435.5</ele><time>2026-05-02T07:50:09.256Z</time></trkpt><trkpt lat="43.8681983" lon="7.9186883"><ele>437.0</ele><time>2026-05-02T07:50:12.257Z</time></trkpt><trkpt lat="43.8682533" lon="7.9187783"><ele>438.49999999999994</ele><time>2026-05-02T07:50:15.256Z</time></trkpt><trkpt lat="43.8683" lon="7.918895"><ele>440.0</ele><time>2026-05-02T07:50:18.256Z</time></trkpt><trkpt lat="43.868345" lon="7.9189683"><ele>439.99999999999994</ele><time>2026-05-02T07:50:20.256Z</time></trkpt><trkpt lat="43.868385" lon="7.9190417"><ele>440.0</ele><time>2026-05-02T07:50:22.256Z</time></trkpt><trkpt lat="43.86843" lon="7.91914"><ele>440.0</ele><time>2026-05-02T07:50:25.256Z</time></trkpt><trkpt lat="43.86846" lon="7.91922"><ele>440.0</ele><time>2026-05-02T07:50:28.256Z</time></trkpt><trkpt lat="43.868485" lon="7.9193117"><ele>440.0</ele><time>2026-05-02T07:50:31.256Z</time></trkpt><trkpt lat="43.868495" lon="7.9194317"><ele>439.99999999999994</ele><time>2026-05-02T07:50:34.256Z</time></trkpt><trkpt lat="43.86848" lon="7.9195233"><ele>440.0</ele><time>2026-05-02T07:50:36.256Z</time></trkpt><trkpt lat="43.86843" lon="7.9196283"><ele>437.8</ele><time>2026-05-02T07:50:38.256Z</time></trkpt><trkpt lat="43.8683467" lon="7.9197433"><ele>435.6</ele><time>2026-05-02T07:50:40.256Z</time></trkpt><trkpt lat="43.868295" lon="7.919795"><ele>433.4</ele><time>2026-05-02T07:50:41.256Z</time></trkpt><trkpt lat="43.8681917" lon="7.9198917"><ele>431.2</ele><time>2026-05-02T07:50:43.256Z</time></trkpt><trkpt lat="43.8681233" lon="7.9199917"><ele>429.0</ele><time>2026-05-02T07:50:45.256Z</time></trkpt><trkpt lat="43.86809" lon="7.9201083"><ele>427.3333333333333</ele><time>2026-05-02T07:50:47.256Z</time></trkpt><trkpt lat="43.8680767" lon="7.9202283"><ele>425.66666666666663</ele><time>2026-05-02T07:50:49.257Z</time></trkpt><trkpt lat="43.8680733" lon="7.920355"><ele>424.0</ele><time>2026-05-02T07:50:51.256Z</time></trkpt><trkpt lat="43.8680683" lon="7.9204617"><ele>422.3333333333333</ele><time>2026-05-02T07:50:53.256Z</time></trkpt><trkpt lat="43.8680483" lon="7.9205533"><ele>420.66666666666663</ele><time>2026-05-02T07:50:55.257Z</time></trkpt><trkpt lat="43.8680317" lon="7.9206617"><ele>419.0</ele><time>2026-05-02T07:50:57.257Z</time></trkpt><trkpt lat="43.868005" lon="7.92079"><ele>416.79999999999995</ele><time>2026-05-02T07:50:59.256Z</time></trkpt><trkpt lat="43.8679683" lon="7.9209267"><ele>414.59999999999997</ele><time>2026-05-02T07:51:01.256Z</time></trkpt><trkpt lat="43.8679217" lon="7.9210533"><ele>412.4</ele><time>2026-05-02T07:51:03.256Z</time></trkpt><trkpt lat="43.8678867" lon="7.9211667"><ele>410.2</ele><time>2026-05-02T07:51:05.256Z</time></trkpt><trkpt lat="43.86786" lon="7.921305"><ele>408.0</ele><time>2026-05-02T07:51:07.256Z</time></trkpt><trkpt lat="43.8678" lon="7.9213883"><ele>408.0</ele><time>2026-05-02T07:51:10.257Z</time></trkpt><trkpt lat="43.8677367" lon="7.9214167"><ele>408.0</ele><time>2026-05-02T07:51:13.256Z</time></trkpt><trkpt lat="43.8676817" lon="7.92136"><ele>408.0</ele><time>2026-05-02T07:51:16.256Z</time></trkpt><trkpt lat="43.86763" lon="7.92125"><ele>408.0</ele><time>2026-05-02T07:51:19.256Z</time></trkpt><trkpt lat="43.8676033" lon="7.921165"><ele>408.0</ele><time>2026-05-02T07:51:21.256Z</time></trkpt><trkpt lat="43.8675483" lon="7.921085"><ele>408.0</ele><time>2026-05-02T07:51:23.256Z</time></trkpt><trkpt lat="43.8674783" lon="7.9210283"><ele>407.8333333333333</ele><time>2026-05-02T07:51:25.256Z</time></trkpt><trkpt lat="43.8673983" lon="7.9209783"><ele>407.66666666666663</ele><time>2026-05-02T07:51:27.256Z</time></trkpt><trkpt lat="43.8673033" lon="7.9209833"><ele>407.5</ele><time>2026-05-02T07:51:30.256Z</time></trkpt><trkpt lat="43.86722" lon="7.921005"><ele>407.3333333333333</ele><time>2026-05-02T07:51:32.256Z</time></trkpt><trkpt lat="43.8671517" lon="7.9210333"><ele>407.16666666666663</ele><time>2026-05-02T07:51:34.256Z</time></trkpt><trkpt lat="43.8670533" lon="7.9210733"><ele>407.0</ele><time>2026-05-02T07:51:36.256Z</time></trkpt><trkpt lat="43.8669667" lon="7.9211167"><ele>406.99999999999994</ele><time>2026-05-02T07:51:38.256Z</time></trkpt><trkpt lat="43.866885" lon="7.921175"><ele>407.0</ele><time>2026-05-02T07:51:40.257Z</time></trkpt><trkpt lat="43.8667967" lon="7.921185"><ele>407.0</ele><time>2026-05-02T07:51:43.256Z</time></trkpt><trkpt lat="43.8667133" lon="7.92118"><ele>407.0</ele><time>2026-05-02T07:51:46.256Z</time></trkpt><trkpt lat="43.8666467" lon="7.9212233"><ele>406.99999999999994</ele><time>2026-05-02T07:51:49.256Z</time></trkpt><trkpt lat="43.86657" lon="7.9212717"><ele>407.0</ele><time>2026-05-02T07:51:52.256Z</time></trkpt><trkpt lat="43.8664883" lon="7.9212917"><ele>407.8333333333333</ele><time>2026-05-02T07:51:55.257Z</time></trkpt><trkpt lat="43.8664033" lon="7.921305"><ele>408.66666666666663</ele><time>2026-05-02T07:51:58.256Z</time></trkpt><trkpt lat="43.86633" lon="7.9213383"><ele>409.5</ele><time>2026-05-02T07:52:01.256Z</time></trkpt><trkpt lat="43.8662683" lon="7.9213767"><ele>410.33333333333337</ele><time>2026-05-02T07:52:03.256Z</time></trkpt><trkpt lat="43.8661983" lon="7.9214317"><ele>411.1666666666667</ele><time>2026-05-02T07:52:05.256Z</time></trkpt><trkpt lat="43.8661417" lon="7.9214967"><ele>412.0</ele><time>2026-05-02T07:52:07.255Z</time></trkpt><trkpt lat="43.8660783" lon="7.9215567"><ele>412.0</ele><time>2026-05-02T07:52:09.255Z</time></trkpt><trkpt lat="43.866" lon="7.9216233"><ele>412.0</ele><time>2026-05-02T07:52:12.255Z</time></trkpt><trkpt lat="43.8659267" lon="7.9216967"><ele>412.0</ele><time>2026-05-02T07:52:15.255Z</time></trkpt><trkpt lat="43.865845" lon="7.9218317"><ele>412.0</ele><time>2026-05-02T07:52:17.256Z</time></trkpt><trkpt lat="43.8657983" lon="7.9219617"><ele>412.0</ele><time>2026-05-02T07:52:19.255Z</time></trkpt><trkpt lat="43.8657583" lon="7.9220733"><ele>409.6666666666667</ele><time>2026-05-02T07:52:21.255Z</time></trkpt><trkpt lat="43.86569" lon="7.9221617"><ele>407.33333333333337</ele><time>2026-05-02T07:52:24.255Z</time></trkpt><trkpt lat="43.8656167" lon="7.9222133"><ele>405.0</ele><time>2026-05-02T07:52:26.256Z</time></trkpt><trkpt lat="43.8655433" lon="7.9222667"><ele>402.66666666666663</ele><time>2026-05-02T07:52:28.255Z</time></trkpt><trkpt lat="43.8654833" lon="7.9223133"><ele>400.3333333333333</ele><time>2026-05-02T07:52:30.255Z</time></trkpt><trkpt lat="43.86543" lon="7.9223783"><ele>398.0</ele><time>2026-05-02T07:52:32.255Z</time></trkpt><trkpt lat="43.8653667" lon="7.922425"><ele>397.99999999999994</ele><time>2026-05-02T07:52:34.256Z</time></trkpt><trkpt lat="43.865275" lon="7.922465"><ele>398.0</ele><time>2026-05-02T07:52:37.255Z</time></trkpt><trkpt lat="43.8652033" lon="7.922505"><ele>398.0</ele><time>2026-05-02T07:52:40.256Z</time></trkpt><trkpt lat="43.8651267" lon="7.922535"><ele>398.0</ele><time>2026-05-02T07:52:42.255Z</time></trkpt><trkpt lat="43.865065" lon="7.9225783"><ele>397.99999999999994</ele><time>2026-05-02T07:52:44.256Z</time></trkpt><trkpt lat="43.86499" lon="7.9226383"><ele>398.0</ele><time>2026-05-02T07:52:48.255Z</time></trkpt><trkpt lat="43.8649067" lon="7.9227183"><ele>395.71428571428567</ele><time>2026-05-02T07:52:51.256Z</time></trkpt><trkpt lat="43.8648483" lon="7.922755"><ele>393.42857142857144</ele><time>2026-05-02T07:52:53.255Z</time></trkpt><trkpt lat="43.8647783" lon="7.922785"><ele>391.1428571428571</ele><time>2026-05-02T07:52:56.255Z</time></trkpt><trkpt lat="43.8647167" lon="7.9228333"><ele>388.85714285714283</ele><time>2026-05-02T07:52:59.255Z</time></trkpt><trkpt lat="43.864645" lon="7.9228917"><ele>386.57142857142856</ele><time>2026-05-02T07:53:03.255Z</time></trkpt><trkpt lat="43.8645817" lon="7.9229417"><ele>384.2857142857143</ele><time>2026-05-02T07:53:06.256Z</time></trkpt><trkpt lat="43.8645133" lon="7.9229983"><ele>382.0</ele><time>2026-05-02T07:53:10.255Z</time></trkpt><trkpt lat="43.8644417" lon="7.9230067"><ele>382.0</ele><time>2026-05-02T07:53:13.255Z</time></trkpt><trkpt lat="43.8643767" lon="7.9230367"><ele>382.0</ele><time>2026-05-02T07:53:15.255Z</time></trkpt><trkpt lat="43.864315" lon="7.9230933"><ele>382.0</ele><time>2026-05-02T07:53:18.255Z</time></trkpt><trkpt lat="43.8642883" lon="7.9232117"><ele>382.0</ele><time>2026-05-02T07:53:21.256Z</time></trkpt><trkpt lat="43.86424" lon="7.9233183"><ele>382.0</ele><time>2026-05-02T07:53:24.255Z</time></trkpt><trkpt lat="43.8641933" lon="7.923395"><ele>382.0</ele><time>2026-05-02T07:53:26.255Z</time></trkpt><trkpt lat="43.8641433" lon="7.9234767"><ele>378.5</ele><time>2026-05-02T07:53:28.255Z</time></trkpt><trkpt lat="43.864095" lon="7.9235533"><ele>375.0</ele><time>2026-05-02T07:53:30.255Z</time></trkpt><trkpt lat="43.8640383" lon="7.923625"><ele>371.5</ele><time>2026-05-02T07:53:32.255Z</time></trkpt><trkpt lat="43.8639717" lon="7.92371"><ele>368.0</ele><time>2026-05-02T07:53:34.255Z</time></trkpt><trkpt lat="43.8639067" lon="7.9237783"><ele>364.5</ele><time>2026-05-02T07:53:36.255Z</time></trkpt><trkpt lat="43.8638333" lon="7.92385"><ele>361.0</ele><time>2026-05-02T07:53:38.255Z</time></trkpt><trkpt lat="43.86377" lon="7.9239217"><ele>361.0</ele><time>2026-05-02T07:53:40.255Z</time></trkpt><trkpt lat="43.8637117" lon="7.9239783"><ele>361.0</ele><time>2026-05-02T07:53:42.256Z</time></trkpt><trkpt lat="43.863645" lon="7.9239667"><ele>361.0</ele><time>2026-05-02T07:53:46.255Z</time></trkpt><trkpt lat="43.8635683" lon="7.9239217"><ele>361.0</ele><time>2026-05-02T07:53:50.255Z</time></trkpt><trkpt lat="43.8634983" lon="7.9239217"><ele>361.0</ele><time>2026-05-02T07:53:52.256Z</time></trkpt><trkpt lat="43.8634283" lon="7.9239317"><ele>361.0</ele><time>2026-05-02T07:53:54.255Z</time></trkpt><trkpt lat="43.8633633" lon="7.9239617"><ele>361.0</ele><time>2026-05-02T07:53:56.255Z</time></trkpt><trkpt lat="43.8632883" lon="7.9240017"><ele>360.5</ele><time>2026-05-02T07:53:58.255Z</time></trkpt><trkpt lat="43.8632133" lon="7.9240367"><ele>360.0</ele><time>2026-05-02T07:54:00.255Z</time></trkpt><trkpt lat="43.8631383" lon="7.9240567"><ele>359.5</ele><time>2026-05-02T07:54:02.255Z</time></trkpt><trkpt lat="43.8630617" lon="7.9240683"><ele>359.0</ele><time>2026-05-02T07:54:04.255Z</time></trkpt><trkpt lat="43.8629867" lon="7.9240717"><ele>358.5</ele><time>2026-05-02T07:54:06.255Z</time></trkpt><trkpt lat="43.862905" lon="7.924075"><ele>358.0</ele><time>2026-05-02T07:54:08.255Z</time></trkpt><trkpt lat="43.8628217" lon="7.924085"><ele>358.0</ele><time>2026-05-02T07:54:10.256Z</time></trkpt><trkpt lat="43.8627317" lon="7.92411"><ele>358.0</ele><time>2026-05-02T07:54:12.255Z</time></trkpt><trkpt lat="43.86264" lon="7.9241617"><ele>358.0</ele><time>2026-05-02T07:54:14.255Z</time></trkpt><trkpt lat="43.8625817" lon="7.9242"><ele>358.0</ele><time>2026-05-02T07:54:15.255Z</time></trkpt><trkpt lat="43.862525" lon="7.924275"><ele>358.0</ele><time>2026-05-02T07:54:17.255Z</time></trkpt><trkpt lat="43.8625267" lon="7.9243783"><ele>358.0</ele><time>2026-05-02T07:54:19.255Z</time></trkpt><trkpt lat="43.8625283" lon="7.924495"><ele>358.0</ele><time>2026-05-02T07:54:21.255Z</time></trkpt><trkpt lat="43.8625067" lon="7.9246033"><ele>358.0</ele><time>2026-05-02T07:54:23.256Z</time></trkpt><trkpt lat="43.8624583" lon="7.92468"><ele>358.0</ele><time>2026-05-02T07:54:25.255Z</time></trkpt><trkpt lat="43.862385" lon="7.92468"><ele>358.0</ele><time>2026-05-02T07:54:27.256Z</time></trkpt><trkpt lat="43.8623067" lon="7.92469"><ele>358.0</ele><time>2026-05-02T07:54:29.256Z</time></trkpt><trkpt lat="43.862225" lon="7.9247117"><ele>358.0</ele><time>2026-05-02T07:54:31.255Z</time></trkpt><trkpt lat="43.8621517" lon="7.9247333"><ele>358.00000000000006</ele><time>2026-05-02T07:54:33.256Z</time></trkpt><trkpt lat="43.862085" lon="7.924755"><ele>358.0</ele><time>2026-05-02T07:54:35.255Z</time></trkpt><trkpt lat="43.862025" lon="7.9247883"><ele>358.0</ele><time>2026-05-02T07:54:37.255Z</time></trkpt><trkpt lat="43.8619533" lon="7.9248467"><ele>358.0</ele><time>2026-05-02T07:54:40.255Z</time></trkpt><trkpt lat="43.8618967" lon="7.9248867"><ele>358.0</ele><time>2026-05-02T07:54:42.255Z</time></trkpt><trkpt lat="43.86182" lon="7.92492"><ele>358.00000000000006</ele><time>2026-05-02T07:54:44.255Z</time></trkpt><trkpt lat="43.8617467" lon="7.9249433"><ele>358.0</ele><time>2026-05-02T07:54:46.255Z</time></trkpt><trkpt lat="43.861675" lon="7.924965"><ele>360.28571428571433</ele><time>2026-05-02T07:54:48.255Z</time></trkpt><trkpt lat="43.8616117" lon="7.92498"><ele>362.57142857142856</ele><time>2026-05-02T07:54:50.255Z</time></trkpt><trkpt lat="43.86155" lon="7.9250017"><ele>364.8571428571429</ele><time>2026-05-02T07:54:52.255Z</time></trkpt><trkpt lat="43.86147" lon="7.9250067"><ele>367.14285714285717</ele><time>2026-05-02T07:54:55.256Z</time></trkpt><trkpt lat="43.861405" lon="7.9249933"><ele>369.42857142857144</ele><time>2026-05-02T07:54:57.256Z</time></trkpt><trkpt lat="43.86134" lon="7.9249733"><ele>371.7142857142857</ele><time>2026-05-02T07:54:59.255Z</time></trkpt><trkpt lat="43.861275" lon="7.9249667"><ele>374.0</ele><time>2026-05-02T07:55:01.255Z</time></trkpt><trkpt lat="43.8611967" lon="7.9249917"><ele>374.0</ele><time>2026-05-02T07:55:03.256Z</time></trkpt><trkpt lat="43.861125" lon="7.9250317"><ele>374.0</ele><time>2026-05-02T07:55:05.255Z</time></trkpt><trkpt lat="43.86107" lon="7.9250767"><ele>374.0</ele><time>2026-05-02T07:55:07.255Z</time></trkpt><trkpt lat="43.8610067" lon="7.9251383"><ele>374.0</ele><time>2026-05-02T07:55:09.255Z</time></trkpt><trkpt lat="43.86094" lon="7.9251967"><ele>374.0</ele><time>2026-05-02T07:55:11.255Z</time></trkpt><trkpt lat="43.8608783" lon="7.9252417"><ele>374.0</ele><time>2026-05-02T07:55:13.255Z</time></trkpt><trkpt lat="43.8608233" lon="7.9253017"><ele>374.0</ele><time>2026-05-02T07:55:15.255Z</time></trkpt><trkpt lat="43.860765" lon="7.925365"><ele>375.1428571428571</ele><time>2026-05-02T07:55:17.255Z</time></trkpt><trkpt lat="43.8607167" lon="7.9254283"><ele>376.28571428571433</ele><time>2026-05-02T07:55:19.255Z</time></trkpt><trkpt lat="43.86067" lon="7.92549"><ele>377.42857142857144</ele><time>2026-05-02T07:55:21.256Z</time></trkpt><trkpt lat="43.860625" lon="7.9255533"><ele>378.57142857142856</ele><time>2026-05-02T07:55:23.255Z</time></trkpt><trkpt lat="43.8605717" lon="7.925635"><ele>379.71428571428567</ele><time>2026-05-02T07:55:25.256Z</time></trkpt><trkpt lat="43.8605233" lon="7.9257033"><ele>380.8571428571429</ele><time>2026-05-02T07:55:27.255Z</time></trkpt><trkpt lat="43.8604767" lon="7.9257983"><ele>382.0</ele><time>2026-05-02T07:55:29.255Z</time></trkpt><trkpt lat="43.8604333" lon="7.9258883"><ele>383.16666666666663</ele><time>2026-05-02T07:55:31.255Z</time></trkpt><trkpt lat="43.860395" lon="7.9259717"><ele>384.3333333333333</ele><time>2026-05-02T07:55:33.255Z</time></trkpt><trkpt lat="43.86035" lon="7.9260517"><ele>385.5</ele><time>2026-05-02T07:55:35.255Z</time></trkpt><trkpt lat="43.860305" lon="7.9261283"><ele>386.66666666666663</ele><time>2026-05-02T07:55:37.255Z</time></trkpt><trkpt lat="43.8602533" lon="7.926195"><ele>387.8333333333333</ele><time>2026-05-02T07:55:39.255Z</time></trkpt><trkpt lat="43.8601717" lon="7.9262733"><ele>389.0</ele><time>2026-05-02T07:55:42.256Z</time></trkpt><trkpt lat="43.8601067" lon="7.9263117"><ele>388.99999999999994</ele><time>2026-05-02T07:55:44.255Z</time></trkpt><trkpt lat="43.8600217" lon="7.926335"><ele>389.0</ele><time>2026-05-02T07:55:47.255Z</time></trkpt><trkpt lat="43.8599483" lon="7.9263433"><ele>389.0</ele><time>2026-05-02T07:55:50.255Z</time></trkpt><trkpt lat="43.85993" lon="7.9262567"><ele>389.0</ele><time>2026-05-02T07:58:58.256Z</time></trkpt><trkpt lat="43.85998" lon="7.92616"><ele>388.99999999999994</ele><time>2026-05-02T07:59:01.256Z</time></trkpt><trkpt lat="43.8600267" lon="7.92609"><ele>389.0</ele><time>2026-05-02T07:59:03.256Z</time></trkpt><trkpt lat="43.8600683" lon="7.9259833"><ele>389.16666666666663</ele><time>2026-05-02T07:59:06.256Z</time></trkpt><trkpt lat="43.8600717" lon="7.9258567"><ele>389.3333333333333</ele><time>2026-05-02T07:59:09.256Z</time></trkpt><trkpt lat="43.8600867" lon="7.9257333"><ele>389.5</ele><time>2026-05-02T07:59:12.256Z</time></trkpt><trkpt lat="43.8601" lon="7.9256417"><ele>389.66666666666663</ele><time>2026-05-02T07:59:14.256Z</time></trkpt><trkpt lat="43.860115" lon="7.9255517"><ele>389.8333333333333</ele><time>2026-05-02T07:59:16.256Z</time></trkpt><trkpt lat="43.8601483" lon="7.92543"><ele>390.0</ele><time>2026-05-02T07:59:19.256Z</time></trkpt><trkpt lat="43.8601783" lon="7.9253433"><ele>389.85714285714283</ele><time>2026-05-02T07:59:21.256Z</time></trkpt><trkpt lat="43.8602" lon="7.9252517"><ele>389.71428571428567</ele><time>2026-05-02T07:59:23.256Z</time></trkpt><trkpt lat="43.8602183" lon="7.9251667"><ele>389.57142857142856</ele><time>2026-05-02T07:59:25.256Z</time></trkpt><trkpt lat="43.86024" lon="7.9250833"><ele>389.42857142857144</ele><time>2026-05-02T07:59:27.256Z</time></trkpt><trkpt lat="43.8602567" lon="7.9249983"><ele>389.2857142857143</ele><time>2026-05-02T07:59:29.256Z</time></trkpt><trkpt lat="43.8602883" lon="7.924885"><ele>389.14285714285717</ele><time>2026-05-02T07:59:32.256Z</time></trkpt><trkpt lat="43.8603167" lon="7.92477"><ele>389.0</ele><time>2026-05-02T07:59:35.256Z</time></trkpt><trkpt lat="43.8603383" lon="7.9246867"><ele>388.99999999999994</ele><time>2026-05-02T07:59:37.256Z</time></trkpt><trkpt lat="43.8603617" lon="7.9246"><ele>389.0</ele><time>2026-05-02T07:59:39.256Z</time></trkpt><trkpt lat="43.8603883" lon="7.9245033"><ele>389.0</ele><time>2026-05-02T07:59:41.256Z</time></trkpt><trkpt lat="43.8604233" lon="7.9244017"><ele>389.0</ele><time>2026-05-02T07:59:43.257Z</time></trkpt><trkpt lat="43.8604467" lon="7.9243117"><ele>388.99999999999994</ele><time>2026-05-02T07:59:45.256Z</time></trkpt><trkpt lat="43.860495" lon="7.9242117"><ele>389.0</ele><time>2026-05-02T07:59:48.256Z</time></trkpt><trkpt lat="43.8605333" lon="7.92412"><ele>390.66666666666663</ele><time>2026-05-02T07:59:51.256Z</time></trkpt><trkpt lat="43.8605567" lon="7.92401"><ele>392.3333333333333</ele><time>2026-05-02T07:59:54.256Z</time></trkpt><trkpt lat="43.8605667" lon="7.9239183"><ele>394.0</ele><time>2026-05-02T07:59:56.256Z</time></trkpt><trkpt lat="43.8606017" lon="7.9237983"><ele>395.66666666666663</ele><time>2026-05-02T07:59:58.256Z</time></trkpt><trkpt lat="43.8606433" lon="7.9236733"><ele>397.3333333333333</ele><time>2026-05-02T08:00:00.257Z</time></trkpt><trkpt lat="43.86069" lon="7.923565"><ele>399.0</ele><time>2026-05-02T08:00:02.256Z</time></trkpt><trkpt lat="43.8607133" lon="7.9234667"><ele>399.3333333333333</ele><time>2026-05-02T08:00:04.257Z</time></trkpt><trkpt lat="43.8607217" lon="7.9233617"><ele>399.66666666666663</ele><time>2026-05-02T08:00:06.256Z</time></trkpt><trkpt lat="43.8607267" lon="7.92325"><ele>400.0</ele><time>2026-05-02T08:00:08.256Z</time></trkpt><trkpt lat="43.86075" lon="7.9231633"><ele>400.3333333333333</ele><time>2026-05-02T08:00:10.256Z</time></trkpt><trkpt lat="43.8607567" lon="7.9230617"><ele>400.66666666666663</ele><time>2026-05-02T08:00:12.256Z</time></trkpt><trkpt lat="43.8607467" lon="7.92296"><ele>401.0</ele><time>2026-05-02T08:00:14.257Z</time></trkpt><trkpt lat="43.860725" lon="7.9228517"><ele>400.99999999999994</ele><time>2026-05-02T08:00:16.256Z</time></trkpt><trkpt lat="43.8607067" lon="7.9227667"><ele>401.0</ele><time>2026-05-02T08:00:18.256Z</time></trkpt><trkpt lat="43.8607017" lon="7.9226567"><ele>401.0</ele><time>2026-05-02T08:00:21.256Z</time></trkpt><trkpt lat="43.8607183" lon="7.9225467"><ele>401.0</ele><time>2026-05-02T08:00:24.256Z</time></trkpt><trkpt lat="43.86073" lon="7.92246"><ele>400.99999999999994</ele><time>2026-05-02T08:00:26.256Z</time></trkpt><trkpt lat="43.8607683" lon="7.9223817"><ele>401.0</ele><time>2026-05-02T08:00:29.256Z</time></trkpt><trkpt lat="43.86086" lon="7.922355"><ele>401.16666666666663</ele><time>2026-05-02T08:00:32.256Z</time></trkpt><trkpt lat="43.8609417" lon="7.9223583"><ele>401.3333333333333</ele><time>2026-05-02T08:00:34.256Z</time></trkpt><trkpt lat="43.861025" lon="7.9223517"><ele>401.5</ele><time>2026-05-02T08:00:36.256Z</time></trkpt><trkpt lat="43.86109" lon="7.9223167"><ele>401.66666666666663</ele><time>2026-05-02T08:00:38.256Z</time></trkpt><trkpt lat="43.8611617" lon="7.9222767"><ele>401.8333333333333</ele><time>2026-05-02T08:00:40.256Z</time></trkpt><trkpt lat="43.8612433" lon="7.9222367"><ele>402.0</ele><time>2026-05-02T08:00:42.256Z</time></trkpt><trkpt lat="43.8613283" lon="7.9221817"><ele>403.0</ele><time>2026-05-02T08:00:44.257Z</time></trkpt><trkpt lat="43.861425" lon="7.9221383"><ele>404.0</ele><time>2026-05-02T08:00:46.256Z</time></trkpt><trkpt lat="43.8615167" lon="7.9221067"><ele>405.0</ele><time>2026-05-02T08:00:48.256Z</time></trkpt><trkpt lat="43.8616017" lon="7.92207"><ele>406.0</ele><time>2026-05-02T08:00:50.256Z</time></trkpt><trkpt lat="43.8616817" lon="7.922015"><ele>407.0</ele><time>2026-05-02T08:00:52.256Z</time></trkpt><trkpt lat="43.8617533" lon="7.9219283"><ele>406.40000000000003</ele><time>2026-05-02T08:00:54.256Z</time></trkpt><trkpt lat="43.8618167" lon="7.921825"><ele>405.8</ele><time>2026-05-02T08:00:56.257Z</time></trkpt><trkpt lat="43.8618833" lon="7.92172"><ele>405.2</ele><time>2026-05-02T08:00:58.256Z</time></trkpt><trkpt lat="43.8619417" lon="7.9216133"><ele>404.6</ele><time>2026-05-02T08:01:00.257Z</time></trkpt><trkpt lat="43.8619917" lon="7.9215033"><ele>404.0</ele><time>2026-05-02T08:01:02.256Z</time></trkpt><trkpt lat="43.8620383" lon="7.9214167"><ele>404.0</ele><time>2026-05-02T08:01:04.256Z</time></trkpt><trkpt lat="43.86208" lon="7.9213417"><ele>404.0</ele><time>2026-05-02T08:01:06.256Z</time></trkpt><trkpt lat="43.8621183" lon="7.9212633"><ele>404.0</ele><time>2026-05-02T08:01:08.256Z</time></trkpt><trkpt lat="43.8621583" lon="7.92119"><ele>404.0</ele><time>2026-05-02T08:01:10.256Z</time></trkpt><trkpt lat="43.86219" lon="7.921105"><ele>404.0</ele><time>2026-05-02T08:01:12.256Z</time></trkpt><trkpt lat="43.8622217" lon="7.921025"><ele>404.0</ele><time>2026-05-02T08:01:14.256Z</time></trkpt><trkpt lat="43.8622733" lon="7.92093"><ele>404.0</ele><time>2026-05-02T08:01:17.256Z</time></trkpt><trkpt lat="43.8623117" lon="7.9208217"><ele>406.16666666666663</ele><time>2026-05-02T08:01:20.256Z</time></trkpt><trkpt lat="43.862345" lon="7.9207467"><ele>408.3333333333333</ele><time>2026-05-02T08:01:22.256Z</time></trkpt><trkpt lat="43.862385" lon="7.920675"><ele>410.5</ele><time>2026-05-02T08:01:24.256Z</time></trkpt><trkpt lat="43.8624433" lon="7.9205883"><ele>412.66666666666663</ele><time>2026-05-02T08:01:27.256Z</time></trkpt><trkpt lat="43.8625017" lon="7.9205017"><ele>414.8333333333333</ele><time>2026-05-02T08:01:30.256Z</time></trkpt><trkpt lat="43.86257" lon="7.9204283"><ele>417.0</ele><time>2026-05-02T08:01:33.256Z</time></trkpt><trkpt lat="43.8626467" lon="7.9203783"><ele>417.0</ele><time>2026-05-02T08:01:36.256Z</time></trkpt><trkpt lat="43.862705" lon="7.9203367"><ele>417.0</ele><time>2026-05-02T08:01:38.256Z</time></trkpt><trkpt lat="43.86276" lon="7.9202833"><ele>417.0</ele><time>2026-05-02T08:01:40.256Z</time></trkpt><trkpt lat="43.8628283" lon="7.9202133"><ele>417.0</ele><time>2026-05-02T08:01:43.256Z</time></trkpt><trkpt lat="43.8628833" lon="7.920155"><ele>417.0</ele><time>2026-05-02T08:01:46.257Z</time></trkpt><trkpt lat="43.8629417" lon="7.9200967"><ele>417.0</ele><time>2026-05-02T08:01:50.256Z</time></trkpt><trkpt lat="43.862995" lon="7.92001"><ele>417.0</ele><time>2026-05-02T08:01:53.256Z</time></trkpt><trkpt lat="43.86306" lon="7.919925"><ele>418.6666666666667</ele><time>2026-05-02T08:01:56.256Z</time></trkpt><trkpt lat="43.86313" lon="7.9198383"><ele>420.33333333333337</ele><time>2026-05-02T08:01:59.256Z</time></trkpt><trkpt lat="43.86318" lon="7.9197833"><ele>422.0</ele><time>2026-05-02T08:02:01.256Z</time></trkpt><trkpt lat="43.8632567" lon="7.9197233"><ele>423.6666666666667</ele><time>2026-05-02T08:02:04.256Z</time></trkpt><trkpt lat="43.8633317" lon="7.919685"><ele>425.33333333333337</ele><time>2026-05-02T08:02:07.256Z</time></trkpt><trkpt lat="43.8634117" lon="7.9197183"><ele>427.0</ele><time>2026-05-02T08:02:11.256Z</time></trkpt><trkpt lat="43.8634983" lon="7.91975"><ele>428.50000000000006</ele><time>2026-05-02T08:02:14.256Z</time></trkpt><trkpt lat="43.86357" lon="7.9197833"><ele>430.0</ele><time>2026-05-02T08:02:16.256Z</time></trkpt><trkpt lat="43.8636433" lon="7.9198183"><ele>431.5</ele><time>2026-05-02T08:02:18.256Z</time></trkpt><trkpt lat="43.8637067" lon="7.9198367"><ele>433.0</ele><time>2026-05-02T08:02:20.256Z</time></trkpt><trkpt lat="43.863795" lon="7.91987"><ele>434.50000000000006</ele><time>2026-05-02T08:02:23.256Z</time></trkpt><trkpt lat="43.8638733" lon="7.9198867"><ele>436.0</ele><time>2026-05-02T08:02:26.256Z</time></trkpt><trkpt lat="43.8639417" lon="7.919885"><ele>436.00000000000006</ele><time>2026-05-02T08:02:28.257Z</time></trkpt><trkpt lat="43.8640083" lon="7.9198717"><ele>436.0</ele><time>2026-05-02T08:02:30.256Z</time></trkpt><trkpt lat="43.8640933" lon="7.919845"><ele>436.0</ele><time>2026-05-02T08:02:33.256Z</time></trkpt><trkpt lat="43.864155" lon="7.919825"><ele>436.0</ele><time>2026-05-02T08:02:36.256Z</time></trkpt><trkpt lat="43.864235" lon="7.9198167"><ele>436.00000000000006</ele><time>2026-05-02T08:02:40.257Z</time></trkpt><trkpt lat="43.8643167" lon="7.9197833"><ele>436.0</ele><time>2026-05-02T08:02:44.256Z</time></trkpt><trkpt lat="43.8643833" lon="7.9197517"><ele>438.1666666666667</ele><time>2026-05-02T08:02:47.256Z</time></trkpt><trkpt lat="43.8644567" lon="7.919755"><ele>440.33333333333337</ele><time>2026-05-02T08:02:50.256Z</time></trkpt><trkpt lat="43.8645233" lon="7.9197833"><ele>442.5</ele><time>2026-05-02T08:02:53.256Z</time></trkpt><trkpt lat="43.8645967" lon="7.9197983"><ele>444.66666666666663</ele><time>2026-05-02T08:02:56.256Z</time></trkpt><trkpt lat="43.8646783" lon="7.9198017"><ele>446.8333333333333</ele><time>2026-05-02T08:02:59.256Z</time></trkpt><trkpt lat="43.8647717" lon="7.919805"><ele>449.0</ele><time>2026-05-02T08:03:02.256Z</time></trkpt><trkpt lat="43.86486" lon="7.91984"><ele>448.99999999999994</ele><time>2026-05-02T08:03:05.257Z</time></trkpt><trkpt lat="43.8649333" lon="7.91984"><ele>449.0</ele><time>2026-05-02T08:03:08.256Z</time></trkpt><trkpt lat="43.865" lon="7.9198"><ele>449.0</ele><time>2026-05-02T08:03:11.256Z</time></trkpt><trkpt lat="43.8650767" lon="7.91976"><ele>449.0</ele><time>2026-05-02T08:03:14.256Z</time></trkpt><trkpt lat="43.865165" lon="7.919745"><ele>448.99999999999994</ele><time>2026-05-02T08:03:17.256Z</time></trkpt><trkpt lat="43.865225" lon="7.9196967"><ele>449.0</ele><time>2026-05-02T08:03:19.257Z</time></trkpt><trkpt lat="43.8652767" lon="7.91964"><ele>449.71428571428567</ele><time>2026-05-02T08:03:21.256Z</time></trkpt><trkpt lat="43.8653267" lon="7.919585"><ele>450.4285714285714</ele><time>2026-05-02T08:03:23.256Z</time></trkpt><trkpt lat="43.8653917" lon="7.9195467"><ele>451.1428571428571</ele><time>2026-05-02T08:03:26.256Z</time></trkpt><trkpt lat="43.86546" lon="7.919525"><ele>451.8571428571429</ele><time>2026-05-02T08:03:29.256Z</time></trkpt><trkpt lat="43.86552" lon="7.9194867"><ele>452.5714285714286</ele><time>2026-05-02T08:03:32.256Z</time></trkpt><trkpt lat="43.8655883" lon="7.91946"><ele>453.28571428571433</ele><time>2026-05-02T08:03:35.256Z</time></trkpt><trkpt lat="43.865655" lon="7.91943"><ele>454.0</ele><time>2026-05-02T08:03:38.256Z</time></trkpt><trkpt lat="43.8657233" lon="7.919405"><ele>454.0</ele><time>2026-05-02T08:03:41.256Z</time></trkpt><trkpt lat="43.865795" lon="7.9193733"><ele>454.00000000000006</ele><time>2026-05-02T08:03:45.256Z</time></trkpt><trkpt lat="43.865855" lon="7.9193317"><ele>454.0</ele><time>2026-05-02T08:03:48.257Z</time></trkpt><trkpt lat="43.8659083" lon="7.9192683"><ele>454.0</ele><time>2026-05-02T08:03:51.256Z</time></trkpt><trkpt lat="43.865955" lon="7.9192"><ele>454.00000000000006</ele><time>2026-05-02T08:03:54.256Z</time></trkpt><trkpt lat="43.8659867" lon="7.9191183"><ele>454.0</ele><time>2026-05-02T08:03:56.257Z</time></trkpt><trkpt lat="43.8660183" lon="7.9190267"><ele>454.0</ele><time>2026-05-02T08:03:58.256Z</time></trkpt><trkpt lat="43.866055" lon="7.9189117"><ele>454.33333333333337</ele><time>2026-05-02T08:04:01.256Z</time></trkpt><trkpt lat="43.86608" lon="7.918795"><ele>454.6666666666667</ele><time>2026-05-02T08:04:04.257Z</time></trkpt><trkpt lat="43.8660917" lon="7.9187083"><ele>455.0</ele><time>2026-05-02T08:04:06.256Z</time></trkpt><trkpt lat="43.86612" lon="7.9185917"><ele>455.33333333333337</ele><time>2026-05-02T08:04:09.256Z</time></trkpt><trkpt lat="43.8661433" lon="7.9184783"><ele>455.6666666666667</ele><time>2026-05-02T08:04:12.256Z</time></trkpt><trkpt lat="43.8661817" lon="7.9184067"><ele>456.0</ele><time>2026-05-02T08:04:15.256Z</time></trkpt><trkpt lat="43.8662367" lon="7.9183417"><ele>458.3333333333333</ele><time>2026-05-02T08:04:18.256Z</time></trkpt><trkpt lat="43.866305" lon="7.9182833"><ele>460.66666666666663</ele><time>2026-05-02T08:04:21.256Z</time></trkpt><trkpt lat="43.8663683" lon="7.9182117"><ele>463.0</ele><time>2026-05-02T08:04:24.257Z</time></trkpt><trkpt lat="43.8664133" lon="7.91812"><ele>465.3333333333333</ele><time>2026-05-02T08:04:27.256Z</time></trkpt><trkpt lat="43.8664583" lon="7.9180483"><ele>467.66666666666663</ele><time>2026-05-02T08:04:31.257Z</time></trkpt><trkpt lat="43.866485" lon="7.917945"><ele>470.0</ele><time>2026-05-02T08:04:35.256Z</time></trkpt><trkpt lat="43.8665117" lon="7.9178583"><ele>469.99999999999994</ele><time>2026-05-02T08:04:39.256Z</time></trkpt><trkpt lat="43.866535" lon="7.9177167"><ele>470.0</ele><time>2026-05-02T08:10:27.256Z</time></trkpt><trkpt lat="43.8665683" lon="7.91764"><ele>470.0</ele><time>2026-05-02T08:10:33.256Z</time></trkpt><trkpt lat="43.8665917" lon="7.9175533"><ele>470.0</ele><time>2026-05-02T08:11:21.257Z</time></trkpt><trkpt lat="43.8666467" lon="7.9174633"><ele>469.99999999999994</ele><time>2026-05-02T08:11:24.256Z</time></trkpt><trkpt lat="43.8667033" lon="7.9174133"><ele>470.0</ele><time>2026-05-02T08:11:26.256Z</time></trkpt><trkpt lat="43.8667733" lon="7.9173567"><ele>467.49999999999994</ele><time>2026-05-02T08:11:29.256Z</time></trkpt><trkpt lat="43.8668283" lon="7.9172867"><ele>465.0</ele><time>2026-05-02T08:11:32.257Z</time></trkpt><trkpt lat="43.8668567" lon="7.9172017"><ele>462.5</ele><time>2026-05-02T08:11:34.256Z</time></trkpt><trkpt lat="43.8668917" lon="7.9171017"><ele>460.0</ele><time>2026-05-02T08:11:37.256Z</time></trkpt><trkpt lat="43.86694" lon="7.9169967"><ele>457.49999999999994</ele><time>2026-05-02T08:11:40.256Z</time></trkpt><trkpt lat="43.86697" lon="7.9169117"><ele>455.0</ele><time>2026-05-02T08:11:42.256Z</time></trkpt><trkpt lat="43.8669967" lon="7.9168217"><ele>455.0</ele><time>2026-05-02T08:11:44.256Z</time></trkpt><trkpt lat="43.86702" lon="7.9167383"><ele>455.0</ele><time>2026-05-02T08:11:46.257Z</time></trkpt><trkpt lat="43.8670467" lon="7.9166467"><ele>455.0</ele><time>2026-05-02T08:11:48.256Z</time></trkpt><trkpt lat="43.8670833" lon="7.91654"><ele>455.0</ele><time>2026-05-02T08:11:51.256Z</time></trkpt><trkpt lat="43.867115" lon="7.9164367"><ele>455.0</ele><time>2026-05-02T08:11:54.256Z</time></trkpt><trkpt lat="43.8671633" lon="7.9163567"><ele>455.0</ele><time>2026-05-02T08:11:57.256Z</time></trkpt><trkpt lat="43.8672217" lon="7.9163033"><ele>455.0</ele><time>2026-05-02T08:12:00.256Z</time></trkpt><trkpt lat="43.8672733" lon="7.9162217"><ele>456.8571428571429</ele><time>2026-05-02T08:12:05.256Z</time></trkpt><trkpt lat="43.8673083" lon="7.91613"><ele>458.7142857142857</ele><time>2026-05-02T08:12:09.256Z</time></trkpt><trkpt lat="43.8673467" lon="7.9160433"><ele>460.57142857142856</ele><time>2026-05-02T08:12:13.256Z</time></trkpt><trkpt lat="43.8673717" lon="7.9159483"><ele>462.42857142857144</ele><time>2026-05-02T08:12:20.256Z</time></trkpt><trkpt lat="43.8673967" lon="7.915865"><ele>464.28571428571433</ele><time>2026-05-02T08:12:24.256Z</time></trkpt><trkpt lat="43.8674333" lon="7.9157733"><ele>466.14285714285717</ele><time>2026-05-02T08:12:28.256Z</time></trkpt><trkpt lat="43.8674717" lon="7.91569"><ele>468.0</ele><time>2026-05-02T08:12:32.257Z</time></trkpt><trkpt lat="43.8675083" lon="7.9156033"><ele>467.42857142857144</ele><time>2026-05-02T08:12:36.256Z</time></trkpt><trkpt lat="43.8675533" lon="7.9155333"><ele>466.8571428571429</ele><time>2026-05-02T08:12:40.256Z</time></trkpt><trkpt lat="43.8675917" lon="7.915445"><ele>466.28571428571433</ele><time>2026-05-02T08:12:44.256Z</time></trkpt><trkpt lat="43.8676217" lon="7.9153567"><ele>465.7142857142858</ele><time>2026-05-02T08:12:48.257Z</time></trkpt><trkpt lat="43.8676433" lon="7.9152733"><ele>465.14285714285717</ele><time>2026-05-02T08:12:52.256Z</time></trkpt><trkpt lat="43.8676717" lon="7.9151883"><ele>464.57142857142867</ele><time>2026-05-02T08:12:55.256Z</time></trkpt><trkpt lat="43.8677117" lon="7.9151133"><ele>464.00000000000006</ele><time>2026-05-02T08:12:59.256Z</time></trkpt><trkpt lat="43.86775" lon="7.9150333"><ele>467.28571428571433</ele><time>2026-05-02T08:13:03.256Z</time></trkpt><trkpt lat="43.8677717" lon="7.9149467"><ele>470.57142857142856</ele><time>2026-05-02T08:13:07.256Z</time></trkpt><trkpt lat="43.8677917" lon="7.914855"><ele>473.8571428571429</ele><time>2026-05-02T08:13:12.256Z</time></trkpt><trkpt lat="43.8677933" lon="7.91476"><ele>477.14285714285717</ele><time>2026-05-02T08:13:21.256Z</time></trkpt><trkpt lat="43.86779" lon="7.9146533"><ele>480.42857142857144</ele><time>2026-05-02T08:13:25.256Z</time></trkpt><trkpt lat="43.86779" lon="7.914565"><ele>483.7142857142857</ele><time>2026-05-02T08:13:37.256Z</time></trkpt><trkpt lat="43.8677933" lon="7.9144733"><ele>487.0</ele><time>2026-05-02T08:13:46.256Z</time></trkpt><trkpt lat="43.8678183" lon="7.9143917"><ele>487.0</ele><time>2026-05-02T08:13:53.256Z</time></trkpt><trkpt lat="43.86786" lon="7.9143167"><ele>487.0</ele><time>2026-05-02T08:14:01.256Z</time></trkpt><trkpt lat="43.867885" lon="7.9142333"><ele>487.0</ele><time>2026-05-02T08:14:09.256Z</time></trkpt><trkpt lat="43.8679" lon="7.9141483"><ele>487.0</ele><time>2026-05-02T08:14:17.256Z</time></trkpt><trkpt lat="43.8679133" lon="7.91406"><ele>487.0</ele><time>2026-05-02T08:14:30.256Z</time></trkpt><trkpt lat="43.8679167" lon="7.913965"><ele>487.0</ele><time>2026-05-02T08:14:43.256Z</time></trkpt><trkpt lat="43.86793" lon="7.9138783"><ele>487.0</ele><time>2026-05-02T08:14:54.256Z</time></trkpt><trkpt lat="43.8679483" lon="7.9137783"><ele>490.28571428571433</ele><time>2026-05-02T08:15:02.256Z</time></trkpt><trkpt lat="43.8679583" lon="7.9136767"><ele>493.57142857142856</ele><time>2026-05-02T08:15:06.256Z</time></trkpt><trkpt lat="43.867985" lon="7.9135967"><ele>496.8571428571429</ele><time>2026-05-02T08:15:11.256Z</time></trkpt><trkpt lat="43.8680067" lon="7.9135067"><ele>500.14285714285717</ele><time>2026-05-02T08:15:18.256Z</time></trkpt><trkpt lat="43.8679933" lon="7.9134117"><ele>503.42857142857144</ele><time>2026-05-02T08:15:22.256Z</time></trkpt><trkpt lat="43.8680083" lon="7.91331"><ele>506.7142857142857</ele><time>2026-05-02T08:15:26.256Z</time></trkpt><trkpt lat="43.8680517" lon="7.913235"><ele>510.0</ele><time>2026-05-02T08:15:34.256Z</time></trkpt><trkpt lat="43.8680867" lon="7.9131583"><ele>512.8333333333334</ele><time>2026-05-02T08:15:38.256Z</time></trkpt><trkpt lat="43.8681317" lon="7.913075"><ele>515.6666666666666</ele><time>2026-05-02T08:15:42.256Z</time></trkpt><trkpt lat="43.8681783" lon="7.9129833"><ele>518.5</ele><time>2026-05-02T08:15:47.256Z</time></trkpt><trkpt lat="43.8682483" lon="7.9129383"><ele>521.3333333333333</ele><time>2026-05-02T08:15:52.256Z</time></trkpt><trkpt lat="43.868315" lon="7.912925"><ele>524.1666666666666</ele><time>2026-05-02T08:15:55.256Z</time></trkpt><trkpt lat="43.8683833" lon="7.9129017"><ele>527.0</ele><time>2026-05-02T08:15:58.257Z</time></trkpt><trkpt lat="43.868465" lon="7.9128917"><ele>527.0</ele><time>2026-05-02T08:16:02.256Z</time></trkpt><trkpt lat="43.86853" lon="7.91289"><ele>527.0</ele><time>2026-05-02T08:16:05.256Z</time></trkpt><trkpt lat="43.86862" lon="7.9128733"><ele>527.0</ele><time>2026-05-02T08:19:08.256Z</time></trkpt><trkpt lat="43.8686917" lon="7.9128617"><ele>527.0</ele><time>2026-05-02T08:19:12.256Z</time></trkpt><trkpt lat="43.868775" lon="7.91285"><ele>527.0</ele><time>2026-05-02T08:19:15.256Z</time></trkpt><trkpt lat="43.8688483" lon="7.91285"><ele>527.0</ele><time>2026-05-02T08:19:17.256Z</time></trkpt><trkpt lat="43.8689217" lon="7.9128583"><ele>527.0000000000001</ele><time>2026-05-02T08:19:19.256Z</time></trkpt><trkpt lat="43.8689867" lon="7.9128467"><ele>527.0</ele><time>2026-05-02T08:19:21.256Z</time></trkpt><trkpt lat="43.8690533" lon="7.91284"><ele>527.0</ele><time>2026-05-02T08:19:23.256Z</time></trkpt><trkpt lat="43.8691233" lon="7.9128433"><ele>527.0</ele><time>2026-05-02T08:19:25.256Z</time></trkpt><trkpt lat="43.869215" lon="7.9128383"><ele>527.0</ele><time>2026-05-02T08:19:28.256Z</time></trkpt><trkpt lat="43.8692883" lon="7.9128317"><ele>527.0000000000001</ele><time>2026-05-02T08:19:30.256Z</time></trkpt><trkpt lat="43.869355" lon="7.912805"><ele>527.0</ele><time>2026-05-02T08:19:32.257Z</time></trkpt><trkpt lat="43.8694367" lon="7.9127967"><ele>526.3333333333333</ele><time>2026-05-02T08:19:34.257Z</time></trkpt><trkpt lat="43.8695183" lon="7.9127933"><ele>525.6666666666666</ele><time>2026-05-02T08:19:36.256Z</time></trkpt><trkpt lat="43.8695983" lon="7.91277"><ele>525.0</ele><time>2026-05-02T08:19:38.256Z</time></trkpt><trkpt lat="43.8696783" lon="7.9127033"><ele>524.3333333333334</ele><time>2026-05-02T08:19:40.256Z</time></trkpt><trkpt lat="43.8697417" lon="7.9125817"><ele>523.6666666666667</ele><time>2026-05-02T08:19:42.256Z</time></trkpt><trkpt lat="43.8697867" lon="7.9125133"><ele>523.0</ele><time>2026-05-02T08:19:43.256Z</time></trkpt><trkpt lat="43.8698317" lon="7.9124433"><ele>524.6666666666667</ele><time>2026-05-02T08:19:44.256Z</time></trkpt><trkpt lat="43.8698733" lon="7.9123733"><ele>526.3333333333334</ele><time>2026-05-02T08:19:45.256Z</time></trkpt><trkpt lat="43.8699067" lon="7.9122917"><ele>528.0</ele><time>2026-05-02T08:19:46.256Z</time></trkpt><trkpt lat="43.8699633" lon="7.9121367"><ele>529.6666666666666</ele><time>2026-05-02T08:19:48.256Z</time></trkpt><trkpt lat="43.8700133" lon="7.9120267"><ele>531.3333333333333</ele><time>2026-05-02T08:19:50.256Z</time></trkpt><trkpt lat="43.8700433" lon="7.9119417"><ele>533.0</ele><time>2026-05-02T08:19:52.256Z</time></trkpt><trkpt lat="43.870075" lon="7.9118567"><ele>532.0</ele><time>2026-05-02T08:19:54.256Z</time></trkpt><trkpt lat="43.8701267" lon="7.9117483"><ele>531.0</ele><time>2026-05-02T08:19:57.256Z</time></trkpt><trkpt lat="43.8701667" lon="7.911675"><ele>530.0</ele><time>2026-05-02T08:19:59.256Z</time></trkpt><trkpt lat="43.8702017" lon="7.911585"><ele>529.0</ele><time>2026-05-02T08:20:01.256Z</time></trkpt><trkpt lat="43.8702467" lon="7.9114683"><ele>528.0</ele><time>2026-05-02T08:20:03.256Z</time></trkpt><trkpt lat="43.8703117" lon="7.9113617"><ele>527.0</ele><time>2026-05-02T08:20:05.256Z</time></trkpt><trkpt lat="43.8703933" lon="7.9112317"><ele>527.0</ele><time>2026-05-02T08:20:07.256Z</time></trkpt><trkpt lat="43.8704867" lon="7.9111183"><ele>527.0</ele><time>2026-05-02T08:20:09.256Z</time></trkpt><trkpt lat="43.8705667" lon="7.91102"><ele>527.0</ele><time>2026-05-02T08:20:11.257Z</time></trkpt><trkpt lat="43.8706333" lon="7.910945"><ele>527.0</ele><time>2026-05-02T08:20:13.256Z</time></trkpt><trkpt lat="43.8706983" lon="7.9108833"><ele>527.0</ele><time>2026-05-02T08:20:15.257Z</time></trkpt><trkpt lat="43.87077" lon="7.910825"><ele>528.2857142857143</ele><time>2026-05-02T08:20:17.256Z</time></trkpt><trkpt lat="43.8708383" lon="7.9108117"><ele>529.5714285714286</ele><time>2026-05-02T08:20:19.256Z</time></trkpt><trkpt lat="43.8709117" lon="7.9108183"><ele>530.8571428571429</ele><time>2026-05-02T08:20:21.257Z</time></trkpt><trkpt lat="43.8709767" lon="7.910795"><ele>532.1428571428571</ele><time>2026-05-02T08:20:23.256Z</time></trkpt><trkpt lat="43.871035" lon="7.910745"><ele>533.4285714285714</ele><time>2026-05-02T08:20:25.256Z</time></trkpt><trkpt lat="43.87109" lon="7.9106867"><ele>534.7142857142858</ele><time>2026-05-02T08:20:27.256Z</time></trkpt><trkpt lat="43.871155" lon="7.910675"><ele>536.0</ele><time>2026-05-02T08:20:29.257Z</time></trkpt><trkpt lat="43.8712517" lon="7.9106567"><ele>536.0</ele><time>2026-05-02T08:20:31.256Z</time></trkpt><trkpt lat="43.8713083" lon="7.9106167"><ele>536.0</ele><time>2026-05-02T08:20:33.257Z</time></trkpt><trkpt lat="43.8713583" lon="7.9105583"><ele>536.0</ele><time>2026-05-02T08:20:36.256Z</time></trkpt><trkpt lat="43.871405" lon="7.9104933"><ele>536.0</ele><time>2026-05-02T08:20:40.257Z</time></trkpt><trkpt lat="43.8714567" lon="7.910425"><ele>536.0</ele><time>2026-05-02T08:20:44.256Z</time></trkpt><trkpt lat="43.87151" lon="7.91037"><ele>536.0</ele><time>2026-05-02T08:20:49.257Z</time></trkpt><trkpt lat="43.871585" lon="7.9102683"><ele>536.0</ele><time>2026-05-02T08:21:02.256Z</time></trkpt><trkpt lat="43.87163" lon="7.9101983"><ele>536.0</ele><time>2026-05-02T08:21:05.257Z</time></trkpt><trkpt lat="43.871685" lon="7.9101317"><ele>536.0</ele><time>2026-05-02T08:21:08.257Z</time></trkpt><trkpt lat="43.8717317" lon="7.9100417"><ele>536.0</ele><time>2026-05-02T08:21:12.257Z</time></trkpt><trkpt lat="43.8717483" lon="7.9099283"><ele>536.0</ele><time>2026-05-02T08:21:15.256Z</time></trkpt><trkpt lat="43.8717883" lon="7.9098533"><ele>536.0</ele><time>2026-05-02T08:21:18.256Z</time></trkpt><trkpt lat="43.8718583" lon="7.9098617"><ele>536.0</ele><time>2026-05-02T08:21:22.256Z</time></trkpt><trkpt lat="43.8719317" lon="7.90989"><ele>537.8333333333333</ele><time>2026-05-02T08:21:26.256Z</time></trkpt><trkpt lat="43.8720017" lon="7.9099283"><ele>539.6666666666666</ele><time>2026-05-02T08:22:16.257Z</time></trkpt><trkpt lat="43.87207" lon="7.909975"><ele>541.5</ele><time>2026-05-02T08:22:19.256Z</time></trkpt><trkpt lat="43.87216" lon="7.91004"><ele>543.3333333333334</ele><time>2026-05-02T08:22:22.256Z</time></trkpt><trkpt lat="43.8722417" lon="7.91007"><ele>545.1666666666667</ele><time>2026-05-02T08:22:24.256Z</time></trkpt><trkpt lat="43.87232" lon="7.9100633"><ele>547.0</ele><time>2026-05-02T08:22:26.256Z</time></trkpt><trkpt lat="43.8723917" lon="7.91005"><ele>545.1428571428571</ele><time>2026-05-02T08:22:29.256Z</time></trkpt><trkpt lat="43.872385" lon="7.9101433"><ele>543.2857142857142</ele><time>2026-05-02T08:22:37.256Z</time></trkpt><trkpt lat="43.87239" lon="7.9102317"><ele>541.4285714285714</ele><time>2026-05-02T08:22:43.256Z</time></trkpt><trkpt lat="43.872425" lon="7.910305"><ele>539.5714285714286</ele><time>2026-05-02T08:22:46.257Z</time></trkpt><trkpt lat="43.8724983" lon="7.9103683"><ele>537.7142857142858</ele><time>2026-05-02T08:22:50.256Z</time></trkpt><trkpt lat="43.8725583" lon="7.9104117"><ele>535.8571428571429</ele><time>2026-05-02T08:22:52.257Z</time></trkpt><trkpt lat="43.8726267" lon="7.9104833"><ele>534.0</ele><time>2026-05-02T08:22:54.256Z</time></trkpt><trkpt lat="43.8726967" lon="7.9105633"><ele>532.1666666666666</ele><time>2026-05-02T08:22:56.256Z</time></trkpt><trkpt lat="43.872765" lon="7.9106317"><ele>530.3333333333334</ele><time>2026-05-02T08:22:58.256Z</time></trkpt><trkpt lat="43.8728333" lon="7.910705"><ele>528.5</ele><time>2026-05-02T08:23:00.256Z</time></trkpt><trkpt lat="43.8729017" lon="7.9107717"><ele>526.6666666666667</ele><time>2026-05-02T08:23:02.256Z</time></trkpt><trkpt lat="43.8729633" lon="7.910825"><ele>524.8333333333334</ele><time>2026-05-02T08:23:04.256Z</time></trkpt><trkpt lat="43.8730183" lon="7.9108783"><ele>523.0</ele><time>2026-05-02T08:23:06.256Z</time></trkpt><trkpt lat="43.87307" lon="7.9109483"><ele>520.6666666666667</ele><time>2026-05-02T08:23:09.256Z</time></trkpt><trkpt lat="43.8731133" lon="7.911015"><ele>518.3333333333334</ele><time>2026-05-02T08:23:12.256Z</time></trkpt><trkpt lat="43.8731533" lon="7.9111167"><ele>516.0</ele><time>2026-05-02T08:23:15.256Z</time></trkpt><trkpt lat="43.873185" lon="7.9112033"><ele>513.6666666666666</ele><time>2026-05-02T08:23:17.256Z</time></trkpt><trkpt lat="43.8732167" lon="7.9113017"><ele>511.3333333333333</ele><time>2026-05-02T08:23:20.256Z</time></trkpt><trkpt lat="43.8732733" lon="7.9114067"><ele>509.0</ele><time>2026-05-02T08:23:23.255Z</time></trkpt><trkpt lat="43.8733333" lon="7.9115167"><ele>509.0</ele><time>2026-05-02T08:23:25.256Z</time></trkpt><trkpt lat="43.87339" lon="7.9116317"><ele>509.0</ele><time>2026-05-02T08:23:27.255Z</time></trkpt><trkpt lat="43.8734433" lon="7.9117567"><ele>509.0</ele><time>2026-05-02T08:23:29.255Z</time></trkpt><trkpt lat="43.8734917" lon="7.91187"><ele>509.0</ele><time>2026-05-02T08:23:31.255Z</time></trkpt><trkpt lat="43.873545" lon="7.9120017"><ele>509.0</ele><time>2026-05-02T08:23:33.255Z</time></trkpt><trkpt lat="43.87358" lon="7.912165"><ele>504.2</ele><time>2026-05-02T08:23:35.255Z</time></trkpt><trkpt lat="43.8736033" lon="7.9123217"><ele>499.4</ele><time>2026-05-02T08:23:37.256Z</time></trkpt><trkpt lat="43.87363" lon="7.9124683"><ele>494.6</ele><time>2026-05-02T08:23:39.255Z</time></trkpt><trkpt lat="43.8736517" lon="7.91261"><ele>489.8</ele><time>2026-05-02T08:23:41.256Z</time></trkpt><trkpt lat="43.8736833" lon="7.91276"><ele>485.0</ele><time>2026-05-02T08:23:43.255Z</time></trkpt><trkpt lat="43.873715" lon="7.9128983"><ele>484.0</ele><time>2026-05-02T08:23:45.255Z</time></trkpt><trkpt lat="43.873745" lon="7.9130167"><ele>483.0</ele><time>2026-05-02T08:23:47.255Z</time></trkpt><trkpt lat="43.873805" lon="7.91317"><ele>482.0</ele><time>2026-05-02T08:23:49.255Z</time></trkpt><trkpt lat="43.8738333" lon="7.9132517"><ele>481.0</ele><time>2026-05-02T08:23:50.255Z</time></trkpt><trkpt lat="43.8738833" lon="7.9133983"><ele>480.0</ele><time>2026-05-02T08:23:52.255Z</time></trkpt><trkpt lat="43.8739217" lon="7.9135283"><ele>478.6</ele><time>2026-05-02T08:23:54.255Z</time></trkpt><trkpt lat="43.873955" lon="7.9136533"><ele>477.2</ele><time>2026-05-02T08:23:56.255Z</time></trkpt><trkpt lat="43.87399" lon="7.913795"><ele>475.79999999999995</ele><time>2026-05-02T08:23:58.255Z</time></trkpt><trkpt lat="43.874025" lon="7.9139467"><ele>474.4</ele><time>2026-05-02T08:24:00.255Z</time></trkpt><trkpt lat="43.8740583" lon="7.9140933"><ele>473.0</ele><time>2026-05-02T08:24:02.255Z</time></trkpt><trkpt lat="43.8740783" lon="7.9142333"><ele>471.16666666666663</ele><time>2026-05-02T08:24:04.255Z</time></trkpt><trkpt lat="43.8740983" lon="7.9143433"><ele>469.3333333333333</ele><time>2026-05-02T08:24:06.256Z</time></trkpt><trkpt lat="43.8741233" lon="7.9144517"><ele>467.5</ele><time>2026-05-02T08:24:08.255Z</time></trkpt><trkpt lat="43.8741517" lon="7.9145717"><ele>465.66666666666663</ele><time>2026-05-02T08:24:10.255Z</time></trkpt><trkpt lat="43.8741917" lon="7.914695"><ele>463.8333333333333</ele><time>2026-05-02T08:24:12.256Z</time></trkpt><trkpt lat="43.8742383" lon="7.91481"><ele>462.0</ele><time>2026-05-02T08:24:14.255Z</time></trkpt><trkpt lat="43.8742783" lon="7.9149283"><ele>462.20000000000005</ele><time>2026-05-02T08:24:16.255Z</time></trkpt><trkpt lat="43.8743233" lon="7.9150517"><ele>462.40000000000003</ele><time>2026-05-02T08:24:18.255Z</time></trkpt><trkpt lat="43.8743633" lon="7.91519"><ele>462.59999999999997</ele><time>2026-05-02T08:24:20.255Z</time></trkpt><trkpt lat="43.8744117" lon="7.9153383"><ele>462.79999999999995</ele><time>2026-05-02T08:24:22.255Z</time></trkpt><trkpt lat="43.8744533" lon="7.91549"><ele>463.0</ele><time>2026-05-02T08:24:24.255Z</time></trkpt><trkpt lat="43.8744917" lon="7.9155983"><ele>463.00000000000006</ele><time>2026-05-02T08:24:26.255Z</time></trkpt><trkpt lat="43.87452" lon="7.9156867"><ele>463.0</ele><time>2026-05-02T08:24:28.255Z</time></trkpt><trkpt lat="43.8745417" lon="7.915775"><ele>463.0</ele><time>2026-05-02T08:24:30.255Z</time></trkpt><trkpt lat="43.8746033" lon="7.91588"><ele>463.0</ele><time>2026-05-02T08:24:33.256Z</time></trkpt><trkpt lat="43.87466" lon="7.9159467"><ele>463.00000000000006</ele><time>2026-05-02T08:24:35.255Z</time></trkpt><trkpt lat="43.8747217" lon="7.9159933"><ele>463.0</ele><time>2026-05-02T08:24:37.255Z</time></trkpt><trkpt lat="43.87479" lon="7.916025"><ele>463.33333333333337</ele><time>2026-05-02T08:24:39.256Z</time></trkpt><trkpt lat="43.8748583" lon="7.916055"><ele>463.6666666666667</ele><time>2026-05-02T08:24:41.255Z</time></trkpt><trkpt lat="43.874945" lon="7.9160867"><ele>464.0</ele><time>2026-05-02T08:24:44.255Z</time></trkpt><trkpt lat="43.8750117" lon="7.9161133"><ele>464.33333333333337</ele><time>2026-05-02T08:24:47.256Z</time></trkpt><trkpt lat="43.8750767" lon="7.9161533"><ele>464.6666666666667</ele><time>2026-05-02T08:24:51.255Z</time></trkpt><trkpt lat="43.875115" lon="7.9162417"><ele>465.0</ele><time>2026-05-02T08:24:56.255Z</time></trkpt><trkpt lat="43.8751967" lon="7.9162567"><ele>465.0</ele><time>2026-05-02T08:25:02.256Z</time></trkpt><trkpt lat="43.8752733" lon="7.9162717"><ele>465.0</ele><time>2026-05-02T08:25:06.256Z</time></trkpt><trkpt lat="43.8752967" lon="7.9161833"><ele>465.0</ele><time>2026-05-02T08:25:15.256Z</time></trkpt><trkpt lat="43.8753533" lon="7.916075"><ele>465.0</ele><time>2026-05-02T08:25:32.256Z</time></trkpt><trkpt lat="43.8754083" lon="7.9160083"><ele>465.0</ele><time>2026-05-02T08:25:36.256Z</time></trkpt><trkpt lat="43.8754333" lon="7.9160983"><ele>465.0</ele><time>2026-05-02T08:25:41.256Z</time></trkpt><trkpt lat="43.8754617" lon="7.916205"><ele>465.0</ele><time>2026-05-02T08:25:44.256Z</time></trkpt><trkpt lat="43.8754917" lon="7.9163133"><ele>465.0</ele><time>2026-05-02T08:25:47.256Z</time></trkpt><trkpt lat="43.8755383" lon="7.9163833"><ele>465.0</ele><time>2026-05-02T08:25:49.256Z</time></trkpt><trkpt lat="43.8755733" lon="7.9164583"><ele>465.0</ele><time>2026-05-02T08:25:51.256Z</time></trkpt><trkpt lat="43.8755967" lon="7.9165417"><ele>465.0</ele><time>2026-05-02T08:25:53.256Z</time></trkpt><trkpt lat="43.8756633" lon="7.9166283"><ele>465.0</ele><time>2026-05-02T08:25:56.256Z</time></trkpt><trkpt lat="43.8757417" lon="7.9166767"><ele>465.0</ele><time>2026-05-02T08:25:58.256Z</time></trkpt><trkpt lat="43.875815" lon="7.91673"><ele>465.0</ele><time>2026-05-02T08:26:00.257Z</time></trkpt><trkpt lat="43.8759033" lon="7.9167583"><ele>465.0</ele><time>2026-05-02T08:26:02.256Z</time></trkpt><trkpt lat="43.8759767" lon="7.9167817"><ele>465.0</ele><time>2026-05-02T08:26:04.257Z</time></trkpt><trkpt lat="43.8760433" lon="7.9168183"><ele>465.0</ele><time>2026-05-02T08:26:06.256Z</time></trkpt><trkpt lat="43.87613" lon="7.91682"><ele>465.0</ele><time>2026-05-02T08:26:09.256Z</time></trkpt><trkpt lat="43.8761933" lon="7.9167383"><ele>461.4285714285714</ele><time>2026-05-02T08:26:12.256Z</time></trkpt><trkpt lat="43.8762683" lon="7.916705"><ele>457.8571428571429</ele><time>2026-05-02T08:26:15.256Z</time></trkpt><trkpt lat="43.876335" lon="7.9166983"><ele>454.2857142857143</ele><time>2026-05-02T08:26:18.256Z</time></trkpt><trkpt lat="43.8764167" lon="7.9166683"><ele>450.71428571428567</ele><time>2026-05-02T08:26:21.257Z</time></trkpt><trkpt lat="43.8764817" lon="7.916595"><ele>447.1428571428571</ele><time>2026-05-02T08:26:24.256Z</time></trkpt><trkpt lat="43.8765317" lon="7.9165383"><ele>443.57142857142856</ele><time>2026-05-02T08:26:26.256Z</time></trkpt><trkpt lat="43.8766" lon="7.9165267"><ele>440.0</ele><time>2026-05-02T08:26:29.256Z</time></trkpt><trkpt lat="43.876675" lon="7.9165167"><ele>439.99999999999994</ele><time>2026-05-02T08:26:32.256Z</time></trkpt><trkpt lat="43.87674" lon="7.91655"><ele>440.0</ele><time>2026-05-02T08:26:36.256Z</time></trkpt><trkpt lat="43.8768033" lon="7.916515"><ele>440.0</ele><time>2026-05-02T08:26:39.256Z</time></trkpt><trkpt lat="43.87687" lon="7.9164883"><ele>440.0</ele><time>2026-05-02T08:26:42.256Z</time></trkpt><trkpt lat="43.8769483" lon="7.9164383"><ele>439.99999999999994</ele><time>2026-05-02T08:26:45.256Z</time></trkpt><trkpt lat="43.877025" lon="7.9163717"><ele>440.0</ele><time>2026-05-02T08:26:48.256Z</time></trkpt><trkpt lat="43.8770917" lon="7.916325"><ele>436.49999999999994</ele><time>2026-05-02T08:26:50.256Z</time></trkpt><trkpt lat="43.877175" lon="7.916285"><ele>433.0</ele><time>2026-05-02T08:26:52.256Z</time></trkpt><trkpt lat="43.87724" lon="7.916265"><ele>429.5</ele><time>2026-05-02T08:26:54.256Z</time></trkpt><trkpt lat="43.8773233" lon="7.916235"><ele>426.0</ele><time>2026-05-02T08:26:57.256Z</time></trkpt><trkpt lat="43.8773883" lon="7.916235"><ele>422.49999999999994</ele><time>2026-05-02T08:27:00.256Z</time></trkpt><trkpt lat="43.8774417" lon="7.9161883"><ele>419.0</ele><time>2026-05-02T08:27:03.256Z</time></trkpt><trkpt lat="43.8775167" lon="7.9161333"><ele>418.99999999999994</ele><time>2026-05-02T08:27:06.256Z</time></trkpt><trkpt lat="43.8775717" lon="7.9160833"><ele>419.0</ele><time>2026-05-02T08:27:09.257Z</time></trkpt><trkpt lat="43.8776217" lon="7.9160167"><ele>419.0</ele><time>2026-05-02T08:27:12.256Z</time></trkpt><trkpt lat="43.877695" lon="7.91595"><ele>419.0</ele><time>2026-05-02T08:27:15.256Z</time></trkpt><trkpt lat="43.87778" lon="7.9159133"><ele>418.99999999999994</ele><time>2026-05-02T08:27:18.256Z</time></trkpt><trkpt lat="43.8778667" lon="7.9158733"><ele>419.0</ele><time>2026-05-02T08:27:21.256Z</time></trkpt><trkpt lat="43.87795" lon="7.91584"><ele>418.16666666666663</ele><time>2026-05-02T08:27:24.256Z</time></trkpt><trkpt lat="43.878015" lon="7.9157867"><ele>417.3333333333333</ele><time>2026-05-02T08:27:27.256Z</time></trkpt><trkpt lat="43.8781183" lon="7.91583"><ele>416.5</ele><time>2026-05-02T08:29:00.256Z</time></trkpt><trkpt lat="43.878205" lon="7.9158"><ele>415.66666666666663</ele><time>2026-05-02T08:29:03.257Z</time></trkpt><trkpt lat="43.8782883" lon="7.9157633"><ele>414.8333333333333</ele><time>2026-05-02T08:29:06.256Z</time></trkpt><trkpt lat="43.8783733" lon="7.9157617"><ele>414.0</ele><time>2026-05-02T08:29:09.256Z</time></trkpt><trkpt lat="43.87845" lon="7.91575"><ele>412.6666666666667</ele><time>2026-05-02T08:29:12.256Z</time></trkpt><trkpt lat="43.8785283" lon="7.91576"><ele>411.33333333333337</ele><time>2026-05-02T08:29:15.256Z</time></trkpt><trkpt lat="43.8785933" lon="7.915745"><ele>410.0</ele><time>2026-05-02T08:29:17.256Z</time></trkpt><trkpt lat="43.8786767" lon="7.9157117"><ele>408.6666666666667</ele><time>2026-05-02T08:29:20.257Z</time></trkpt><trkpt lat="43.8787633" lon="7.9157017"><ele>407.33333333333337</ele><time>2026-05-02T08:29:23.256Z</time></trkpt><trkpt lat="43.87883" lon="7.9157117"><ele>406.0</ele><time>2026-05-02T08:29:25.256Z</time></trkpt><trkpt lat="43.878905" lon="7.915715"><ele>406.0</ele><time>2026-05-02T08:29:28.256Z</time></trkpt><trkpt lat="43.8789683" lon="7.9157317"><ele>406.0</ele><time>2026-05-02T08:29:31.256Z</time></trkpt><trkpt lat="43.87903" lon="7.9157583"><ele>406.0</ele><time>2026-05-02T08:29:33.256Z</time></trkpt><trkpt lat="43.8790917" lon="7.915785"><ele>406.0</ele><time>2026-05-02T08:29:35.256Z</time></trkpt><trkpt lat="43.87916" lon="7.9158067"><ele>406.0</ele><time>2026-05-02T08:29:38.256Z</time></trkpt><trkpt lat="43.8792283" lon="7.9158333"><ele>406.0</ele><time>2026-05-02T08:29:41.256Z</time></trkpt><trkpt lat="43.8793167" lon="7.915885"><ele>406.0</ele><time>2026-05-02T08:29:44.256Z</time></trkpt><trkpt lat="43.87938" lon="7.9159133"><ele>403.50000000000006</ele><time>2026-05-02T08:29:46.256Z</time></trkpt><trkpt lat="43.8794567" lon="7.9159467"><ele>401.0</ele><time>2026-05-02T08:29:49.256Z</time></trkpt><trkpt lat="43.879525" lon="7.9160183"><ele>398.5</ele><time>2026-05-02T08:29:52.256Z</time></trkpt><trkpt lat="43.8795767" lon="7.9160733"><ele>396.0</ele><time>2026-05-02T08:29:54.256Z</time></trkpt><trkpt lat="43.87964" lon="7.9161167"><ele>393.50000000000006</ele><time>2026-05-02T08:29:56.256Z</time></trkpt><trkpt lat="43.8797117" lon="7.9161667"><ele>391.0</ele><time>2026-05-02T08:29:58.256Z</time></trkpt><trkpt lat="43.87979" lon="7.9162383"><ele>391.00000000000006</ele><time>2026-05-02T08:30:01.256Z</time></trkpt><trkpt lat="43.879855" lon="7.9162617"><ele>391.0</ele><time>2026-05-02T08:30:03.256Z</time></trkpt><trkpt lat="43.8799167" lon="7.9162383"><ele>391.0</ele><time>2026-05-02T08:30:05.256Z</time></trkpt><trkpt lat="43.8799983" lon="7.9161817"><ele>391.0</ele><time>2026-05-02T08:30:08.256Z</time></trkpt><trkpt lat="43.88007" lon="7.916105"><ele>391.00000000000006</ele><time>2026-05-02T08:30:11.256Z</time></trkpt><trkpt lat="43.8801367" lon="7.9160617"><ele>391.0</ele><time>2026-05-02T08:30:13.256Z</time></trkpt><trkpt lat="43.8801983" lon="7.9160267"><ele>387.2857142857143</ele><time>2026-05-02T08:30:15.256Z</time></trkpt><trkpt lat="43.88026" lon="7.9159733"><ele>383.57142857142856</ele><time>2026-05-02T08:30:17.256Z</time></trkpt><trkpt lat="43.8803217" lon="7.9159483"><ele>379.8571428571429</ele><time>2026-05-02T08:30:20.256Z</time></trkpt><trkpt lat="43.8803883" lon="7.9159817"><ele>376.1428571428571</ele><time>2026-05-02T08:30:26.256Z</time></trkpt><trkpt lat="43.8804133" lon="7.9160717"><ele>372.42857142857144</ele><time>2026-05-02T08:30:29.256Z</time></trkpt><trkpt lat="43.8804083" lon="7.916175"><ele>368.7142857142857</ele><time>2026-05-02T08:30:33.256Z</time></trkpt><trkpt lat="43.8803867" lon="7.9162917"><ele>365.0</ele><time>2026-05-02T08:30:36.256Z</time></trkpt><trkpt lat="43.8803717" lon="7.9164133"><ele>365.0</ele><time>2026-05-02T08:30:39.256Z</time></trkpt><trkpt lat="43.8803633" lon="7.9165217"><ele>365.0</ele><time>2026-05-02T08:30:42.256Z</time></trkpt><trkpt lat="43.8803683" lon="7.9166167"><ele>365.0</ele><time>2026-05-02T08:30:44.257Z</time></trkpt><trkpt lat="43.880375" lon="7.91672"><ele>365.0</ele><time>2026-05-02T08:30:47.256Z</time></trkpt><trkpt lat="43.880375" lon="7.9168233"><ele>365.0</ele><time>2026-05-02T08:30:50.256Z</time></trkpt><trkpt lat="43.8803817" lon="7.9169383"><ele>365.0</ele><time>2026-05-02T08:30:53.256Z</time></trkpt><trkpt lat="43.8803783" lon="7.9170667"><ele>364.28571428571433</ele><time>2026-05-02T08:30:57.256Z</time></trkpt><trkpt lat="43.8803433" lon="7.9171467"><ele>363.57142857142856</ele><time>2026-05-02T08:30:59.256Z</time></trkpt><trkpt lat="43.8803167" lon="7.9172283"><ele>362.8571428571429</ele><time>2026-05-02T08:31:01.256Z</time></trkpt><trkpt lat="43.880285" lon="7.917305"><ele>362.14285714285717</ele><time>2026-05-02T08:31:03.256Z</time></trkpt><trkpt lat="43.8802717" lon="7.9174033"><ele>361.42857142857144</ele><time>2026-05-02T08:31:06.256Z</time></trkpt><trkpt lat="43.8803133" lon="7.9174767"><ele>360.7142857142857</ele><time>2026-05-02T08:31:08.257Z</time></trkpt><trkpt lat="43.880365" lon="7.9175567"><ele>360.0</ele><time>2026-05-02T08:31:12.256Z</time></trkpt><trkpt lat="43.8803733" lon="7.91767"><ele>358.57142857142856</ele><time>2026-05-02T08:31:15.256Z</time></trkpt><trkpt lat="43.8803867" lon="7.9177967"><ele>357.14285714285717</ele><time>2026-05-02T08:31:18.256Z</time></trkpt><trkpt lat="43.8804333" lon="7.9178767"><ele>355.7142857142857</ele><time>2026-05-02T08:31:21.257Z</time></trkpt><trkpt lat="43.8804833" lon="7.917935"><ele>354.2857142857143</ele><time>2026-05-02T08:31:29.257Z</time></trkpt><trkpt lat="43.8805233" lon="7.918005"><ele>352.8571428571429</ele><time>2026-05-02T08:31:32.256Z</time></trkpt><trkpt lat="43.88059" lon="7.9180283"><ele>351.42857142857144</ele><time>2026-05-02T08:31:34.256Z</time></trkpt><trkpt lat="43.88067" lon="7.9180417"><ele>350.0</ele><time>2026-05-02T08:31:36.256Z</time></trkpt><trkpt lat="43.880745" lon="7.9181083"><ele>350.0</ele><time>2026-05-02T08:31:38.256Z</time></trkpt><trkpt lat="43.8808067" lon="7.9182017"><ele>350.0</ele><time>2026-05-02T08:31:40.256Z</time></trkpt><trkpt lat="43.8808433" lon="7.918295"><ele>350.0</ele><time>2026-05-02T08:31:42.257Z</time></trkpt><trkpt lat="43.8808167" lon="7.918395"><ele>350.0</ele><time>2026-05-02T08:31:45.257Z</time></trkpt><trkpt lat="43.8807267" lon="7.9183767"><ele>350.0</ele><time>2026-05-02T08:31:49.256Z</time></trkpt><trkpt lat="43.8806567" lon="7.9183333"><ele>350.0</ele><time>2026-05-02T08:31:51.256Z</time></trkpt><trkpt lat="43.880575" lon="7.91831"><ele>350.0</ele><time>2026-05-02T08:31:53.256Z</time></trkpt><trkpt lat="43.8804917" lon="7.9183017"><ele>350.0</ele><time>2026-05-02T08:31:55.256Z</time></trkpt><trkpt lat="43.8804167" lon="7.9182933"><ele>350.0</ele><time>2026-05-02T08:31:57.256Z</time></trkpt><trkpt lat="43.8803433" lon="7.9183"><ele>350.0</ele><time>2026-05-02T08:31:59.256Z</time></trkpt><trkpt lat="43.8802767" lon="7.9183133"><ele>350.0</ele><time>2026-05-02T08:32:01.256Z</time></trkpt><trkpt lat="43.880205" lon="7.9183333"><ele>350.0</ele><time>2026-05-02T08:32:03.256Z</time></trkpt><trkpt lat="43.8801383" lon="7.9183817"><ele>350.0</ele><time>2026-05-02T08:32:05.256Z</time></trkpt><trkpt lat="43.8800733" lon="7.91846"><ele>349.0</ele><time>2026-05-02T08:32:07.256Z</time></trkpt><trkpt lat="43.880005" lon="7.91853"><ele>348.0</ele><time>2026-05-02T08:32:09.256Z</time></trkpt><trkpt lat="43.87993" lon="7.91858"><ele>347.0</ele><time>2026-05-02T08:32:11.256Z</time></trkpt><trkpt lat="43.8798467" lon="7.9186017"><ele>346.0</ele><time>2026-05-02T08:32:13.256Z</time></trkpt><trkpt lat="43.8797617" lon="7.9186117"><ele>345.0</ele><time>2026-05-02T08:32:15.257Z</time></trkpt><trkpt lat="43.879695" lon="7.9186517"><ele>344.0</ele><time>2026-05-02T08:32:17.257Z</time></trkpt><trkpt lat="43.879645" lon="7.9187217"><ele>344.0</ele><time>2026-05-02T08:32:19.256Z</time></trkpt><trkpt lat="43.8796" lon="7.9187933"><ele>344.0</ele><time>2026-05-02T08:32:21.256Z</time></trkpt><trkpt lat="43.8795467" lon="7.9188683"><ele>344.0</ele><time>2026-05-02T08:32:23.256Z</time></trkpt><trkpt lat="43.8794833" lon="7.9189483"><ele>344.0</ele><time>2026-05-02T08:32:25.256Z</time></trkpt><trkpt lat="43.8794233" lon="7.9190267"><ele>344.0</ele><time>2026-05-02T08:32:27.256Z</time></trkpt><trkpt lat="43.87937" lon="7.919105"><ele>344.0</ele><time>2026-05-02T08:32:29.257Z</time></trkpt><trkpt lat="43.87932" lon="7.919195"><ele>345.6</ele><time>2026-05-02T08:32:31.256Z</time></trkpt><trkpt lat="43.8792517" lon="7.91929"><ele>347.2</ele><time>2026-05-02T08:32:33.256Z</time></trkpt><trkpt lat="43.8791883" lon="7.919385"><ele>348.8</ele><time>2026-05-02T08:32:35.257Z</time></trkpt><trkpt lat="43.8791367" lon="7.9195017"><ele>350.40000000000003</ele><time>2026-05-02T08:32:37.256Z</time></trkpt><trkpt lat="43.8791267" lon="7.9196233"><ele>352.0</ele><time>2026-05-02T08:32:39.256Z</time></trkpt><trkpt lat="43.8791183" lon="7.9197567"><ele>352.0</ele><time>2026-05-02T08:32:41.256Z</time></trkpt><trkpt lat="43.8791083" lon="7.9198917"><ele>352.0</ele><time>2026-05-02T08:32:43.256Z</time></trkpt><trkpt lat="43.8790967" lon="7.9200267"><ele>352.0</ele><time>2026-05-02T08:32:45.257Z</time></trkpt><trkpt lat="43.879105" lon="7.9201283"><ele>352.0</ele><time>2026-05-02T08:32:47.257Z</time></trkpt><trkpt lat="43.8791233" lon="7.920225"><ele>352.0</ele><time>2026-05-02T08:32:49.257Z</time></trkpt><trkpt lat="43.8791317" lon="7.9203417"><ele>352.0</ele><time>2026-05-02T08:32:51.256Z</time></trkpt><trkpt lat="43.8791483" lon="7.920455"><ele>351.66666666666663</ele><time>2026-05-02T08:32:53.256Z</time></trkpt><trkpt lat="43.8791533" lon="7.9205783"><ele>351.3333333333333</ele><time>2026-05-02T08:32:55.257Z</time></trkpt><trkpt lat="43.879135" lon="7.9206967"><ele>351.0</ele><time>2026-05-02T08:32:57.256Z</time></trkpt><trkpt lat="43.8791367" lon="7.9208183"><ele>350.6666666666667</ele><time>2026-05-02T08:32:59.257Z</time></trkpt><trkpt lat="43.8791583" lon="7.9209233"><ele>350.33333333333337</ele><time>2026-05-02T08:33:01.257Z</time></trkpt><trkpt lat="43.8792317" lon="7.921"><ele>350.0</ele><time>2026-05-02T08:33:03.256Z</time></trkpt><trkpt lat="43.8793133" lon="7.9210483"><ele>346.6666666666667</ele><time>2026-05-02T08:33:05.256Z</time></trkpt><trkpt lat="43.879405" lon="7.921075"><ele>343.33333333333337</ele><time>2026-05-02T08:33:07.256Z</time></trkpt><trkpt lat="43.8794617" lon="7.9211283"><ele>340.0</ele><time>2026-05-02T08:33:09.256Z</time></trkpt><trkpt lat="43.8795183" lon="7.9212417"><ele>336.6666666666667</ele><time>2026-05-02T08:33:12.256Z</time></trkpt><trkpt lat="43.879545" lon="7.92134"><ele>333.3333333333333</ele><time>2026-05-02T08:33:14.256Z</time></trkpt><trkpt lat="43.8795517" lon="7.9214483"><ele>330.0</ele><time>2026-05-02T08:33:16.256Z</time></trkpt><trkpt lat="43.8795383" lon="7.921565"><ele>330.00000000000006</ele><time>2026-05-02T08:33:18.256Z</time></trkpt><trkpt lat="43.87953" lon="7.9216783"><ele>330.0</ele><time>2026-05-02T08:33:20.256Z</time></trkpt><trkpt lat="43.8795283" lon="7.9217717"><ele>330.0</ele><time>2026-05-02T08:33:22.256Z</time></trkpt><trkpt lat="43.8795233" lon="7.9218617"><ele>330.0</ele><time>2026-05-02T08:33:24.256Z</time></trkpt><trkpt lat="43.8795267" lon="7.921955"><ele>330.0</ele><time>2026-05-02T08:33:26.256Z</time></trkpt><trkpt lat="43.8795367" lon="7.9220583"><ele>330.00000000000006</ele><time>2026-05-02T08:33:28.256Z</time></trkpt><trkpt lat="43.8795567" lon="7.9221667"><ele>330.0</ele><time>2026-05-02T08:33:30.256Z</time></trkpt><trkpt lat="43.8795767" lon="7.9222567"><ele>331.5</ele><time>2026-05-02T08:33:32.256Z</time></trkpt><trkpt lat="43.8796033" lon="7.9223683"><ele>333.0</ele><time>2026-05-02T08:33:34.256Z</time></trkpt><trkpt lat="43.8796167" lon="7.92247"><ele>334.5</ele><time>2026-05-02T08:33:36.256Z</time></trkpt><trkpt lat="43.8796133" lon="7.9225983"><ele>336.0</ele><time>2026-05-02T08:33:39.256Z</time></trkpt><trkpt lat="43.879595" lon="7.9227217"><ele>337.5</ele><time>2026-05-02T08:33:42.256Z</time></trkpt><trkpt lat="43.879565" lon="7.9228167"><ele>339.0</ele><time>2026-05-02T08:33:45.256Z</time></trkpt><trkpt lat="43.8795333" lon="7.9228967"><ele>339.4285714285714</ele><time>2026-05-02T08:33:48.257Z</time></trkpt><trkpt lat="43.879495" lon="7.92297"><ele>339.8571428571429</ele><time>2026-05-02T08:33:51.256Z</time></trkpt><trkpt lat="43.8794317" lon="7.9229383"><ele>340.2857142857143</ele><time>2026-05-02T08:33:57.256Z</time></trkpt><trkpt lat="43.879405" lon="7.9228467"><ele>340.71428571428567</ele><time>2026-05-02T08:34:02.256Z</time></trkpt><trkpt lat="43.87935" lon="7.9228033"><ele>341.1428571428571</ele><time>2026-05-02T08:34:07.256Z</time></trkpt><trkpt lat="43.8792717" lon="7.9228417"><ele>341.57142857142856</ele><time>2026-05-02T08:34:21.256Z</time></trkpt><trkpt lat="43.8792283" lon="7.9229083"><ele>342.0</ele><time>2026-05-02T08:34:24.256Z</time></trkpt><trkpt lat="43.8791533" lon="7.92296"><ele>344.6666666666667</ele><time>2026-05-02T08:34:28.256Z</time></trkpt><trkpt lat="43.8790833" lon="7.92298"><ele>347.3333333333333</ele><time>2026-05-02T08:34:31.257Z</time></trkpt><trkpt lat="43.8790033" lon="7.9229833"><ele>350.0</ele><time>2026-05-02T08:34:34.256Z</time></trkpt><trkpt lat="43.8789183" lon="7.923025"><ele>352.66666666666663</ele><time>2026-05-02T08:34:37.257Z</time></trkpt><trkpt lat="43.8788367" lon="7.9230933"><ele>355.3333333333333</ele><time>2026-05-02T08:34:40.256Z</time></trkpt><trkpt lat="43.8787667" lon="7.9231517"><ele>358.0</ele><time>2026-05-02T08:34:43.256Z</time></trkpt><trkpt lat="43.8787283" lon="7.9232333"><ele>358.00000000000006</ele><time>2026-05-02T08:34:47.256Z</time></trkpt><trkpt lat="43.878735" lon="7.923335"><ele>358.0</ele><time>2026-05-02T08:34:51.256Z</time></trkpt><trkpt lat="43.8787367" lon="7.9234267"><ele>358.0</ele><time>2026-05-02T08:35:00.256Z</time></trkpt><trkpt lat="43.8787667" lon="7.9235167"><ele>358.0</ele><time>2026-05-02T08:35:14.256Z</time></trkpt><trkpt lat="43.8788017" lon="7.9235933"><ele>358.0</ele><time>2026-05-02T08:35:21.256Z</time></trkpt><trkpt lat="43.8788283" lon="7.9236917"><ele>358.00000000000006</ele><time>2026-05-02T08:35:24.256Z</time></trkpt><trkpt lat="43.8788667" lon="7.9238017"><ele>358.0</ele><time>2026-05-02T08:35:27.257Z</time></trkpt><trkpt lat="43.87889" lon="7.9239133"><ele>358.0</ele><time>2026-05-02T08:35:30.256Z</time></trkpt><trkpt lat="43.8789033" lon="7.92402"><ele>358.0</ele><time>2026-05-02T08:35:34.256Z</time></trkpt><trkpt lat="43.8788967" lon="7.9241317"><ele>358.0</ele><time>2026-05-02T08:35:38.257Z</time></trkpt><trkpt lat="43.87892" lon="7.924225"><ele>358.0</ele><time>2026-05-02T08:35:41.256Z</time></trkpt><trkpt lat="43.8789283" lon="7.9243283"><ele>358.0</ele><time>2026-05-02T08:35:45.256Z</time></trkpt><trkpt lat="43.878925" lon="7.9244467"><ele>358.0</ele><time>2026-05-02T08:35:49.256Z</time></trkpt><trkpt lat="43.8789133" lon="7.924545"><ele>358.8571428571429</ele><time>2026-05-02T08:35:52.256Z</time></trkpt><trkpt lat="43.8789033" lon="7.9246433"><ele>359.7142857142857</ele><time>2026-05-02T08:35:55.256Z</time></trkpt><trkpt lat="43.8788917" lon="7.924745"><ele>360.57142857142856</ele><time>2026-05-02T08:35:59.256Z</time></trkpt><trkpt lat="43.8788617" lon="7.9248433"><ele>361.42857142857144</ele><time>2026-05-02T08:36:03.256Z</time></trkpt><trkpt lat="43.8788083" lon="7.924905"><ele>362.2857142857143</ele><time>2026-05-02T08:36:07.257Z</time></trkpt><trkpt lat="43.8787417" lon="7.924935"><ele>363.14285714285717</ele><time>2026-05-02T08:36:11.256Z</time></trkpt><trkpt lat="43.8786683" lon="7.9249733"><ele>364.0</ele><time>2026-05-02T08:36:16.256Z</time></trkpt><trkpt lat="43.8786033" lon="7.92497"><ele>364.0</ele><time>2026-05-02T08:36:19.256Z</time></trkpt><trkpt lat="43.8785367" lon="7.92499"><ele>364.0</ele><time>2026-05-02T08:36:22.256Z</time></trkpt><trkpt lat="43.8784633" lon="7.92502"><ele>364.0</ele><time>2026-05-02T08:36:25.257Z</time></trkpt><trkpt lat="43.8784033" lon="7.9250733"><ele>364.0</ele><time>2026-05-02T08:36:28.257Z</time></trkpt><trkpt lat="43.8783433" lon="7.92515"><ele>364.0</ele><time>2026-05-02T08:36:31.256Z</time></trkpt><trkpt lat="43.87829" lon="7.9252267"><ele>364.0</ele><time>2026-05-02T08:36:34.256Z</time></trkpt><trkpt lat="43.878235" lon="7.9253"><ele>366.5</ele><time>2026-05-02T08:36:37.256Z</time></trkpt><trkpt lat="43.8781783" lon="7.9253467"><ele>369.0</ele><time>2026-05-02T08:36:40.256Z</time></trkpt><trkpt lat="43.8781133" lon="7.9253983"><ele>371.5</ele><time>2026-05-02T08:36:43.257Z</time></trkpt><trkpt lat="43.878045" lon="7.9254567"><ele>374.0</ele><time>2026-05-02T08:36:46.256Z</time></trkpt><trkpt lat="43.8779983" lon="7.925525"><ele>376.5</ele><time>2026-05-02T08:36:49.256Z</time></trkpt><trkpt lat="43.8779267" lon="7.9256217"><ele>379.0</ele><time>2026-05-02T08:36:52.256Z</time></trkpt><trkpt lat="43.8778867" lon="7.925715"><ele>379.0</ele><time>2026-05-02T08:36:55.256Z</time></trkpt><trkpt lat="43.8778483" lon="7.9258183"><ele>379.0</ele><time>2026-05-02T08:36:58.256Z</time></trkpt><trkpt lat="43.8778067" lon="7.925885"><ele>379.0</ele><time>2026-05-02T08:37:01.256Z</time></trkpt><trkpt lat="43.8777317" lon="7.92594"><ele>379.0</ele><time>2026-05-02T08:37:05.256Z</time></trkpt><trkpt lat="43.87768" lon="7.9260117"><ele>379.0</ele><time>2026-05-02T08:37:09.256Z</time></trkpt><trkpt lat="43.8776067" lon="7.9261833"><ele>379.0</ele><time>2026-05-02T08:38:10.256Z</time></trkpt><trkpt lat="43.87762" lon="7.92607"><ele>379.8571428571429</ele><time>2026-05-02T08:40:13.256Z</time></trkpt><trkpt lat="43.877585" lon="7.92599"><ele>380.7142857142857</ele><time>2026-05-02T08:40:17.256Z</time></trkpt><trkpt lat="43.8775217" lon="7.925945"><ele>381.57142857142856</ele><time>2026-05-02T08:40:25.257Z</time></trkpt><trkpt lat="43.8774833" lon="7.925855"><ele>382.42857142857144</ele><time>2026-05-02T08:40:28.257Z</time></trkpt><trkpt lat="43.8774317" lon="7.9257567"><ele>383.2857142857143</ele><time>2026-05-02T08:40:31.256Z</time></trkpt><trkpt lat="43.87736" lon="7.925705"><ele>384.14285714285717</ele><time>2026-05-02T08:40:34.256Z</time></trkpt><trkpt lat="43.8773033" lon="7.92566"><ele>385.0</ele><time>2026-05-02T08:40:36.256Z</time></trkpt><trkpt lat="43.877265" lon="7.9255867"><ele>386.50000000000006</ele><time>2026-05-02T08:40:39.256Z</time></trkpt><trkpt lat="43.877245" lon="7.925485"><ele>388.0</ele><time>2026-05-02T08:40:43.256Z</time></trkpt><trkpt lat="43.8772317" lon="7.9253767"><ele>389.5</ele><time>2026-05-02T08:40:47.256Z</time></trkpt><trkpt lat="43.8772067" lon="7.925295"><ele>391.0</ele><time>2026-05-02T08:40:50.256Z</time></trkpt><trkpt lat="43.8771633" lon="7.9251767"><ele>392.50000000000006</ele><time>2026-05-02T08:40:53.256Z</time></trkpt><trkpt lat="43.8771367" lon="7.9250867"><ele>394.0</ele><time>2026-05-02T08:40:55.257Z</time></trkpt><trkpt lat="43.8771033" lon="7.92501"><ele>395.83333333333337</ele><time>2026-05-02T08:40:57.256Z</time></trkpt><trkpt lat="43.8770633" lon="7.9248983"><ele>397.6666666666667</ele><time>2026-05-02T08:41:00.256Z</time></trkpt><trkpt lat="43.8770517" lon="7.9248033"><ele>399.5</ele><time>2026-05-02T08:41:03.256Z</time></trkpt><trkpt lat="43.87702" lon="7.9247017"><ele>401.33333333333337</ele><time>2026-05-02T08:41:06.256Z</time></trkpt><trkpt lat="43.8769683" lon="7.9246067"><ele>403.1666666666667</ele><time>2026-05-02T08:41:09.256Z</time></trkpt><trkpt lat="43.8769167" lon="7.924515"><ele>405.0</ele><time>2026-05-02T08:41:12.257Z</time></trkpt><trkpt lat="43.8768717" lon="7.9244383"><ele>404.99999999999994</ele><time>2026-05-02T08:41:15.256Z</time></trkpt><trkpt lat="43.8768333" lon="7.9243683"><ele>405.0</ele><time>2026-05-02T08:41:18.256Z</time></trkpt><trkpt lat="43.8768283" lon="7.92427"><ele>405.0</ele><time>2026-05-02T08:41:22.256Z</time></trkpt><trkpt lat="43.8768083" lon="7.92418"><ele>405.0</ele><time>2026-05-02T08:41:25.257Z</time></trkpt><trkpt lat="43.8768" lon="7.9240883"><ele>405.0</ele><time>2026-05-02T08:41:28.256Z</time></trkpt><trkpt lat="43.8768183" lon="7.9239983"><ele>404.99999999999994</ele><time>2026-05-02T08:41:31.256Z</time></trkpt><trkpt lat="43.87684" lon="7.9239067"><ele>405.0</ele><time>2026-05-02T08:41:34.256Z</time></trkpt><trkpt lat="43.8768533" lon="7.9238017"><ele>405.6666666666667</ele><time>2026-05-02T08:41:37.257Z</time></trkpt><trkpt lat="43.87687" lon="7.9236817"><ele>406.33333333333337</ele><time>2026-05-02T08:41:40.256Z</time></trkpt><trkpt lat="43.876885" lon="7.9235833"><ele>407.0</ele><time>2026-05-02T08:41:42.256Z</time></trkpt><trkpt lat="43.8768917" lon="7.9234583"><ele>407.6666666666667</ele><time>2026-05-02T08:41:45.256Z</time></trkpt><trkpt lat="43.87687" lon="7.92335"><ele>408.33333333333337</ele><time>2026-05-02T08:41:48.257Z</time></trkpt><trkpt lat="43.8768533" lon="7.9232517"><ele>409.0</ele><time>2026-05-02T08:41:51.256Z</time></trkpt><trkpt lat="43.8768567" lon="7.9231617"><ele>409.00000000000006</ele><time>2026-05-02T08:41:54.257Z</time></trkpt><trkpt lat="43.876875" lon="7.92305"><ele>409.0</ele><time>2026-05-02T08:41:57.256Z</time></trkpt><trkpt lat="43.8768917" lon="7.92294"><ele>409.0</ele><time>2026-05-02T08:42:00.256Z</time></trkpt><trkpt lat="43.8768967" lon="7.9228267"><ele>409.0</ele><time>2026-05-02T08:42:03.256Z</time></trkpt><trkpt lat="43.876885" lon="7.922715"><ele>409.00000000000006</ele><time>2026-05-02T08:42:06.256Z</time></trkpt><trkpt lat="43.8768717" lon="7.9226217"><ele>409.0</ele><time>2026-05-02T08:42:09.257Z</time></trkpt><trkpt lat="43.87686" lon="7.9225083"><ele>410.00000000000006</ele><time>2026-05-02T08:42:12.256Z</time></trkpt><trkpt lat="43.876855" lon="7.9223833"><ele>411.0</ele><time>2026-05-02T08:42:16.256Z</time></trkpt><trkpt lat="43.8768667" lon="7.9222567"><ele>412.0</ele><time>2026-05-02T08:42:19.256Z</time></trkpt><trkpt lat="43.876865" lon="7.922165"><ele>413.0</ele><time>2026-05-02T08:42:21.256Z</time></trkpt><trkpt lat="43.8768683" lon="7.922075"><ele>414.00000000000006</ele><time>2026-05-02T08:42:24.257Z</time></trkpt><trkpt lat="43.876885" lon="7.92198"><ele>415.0</ele><time>2026-05-02T08:42:27.256Z</time></trkpt><trkpt lat="43.8768933" lon="7.9218817"><ele>415.0</ele><time>2026-05-02T08:42:30.256Z</time></trkpt><trkpt lat="43.876885" lon="7.9217767"><ele>415.0</ele><time>2026-05-02T08:42:33.256Z</time></trkpt><trkpt lat="43.8768683" lon="7.9216683"><ele>415.0</ele><time>2026-05-02T08:42:36.256Z</time></trkpt><trkpt lat="43.87685" lon="7.9215733"><ele>415.0</ele><time>2026-05-02T08:42:39.256Z</time></trkpt><trkpt lat="43.8768083" lon="7.9214883"><ele>415.0</ele><time>2026-05-02T08:42:42.256Z</time></trkpt><trkpt lat="43.8767717" lon="7.9214033"><ele>415.0</ele><time>2026-05-02T08:42:45.256Z</time></trkpt><trkpt lat="43.8767417" lon="7.9213117"><ele>415.0</ele><time>2026-05-02T08:42:48.257Z</time></trkpt><trkpt lat="43.8767083" lon="7.9212367"><ele>415.83333333333337</ele><time>2026-05-02T08:42:51.256Z</time></trkpt><trkpt lat="43.8766267" lon="7.92119"><ele>416.6666666666667</ele><time>2026-05-02T08:42:55.256Z</time></trkpt><trkpt lat="43.876555" lon="7.9211533"><ele>417.5</ele><time>2026-05-02T08:42:58.256Z</time></trkpt><trkpt lat="43.8764917" lon="7.9210817"><ele>418.33333333333337</ele><time>2026-05-02T08:43:01.256Z</time></trkpt><trkpt lat="43.87646" lon="7.9209917"><ele>419.1666666666667</ele><time>2026-05-02T08:43:04.256Z</time></trkpt><trkpt lat="43.8764217" lon="7.920885"><ele>420.0</ele><time>2026-05-02T08:43:07.256Z</time></trkpt><trkpt lat="43.87641" lon="7.9207933"><ele>421.5</ele><time>2026-05-02T08:43:09.256Z</time></trkpt><trkpt lat="43.8764017" lon="7.9206917"><ele>423.0</ele><time>2026-05-02T08:43:11.256Z</time></trkpt><trkpt lat="43.876385" lon="7.9205867"><ele>424.5</ele><time>2026-05-02T08:43:14.256Z</time></trkpt><trkpt lat="43.8763767" lon="7.9204733"><ele>426.0</ele><time>2026-05-02T08:43:17.256Z</time></trkpt><trkpt lat="43.8763667" lon="7.9203533"><ele>427.5</ele><time>2026-05-02T08:43:20.256Z</time></trkpt><trkpt lat="43.8763317" lon="7.9202567"><ele>429.0</ele><time>2026-05-02T08:43:23.256Z</time></trkpt><trkpt lat="43.8762917" lon="7.9201483"><ele>429.0</ele><time>2026-05-02T08:43:26.256Z</time></trkpt><trkpt lat="43.8762483" lon="7.9200767"><ele>429.0</ele><time>2026-05-02T08:43:28.256Z</time></trkpt><trkpt lat="43.8762067" lon="7.9200033"><ele>429.0</ele><time>2026-05-02T08:43:30.257Z</time></trkpt><trkpt lat="43.8761633" lon="7.91994"><ele>429.0</ele><time>2026-05-02T08:43:32.256Z</time></trkpt><trkpt lat="43.8760867" lon="7.9198583"><ele>429.0</ele><time>2026-05-02T08:43:35.256Z</time></trkpt><trkpt lat="43.876055" lon="7.9197367"><ele>429.0</ele><time>2026-05-02T08:43:38.256Z</time></trkpt><trkpt lat="43.8760217" lon="7.919655"><ele>428.7142857142857</ele><time>2026-05-02T08:43:40.256Z</time></trkpt><trkpt lat="43.8760017" lon="7.919535"><ele>428.42857142857144</ele><time>2026-05-02T08:43:43.256Z</time></trkpt><trkpt lat="43.8759617" lon="7.9194267"><ele>428.1428571428571</ele><time>2026-05-02T08:43:46.256Z</time></trkpt><trkpt lat="43.8759217" lon="7.9193583"><ele>427.8571428571429</ele><time>2026-05-02T08:43:48.256Z</time></trkpt><trkpt lat="43.875885" lon="7.9192867"><ele>427.57142857142856</ele><time>2026-05-02T08:43:50.256Z</time></trkpt><trkpt lat="43.8758467" lon="7.9192083"><ele>427.2857142857143</ele><time>2026-05-02T08:43:52.256Z</time></trkpt><trkpt lat="43.8757933" lon="7.9191467"><ele>427.0</ele><time>2026-05-02T08:43:54.256Z</time></trkpt><trkpt lat="43.875745" lon="7.9190533"><ele>427.0</ele><time>2026-05-02T08:43:57.256Z</time></trkpt><trkpt lat="43.8756983" lon="7.91896"><ele>427.0</ele><time>2026-05-02T08:44:00.256Z</time></trkpt><trkpt lat="43.8756817" lon="7.91887"><ele>427.0</ele><time>2026-05-02T08:44:03.256Z</time></trkpt><trkpt lat="43.8756733" lon="7.9187783"><ele>427.0</ele><time>2026-05-02T08:44:06.256Z</time></trkpt><trkpt lat="43.875665" lon="7.918685"><ele>427.0</ele><time>2026-05-02T08:44:09.256Z</time></trkpt><trkpt lat="43.8756367" lon="7.9185833"><ele>427.0</ele><time>2026-05-02T08:44:12.256Z</time></trkpt><trkpt lat="43.87559" lon="7.9184867"><ele>427.0</ele><time>2026-05-02T08:44:15.256Z</time></trkpt><trkpt lat="43.875545" lon="7.9183983"><ele>429.50000000000006</ele><time>2026-05-02T08:44:18.256Z</time></trkpt><trkpt lat="43.8754917" lon="7.9183133"><ele>432.0</ele><time>2026-05-02T08:44:21.256Z</time></trkpt><trkpt lat="43.87543" lon="7.918225"><ele>434.5</ele><time>2026-05-02T08:44:24.256Z</time></trkpt><trkpt lat="43.8753717" lon="7.9181467"><ele>437.0</ele><time>2026-05-02T08:44:27.256Z</time></trkpt><trkpt lat="43.875305" lon="7.9180867"><ele>439.50000000000006</ele><time>2026-05-02T08:44:30.256Z</time></trkpt><trkpt lat="43.875235" lon="7.9180067"><ele>442.0</ele><time>2026-05-02T08:44:33.256Z</time></trkpt><trkpt lat="43.87519" lon="7.91794"><ele>442.00000000000006</ele><time>2026-05-02T08:44:35.256Z</time></trkpt><trkpt lat="43.8751267" lon="7.9178567"><ele>442.0</ele><time>2026-05-02T08:44:38.256Z</time></trkpt><trkpt lat="43.8750717" lon="7.9177667"><ele>442.0</ele><time>2026-05-02T08:44:41.256Z</time></trkpt><trkpt lat="43.8750333" lon="7.9176533"><ele>442.0</ele><time>2026-05-02T08:44:44.257Z</time></trkpt><trkpt lat="43.8750033" lon="7.91755"><ele>442.00000000000006</ele><time>2026-05-02T08:44:47.256Z</time></trkpt><trkpt lat="43.8749717" lon="7.9174467"><ele>442.0</ele><time>2026-05-02T08:44:50.256Z</time></trkpt><trkpt lat="43.8749367" lon="7.9173567"><ele>441.7142857142857</ele><time>2026-05-02T08:44:53.256Z</time></trkpt><trkpt lat="43.8748767" lon="7.917265"><ele>441.42857142857144</ele><time>2026-05-02T08:44:56.257Z</time></trkpt><trkpt lat="43.874815" lon="7.9171983"><ele>441.1428571428571</ele><time>2026-05-02T08:44:58.256Z</time></trkpt><trkpt lat="43.87475" lon="7.9171333"><ele>440.8571428571429</ele><time>2026-05-02T08:45:00.256Z</time></trkpt><trkpt lat="43.874695" lon="7.917075"><ele>440.57142857142856</ele><time>2026-05-02T08:45:02.257Z</time></trkpt><trkpt lat="43.8746417" lon="7.9170217"><ele>440.2857142857143</ele><time>2026-05-02T08:45:04.256Z</time></trkpt><trkpt lat="43.8745817" lon="7.9169817"><ele>440.0</ele><time>2026-05-02T08:45:06.256Z</time></trkpt><trkpt lat="43.8745217" lon="7.91695"><ele>439.99999999999994</ele><time>2026-05-02T08:45:08.256Z</time></trkpt><trkpt lat="43.8744583" lon="7.9169133"><ele>440.0</ele><time>2026-05-02T08:45:11.256Z</time></trkpt><trkpt lat="43.8743817" lon="7.9168683"><ele>440.0</ele><time>2026-05-02T08:45:14.256Z</time></trkpt><trkpt lat="43.8743017" lon="7.9168383"><ele>440.0</ele><time>2026-05-02T08:45:17.256Z</time></trkpt><trkpt lat="43.874235" lon="7.916805"><ele>439.99999999999994</ele><time>2026-05-02T08:45:21.256Z</time></trkpt><trkpt lat="43.8741617" lon="7.9167983"><ele>440.0</ele><time>2026-05-02T08:45:27.257Z</time></trkpt><trkpt lat="43.8740917" lon="7.9167533"><ele>439.8333333333333</ele><time>2026-05-02T08:45:41.256Z</time></trkpt><trkpt lat="43.8740417" lon="7.9166983"><ele>439.66666666666663</ele><time>2026-05-02T08:45:44.257Z</time></trkpt><trkpt lat="43.874" lon="7.9166217"><ele>439.5</ele><time>2026-05-02T08:45:46.257Z</time></trkpt><trkpt lat="43.87396" lon="7.9165283"><ele>439.33333333333337</ele><time>2026-05-02T08:45:48.256Z</time></trkpt><trkpt lat="43.8739217" lon="7.9164033"><ele>439.1666666666667</ele><time>2026-05-02T08:45:50.256Z</time></trkpt><trkpt lat="43.8738683" lon="7.9162717"><ele>439.0</ele><time>2026-05-02T08:45:52.256Z</time></trkpt><trkpt lat="43.87382" lon="7.91621"><ele>439.0</ele><time>2026-05-02T08:45:53.256Z</time></trkpt><trkpt lat="43.8737633" lon="7.9161683"><ele>439.0</ele><time>2026-05-02T08:45:54.256Z</time></trkpt><trkpt lat="43.8736733" lon="7.9160517"><ele>439.0</ele><time>2026-05-02T08:45:56.256Z</time></trkpt><trkpt lat="43.87358" lon="7.9159533"><ele>439.0</ele><time>2026-05-02T08:45:58.256Z</time></trkpt><trkpt lat="43.873525" lon="7.915815"><ele>439.0</ele><time>2026-05-02T08:46:00.256Z</time></trkpt><trkpt lat="43.8734617" lon="7.915675"><ele>436.79999999999995</ele><time>2026-05-02T08:46:02.256Z</time></trkpt><trkpt lat="43.8734217" lon="7.9156"><ele>434.59999999999997</ele><time>2026-05-02T08:46:03.256Z</time></trkpt><trkpt lat="43.8733433" lon="7.9154717"><ele>432.4</ele><time>2026-05-02T08:46:05.256Z</time></trkpt><trkpt lat="43.8732633" lon="7.9153717"><ele>430.2</ele><time>2026-05-02T08:46:07.256Z</time></trkpt><trkpt lat="43.8731833" lon="7.9152983"><ele>428.0</ele><time>2026-05-02T08:46:09.256Z</time></trkpt><trkpt lat="43.873075" lon="7.9152517"><ele>427.99999999999994</ele><time>2026-05-02T08:46:11.256Z</time></trkpt><trkpt lat="43.8729967" lon="7.9152083"><ele>428.0</ele><time>2026-05-02T08:46:12.256Z</time></trkpt><trkpt lat="43.8728767" lon="7.91516"><ele>428.0</ele><time>2026-05-02T08:46:14.257Z</time></trkpt><trkpt lat="43.8728217" lon="7.9151017"><ele>428.0</ele><time>2026-05-02T08:46:15.257Z</time></trkpt><trkpt lat="43.87277" lon="7.9150267"><ele>427.99999999999994</ele><time>2026-05-02T08:46:16.256Z</time></trkpt><trkpt lat="43.8727067" lon="7.9149433"><ele>428.0</ele><time>2026-05-02T08:46:17.256Z</time></trkpt><trkpt lat="43.872645" lon="7.9148817"><ele>427.5714285714286</ele><time>2026-05-02T08:46:18.256Z</time></trkpt><trkpt lat="43.8725817" lon="7.9148367"><ele>427.14285714285717</ele><time>2026-05-02T08:46:19.256Z</time></trkpt><trkpt lat="43.872525" lon="7.9147867"><ele>426.7142857142857</ele><time>2026-05-02T08:46:20.257Z</time></trkpt><trkpt lat="43.8724733" lon="7.9147333"><ele>426.28571428571433</ele><time>2026-05-02T08:46:21.256Z</time></trkpt><trkpt lat="43.872425" lon="7.9146733"><ele>425.85714285714283</ele><time>2026-05-02T08:46:22.256Z</time></trkpt><trkpt lat="43.8723717" lon="7.914625"><ele>425.42857142857144</ele><time>2026-05-02T08:46:23.256Z</time></trkpt><trkpt lat="43.8722783" lon="7.9145833"><ele>425.0</ele><time>2026-05-02T08:46:25.256Z</time></trkpt><trkpt lat="43.8722" lon="7.91461"><ele>424.99999999999994</ele><time>2026-05-02T08:46:27.256Z</time></trkpt><trkpt lat="43.87213" lon="7.9146767"><ele>425.0</ele><time>2026-05-02T08:46:29.256Z</time></trkpt><trkpt lat="43.87206" lon="7.9147517"><ele>425.0</ele><time>2026-05-02T08:46:31.256Z</time></trkpt><trkpt lat="43.8719933" lon="7.9148083"><ele>425.0</ele><time>2026-05-02T08:46:33.256Z</time></trkpt><trkpt lat="43.8719283" lon="7.9148567"><ele>424.99999999999994</ele><time>2026-05-02T08:46:35.256Z</time></trkpt><trkpt lat="43.871865" lon="7.914895"><ele>425.0</ele><time>2026-05-02T08:46:38.256Z</time></trkpt><trkpt lat="43.871815" lon="7.91495"><ele>426.57142857142856</ele><time>2026-05-02T08:46:41.256Z</time></trkpt><trkpt lat="43.87176" lon="7.9149933"><ele>428.1428571428571</ele><time>2026-05-02T08:46:46.256Z</time></trkpt><trkpt lat="43.8716967" lon="7.9150283"><ele>429.7142857142857</ele><time>2026-05-02T08:46:50.256Z</time></trkpt><trkpt lat="43.8716267" lon="7.9150583"><ele>431.2857142857143</ele><time>2026-05-02T08:46:54.256Z</time></trkpt><trkpt lat="43.8715617" lon="7.9150917"><ele>432.8571428571429</ele><time>2026-05-02T08:46:57.256Z</time></trkpt><trkpt lat="43.8714983" lon="7.91513"><ele>434.42857142857144</ele><time>2026-05-02T08:47:00.256Z</time></trkpt><trkpt lat="43.87142" lon="7.9151683"><ele>436.0</ele><time>2026-05-02T08:47:03.256Z</time></trkpt><trkpt lat="43.8713367" lon="7.9151667"><ele>434.83333333333337</ele><time>2026-05-02T08:47:09.256Z</time></trkpt><trkpt lat="43.8712583" lon="7.9151767"><ele>433.6666666666667</ele><time>2026-05-02T08:47:16.257Z</time></trkpt><trkpt lat="43.8711883" lon="7.9152067"><ele>432.5</ele><time>2026-05-02T08:47:19.256Z</time></trkpt><trkpt lat="43.8711033" lon="7.9152767"><ele>431.33333333333337</ele><time>2026-05-02T08:47:22.256Z</time></trkpt><trkpt lat="43.8710383" lon="7.9153367"><ele>430.1666666666667</ele><time>2026-05-02T08:47:24.257Z</time></trkpt><trkpt lat="43.8709767" lon="7.915395"><ele>429.0</ele><time>2026-05-02T08:47:26.256Z</time></trkpt><trkpt lat="43.8709233" lon="7.9154617"><ele>429.0</ele><time>2026-05-02T08:47:28.257Z</time></trkpt><trkpt lat="43.8708733" lon="7.9155267"><ele>429.0</ele><time>2026-05-02T08:47:32.256Z</time></trkpt><trkpt lat="43.8708067" lon="7.91564"><ele>429.0</ele><time>2026-05-02T08:47:54.256Z</time></trkpt><trkpt lat="43.8707333" lon="7.9157017"><ele>429.0</ele><time>2026-05-02T08:47:57.256Z</time></trkpt><trkpt lat="43.8706467" lon="7.915765"><ele>429.0</ele><time>2026-05-02T08:47:59.256Z</time></trkpt><trkpt lat="43.8705483" lon="7.9158567"><ele>426.6666666666667</ele><time>2026-05-02T08:48:01.257Z</time></trkpt><trkpt lat="43.87049" lon="7.9159167"><ele>424.33333333333337</ele><time>2026-05-02T08:48:02.256Z</time></trkpt><trkpt lat="43.8704367" lon="7.91598"><ele>422.0</ele><time>2026-05-02T08:48:03.256Z</time></trkpt><trkpt lat="43.8703783" lon="7.9160317"><ele>419.6666666666667</ele><time>2026-05-02T08:48:04.256Z</time></trkpt><trkpt lat="43.870315" lon="7.9160767"><ele>417.33333333333337</ele><time>2026-05-02T08:48:05.256Z</time></trkpt><trkpt lat="43.8702117" lon="7.91614"><ele>415.0</ele><time>2026-05-02T08:48:07.256Z</time></trkpt><trkpt lat="43.870145" lon="7.9161817"><ele>416.33333333333337</ele><time>2026-05-02T08:48:08.256Z</time></trkpt><trkpt lat="43.8700633" lon="7.9162033"><ele>417.6666666666667</ele><time>2026-05-02T08:48:09.256Z</time></trkpt><trkpt lat="43.8700033" lon="7.9162467"><ele>419.0</ele><time>2026-05-02T08:48:10.256Z</time></trkpt><trkpt lat="43.8699467" lon="7.9162883"><ele>420.33333333333337</ele><time>2026-05-02T08:48:11.256Z</time></trkpt><trkpt lat="43.8698367" lon="7.9163417"><ele>421.6666666666667</ele><time>2026-05-02T08:48:13.256Z</time></trkpt><trkpt lat="43.8697417" lon="7.91641"><ele>423.0</ele><time>2026-05-02T08:48:15.257Z</time></trkpt><trkpt lat="43.869645" lon="7.916475"><ele>423.0</ele><time>2026-05-02T08:48:17.256Z</time></trkpt><trkpt lat="43.8695283" lon="7.9165133"><ele>423.0</ele><time>2026-05-02T08:48:19.256Z</time></trkpt><trkpt lat="43.8694183" lon="7.9165483"><ele>423.0</ele><time>2026-05-02T08:48:21.257Z</time></trkpt><trkpt lat="43.8693083" lon="7.91653"><ele>423.0</ele><time>2026-05-02T08:48:23.256Z</time></trkpt><trkpt lat="43.8692167" lon="7.9165117"><ele>423.0</ele><time>2026-05-02T08:48:25.256Z</time></trkpt><trkpt lat="43.869125" lon="7.9165517"><ele>422.1666666666667</ele><time>2026-05-02T08:48:27.257Z</time></trkpt><trkpt lat="43.8690417" lon="7.9166033"><ele>421.33333333333337</ele><time>2026-05-02T08:48:29.257Z</time></trkpt><trkpt lat="43.868955" lon="7.91667"><ele>420.5</ele><time>2026-05-02T08:48:31.256Z</time></trkpt><trkpt lat="43.8688717" lon="7.916725"><ele>419.6666666666667</ele><time>2026-05-02T08:48:33.256Z</time></trkpt><trkpt lat="43.8688017" lon="7.9167617"><ele>418.83333333333337</ele><time>2026-05-02T08:48:35.256Z</time></trkpt><trkpt lat="43.86874" lon="7.9168167"><ele>418.0</ele><time>2026-05-02T08:48:37.256Z</time></trkpt><trkpt lat="43.8686617" lon="7.9168867"><ele>418.0</ele><time>2026-05-02T08:48:40.256Z</time></trkpt><trkpt lat="43.8685817" lon="7.91696"><ele>418.0</ele><time>2026-05-02T08:48:43.256Z</time></trkpt><trkpt lat="43.8684983" lon="7.9170183"><ele>418.0</ele><time>2026-05-02T08:48:45.256Z</time></trkpt><trkpt lat="43.8684033" lon="7.917075"><ele>418.0</ele><time>2026-05-02T08:48:47.256Z</time></trkpt><trkpt lat="43.8683183" lon="7.9171067"><ele>418.0</ele><time>2026-05-02T08:48:49.256Z</time></trkpt><trkpt lat="43.86823" lon="7.9171567"><ele>420.59999999999997</ele><time>2026-05-02T08:48:51.256Z</time></trkpt><trkpt lat="43.8681467" lon="7.9172233"><ele>423.2</ele><time>2026-05-02T08:48:53.256Z</time></trkpt><trkpt lat="43.8680683" lon="7.9173183"><ele>425.8</ele><time>2026-05-02T08:48:55.256Z</time></trkpt><trkpt lat="43.8680067" lon="7.9174217"><ele>428.4</ele><time>2026-05-02T08:48:57.257Z</time></trkpt><trkpt lat="43.8679683" lon="7.91755"><ele>431.0</ele><time>2026-05-02T08:48:59.257Z</time></trkpt><trkpt lat="43.8679367" lon="7.9176933"><ele>430.99999999999994</ele><time>2026-05-02T08:49:01.256Z</time></trkpt><trkpt lat="43.86792" lon="7.9178333"><ele>431.0</ele><time>2026-05-02T08:49:03.256Z</time></trkpt><trkpt lat="43.8679217" lon="7.9179467"><ele>431.0</ele><time>2026-05-02T08:49:05.256Z</time></trkpt><trkpt lat="43.8679417" lon="7.9180633"><ele>431.0</ele><time>2026-05-02T08:49:07.256Z</time></trkpt><trkpt lat="43.8679533" lon="7.91815"><ele>430.99999999999994</ele><time>2026-05-02T08:49:08.256Z</time></trkpt><trkpt lat="43.86801" lon="7.918245"><ele>431.0</ele><time>2026-05-02T08:49:10.256Z</time></trkpt><trkpt lat="43.8680683" lon="7.9183333"><ele>432.8</ele><time>2026-05-02T08:49:12.256Z</time></trkpt><trkpt lat="43.868125" lon="7.9184433"><ele>434.6</ele><time>2026-05-02T08:49:14.256Z</time></trkpt><trkpt lat="43.8681817" lon="7.9185417"><ele>436.4</ele><time>2026-05-02T08:49:15.256Z</time></trkpt><trkpt lat="43.868235" lon="7.9186583"><ele>438.2</ele><time>2026-05-02T08:49:17.256Z</time></trkpt><trkpt lat="43.8682767" lon="7.9187633"><ele>440.0</ele><time>2026-05-02T08:49:19.256Z</time></trkpt><trkpt lat="43.868305" lon="7.918865"><ele>439.99999999999994</ele><time>2026-05-02T08:49:21.257Z</time></trkpt><trkpt lat="43.8683367" lon="7.9189617"><ele>440.0</ele><time>2026-05-02T08:49:23.256Z</time></trkpt><trkpt lat="43.8683717" lon="7.9190383"><ele>440.0</ele><time>2026-05-02T08:49:25.256Z</time></trkpt><trkpt lat="43.8684117" lon="7.9191217"><ele>440.0</ele><time>2026-05-02T08:49:27.257Z</time></trkpt><trkpt lat="43.86844" lon="7.9192033"><ele>440.0</ele><time>2026-05-02T08:49:29.256Z</time></trkpt><trkpt lat="43.8684533" lon="7.9193067"><ele>439.99999999999994</ele><time>2026-05-02T08:49:31.257Z</time></trkpt><trkpt lat="43.868465" lon="7.9194133"><ele>440.0</ele><time>2026-05-02T08:49:33.256Z</time></trkpt><trkpt lat="43.868455" lon="7.91953"><ele>438.16666666666663</ele><time>2026-05-02T08:49:35.256Z</time></trkpt><trkpt lat="43.8684" lon="7.91967"><ele>436.3333333333333</ele><time>2026-05-02T08:49:37.257Z</time></trkpt><trkpt lat="43.8683617" lon="7.91974"><ele>434.5</ele><time>2026-05-02T08:49:38.256Z</time></trkpt><trkpt lat="43.8682967" lon="7.9198067"><ele>432.66666666666663</ele><time>2026-05-02T08:49:39.256Z</time></trkpt><trkpt lat="43.86823" lon="7.9198767"><ele>430.8333333333333</ele><time>2026-05-02T08:49:40.257Z</time></trkpt><trkpt lat="43.8681767" lon="7.91994"><ele>429.0</ele><time>2026-05-02T08:49:41.256Z</time></trkpt><trkpt lat="43.868125" lon="7.9200117"><ele>427.3333333333333</ele><time>2026-05-02T08:49:42.256Z</time></trkpt><trkpt lat="43.868085" lon="7.920085"><ele>425.66666666666663</ele><time>2026-05-02T08:49:43.256Z</time></trkpt><trkpt lat="43.86805" lon="7.9201683"><ele>424.0</ele><time>2026-05-02T08:49:45.256Z</time></trkpt><trkpt lat="43.86803" lon="7.9202683"><ele>422.3333333333333</ele><time>2026-05-02T08:49:47.256Z</time></trkpt><trkpt lat="43.8680333" lon="7.92041"><ele>420.66666666666663</ele><time>2026-05-02T08:49:49.256Z</time></trkpt><trkpt lat="43.8680133" lon="7.9205683"><ele>419.0</ele><time>2026-05-02T08:49:51.256Z</time></trkpt><trkpt lat="43.867975" lon="7.9206933"><ele>418.99999999999994</ele><time>2026-05-02T08:49:53.256Z</time></trkpt><trkpt lat="43.8679283" lon="7.9208267"><ele>419.0</ele><time>2026-05-02T08:49:55.257Z</time></trkpt><trkpt lat="43.867885" lon="7.9209333"><ele>419.0</ele><time>2026-05-02T08:49:57.257Z</time></trkpt><trkpt lat="43.8678433" lon="7.921035"><ele>419.0</ele><time>2026-05-02T08:49:59.256Z</time></trkpt><trkpt lat="43.8678283" lon="7.9211417"><ele>418.99999999999994</ele><time>2026-05-02T08:50:01.256Z</time></trkpt><trkpt lat="43.8678" lon="7.9212567"><ele>419.0</ele><time>2026-05-02T08:50:04.256Z</time></trkpt><trkpt lat="43.8677467" lon="7.9213283"><ele>417.4285714285714</ele><time>2026-05-02T08:50:08.256Z</time></trkpt><trkpt lat="43.867675" lon="7.921315"><ele>415.85714285714283</ele><time>2026-05-02T08:50:13.256Z</time></trkpt><trkpt lat="43.867645" lon="7.921225"><ele>414.2857142857143</ele><time>2026-05-02T08:50:16.256Z</time></trkpt><trkpt lat="43.86761" lon="7.92112"><ele>412.71428571428567</ele><time>2026-05-02T08:50:19.257Z</time></trkpt><trkpt lat="43.8675433" lon="7.9210583"><ele>411.14285714285717</ele><time>2026-05-02T08:50:22.256Z</time></trkpt><trkpt lat="43.8674783" lon="7.92103"><ele>409.57142857142856</ele><time>2026-05-02T08:50:24.256Z</time></trkpt><trkpt lat="43.86741" lon="7.921"><ele>408.0</ele><time>2026-05-02T08:50:26.256Z</time></trkpt><trkpt lat="43.8673283" lon="7.920975"><ele>407.8333333333333</ele><time>2026-05-02T08:50:28.256Z</time></trkpt><trkpt lat="43.8672567" lon="7.9209767"><ele>407.66666666666663</ele><time>2026-05-02T08:50:30.256Z</time></trkpt><trkpt lat="43.86717" lon="7.9210267"><ele>407.5</ele><time>2026-05-02T08:50:32.256Z</time></trkpt><trkpt lat="43.86709" lon="7.9210467"><ele>407.3333333333333</ele><time>2026-05-02T08:50:34.256Z</time></trkpt><trkpt lat="43.8670083" lon="7.921095"><ele>407.16666666666663</ele><time>2026-05-02T08:50:36.256Z</time></trkpt><trkpt lat="43.8669267" lon="7.9211467"><ele>407.0</ele><time>2026-05-02T08:50:38.256Z</time></trkpt><trkpt lat="43.866865" lon="7.9211967"><ele>406.99999999999994</ele><time>2026-05-02T08:50:40.257Z</time></trkpt><trkpt lat="43.866805" lon="7.9212233"><ele>407.0</ele><time>2026-05-02T08:50:44.256Z</time></trkpt><trkpt lat="43.866725" lon="7.92126"><ele>407.0</ele><time>2026-05-02T08:50:48.256Z</time></trkpt><trkpt lat="43.8666533" lon="7.9212533"><ele>407.0</ele><time>2026-05-02T08:50:51.257Z</time></trkpt><trkpt lat="43.8665767" lon="7.9213083"><ele>406.99999999999994</ele><time>2026-05-02T08:50:54.256Z</time></trkpt><trkpt lat="43.8665083" lon="7.921395"><ele>407.0</ele><time>2026-05-02T08:50:56.256Z</time></trkpt><trkpt lat="43.8664333" lon="7.921475"><ele>407.8333333333333</ele><time>2026-05-02T08:50:58.256Z</time></trkpt><trkpt lat="43.86636" lon="7.9214983"><ele>408.66666666666663</ele><time>2026-05-02T08:51:00.256Z</time></trkpt><trkpt lat="43.86628" lon="7.9215333"><ele>409.5</ele><time>2026-05-02T08:51:02.256Z</time></trkpt><trkpt lat="43.8662083" lon="7.9215533"><ele>410.33333333333337</ele><time>2026-05-02T08:51:04.256Z</time></trkpt><trkpt lat="43.866125" lon="7.9215917"><ele>411.1666666666667</ele><time>2026-05-02T08:51:06.256Z</time></trkpt><trkpt lat="43.866035" lon="7.9216417"><ele>412.0</ele><time>2026-05-02T08:51:08.256Z</time></trkpt><trkpt lat="43.8659583" lon="7.9216783"><ele>411.6666666666667</ele><time>2026-05-02T08:51:10.256Z</time></trkpt><trkpt lat="43.8658817" lon="7.9217367"><ele>411.33333333333337</ele><time>2026-05-02T08:51:12.257Z</time></trkpt><trkpt lat="43.8658117" lon="7.9218267"><ele>411.0</ele><time>2026-05-02T08:51:14.256Z</time></trkpt><trkpt lat="43.86575" lon="7.921865"><ele>410.66666666666663</ele><time>2026-05-02T08:51:16.256Z</time></trkpt><trkpt lat="43.8656967" lon="7.9217717"><ele>410.3333333333333</ele><time>2026-05-02T08:51:20.256Z</time></trkpt><trkpt lat="43.865635" lon="7.9217067"><ele>410.0</ele><time>2026-05-02T08:51:23.256Z</time></trkpt><trkpt lat="43.865605" lon="7.921625"><ele>410.0</ele><time>2026-05-02T08:51:27.256Z</time></trkpt><trkpt lat="43.8655233" lon="7.921555"><ele>410.0</ele><time>2026-05-02T08:51:33.256Z</time></trkpt><trkpt lat="43.8654467" lon="7.92152"><ele>410.0</ele><time>2026-05-02T08:51:37.256Z</time></trkpt><trkpt lat="43.865345" lon="7.9215133"><ele>410.0</ele><time>2026-05-02T08:51:40.256Z</time></trkpt><trkpt lat="43.8652517" lon="7.9215517"><ele>410.0</ele><time>2026-05-02T08:51:42.256Z</time></trkpt><trkpt lat="43.86515" lon="7.9215683"><ele>409.6</ele><time>2026-05-02T08:51:44.256Z</time></trkpt><trkpt lat="43.86505" lon="7.92157"><ele>409.2</ele><time>2026-05-02T08:51:46.257Z</time></trkpt><trkpt lat="43.864965" lon="7.9215533"><ele>408.79999999999995</ele><time>2026-05-02T08:51:48.256Z</time></trkpt><trkpt lat="43.8648633" lon="7.9215483"><ele>408.4</ele><time>2026-05-02T08:51:51.257Z</time></trkpt><trkpt lat="43.86477" lon="7.9215867"><ele>408.0</ele><time>2026-05-02T08:51:53.256Z</time></trkpt><trkpt lat="43.864685" lon="7.92162"><ele>408.0</ele><time>2026-05-02T08:51:55.256Z</time></trkpt><trkpt lat="43.8646033" lon="7.9216683"><ele>408.0</ele><time>2026-05-02T08:51:57.256Z</time></trkpt><trkpt lat="43.86452" lon="7.9217233"><ele>408.0</ele><time>2026-05-02T08:51:59.256Z</time></trkpt><trkpt lat="43.8644567" lon="7.9217517"><ele>408.0</ele><time>2026-05-02T08:52:00.256Z</time></trkpt><trkpt lat="43.8643533" lon="7.9218"><ele>408.0</ele><time>2026-05-02T08:52:02.257Z</time></trkpt><trkpt lat="43.8642717" lon="7.9217983"><ele>408.0</ele><time>2026-05-02T08:52:04.256Z</time></trkpt><trkpt lat="43.8642" lon="7.9217383"><ele>406.6666666666667</ele><time>2026-05-02T08:52:06.256Z</time></trkpt><trkpt lat="43.8641383" lon="7.921705"><ele>405.33333333333337</ele><time>2026-05-02T08:52:08.256Z</time></trkpt><trkpt lat="43.8640817" lon="7.9216417"><ele>404.0</ele><time>2026-05-02T08:52:10.256Z</time></trkpt><trkpt lat="43.863995" lon="7.9215833"><ele>402.6666666666667</ele><time>2026-05-02T08:52:12.256Z</time></trkpt><trkpt lat="43.8638967" lon="7.92154"><ele>401.33333333333337</ele><time>2026-05-02T08:52:14.256Z</time></trkpt><trkpt lat="43.8638083" lon="7.9215317"><ele>400.0</ele><time>2026-05-02T08:52:16.256Z</time></trkpt><trkpt lat="43.863715" lon="7.921565"><ele>400.0</ele><time>2026-05-02T08:52:18.256Z</time></trkpt><trkpt lat="43.8636217" lon="7.9215817"><ele>400.0</ele><time>2026-05-02T08:52:20.256Z</time></trkpt><trkpt lat="43.863515" lon="7.92162"><ele>400.0</ele><time>2026-05-02T08:52:22.256Z</time></trkpt><trkpt lat="43.86341" lon="7.9216667"><ele>400.0</ele><time>2026-05-02T08:52:24.256Z</time></trkpt><trkpt lat="43.8633183" lon="7.921705"><ele>400.0</ele><time>2026-05-02T08:52:26.257Z</time></trkpt><trkpt lat="43.8632133" lon="7.9217517"><ele>396.50000000000006</ele><time>2026-05-02T08:52:28.256Z</time></trkpt><trkpt lat="43.8631217" lon="7.9217983"><ele>393.0</ele><time>2026-05-02T08:52:30.256Z</time></trkpt><trkpt lat="43.86305" lon="7.921835"><ele>389.5</ele><time>2026-05-02T08:52:32.256Z</time></trkpt><trkpt lat="43.862965" lon="7.9218617"><ele>386.0</ele><time>2026-05-02T08:52:34.256Z</time></trkpt><trkpt lat="43.862895" lon="7.92189"><ele>382.5</ele><time>2026-05-02T08:52:36.256Z</time></trkpt><trkpt lat="43.86281" lon="7.9219017"><ele>379.0</ele><time>2026-05-02T08:52:38.256Z</time></trkpt><trkpt lat="43.862715" lon="7.921905"><ele>379.0</ele><time>2026-05-02T08:52:40.256Z</time></trkpt><trkpt lat="43.8626367" lon="7.92195"><ele>379.0</ele><time>2026-05-02T08:52:42.256Z</time></trkpt><trkpt lat="43.862565" lon="7.92201"><ele>379.0</ele><time>2026-05-02T08:52:44.256Z</time></trkpt><trkpt lat="43.8625133" lon="7.922065"><ele>379.0</ele><time>2026-05-02T08:52:46.256Z</time></trkpt><trkpt lat="43.862465" lon="7.92213"><ele>379.0</ele><time>2026-05-02T08:52:48.256Z</time></trkpt><trkpt lat="43.8623983" lon="7.9221967"><ele>379.0</ele><time>2026-05-02T08:52:50.256Z</time></trkpt><trkpt lat="43.8623317" lon="7.9222583"><ele>378.3333333333333</ele><time>2026-05-02T08:52:52.256Z</time></trkpt><trkpt lat="43.86227" lon="7.9223417"><ele>377.66666666666663</ele><time>2026-05-02T08:52:54.256Z</time></trkpt><trkpt lat="43.8622133" lon="7.92243"><ele>377.0</ele><time>2026-05-02T08:52:56.256Z</time></trkpt><trkpt lat="43.8621467" lon="7.9225"><ele>376.3333333333333</ele><time>2026-05-02T08:52:58.256Z</time></trkpt><trkpt lat="43.8621033" lon="7.9225833"><ele>375.6666666666667</ele><time>2026-05-02T08:53:00.256Z</time></trkpt><trkpt lat="43.8620717" lon="7.9226917"><ele>375.0</ele><time>2026-05-02T08:53:02.256Z</time></trkpt><trkpt lat="43.8620483" lon="7.9228167"><ele>375.0</ele><time>2026-05-02T08:53:04.256Z</time></trkpt><trkpt lat="43.8620233" lon="7.9229267"><ele>375.0</ele><time>2026-05-02T08:53:06.256Z</time></trkpt><trkpt lat="43.8619983" lon="7.9230233"><ele>375.0</ele><time>2026-05-02T08:53:08.256Z</time></trkpt><trkpt lat="43.8619867" lon="7.92316"><ele>375.0</ele><time>2026-05-02T08:53:10.256Z</time></trkpt><trkpt lat="43.861955" lon="7.9232633"><ele>375.0</ele><time>2026-05-02T08:53:12.256Z</time></trkpt><trkpt lat="43.8619017" lon="7.9233567"><ele>375.0</ele><time>2026-05-02T08:53:14.256Z</time></trkpt><trkpt lat="43.8618467" lon="7.9234217"><ele>373.3333333333333</ele><time>2026-05-02T08:53:16.256Z</time></trkpt><trkpt lat="43.8617833" lon="7.9235133"><ele>371.6666666666667</ele><time>2026-05-02T08:53:19.257Z</time></trkpt><trkpt lat="43.8617333" lon="7.9235867"><ele>370.0</ele><time>2026-05-02T08:53:21.256Z</time></trkpt><trkpt lat="43.8616833" lon="7.923655"><ele>368.33333333333337</ele><time>2026-05-02T08:53:23.256Z</time></trkpt><trkpt lat="43.8615933" lon="7.9236983"><ele>366.6666666666667</ele><time>2026-05-02T08:53:26.256Z</time></trkpt><trkpt lat="43.8615333" lon="7.923735"><ele>365.0</ele><time>2026-05-02T08:53:28.256Z</time></trkpt><trkpt lat="43.86148" lon="7.9238317"><ele>369.1666666666667</ele><time>2026-05-02T08:53:30.256Z</time></trkpt><trkpt lat="43.8614333" lon="7.9239317"><ele>373.33333333333337</ele><time>2026-05-02T08:53:32.257Z</time></trkpt><trkpt lat="43.861375" lon="7.9239883"><ele>377.5</ele><time>2026-05-02T08:53:34.256Z</time></trkpt><trkpt lat="43.8613033" lon="7.9240217"><ele>381.6666666666667</ele><time>2026-05-02T08:53:36.257Z</time></trkpt><trkpt lat="43.8612267" lon="7.9240183"><ele>385.8333333333333</ele><time>2026-05-02T08:53:38.256Z</time></trkpt><trkpt lat="43.861145" lon="7.9240267"><ele>390.0</ele><time>2026-05-02T08:53:41.256Z</time></trkpt><trkpt lat="43.861065" lon="7.92407"><ele>390.0</ele><time>2026-05-02T08:58:03.256Z</time></trkpt><trkpt lat="43.861" lon="7.9240717"><ele>390.0</ele><time>2026-05-02T08:58:06.256Z</time></trkpt><trkpt lat="43.8609367" lon="7.9240617"><ele>390.0</ele><time>2026-05-02T08:58:08.256Z</time></trkpt><trkpt lat="43.8608633" lon="7.9240617"><ele>390.0</ele><time>2026-05-02T08:58:10.256Z</time></trkpt><trkpt lat="43.8607983" lon="7.924065"><ele>390.0</ele><time>2026-05-02T08:58:12.256Z</time></trkpt><trkpt lat="43.8607333" lon="7.9240667"><ele>390.0</ele><time>2026-05-02T08:58:14.256Z</time></trkpt><trkpt lat="43.8606667" lon="7.9240867"><ele>390.0</ele><time>2026-05-02T08:58:16.256Z</time></trkpt><trkpt lat="43.8606017" lon="7.9241217"><ele>391.0</ele><time>2026-05-02T08:58:18.256Z</time></trkpt><trkpt lat="43.86054" lon="7.9241583"><ele>392.0</ele><time>2026-05-02T08:58:20.256Z</time></trkpt><trkpt lat="43.860475" lon="7.9241833"><ele>393.0</ele><time>2026-05-02T08:58:22.256Z</time></trkpt><trkpt lat="43.8604033" lon="7.9242117"><ele>394.0</ele><time>2026-05-02T08:58:24.256Z</time></trkpt><trkpt lat="43.860335" lon="7.9242167"><ele>395.0</ele><time>2026-05-02T08:58:26.256Z</time></trkpt><trkpt lat="43.86025" lon="7.9242083"><ele>396.0</ele><time>2026-05-02T08:58:28.257Z</time></trkpt><trkpt lat="43.86018" lon="7.9242267"><ele>397.0</ele><time>2026-05-02T08:58:30.256Z</time></trkpt><trkpt lat="43.8601133" lon="7.9242517"><ele>397.0</ele><time>2026-05-02T08:58:32.256Z</time></trkpt><trkpt lat="43.8600467" lon="7.9242683"><ele>397.0</ele><time>2026-05-02T08:58:34.256Z</time></trkpt><trkpt lat="43.8599783" lon="7.9242767"><ele>397.0</ele><time>2026-05-02T08:58:36.256Z</time></trkpt><trkpt lat="43.859915" lon="7.9242817"><ele>397.0</ele><time>2026-05-02T08:58:38.256Z</time></trkpt><trkpt lat="43.85985" lon="7.9242783"><ele>397.0</ele><time>2026-05-02T08:58:41.256Z</time></trkpt><trkpt lat="43.8597667" lon="7.9242617"><ele>397.0</ele><time>2026-05-02T08:58:45.256Z</time></trkpt><trkpt lat="43.8596933" lon="7.9242533"><ele>397.0</ele><time>2026-05-02T08:58:47.256Z</time></trkpt><trkpt lat="43.8596183" lon="7.924235"><ele>397.0</ele><time>2026-05-02T08:58:49.256Z</time></trkpt><trkpt lat="43.8595467" lon="7.9242083"><ele>397.0</ele><time>2026-05-02T08:58:51.256Z</time></trkpt><trkpt lat="43.8596133" lon="7.9242067"><ele>397.0</ele><time>2026-05-02T08:59:28.256Z</time></trkpt><trkpt lat="43.8596833" lon="7.9242067"><ele>397.0</ele><time>2026-05-02T08:59:32.256Z</time></trkpt><trkpt lat="43.8597633" lon="7.9242217"><ele>397.0</ele><time>2026-05-02T08:59:35.256Z</time></trkpt><trkpt lat="43.8598" lon="7.924315"><ele>397.0</ele><time>2026-05-02T08:59:40.257Z</time></trkpt><trkpt lat="43.8597733" lon="7.924415"><ele>397.0</ele><time>2026-05-02T08:59:44.256Z</time></trkpt><trkpt lat="43.859775" lon="7.92452"><ele>397.0</ele><time>2026-05-02T08:59:48.257Z</time></trkpt><trkpt lat="43.8597883" lon="7.9246067"><ele>397.0</ele><time>2026-05-02T08:59:52.256Z</time></trkpt><trkpt lat="43.8597933" lon="7.924695"><ele>397.0</ele><time>2026-05-02T08:59:55.256Z</time></trkpt><trkpt lat="43.8598067" lon="7.9247867"><ele>397.0</ele><time>2026-05-02T08:59:58.256Z</time></trkpt><trkpt lat="43.8598017" lon="7.9249017"><ele>397.0</ele><time>2026-05-02T09:01:13.256Z</time></trkpt><trkpt lat="43.8597967" lon="7.925015"><ele>397.0</ele><time>2026-05-02T09:01:16.256Z</time></trkpt><trkpt lat="43.8597667" lon="7.92512"><ele>397.0</ele><time>2026-05-02T09:01:18.256Z</time></trkpt><trkpt lat="43.8597217" lon="7.925225"><ele>395.6</ele><time>2026-05-02T09:01:20.256Z</time></trkpt><trkpt lat="43.8597" lon="7.9253533"><ele>394.20000000000005</ele><time>2026-05-02T09:01:22.256Z</time></trkpt><trkpt lat="43.8596883" lon="7.9254883"><ele>392.8</ele><time>2026-05-02T09:01:24.256Z</time></trkpt><trkpt lat="43.8596967" lon="7.925625"><ele>391.4</ele><time>2026-05-02T09:01:26.256Z</time></trkpt><trkpt lat="43.8597067" lon="7.9257767"><ele>390.0</ele><time>2026-05-02T09:01:28.257Z</time></trkpt><trkpt lat="43.8597133" lon="7.9259333"><ele>389.8333333333333</ele><time>2026-05-02T09:01:30.256Z</time></trkpt><trkpt lat="43.8597383" lon="7.9260617"><ele>389.66666666666663</ele><time>2026-05-02T09:01:32.256Z</time></trkpt><trkpt lat="43.859775" lon="7.926165"><ele>389.5</ele><time>2026-05-02T09:01:34.256Z</time></trkpt><trkpt lat="43.8598133" lon="7.9262383"><ele>389.3333333333333</ele><time>2026-05-02T09:01:37.256Z</time></trkpt><trkpt lat="43.8598517" lon="7.926325"><ele>389.16666666666663</ele><time>2026-05-02T09:01:40.257Z</time></trkpt><trkpt lat="43.8598817" lon="7.9264633"><ele>389.0</ele><time>2026-05-02T09:02:20.256Z</time></trkpt><trkpt lat="43.8599033" lon="7.9265633"><ele>388.99999999999994</ele><time>2026-05-02T09:02:23.256Z</time></trkpt><trkpt lat="43.8599333" lon="7.9266817"><ele>389.0</ele><time>2026-05-02T09:02:26.256Z</time></trkpt><trkpt lat="43.8599617" lon="7.9267667"><ele>389.0</ele><time>2026-05-02T09:02:28.256Z</time></trkpt><trkpt lat="43.8599533" lon="7.9268883"><ele>389.0</ele><time>2026-05-02T09:02:31.257Z</time></trkpt><trkpt lat="43.85992" lon="7.926995"><ele>388.99999999999994</ele><time>2026-05-02T09:02:34.257Z</time></trkpt><trkpt lat="43.859925" lon="7.9270833"><ele>389.0</ele><time>2026-05-02T09:02:37.256Z</time></trkpt><trkpt lat="43.85999" lon="7.9271017"><ele>388.8333333333333</ele><time>2026-05-02T09:02:40.256Z</time></trkpt><trkpt lat="43.86006" lon="7.92708"><ele>388.66666666666663</ele><time>2026-05-02T09:02:43.256Z</time></trkpt><trkpt lat="43.8601417" lon="7.927095"><ele>388.5</ele><time>2026-05-02T09:02:46.256Z</time></trkpt><trkpt lat="43.8602" lon="7.9271517"><ele>388.33333333333337</ele><time>2026-05-02T09:02:48.256Z</time></trkpt><trkpt lat="43.8602367" lon="7.927255"><ele>388.1666666666667</ele><time>2026-05-02T09:02:50.256Z</time></trkpt><trkpt lat="43.8602483" lon="7.92738"><ele>388.0</ele><time>2026-05-02T09:02:52.256Z</time></trkpt><trkpt lat="43.8602617" lon="7.9275367"><ele>383.4</ele><time>2026-05-02T09:02:54.256Z</time></trkpt><trkpt lat="43.8602783" lon="7.9276983"><ele>378.79999999999995</ele><time>2026-05-02T09:02:56.256Z</time></trkpt><trkpt lat="43.860295" lon="7.9278383"><ele>374.2</ele><time>2026-05-02T09:02:58.256Z</time></trkpt><trkpt lat="43.8603033" lon="7.9279767"><ele>369.6</ele><time>2026-05-02T09:03:00.256Z</time></trkpt><trkpt lat="43.8603167" lon="7.9281133"><ele>365.0</ele><time>2026-05-02T09:03:02.256Z</time></trkpt><trkpt lat="43.8603417" lon="7.92822"><ele>365.0</ele><time>2026-05-02T09:03:04.256Z</time></trkpt><trkpt lat="43.8603483" lon="7.9283333"><ele>365.0</ele><time>2026-05-02T09:03:07.257Z</time></trkpt><trkpt lat="43.8604067" lon="7.9282517"><ele>365.0</ele><time>2026-05-02T09:03:13.256Z</time></trkpt><trkpt lat="43.8604167" lon="7.92815"><ele>365.0</ele><time>2026-05-02T09:03:16.256Z</time></trkpt><trkpt lat="43.8604067" lon="7.92806"><ele>365.0</ele><time>2026-05-02T09:03:18.256Z</time></trkpt><trkpt lat="43.8604133" lon="7.927945"><ele>365.0</ele><time>2026-05-02T09:03:21.256Z</time></trkpt><trkpt lat="43.8604617" lon="7.928005"><ele>365.0</ele><time>2026-05-02T09:03:27.256Z</time></trkpt><trkpt lat="43.860495" lon="7.9281083"><ele>365.0</ele><time>2026-05-02T09:03:31.257Z</time></trkpt><trkpt lat="43.8605533" lon="7.9280533"><ele>365.0</ele><time>2026-05-02T09:03:37.256Z</time></trkpt><trkpt lat="43.8605967" lon="7.92796"><ele>365.0</ele><time>2026-05-02T09:03:40.256Z</time></trkpt><trkpt lat="43.8606033" lon="7.92807"><ele>365.0</ele><time>2026-05-02T09:03:45.257Z</time></trkpt><trkpt lat="43.8606083" lon="7.92818"><ele>365.0</ele><time>2026-05-02T09:03:48.256Z</time></trkpt><trkpt lat="43.8606333" lon="7.9282833"><ele>365.0</ele><time>2026-05-02T09:03:50.256Z</time></trkpt><trkpt lat="43.8606583" lon="7.92837"><ele>365.0</ele><time>2026-05-02T09:03:52.256Z</time></trkpt><trkpt lat="43.86071" lon="7.9284517"><ele>365.0</ele><time>2026-05-02T09:03:55.257Z</time></trkpt><trkpt lat="43.86078" lon="7.928375"><ele>365.0</ele><time>2026-05-02T09:03:58.256Z</time></trkpt><trkpt lat="43.8607917" lon="7.9282817"><ele>365.0</ele><time>2026-05-02T09:04:00.256Z</time></trkpt><trkpt lat="43.860775" lon="7.9281717"><ele>365.0</ele><time>2026-05-02T09:04:03.257Z</time></trkpt><trkpt lat="43.8607717" lon="7.92804"><ele>365.0</ele><time>2026-05-02T09:04:06.256Z</time></trkpt><trkpt lat="43.8607867" lon="7.92794"><ele>365.0</ele><time>2026-05-02T09:04:08.256Z</time></trkpt><trkpt lat="43.86081" lon="7.9278583"><ele>365.0</ele><time>2026-05-02T09:04:10.257Z</time></trkpt><trkpt lat="43.8608533" lon="7.9277683"><ele>365.0</ele><time>2026-05-02T09:04:12.256Z</time></trkpt><trkpt lat="43.8608933" lon="7.927675"><ele>365.0</ele><time>2026-05-02T09:04:14.257Z</time></trkpt><trkpt lat="43.8609267" lon="7.9275733"><ele>365.0</ele><time>2026-05-02T09:04:16.256Z</time></trkpt><trkpt lat="43.860965" lon="7.9274533"><ele>360.83333333333337</ele><time>2026-05-02T09:04:18.256Z</time></trkpt><trkpt lat="43.860995" lon="7.9273317"><ele>356.6666666666667</ele><time>2026-05-02T09:04:20.256Z</time></trkpt><trkpt lat="43.8610217" lon="7.92722"><ele>352.5</ele><time>2026-05-02T09:04:22.257Z</time></trkpt><trkpt lat="43.861035" lon="7.9270933"><ele>348.3333333333333</ele><time>2026-05-02T09:04:24.256Z</time></trkpt><trkpt lat="43.8610417" lon="7.9269667"><ele>344.16666666666663</ele><time>2026-05-02T09:04:26.256Z</time></trkpt><trkpt lat="43.8610383" lon="7.9268483"><ele>340.0</ele><time>2026-05-02T09:04:28.256Z</time></trkpt><trkpt lat="43.8610217" lon="7.9267617"><ele>341.66666666666663</ele><time>2026-05-02T09:04:30.256Z</time></trkpt><trkpt lat="43.86101" lon="7.9266533"><ele>343.3333333333333</ele><time>2026-05-02T09:04:33.256Z</time></trkpt><trkpt lat="43.861025" lon="7.9265333"><ele>345.0</ele><time>2026-05-02T09:04:36.256Z</time></trkpt><trkpt lat="43.8610517" lon="7.926445"><ele>346.6666666666667</ele><time>2026-05-02T09:04:38.256Z</time></trkpt><trkpt lat="43.8610767" lon="7.9263483"><ele>348.33333333333337</ele><time>2026-05-02T09:04:40.256Z</time></trkpt><trkpt lat="43.8611183" lon="7.9262683"><ele>350.0</ele><time>2026-05-02T09:04:42.256Z</time></trkpt><trkpt lat="43.8611783" lon="7.92621"><ele>350.0</ele><time>2026-05-02T09:04:44.256Z</time></trkpt><trkpt lat="43.8612517" lon="7.9262033"><ele>350.0</ele><time>2026-05-02T09:04:46.256Z</time></trkpt><trkpt lat="43.8613067" lon="7.926255"><ele>350.0</ele><time>2026-05-02T09:04:49.256Z</time></trkpt><trkpt lat="43.8613267" lon="7.92637"><ele>350.0</ele><time>2026-05-02T09:04:53.257Z</time></trkpt><trkpt lat="43.8612533" lon="7.9264567"><ele>350.0</ele><time>2026-05-02T09:04:58.256Z</time></trkpt><trkpt lat="43.8611767" lon="7.92653"><ele>350.0</ele><time>2026-05-02T09:05:01.256Z</time></trkpt><trkpt lat="43.8611283" lon="7.9266117"><ele>350.0</ele><time>2026-05-02T09:05:03.256Z</time></trkpt><trkpt lat="43.861085" lon="7.9267067"><ele>350.0</ele><time>2026-05-02T09:05:05.257Z</time></trkpt><trkpt lat="43.8610533" lon="7.9268067"><ele>350.0</ele><time>2026-05-02T09:05:08.256Z</time></trkpt><trkpt lat="43.8610533" lon="7.9269033"><ele>350.0</ele><time>2026-05-02T09:05:11.256Z</time></trkpt><trkpt lat="43.8610933" lon="7.9269983"><ele>350.0</ele><time>2026-05-02T09:05:14.257Z</time></trkpt><trkpt lat="43.86113" lon="7.92708"><ele>350.0</ele><time>2026-05-02T09:05:16.256Z</time></trkpt><trkpt lat="43.8611833" lon="7.9271667"><ele>348.33333333333337</ele><time>2026-05-02T09:05:19.256Z</time></trkpt><trkpt lat="43.8612333" lon="7.9272367"><ele>346.6666666666667</ele><time>2026-05-02T09:05:22.256Z</time></trkpt><trkpt lat="43.8612267" lon="7.9273417"><ele>345.0</ele><time>2026-05-02T09:05:25.256Z</time></trkpt><trkpt lat="43.8612083" lon="7.9274617"><ele>343.3333333333333</ele><time>2026-05-02T09:05:28.257Z</time></trkpt><trkpt lat="43.8611883" lon="7.9275933"><ele>341.66666666666663</ele><time>2026-05-02T09:05:31.257Z</time></trkpt><trkpt lat="43.8611733" lon="7.9276983"><ele>340.0</ele><time>2026-05-02T09:05:33.256Z</time></trkpt><trkpt lat="43.861155" lon="7.9277833"><ele>339.3333333333333</ele><time>2026-05-02T09:05:35.257Z</time></trkpt><trkpt lat="43.861135" lon="7.9278983"><ele>338.66666666666663</ele><time>2026-05-02T09:05:38.256Z</time></trkpt><trkpt lat="43.861135" lon="7.9280083"><ele>338.0</ele><time>2026-05-02T09:05:41.256Z</time></trkpt><trkpt lat="43.861135" lon="7.928145"><ele>337.3333333333333</ele><time>2026-05-02T09:05:44.256Z</time></trkpt><trkpt lat="43.861135" lon="7.92824"><ele>336.6666666666667</ele><time>2026-05-02T09:05:46.256Z</time></trkpt><trkpt lat="43.8611767" lon="7.92836"><ele>336.0</ele><time>2026-05-02T09:05:49.256Z</time></trkpt><trkpt lat="43.861215" lon="7.9284567"><ele>336.0</ele><time>2026-05-02T09:05:51.256Z</time></trkpt><trkpt lat="43.861265" lon="7.92857"><ele>336.0</ele><time>2026-05-02T09:05:53.256Z</time></trkpt><trkpt lat="43.861305" lon="7.92868"><ele>336.0</ele><time>2026-05-02T09:05:55.256Z</time></trkpt><trkpt lat="43.8613467" lon="7.9287967"><ele>336.0</ele><time>2026-05-02T09:05:57.256Z</time></trkpt><trkpt lat="43.8613917" lon="7.9289183"><ele>336.0</ele><time>2026-05-02T09:05:59.256Z</time></trkpt><trkpt lat="43.8614317" lon="7.929015"><ele>336.0</ele><time>2026-05-02T09:06:01.256Z</time></trkpt><trkpt lat="43.861485" lon="7.9291083"><ele>336.0</ele><time>2026-05-02T09:06:03.257Z</time></trkpt><trkpt lat="43.8615383" lon="7.9291917"><ele>336.0</ele><time>2026-05-02T09:06:06.256Z</time></trkpt><trkpt lat="43.8615983" lon="7.9291417"><ele>336.0</ele><time>2026-05-02T09:06:09.256Z</time></trkpt><trkpt lat="43.86166" lon="7.92912"><ele>336.0</ele><time>2026-05-02T09:06:11.257Z</time></trkpt><trkpt lat="43.861705" lon="7.9291833"><ele>336.0</ele><time>2026-05-02T09:06:14.256Z</time></trkpt><trkpt lat="43.8617383" lon="7.9292683"><ele>336.0</ele><time>2026-05-02T09:06:17.256Z</time></trkpt><trkpt lat="43.8617683" lon="7.9293617"><ele>334.2857142857143</ele><time>2026-05-02T09:06:21.257Z</time></trkpt><trkpt lat="43.8618383" lon="7.92945"><ele>332.57142857142856</ele><time>2026-05-02T09:06:24.256Z</time></trkpt><trkpt lat="43.8618567" lon="7.9295417"><ele>330.8571428571429</ele><time>2026-05-02T09:06:27.256Z</time></trkpt><trkpt lat="43.861845" lon="7.9296317"><ele>329.1428571428571</ele><time>2026-05-02T09:06:30.256Z</time></trkpt><trkpt lat="43.86181" lon="7.929705"><ele>327.42857142857144</ele><time>2026-05-02T09:06:33.256Z</time></trkpt><trkpt lat="43.86175" lon="7.9297717"><ele>325.7142857142857</ele><time>2026-05-02T09:06:55.256Z</time></trkpt><trkpt lat="43.8616833" lon="7.9298283"><ele>324.0</ele><time>2026-05-02T09:07:02.256Z</time></trkpt><trkpt lat="43.8616067" lon="7.9299033"><ele>324.0</ele><time>2026-05-02T09:07:05.256Z</time></trkpt><trkpt lat="43.8615483" lon="7.92998"><ele>324.0</ele><time>2026-05-02T09:07:07.256Z</time></trkpt><trkpt lat="43.8615017" lon="7.9300467"><ele>324.0</ele><time>2026-05-02T09:07:09.256Z</time></trkpt><trkpt lat="43.8614717" lon="7.930155"><ele>324.0</ele><time>2026-05-02T09:07:12.256Z</time></trkpt><trkpt lat="43.861415" lon="7.93023"><ele>324.0</ele><time>2026-05-02T09:07:15.256Z</time></trkpt><trkpt lat="43.8613583" lon="7.9302867"><ele>324.0</ele><time>2026-05-02T09:07:17.257Z</time></trkpt><trkpt lat="43.861295" lon="7.9303667"><ele>323.6</ele><time>2026-05-02T09:07:19.257Z</time></trkpt><trkpt lat="43.8612383" lon="7.9304667"><ele>323.2</ele><time>2026-05-02T09:07:22.256Z</time></trkpt><trkpt lat="43.8611483" lon="7.930535"><ele>322.8</ele><time>2026-05-02T09:07:25.256Z</time></trkpt><trkpt lat="43.86105" lon="7.930585"><ele>322.40000000000003</ele><time>2026-05-02T09:07:27.256Z</time></trkpt><trkpt lat="43.8609633" lon="7.9306333"><ele>322.0</ele><time>2026-05-02T09:07:29.256Z</time></trkpt><trkpt lat="43.86089" lon="7.9306883"><ele>322.0</ele><time>2026-05-02T09:07:31.257Z</time></trkpt><trkpt lat="43.8608117" lon="7.9307767"><ele>322.0</ele><time>2026-05-02T09:07:33.256Z</time></trkpt><trkpt lat="43.8607233" lon="7.930845"><ele>322.0</ele><time>2026-05-02T09:07:35.256Z</time></trkpt><trkpt lat="43.8606333" lon="7.9309167"><ele>322.0</ele><time>2026-05-02T09:07:37.257Z</time></trkpt><trkpt lat="43.8605517" lon="7.9309383"><ele>322.0</ele><time>2026-05-02T09:07:39.256Z</time></trkpt><trkpt lat="43.860495" lon="7.9308967"><ele>322.0</ele><time>2026-05-02T09:07:41.256Z</time></trkpt><trkpt lat="43.86042" lon="7.9308133"><ele>322.0</ele><time>2026-05-02T09:07:44.257Z</time></trkpt><trkpt lat="43.8603633" lon="7.9307733"><ele>322.0</ele><time>2026-05-02T09:07:46.256Z</time></trkpt><trkpt lat="43.8602933" lon="7.93075"><ele>322.0</ele><time>2026-05-02T09:07:48.256Z</time></trkpt><trkpt lat="43.86022" lon="7.9307317"><ele>322.0</ele><time>2026-05-02T09:07:50.256Z</time></trkpt><trkpt lat="43.8601517" lon="7.9307133"><ele>322.0</ele><time>2026-05-02T09:07:52.256Z</time></trkpt><trkpt lat="43.86009" lon="7.9306683"><ele>322.0</ele><time>2026-05-02T09:07:55.257Z</time></trkpt><trkpt lat="43.8600267" lon="7.9306383"><ele>322.0</ele><time>2026-05-02T09:07:58.256Z</time></trkpt><trkpt lat="43.8599483" lon="7.93057"><ele>322.0</ele><time>2026-05-02T09:08:01.256Z</time></trkpt><trkpt lat="43.8598917" lon="7.9305"><ele>322.0</ele><time>2026-05-02T09:08:03.256Z</time></trkpt><trkpt lat="43.85984" lon="7.9304267"><ele>322.0</ele><time>2026-05-02T09:08:05.256Z</time></trkpt><trkpt lat="43.8597767" lon="7.9303733"><ele>322.0</ele><time>2026-05-02T09:08:07.256Z</time></trkpt><trkpt lat="43.8597033" lon="7.930315"><ele>322.0</ele><time>2026-05-02T09:08:09.256Z</time></trkpt><trkpt lat="43.8596283" lon="7.9302517"><ele>322.0</ele><time>2026-05-02T09:08:11.257Z</time></trkpt><trkpt lat="43.85957" lon="7.93019"><ele>322.0</ele><time>2026-05-02T09:08:13.256Z</time></trkpt><trkpt lat="43.8595217" lon="7.930115"><ele>322.0</ele><time>2026-05-02T09:08:15.256Z</time></trkpt><trkpt lat="43.859475" lon="7.93"><ele>322.0</ele><time>2026-05-02T09:08:18.257Z</time></trkpt><trkpt lat="43.85943" lon="7.9299233"><ele>322.0</ele><time>2026-05-02T09:08:20.256Z</time></trkpt><trkpt lat="43.859375" lon="7.9298533"><ele>322.0</ele><time>2026-05-02T09:08:22.257Z</time></trkpt><trkpt lat="43.85932" lon="7.9298"><ele>323.0</ele><time>2026-05-02T09:08:24.256Z</time></trkpt><trkpt lat="43.8592433" lon="7.9297667"><ele>324.0</ele><time>2026-05-02T09:08:27.256Z</time></trkpt><trkpt lat="43.8591667" lon="7.9297817"><ele>325.0</ele><time>2026-05-02T09:08:30.257Z</time></trkpt><trkpt lat="43.8591167" lon="7.9298883"><ele>326.0</ele><time>2026-05-02T09:08:33.256Z</time></trkpt><trkpt lat="43.859075" lon="7.9299733"><ele>327.0</ele><time>2026-05-02T09:08:35.257Z</time></trkpt><trkpt lat="43.8590483" lon="7.9300667"><ele>328.0</ele><time>2026-05-02T09:08:37.257Z</time></trkpt><trkpt lat="43.85901" lon="7.930165"><ele>328.0</ele><time>2026-05-02T09:08:40.256Z</time></trkpt><trkpt lat="43.85895" lon="7.93026"><ele>328.0</ele><time>2026-05-02T09:08:43.256Z</time></trkpt><trkpt lat="43.8589083" lon="7.9303417"><ele>328.0</ele><time>2026-05-02T09:08:46.257Z</time></trkpt><trkpt lat="43.8588867" lon="7.9304633"><ele>328.0</ele><time>2026-05-02T09:08:49.256Z</time></trkpt><trkpt lat="43.8588933" lon="7.9305867"><ele>328.0</ele><time>2026-05-02T09:08:51.256Z</time></trkpt><trkpt lat="43.85892" lon="7.9307083"><ele>328.0</ele><time>2026-05-02T09:08:54.256Z</time></trkpt><trkpt lat="43.8589433" lon="7.9307983"><ele>327.0</ele><time>2026-05-02T09:08:56.256Z</time></trkpt><trkpt lat="43.8589517" lon="7.930915"><ele>326.0</ele><time>2026-05-02T09:08:58.257Z</time></trkpt><trkpt lat="43.858945" lon="7.9310133"><ele>325.0</ele><time>2026-05-02T09:09:00.256Z</time></trkpt><trkpt lat="43.8589083" lon="7.9311217"><ele>324.0</ele><time>2026-05-02T09:09:03.256Z</time></trkpt><trkpt lat="43.85886" lon="7.9311983"><ele>323.0</ele><time>2026-05-02T09:09:06.257Z</time></trkpt><trkpt lat="43.8588317" lon="7.9313017"><ele>322.0</ele><time>2026-05-02T09:09:09.257Z</time></trkpt><trkpt lat="43.85882" lon="7.9314083"><ele>322.0</ele><time>2026-05-02T09:09:11.256Z</time></trkpt><trkpt lat="43.8588117" lon="7.9315117"><ele>322.0</ele><time>2026-05-02T09:09:13.256Z</time></trkpt><trkpt lat="43.8588017" lon="7.931625"><ele>322.0</ele><time>2026-05-02T09:09:15.257Z</time></trkpt><trkpt lat="43.85878" lon="7.931765"><ele>322.0</ele><time>2026-05-02T09:09:17.256Z</time></trkpt><trkpt lat="43.8587483" lon="7.9319"><ele>322.0</ele><time>2026-05-02T09:09:19.256Z</time></trkpt><trkpt lat="43.8586983" lon="7.9320233"><ele>321.20000000000005</ele><time>2026-05-02T09:09:21.256Z</time></trkpt><trkpt lat="43.8586817" lon="7.9321317"><ele>320.40000000000003</ele><time>2026-05-02T09:09:23.256Z</time></trkpt><trkpt lat="43.8586583" lon="7.9322533"><ele>319.6</ele><time>2026-05-02T09:09:25.256Z</time></trkpt><trkpt lat="43.8586167" lon="7.9323933"><ele>318.8</ele><time>2026-05-02T09:09:27.256Z</time></trkpt><trkpt lat="43.8585567" lon="7.9324967"><ele>318.0</ele><time>2026-05-02T09:09:29.256Z</time></trkpt><trkpt lat="43.85849" lon="7.9325517"><ele>316.6666666666667</ele><time>2026-05-02T09:09:31.256Z</time></trkpt><trkpt lat="43.8583983" lon="7.932585"><ele>315.3333333333333</ele><time>2026-05-02T09:09:33.256Z</time></trkpt><trkpt lat="43.8583133" lon="7.9326133"><ele>314.0</ele><time>2026-05-02T09:09:35.256Z</time></trkpt><trkpt lat="43.8582317" lon="7.9326167"><ele>312.66666666666663</ele><time>2026-05-02T09:09:37.256Z</time></trkpt><trkpt lat="43.8581583" lon="7.932605"><ele>311.3333333333333</ele><time>2026-05-02T09:09:39.256Z</time></trkpt><trkpt lat="43.8581033" lon="7.9325483"><ele>310.0</ele><time>2026-05-02T09:09:47.256Z</time></trkpt><trkpt lat="43.8580317" lon="7.9324817"><ele>312.2857142857143</ele><time>2026-05-02T09:09:50.256Z</time></trkpt><trkpt lat="43.8579767" lon="7.932435"><ele>314.57142857142856</ele><time>2026-05-02T09:09:52.256Z</time></trkpt><trkpt lat="43.8579233" lon="7.9323733"><ele>316.8571428571429</ele><time>2026-05-02T09:09:54.256Z</time></trkpt><trkpt lat="43.85786" lon="7.93231"><ele>319.1428571428571</ele><time>2026-05-02T09:09:56.256Z</time></trkpt><trkpt lat="43.8577917" lon="7.9322467"><ele>321.4285714285714</ele><time>2026-05-02T09:09:58.256Z</time></trkpt><trkpt lat="43.8577283" lon="7.9322"><ele>323.7142857142857</ele><time>2026-05-02T09:10:00.256Z</time></trkpt><trkpt lat="43.857655" lon="7.9321833"><ele>326.0</ele><time>2026-05-02T09:10:02.256Z</time></trkpt><trkpt lat="43.85757" lon="7.9321817"><ele>326.0</ele><time>2026-05-02T09:10:04.256Z</time></trkpt><trkpt lat="43.857485" lon="7.9322033"><ele>326.0</ele><time>2026-05-02T09:10:06.256Z</time></trkpt><trkpt lat="43.857395" lon="7.9322233"><ele>326.0</ele><time>2026-05-02T09:10:08.256Z</time></trkpt><trkpt lat="43.8573017" lon="7.932245"><ele>326.0</ele><time>2026-05-02T09:10:10.257Z</time></trkpt><trkpt lat="43.8572067" lon="7.9322567"><ele>326.0</ele><time>2026-05-02T09:10:12.256Z</time></trkpt><trkpt lat="43.8571167" lon="7.93226"><ele>326.0</ele><time>2026-05-02T09:10:14.256Z</time></trkpt><trkpt lat="43.8570383" lon="7.9322617"><ele>326.0</ele><time>2026-05-02T09:10:16.256Z</time></trkpt><trkpt lat="43.856965" lon="7.932265"><ele>326.0</ele><time>2026-05-02T09:10:18.256Z</time></trkpt><trkpt lat="43.8568833" lon="7.932265"><ele>326.0</ele><time>2026-05-02T09:10:20.256Z</time></trkpt><trkpt lat="43.8568033" lon="7.9322667"><ele>326.0</ele><time>2026-05-02T09:10:22.256Z</time></trkpt><trkpt lat="43.85673" lon="7.9323"><ele>326.0</ele><time>2026-05-02T09:10:24.257Z</time></trkpt><trkpt lat="43.8566683" lon="7.9323433"><ele>327.0</ele><time>2026-05-02T09:10:26.256Z</time></trkpt><trkpt lat="43.8566083" lon="7.9323767"><ele>328.0</ele><time>2026-05-02T09:10:28.257Z</time></trkpt><trkpt lat="43.856525" lon="7.9323833"><ele>329.0</ele><time>2026-05-02T09:10:31.256Z</time></trkpt><trkpt lat="43.8564983" lon="7.9323"><ele>330.0</ele><time>2026-05-02T09:10:36.257Z</time></trkpt><trkpt lat="43.85647" lon="7.9322"><ele>331.0</ele><time>2026-05-02T09:10:39.256Z</time></trkpt><trkpt lat="43.85644" lon="7.9320767"><ele>332.0</ele><time>2026-05-02T09:10:42.257Z</time></trkpt><trkpt lat="43.85642" lon="7.9319467"><ele>332.0</ele><time>2026-05-02T09:10:45.256Z</time></trkpt><trkpt lat="43.85641" lon="7.93185"><ele>332.0</ele><time>2026-05-02T09:10:47.256Z</time></trkpt><trkpt lat="43.85639" lon="7.9317633"><ele>332.0</ele><time>2026-05-02T09:10:49.256Z</time></trkpt><trkpt lat="43.85635" lon="7.9316717"><ele>332.0</ele><time>2026-05-02T09:10:51.256Z</time></trkpt><trkpt lat="43.856315" lon="7.9315683"><ele>332.0</ele><time>2026-05-02T09:10:53.256Z</time></trkpt><trkpt lat="43.8562717" lon="7.93148"><ele>332.0</ele><time>2026-05-02T09:10:55.256Z</time></trkpt><trkpt lat="43.8562217" lon="7.9313967"><ele>331.1666666666667</ele><time>2026-05-02T09:10:57.256Z</time></trkpt><trkpt lat="43.856155" lon="7.9313533"><ele>330.33333333333337</ele><time>2026-05-02T09:10:59.257Z</time></trkpt><trkpt lat="43.8560817" lon="7.931315"><ele>329.5</ele><time>2026-05-02T09:11:01.256Z</time></trkpt><trkpt lat="43.8560083" lon="7.9312483"><ele>328.6666666666667</ele><time>2026-05-02T09:11:03.256Z</time></trkpt><trkpt lat="43.8559483" lon="7.931145"><ele>327.8333333333333</ele><time>2026-05-02T09:11:05.257Z</time></trkpt><trkpt lat="43.8559" lon="7.9310433"><ele>327.0</ele><time>2026-05-02T09:11:07.256Z</time></trkpt><trkpt lat="43.8558417" lon="7.930925"><ele>328.3333333333333</ele><time>2026-05-02T09:11:09.256Z</time></trkpt><trkpt lat="43.85579" lon="7.9308083"><ele>329.6666666666667</ele><time>2026-05-02T09:11:11.256Z</time></trkpt><trkpt lat="43.8557433" lon="7.9306983"><ele>331.0</ele><time>2026-05-02T09:11:13.256Z</time></trkpt><trkpt lat="43.855695" lon="7.9305917"><ele>332.33333333333337</ele><time>2026-05-02T09:11:15.256Z</time></trkpt><trkpt lat="43.8556483" lon="7.9304967"><ele>333.6666666666667</ele><time>2026-05-02T09:11:17.256Z</time></trkpt><trkpt lat="43.8556233" lon="7.9303883"><ele>335.0</ele><time>2026-05-02T09:11:19.256Z</time></trkpt><trkpt lat="43.8556133" lon="7.930265"><ele>335.0</ele><time>2026-05-02T09:11:21.256Z</time></trkpt><trkpt lat="43.8556033" lon="7.93013"><ele>335.0</ele><time>2026-05-02T09:11:23.256Z</time></trkpt><trkpt lat="43.85558" lon="7.9300033"><ele>335.0</ele><time>2026-05-02T09:11:25.256Z</time></trkpt><trkpt lat="43.8555367" lon="7.9298983"><ele>335.0</ele><time>2026-05-02T09:11:27.256Z</time></trkpt><trkpt lat="43.8554617" lon="7.9298233"><ele>335.0</ele><time>2026-05-02T09:11:29.256Z</time></trkpt><trkpt lat="43.8553883" lon="7.9298033"><ele>335.0</ele><time>2026-05-02T09:11:31.256Z</time></trkpt><trkpt lat="43.8553267" lon="7.929775"><ele>336.6666666666667</ele><time>2026-05-02T09:11:34.256Z</time></trkpt><trkpt lat="43.8553283" lon="7.92967"><ele>338.33333333333337</ele><time>2026-05-02T09:11:38.256Z</time></trkpt><trkpt lat="43.8553817" lon="7.9295767"><ele>340.0</ele><time>2026-05-02T09:11:41.256Z</time></trkpt><trkpt lat="43.8554133" lon="7.9295"><ele>341.6666666666667</ele><time>2026-05-02T09:11:43.256Z</time></trkpt><trkpt lat="43.8554433" lon="7.9293983"><ele>343.3333333333333</ele><time>2026-05-02T09:11:46.256Z</time></trkpt><trkpt lat="43.8554833" lon="7.9292917"><ele>345.0</ele><time>2026-05-02T09:11:49.256Z</time></trkpt><trkpt lat="43.8555017" lon="7.9291917"><ele>345.57142857142856</ele><time>2026-05-02T09:11:52.257Z</time></trkpt><trkpt lat="43.8554883" lon="7.9290817"><ele>346.1428571428571</ele><time>2026-05-02T09:11:56.256Z</time></trkpt><trkpt lat="43.8554733" lon="7.9289817"><ele>346.71428571428567</ele><time>2026-05-02T09:11:59.256Z</time></trkpt><trkpt lat="43.8554717" lon="7.9288833"><ele>347.2857142857143</ele><time>2026-05-02T09:12:02.256Z</time></trkpt><trkpt lat="43.85545" lon="7.9287983"><ele>347.85714285714283</ele><time>2026-05-02T09:12:05.256Z</time></trkpt><trkpt lat="43.8554233" lon="7.9287183"><ele>348.4285714285714</ele><time>2026-05-02T09:12:08.256Z</time></trkpt><trkpt lat="43.8554067" lon="7.9286067"><ele>349.0</ele><time>2026-05-02T09:12:12.256Z</time></trkpt><trkpt lat="43.8553783" lon="7.9285133"><ele>349.0</ele><time>2026-05-02T09:12:15.256Z</time></trkpt><trkpt lat="43.8553967" lon="7.92842"><ele>349.0</ele><time>2026-05-02T09:12:18.257Z</time></trkpt><trkpt lat="43.855455" lon="7.92838"><ele>349.0</ele><time>2026-05-02T09:12:20.256Z</time></trkpt><trkpt lat="43.8555217" lon="7.9283417"><ele>349.0</ele><time>2026-05-02T09:12:23.257Z</time></trkpt><trkpt lat="43.85551" lon="7.928245"><ele>349.0</ele><time>2026-05-02T09:12:26.257Z</time></trkpt><trkpt lat="43.8553967" lon="7.9282183"><ele>349.0</ele><time>2026-05-02T09:12:28.256Z</time></trkpt><trkpt lat="43.85533" lon="7.9282083"><ele>348.16666666666663</ele><time>2026-05-02T09:12:29.256Z</time></trkpt><trkpt lat="43.8552667" lon="7.9282"><ele>347.3333333333333</ele><time>2026-05-02T09:12:30.256Z</time></trkpt><trkpt lat="43.855135" lon="7.9281717"><ele>346.5</ele><time>2026-05-02T09:12:32.256Z</time></trkpt><trkpt lat="43.8550533" lon="7.928175"><ele>345.6666666666667</ele><time>2026-05-02T09:12:33.256Z</time></trkpt><trkpt lat="43.8549833" lon="7.9281717"><ele>344.83333333333337</ele><time>2026-05-02T09:12:34.256Z</time></trkpt><trkpt lat="43.8549133" lon="7.9281717"><ele>344.0</ele><time>2026-05-02T09:12:35.256Z</time></trkpt><trkpt lat="43.85481" lon="7.9281833"><ele>340.83333333333337</ele><time>2026-05-02T09:12:37.256Z</time></trkpt><trkpt lat="43.8547517" lon="7.928245"><ele>337.6666666666667</ele><time>2026-05-02T09:12:39.256Z</time></trkpt><trkpt lat="43.854735" lon="7.92841"><ele>334.5</ele><time>2026-05-02T09:12:41.256Z</time></trkpt><trkpt lat="43.8547317" lon="7.928505"><ele>331.3333333333333</ele><time>2026-05-02T09:12:42.256Z</time></trkpt><trkpt lat="43.8547217" lon="7.9286183"><ele>328.16666666666663</ele><time>2026-05-02T09:12:43.257Z</time></trkpt><trkpt lat="43.8547083" lon="7.9287433"><ele>325.0</ele><time>2026-05-02T09:12:44.257Z</time></trkpt><trkpt lat="43.8546883" lon="7.9288583"><ele>325.0</ele><time>2026-05-02T09:12:45.256Z</time></trkpt><trkpt lat="43.854685" lon="7.92897"><ele>325.0</ele><time>2026-05-02T09:12:46.256Z</time></trkpt><trkpt lat="43.8546917" lon="7.929065"><ele>325.0</ele><time>2026-05-02T09:12:47.256Z</time></trkpt><trkpt lat="43.85469" lon="7.9292117"><ele>325.0</ele><time>2026-05-02T09:12:49.256Z</time></trkpt><trkpt lat="43.85468" lon="7.9292983"><ele>325.0</ele><time>2026-05-02T09:12:51.256Z</time></trkpt><trkpt lat="43.8545933" lon="7.92925"><ele>325.0</ele><time>2026-05-02T09:12:56.256Z</time></trkpt><trkpt lat="43.85456" lon="7.9291733"><ele>325.0</ele><time>2026-05-02T09:12:57.256Z</time></trkpt><trkpt lat="43.854525" lon="7.9290833"><ele>325.0</ele><time>2026-05-02T09:12:58.256Z</time></trkpt><trkpt lat="43.854485" lon="7.928985"><ele>325.0</ele><time>2026-05-02T09:12:59.256Z</time></trkpt><trkpt lat="43.8544483" lon="7.9288867"><ele>325.0</ele><time>2026-05-02T09:13:00.256Z</time></trkpt><trkpt lat="43.8544067" lon="7.9287817"><ele>325.0</ele><time>2026-05-02T09:13:01.256Z</time></trkpt><trkpt lat="43.8543617" lon="7.92868"><ele>325.0</ele><time>2026-05-02T09:13:02.256Z</time></trkpt><trkpt lat="43.854275" lon="7.9285333"><ele>321.5</ele><time>2026-05-02T09:13:04.257Z</time></trkpt><trkpt lat="43.85419" lon="7.9284933"><ele>318.0</ele><time>2026-05-02T09:13:06.256Z</time></trkpt><trkpt lat="43.8541383" lon="7.9285967"><ele>314.5</ele><time>2026-05-02T09:13:08.257Z</time></trkpt><trkpt lat="43.8541467" lon="7.92876"><ele>311.0</ele><time>2026-05-02T09:13:10.256Z</time></trkpt><trkpt lat="43.85416" lon="7.9288517"><ele>307.5</ele><time>2026-05-02T09:13:11.256Z</time></trkpt><trkpt lat="43.8541583" lon="7.9289417"><ele>304.0</ele><time>2026-05-02T09:13:12.256Z</time></trkpt><trkpt lat="43.854145" lon="7.9290333"><ele>304.0</ele><time>2026-05-02T09:13:13.256Z</time></trkpt><trkpt lat="43.8541183" lon="7.9291383"><ele>304.0</ele><time>2026-05-02T09:13:14.256Z</time></trkpt><trkpt lat="43.8540867" lon="7.929235"><ele>304.0</ele><time>2026-05-02T09:13:15.256Z</time></trkpt><trkpt lat="43.8540533" lon="7.92932"><ele>304.0</ele><time>2026-05-02T09:13:16.256Z</time></trkpt><trkpt lat="43.8540233" lon="7.9293983"><ele>304.0</ele><time>2026-05-02T09:13:17.256Z</time></trkpt><trkpt lat="43.8539733" lon="7.92952"><ele>304.0</ele><time>2026-05-02T09:13:19.256Z</time></trkpt><trkpt lat="43.8539617" lon="7.9296283"><ele>303.3333333333333</ele><time>2026-05-02T09:13:21.256Z</time></trkpt><trkpt lat="43.8539867" lon="7.92976"><ele>302.66666666666663</ele><time>2026-05-02T09:13:24.256Z</time></trkpt><trkpt lat="43.8540067" lon="7.9298683"><ele>302.0</ele><time>2026-05-02T09:13:26.257Z</time></trkpt><trkpt lat="43.85403" lon="7.9299617"><ele>301.3333333333333</ele><time>2026-05-02T09:13:28.257Z</time></trkpt><trkpt lat="43.8540517" lon="7.9300633"><ele>300.6666666666667</ele><time>2026-05-02T09:13:30.256Z</time></trkpt><trkpt lat="43.8540767" lon="7.9301783"><ele>300.0</ele><time>2026-05-02T09:13:32.256Z</time></trkpt><trkpt lat="43.8541033" lon="7.930285"><ele>299.0</ele><time>2026-05-02T09:13:34.257Z</time></trkpt><trkpt lat="43.8541267" lon="7.9303767"><ele>298.0</ele><time>2026-05-02T09:13:36.256Z</time></trkpt><trkpt lat="43.854155" lon="7.9304667"><ele>297.0</ele><time>2026-05-02T09:13:38.256Z</time></trkpt><trkpt lat="43.8541633" lon="7.9305717"><ele>296.0</ele><time>2026-05-02T09:13:40.256Z</time></trkpt><trkpt lat="43.854135" lon="7.9306733"><ele>295.0</ele><time>2026-05-02T09:13:42.256Z</time></trkpt><trkpt lat="43.8541017" lon="7.930805"><ele>294.0</ele><time>2026-05-02T09:13:44.256Z</time></trkpt><trkpt lat="43.8540567" lon="7.9309533"><ele>291.8</ele><time>2026-05-02T09:13:46.257Z</time></trkpt><trkpt lat="43.8539917" lon="7.9310983"><ele>289.59999999999997</ele><time>2026-05-02T09:13:48.256Z</time></trkpt><trkpt lat="43.8539067" lon="7.931215"><ele>287.4</ele><time>2026-05-02T09:13:50.256Z</time></trkpt><trkpt lat="43.85385" lon="7.93126"><ele>285.2</ele><time>2026-05-02T09:13:51.256Z</time></trkpt><trkpt lat="43.85379" lon="7.9312967"><ele>283.0</ele><time>2026-05-02T09:13:52.256Z</time></trkpt><trkpt lat="43.8536667" lon="7.9313367"><ele>283.0</ele><time>2026-05-02T09:13:54.256Z</time></trkpt><trkpt lat="43.8536017" lon="7.9313517"><ele>283.0</ele><time>2026-05-02T09:13:55.256Z</time></trkpt><trkpt lat="43.8535367" lon="7.9313583"><ele>283.0</ele><time>2026-05-02T09:13:56.256Z</time></trkpt><trkpt lat="43.8534367" lon="7.9313583"><ele>283.0</ele><time>2026-05-02T09:13:58.256Z</time></trkpt><trkpt lat="43.8533617" lon="7.9313567"><ele>283.0</ele><time>2026-05-02T09:14:00.256Z</time></trkpt><trkpt lat="43.8532917" lon="7.9313567"><ele>283.0</ele><time>2026-05-02T09:14:03.256Z</time></trkpt><trkpt lat="43.85321" lon="7.931325"><ele>281.8</ele><time>2026-05-02T09:14:06.256Z</time></trkpt><trkpt lat="43.8531583" lon="7.93121"><ele>280.6</ele><time>2026-05-02T09:14:09.256Z</time></trkpt><trkpt lat="43.8531717" lon="7.93108"><ele>279.4</ele><time>2026-05-02T09:14:11.256Z</time></trkpt><trkpt lat="43.8531917" lon="7.9309333"><ele>278.2</ele><time>2026-05-02T09:14:13.256Z</time></trkpt><trkpt lat="43.8531883" lon="7.93078"><ele>277.0</ele><time>2026-05-02T09:14:15.256Z</time></trkpt><trkpt lat="43.8531683" lon="7.9306167"><ele>277.0</ele><time>2026-05-02T09:14:17.257Z</time></trkpt><trkpt lat="43.85315" lon="7.9304883"><ele>277.0</ele><time>2026-05-02T09:14:19.256Z</time></trkpt><trkpt lat="43.8531333" lon="7.9304"><ele>277.0</ele><time>2026-05-02T09:14:22.256Z</time></trkpt><trkpt lat="43.8530917" lon="7.9305033"><ele>277.0</ele><time>2026-05-02T09:14:26.256Z</time></trkpt><trkpt lat="43.8530933" lon="7.9305933"><ele>277.0</ele><time>2026-05-02T09:14:28.256Z</time></trkpt><trkpt lat="43.8531117" lon="7.9307167"><ele>277.0</ele><time>2026-05-02T09:14:31.256Z</time></trkpt><trkpt lat="43.8531217" lon="7.9308383"><ele>276.66666666666663</ele><time>2026-05-02T09:14:34.256Z</time></trkpt><trkpt lat="43.8531033" lon="7.9309517"><ele>276.3333333333333</ele><time>2026-05-02T09:14:37.256Z</time></trkpt><trkpt lat="43.8530983" lon="7.9310783"><ele>276.0</ele><time>2026-05-02T09:14:40.256Z</time></trkpt><trkpt lat="43.8531117" lon="7.93117"><ele>275.6666666666667</ele><time>2026-05-02T09:14:42.256Z</time></trkpt><trkpt lat="43.8531533" lon="7.931275"><ele>275.33333333333337</ele><time>2026-05-02T09:14:45.256Z</time></trkpt><trkpt lat="43.8532267" lon="7.9313233"><ele>275.0</ele><time>2026-05-02T09:14:48.256Z</time></trkpt><trkpt lat="43.8532517" lon="7.9314083"><ele>275.0</ele><time>2026-05-02T09:14:52.256Z</time></trkpt><trkpt lat="43.8531833" lon="7.9313867"><ele>275.0</ele><time>2026-05-02T09:14:56.256Z</time></trkpt><trkpt lat="43.853125" lon="7.93135"><ele>275.0</ele><time>2026-05-02T09:14:58.256Z</time></trkpt><trkpt lat="43.8530633" lon="7.93132"><ele>275.0</ele><time>2026-05-02T09:15:00.256Z</time></trkpt><trkpt lat="43.852995" lon="7.9313067"><ele>275.0</ele><time>2026-05-02T09:15:02.256Z</time></trkpt><trkpt lat="43.8529217" lon="7.9312917"><ele>275.0</ele><time>2026-05-02T09:15:04.256Z</time></trkpt><trkpt lat="43.8528483" lon="7.9312583"><ele>275.0</ele><time>2026-05-02T09:15:06.256Z</time></trkpt><trkpt lat="43.852775" lon="7.93122"><ele>275.0</ele><time>2026-05-02T09:15:08.256Z</time></trkpt><trkpt lat="43.852705" lon="7.9311717"><ele>275.0</ele><time>2026-05-02T09:15:11.256Z</time></trkpt><trkpt lat="43.852675" lon="7.9312567"><ele>275.0</ele><time>2026-05-02T09:15:15.256Z</time></trkpt><trkpt lat="43.852655" lon="7.9313667"><ele>275.0</ele><time>2026-05-02T09:15:18.257Z</time></trkpt><trkpt lat="43.852625" lon="7.9314717"><ele>275.0</ele><time>2026-05-02T09:15:21.256Z</time></trkpt><trkpt lat="43.85258" lon="7.9315383"><ele>275.0</ele><time>2026-05-02T09:15:23.256Z</time></trkpt><trkpt lat="43.8525433" lon="7.9316283"><ele>272.57142857142856</ele><time>2026-05-02T09:15:27.256Z</time></trkpt><trkpt lat="43.8525483" lon="7.9317167"><ele>270.1428571428571</ele><time>2026-05-02T09:15:32.256Z</time></trkpt><trkpt lat="43.8524867" lon="7.93168"><ele>267.71428571428567</ele><time>2026-05-02T09:15:36.257Z</time></trkpt><trkpt lat="43.8524283" lon="7.931645"><ele>265.2857142857143</ele><time>2026-05-02T09:15:38.256Z</time></trkpt><trkpt lat="43.85236" lon="7.9315983"><ele>262.85714285714283</ele><time>2026-05-02T09:15:40.256Z</time></trkpt><trkpt lat="43.8523083" lon="7.931545"><ele>260.4285714285714</ele><time>2026-05-02T09:15:42.256Z</time></trkpt><trkpt lat="43.85224" lon="7.9315"><ele>258.0</ele><time>2026-05-02T09:15:45.256Z</time></trkpt><trkpt lat="43.8521833" lon="7.93146"><ele>258.0</ele><time>2026-05-02T09:15:48.256Z</time></trkpt><trkpt lat="43.8521467" lon="7.9313767"><ele>258.0</ele><time>2026-05-02T09:15:51.256Z</time></trkpt><trkpt lat="43.85213" lon="7.931285"><ele>258.0</ele><time>2026-05-02T09:15:53.256Z</time></trkpt><trkpt lat="43.8520867" lon="7.9311633"><ele>258.0</ele><time>2026-05-02T09:15:55.256Z</time></trkpt><trkpt lat="43.85208" lon="7.9310583"><ele>258.0</ele><time>2026-05-02T09:15:56.256Z</time></trkpt><trkpt lat="43.8520717" lon="7.930965"><ele>258.0</ele><time>2026-05-02T09:15:57.257Z</time></trkpt><trkpt lat="43.8520667" lon="7.930825"><ele>258.3333333333333</ele><time>2026-05-02T09:15:59.256Z</time></trkpt><trkpt lat="43.85203" lon="7.930705"><ele>258.6666666666667</ele><time>2026-05-02T09:16:01.257Z</time></trkpt><trkpt lat="43.8519783" lon="7.9306233"><ele>259.0</ele><time>2026-05-02T09:16:03.256Z</time></trkpt><trkpt lat="43.8519683" lon="7.9305317"><ele>259.33333333333337</ele><time>2026-05-02T09:16:05.256Z</time></trkpt><trkpt lat="43.85191" lon="7.9304817"><ele>259.6666666666667</ele><time>2026-05-02T09:16:08.257Z</time></trkpt><trkpt lat="43.851845" lon="7.9305183"><ele>260.0</ele><time>2026-05-02T09:16:11.257Z</time></trkpt><trkpt lat="43.851775" lon="7.9305583"><ele>257.5</ele><time>2026-05-02T09:16:13.257Z</time></trkpt><trkpt lat="43.8517133" lon="7.9306"><ele>255.0</ele><time>2026-05-02T09:16:16.256Z</time></trkpt><trkpt lat="43.8516633" lon="7.93068"><ele>252.5</ele><time>2026-05-02T09:16:19.256Z</time></trkpt><trkpt lat="43.8515933" lon="7.930735"><ele>250.0</ele><time>2026-05-02T09:16:22.256Z</time></trkpt><trkpt lat="43.8515567" lon="7.93082"><ele>247.50000000000003</ele><time>2026-05-02T09:16:31.256Z</time></trkpt><trkpt lat="43.851595" lon="7.9309333"><ele>245.0</ele><time>2026-05-02T09:17:22.256Z</time></trkpt><trkpt lat="43.8515383" lon="7.930885"><ele>245.00000000000003</ele><time>2026-05-02T09:17:33.256Z</time></trkpt><trkpt lat="43.851445" lon="7.9307867"><ele>245.0</ele><time>2026-05-02T09:17:37.256Z</time></trkpt><trkpt lat="43.8513967" lon="7.9307267"><ele>245.0</ele><time>2026-05-02T09:17:39.256Z</time></trkpt><trkpt lat="43.8513567" lon="7.9306517"><ele>245.0</ele><time>2026-05-02T09:17:42.256Z</time></trkpt><trkpt lat="43.851335" lon="7.9307567"><ele>245.00000000000003</ele><time>2026-05-02T09:17:51.256Z</time></trkpt><trkpt lat="43.8513317" lon="7.9309083"><ele>245.0</ele><time>2026-05-02T09:21:21.256Z</time></trkpt><trkpt lat="43.8513883" lon="7.9309567"><ele>244.71428571428572</ele><time>2026-05-02T09:21:28.256Z</time></trkpt><trkpt lat="43.851455" lon="7.9309683"><ele>244.42857142857144</ele><time>2026-05-02T09:21:35.256Z</time></trkpt><trkpt lat="43.851515" lon="7.9310667"><ele>244.14285714285714</ele><time>2026-05-02T09:26:43.256Z</time></trkpt><trkpt lat="43.851525" lon="7.9311533"><ele>243.85714285714286</ele><time>2026-05-02T09:26:45.256Z</time></trkpt><trkpt lat="43.851525" lon="7.9312467"><ele>243.57142857142858</ele><time>2026-05-02T09:26:47.256Z</time></trkpt><trkpt lat="43.85153" lon="7.9313383"><ele>243.28571428571428</ele><time>2026-05-02T09:26:49.256Z</time></trkpt><trkpt lat="43.8515333" lon="7.931445"><ele>243.0</ele><time>2026-05-02T09:26:51.256Z</time></trkpt><trkpt lat="43.851555" lon="7.9315533"><ele>243.0</ele><time>2026-05-02T09:26:53.256Z</time></trkpt><trkpt lat="43.8515683" lon="7.93166"><ele>243.0</ele><time>2026-05-02T09:26:55.256Z</time></trkpt><trkpt lat="43.8516083" lon="7.9317533"><ele>243.0</ele><time>2026-05-02T09:26:57.256Z</time></trkpt><trkpt lat="43.85168" lon="7.9318433"><ele>243.0</ele><time>2026-05-02T09:26:59.257Z</time></trkpt><trkpt lat="43.851765" lon="7.9319183"><ele>243.0</ele><time>2026-05-02T09:27:01.256Z</time></trkpt><trkpt lat="43.8518567" lon="7.93199"><ele>242.2</ele><time>2026-05-02T09:27:03.256Z</time></trkpt><trkpt lat="43.8519483" lon="7.9320867"><ele>241.4</ele><time>2026-05-02T09:27:05.256Z</time></trkpt><trkpt lat="43.8520467" lon="7.9321833"><ele>240.59999999999997</ele><time>2026-05-02T09:27:07.256Z</time></trkpt><trkpt lat="43.8520967" lon="7.9322367"><ele>239.79999999999998</ele><time>2026-05-02T09:27:08.256Z</time></trkpt><trkpt lat="43.852145" lon="7.9322933"><ele>239.0</ele><time>2026-05-02T09:27:09.256Z</time></trkpt><trkpt lat="43.8522267" lon="7.9324067"><ele>239.0</ele><time>2026-05-02T09:27:11.256Z</time></trkpt><trkpt lat="43.8522917" lon="7.9324983"><ele>238.99999999999997</ele><time>2026-05-02T09:27:13.257Z</time></trkpt><trkpt lat="43.852355" lon="7.9325917"><ele>238.99999999999997</ele><time>2026-05-02T09:27:15.257Z</time></trkpt><trkpt lat="43.8524217" lon="7.9327"><ele>239.0</ele><time>2026-05-02T09:27:17.256Z</time></trkpt><trkpt lat="43.852495" lon="7.9328"><ele>239.0</ele><time>2026-05-02T09:27:19.256Z</time></trkpt><trkpt lat="43.852565" lon="7.9329167"><ele>240.6</ele><time>2026-05-02T09:27:21.256Z</time></trkpt><trkpt lat="43.8526283" lon="7.9330333"><ele>242.2</ele><time>2026-05-02T09:27:23.256Z</time></trkpt><trkpt lat="43.8526733" lon="7.933165"><ele>243.79999999999998</ele><time>2026-05-02T09:27:25.256Z</time></trkpt><trkpt lat="43.8527117" lon="7.93331"><ele>245.39999999999998</ele><time>2026-05-02T09:27:27.256Z</time></trkpt><trkpt lat="43.85273" lon="7.9334533"><ele>247.0</ele><time>2026-05-02T09:27:29.257Z</time></trkpt><trkpt lat="43.8527483" lon="7.9336133"><ele>247.0</ele><time>2026-05-02T09:27:31.256Z</time></trkpt><trkpt lat="43.852755" lon="7.9337617"><ele>247.0</ele><time>2026-05-02T09:27:33.257Z</time></trkpt><trkpt lat="43.85274" lon="7.933915"><ele>247.0</ele><time>2026-05-02T09:27:35.257Z</time></trkpt><trkpt lat="43.8527133" lon="7.934085"><ele>247.0</ele><time>2026-05-02T09:27:37.257Z</time></trkpt><trkpt lat="43.85269" lon="7.9341683"><ele>247.0</ele><time>2026-05-02T09:27:38.257Z</time></trkpt><trkpt lat="43.852665" lon="7.93426"><ele>247.99999999999997</ele><time>2026-05-02T09:27:39.256Z</time></trkpt><trkpt lat="43.8526283" lon="7.93434"><ele>249.0</ele><time>2026-05-02T09:27:40.256Z</time></trkpt><trkpt lat="43.8525883" lon="7.9344133"><ele>250.0</ele><time>2026-05-02T09:27:41.256Z</time></trkpt><trkpt lat="43.85255" lon="7.9344933"><ele>251.0</ele><time>2026-05-02T09:27:42.256Z</time></trkpt><trkpt lat="43.8524717" lon="7.9346283"><ele>251.99999999999997</ele><time>2026-05-02T09:27:44.256Z</time></trkpt><trkpt lat="43.8524317" lon="7.9347"><ele>253.0</ele><time>2026-05-02T09:27:45.256Z</time></trkpt><trkpt lat="43.8523683" lon="7.9348517"><ele>250.0</ele><time>2026-05-02T09:27:47.256Z</time></trkpt><trkpt lat="43.8523167" lon="7.93501"><ele>247.0</ele><time>2026-05-02T09:27:49.257Z</time></trkpt><trkpt lat="43.8522633" lon="7.935155"><ele>244.0</ele><time>2026-05-02T09:27:51.256Z</time></trkpt><trkpt lat="43.8522367" lon="7.935235"><ele>241.0</ele><time>2026-05-02T09:27:52.256Z</time></trkpt><trkpt lat="43.8521817" lon="7.9353733"><ele>238.0</ele><time>2026-05-02T09:27:54.256Z</time></trkpt><trkpt lat="43.8521417" lon="7.9355083"><ele>238.0</ele><time>2026-05-02T09:27:56.256Z</time></trkpt><trkpt lat="43.8520933" lon="7.9356667"><ele>238.0</ele><time>2026-05-02T09:27:58.256Z</time></trkpt><trkpt lat="43.85205" lon="7.935825"><ele>238.0</ele><time>2026-05-02T09:28:00.256Z</time></trkpt><trkpt lat="43.852" lon="7.9359767"><ele>238.0</ele><time>2026-05-02T09:28:02.256Z</time></trkpt><trkpt lat="43.8519483" lon="7.9360983"><ele>237.5</ele><time>2026-05-02T09:28:04.256Z</time></trkpt><trkpt lat="43.8519017" lon="7.936225"><ele>237.0</ele><time>2026-05-02T09:28:06.256Z</time></trkpt><trkpt lat="43.8518717" lon="7.9363817"><ele>236.5</ele><time>2026-05-02T09:28:08.256Z</time></trkpt><trkpt lat="43.851865" lon="7.9365467"><ele>236.0</ele><time>2026-05-02T09:28:10.256Z</time></trkpt><trkpt lat="43.8518767" lon="7.936705"><ele>233.4</ele><time>2026-05-02T09:28:12.256Z</time></trkpt><trkpt lat="43.8519" lon="7.936865"><ele>230.8</ele><time>2026-05-02T09:28:14.256Z</time></trkpt><trkpt lat="43.8519317" lon="7.9370083"><ele>228.20000000000002</ele><time>2026-05-02T09:28:16.256Z</time></trkpt><trkpt lat="43.8519717" lon="7.93709"><ele>225.60000000000002</ele><time>2026-05-02T09:28:17.257Z</time></trkpt><trkpt lat="43.8520483" lon="7.93721"><ele>223.0</ele><time>2026-05-02T09:28:19.256Z</time></trkpt><trkpt lat="43.8521133" lon="7.937275"><ele>223.0</ele><time>2026-05-02T09:28:20.256Z</time></trkpt><trkpt lat="43.8521683" lon="7.9373233"><ele>223.0</ele><time>2026-05-02T09:28:21.256Z</time></trkpt><trkpt lat="43.8522683" lon="7.9374017"><ele>223.0</ele><time>2026-05-02T09:28:23.256Z</time></trkpt><trkpt lat="43.8523683" lon="7.93747"><ele>223.0</ele><time>2026-05-02T09:28:25.257Z</time></trkpt><trkpt lat="43.8524717" lon="7.9375283"><ele>223.0</ele><time>2026-05-02T09:28:27.256Z</time></trkpt><trkpt lat="43.85258" lon="7.9375767"><ele>222.5</ele><time>2026-05-02T09:28:29.257Z</time></trkpt><trkpt lat="43.85269" lon="7.9375917"><ele>222.0</ele><time>2026-05-02T09:28:31.256Z</time></trkpt><trkpt lat="43.8528" lon="7.9375733"><ele>221.5</ele><time>2026-05-02T09:28:33.256Z</time></trkpt><trkpt lat="43.8529167" lon="7.937545"><ele>221.0</ele><time>2026-05-02T09:28:35.256Z</time></trkpt><trkpt lat="43.8530333" lon="7.9375017"><ele>221.0</ele><time>2026-05-02T09:28:37.256Z</time></trkpt><trkpt lat="43.8531533" lon="7.93744"><ele>221.00000000000003</ele><time>2026-05-02T09:28:39.256Z</time></trkpt><trkpt lat="43.8532167" lon="7.9374117"><ele>221.00000000000003</ele><time>2026-05-02T09:28:40.256Z</time></trkpt><trkpt lat="43.8532817" lon="7.9373867"><ele>221.0</ele><time>2026-05-02T09:28:41.256Z</time></trkpt><trkpt lat="43.8534033" lon="7.937355"><ele>221.0</ele><time>2026-05-02T09:28:43.256Z</time></trkpt><trkpt lat="43.8534667" lon="7.9373233"><ele>222.0</ele><time>2026-05-02T09:28:44.256Z</time></trkpt><trkpt lat="43.8535283" lon="7.9372867"><ele>223.00000000000003</ele><time>2026-05-02T09:28:45.256Z</time></trkpt><trkpt lat="43.8535917" lon="7.937265"><ele>224.00000000000003</ele><time>2026-05-02T09:28:46.256Z</time></trkpt><trkpt lat="43.8536533" lon="7.937245"><ele>225.0</ele><time>2026-05-02T09:28:47.257Z</time></trkpt><trkpt lat="43.8537833" lon="7.9372283"><ele>226.0</ele><time>2026-05-02T09:28:49.256Z</time></trkpt><trkpt lat="43.8539033" lon="7.93727"><ele>226.0</ele><time>2026-05-02T09:28:51.256Z</time></trkpt><trkpt lat="43.8540133" lon="7.9373267"><ele>226.0</ele><time>2026-05-02T09:28:53.256Z</time></trkpt><trkpt lat="43.8540917" lon="7.9374533"><ele>226.0</ele><time>2026-05-02T09:28:55.257Z</time></trkpt><trkpt lat="43.854135" lon="7.9376133"><ele>226.0</ele><time>2026-05-02T09:28:57.256Z</time></trkpt><trkpt lat="43.85414" lon="7.9377817"><ele>225.75</ele><time>2026-05-02T09:28:59.256Z</time></trkpt><trkpt lat="43.854125" lon="7.9379133"><ele>225.5</ele><time>2026-05-02T09:29:01.257Z</time></trkpt><trkpt lat="43.8540917" lon="7.93807"><ele>225.25</ele><time>2026-05-02T09:29:03.256Z</time></trkpt><trkpt lat="43.8540383" lon="7.938215"><ele>225.0</ele><time>2026-05-02T09:29:05.256Z</time></trkpt><trkpt lat="43.8540017" lon="7.9383733"><ele>224.16666666666666</ele><time>2026-05-02T09:29:07.256Z</time></trkpt><trkpt lat="43.8540033" lon="7.9385533"><ele>223.33333333333331</ele><time>2026-05-02T09:29:09.257Z</time></trkpt><trkpt lat="43.854015" lon="7.938645"><ele>222.5</ele><time>2026-05-02T09:29:10.256Z</time></trkpt><trkpt lat="43.8540217" lon="7.9387333"><ele>221.66666666666666</ele><time>2026-05-02T09:29:11.256Z</time></trkpt><trkpt lat="43.85403" lon="7.9388217"><ele>220.83333333333331</ele><time>2026-05-02T09:29:12.256Z</time></trkpt><trkpt lat="43.8540483" lon="7.9389133"><ele>220.0</ele><time>2026-05-02T09:29:13.256Z</time></trkpt><trkpt lat="43.8540783" lon="7.9390767"><ele>220.0</ele><time>2026-05-02T09:29:15.256Z</time></trkpt><trkpt lat="43.8540983" lon="7.9391617"><ele>220.0</ele><time>2026-05-02T09:29:16.256Z</time></trkpt><trkpt lat="43.8541283" lon="7.9393183"><ele>220.0</ele><time>2026-05-02T09:29:18.256Z</time></trkpt><trkpt lat="43.85415" lon="7.9394717"><ele>220.0</ele><time>2026-05-02T09:29:20.256Z</time></trkpt><trkpt lat="43.8541583" lon="7.9396167"><ele>220.0</ele><time>2026-05-02T09:29:22.256Z</time></trkpt><trkpt lat="43.85417" lon="7.93977"><ele>218.75</ele><time>2026-05-02T09:29:24.256Z</time></trkpt><trkpt lat="43.8541833" lon="7.9399267"><ele>217.5</ele><time>2026-05-02T09:29:26.256Z</time></trkpt><trkpt lat="43.854215" lon="7.9400933"><ele>216.25</ele><time>2026-05-02T09:29:28.256Z</time></trkpt><trkpt lat="43.8542433" lon="7.940265"><ele>215.0</ele><time>2026-05-02T09:29:30.256Z</time></trkpt><trkpt lat="43.8542633" lon="7.9404283"><ele>214.4</ele><time>2026-05-02T09:29:32.256Z</time></trkpt><trkpt lat="43.8542633" lon="7.9405817"><ele>213.8</ele><time>2026-05-02T09:29:34.256Z</time></trkpt><trkpt lat="43.85427" lon="7.9407417"><ele>213.2</ele><time>2026-05-02T09:29:36.256Z</time></trkpt><trkpt lat="43.85428" lon="7.9409017"><ele>212.6</ele><time>2026-05-02T09:29:38.256Z</time></trkpt><trkpt lat="43.8542767" lon="7.94099"><ele>212.0</ele><time>2026-05-02T09:29:39.256Z</time></trkpt><trkpt lat="43.85426" lon="7.9411517"><ele>211.75</ele><time>2026-05-02T09:29:41.256Z</time></trkpt><trkpt lat="43.854245" lon="7.9413167"><ele>211.5</ele><time>2026-05-02T09:29:43.256Z</time></trkpt><trkpt lat="43.8542267" lon="7.9414683"><ele>211.25</ele><time>2026-05-02T09:29:45.256Z</time></trkpt><trkpt lat="43.8542133" lon="7.9416317"><ele>211.0</ele><time>2026-05-02T09:29:47.256Z</time></trkpt><trkpt lat="43.8542167" lon="7.9417967"><ele>210.4</ele><time>2026-05-02T09:29:49.256Z</time></trkpt><trkpt lat="43.8542317" lon="7.9419567"><ele>209.8</ele><time>2026-05-02T09:29:51.257Z</time></trkpt><trkpt lat="43.8542633" lon="7.9421067"><ele>209.20000000000002</ele><time>2026-05-02T09:29:53.256Z</time></trkpt><trkpt lat="43.8542917" lon="7.942245"><ele>208.60000000000002</ele><time>2026-05-02T09:29:55.256Z</time></trkpt><trkpt lat="43.8543283" lon="7.94238"><ele>208.0</ele><time>2026-05-02T09:29:57.256Z</time></trkpt><trkpt lat="43.8543667" lon="7.9425067"><ele>206.8</ele><time>2026-05-02T09:29:59.257Z</time></trkpt><trkpt lat="43.8544333" lon="7.9426"><ele>205.60000000000002</ele><time>2026-05-02T09:30:01.256Z</time></trkpt><trkpt lat="43.854505" lon="7.9426567"><ele>204.39999999999998</ele><time>2026-05-02T09:30:03.256Z</time></trkpt><trkpt lat="43.8546117" lon="7.94267"><ele>203.2</ele><time>2026-05-02T09:30:05.256Z</time></trkpt><trkpt lat="43.854715" lon="7.942645"><ele>202.0</ele><time>2026-05-02T09:30:07.256Z</time></trkpt><trkpt lat="43.8548167" lon="7.9425633"><ele>202.6</ele><time>2026-05-02T09:30:09.256Z</time></trkpt><trkpt lat="43.8549217" lon="7.9424867"><ele>203.2</ele><time>2026-05-02T09:30:11.256Z</time></trkpt><trkpt lat="43.8550517" lon="7.94245"><ele>203.8</ele><time>2026-05-02T09:30:13.256Z</time></trkpt><trkpt lat="43.8551283" lon="7.9424467"><ele>204.4</ele><time>2026-05-02T09:30:14.256Z</time></trkpt><trkpt lat="43.85521" lon="7.9424517"><ele>205.0</ele><time>2026-05-02T09:30:15.256Z</time></trkpt><trkpt lat="43.8552967" lon="7.9424567"><ele>205.0</ele><time>2026-05-02T09:30:16.256Z</time></trkpt><trkpt lat="43.85539" lon="7.9424467"><ele>205.0</ele><time>2026-05-02T09:30:17.257Z</time></trkpt><trkpt lat="43.8554783" lon="7.9424083"><ele>205.0</ele><time>2026-05-02T09:30:18.256Z</time></trkpt><trkpt lat="43.8555567" lon="7.9423467"><ele>205.0</ele><time>2026-05-02T09:30:19.256Z</time></trkpt><trkpt lat="43.8556317" lon="7.9422533"><ele>205.0</ele><time>2026-05-02T09:30:20.256Z</time></trkpt><trkpt lat="43.8556983" lon="7.9421517"><ele>205.0</ele><time>2026-05-02T09:30:21.256Z</time></trkpt><trkpt lat="43.8557533" lon="7.9420417"><ele>205.0</ele><time>2026-05-02T09:30:22.257Z</time></trkpt><trkpt lat="43.8558067" lon="7.9419333"><ele>205.0</ele><time>2026-05-02T09:30:23.256Z</time></trkpt><trkpt lat="43.855855" lon="7.9418317"><ele>205.0</ele><time>2026-05-02T09:30:24.256Z</time></trkpt><trkpt lat="43.8559083" lon="7.9417333"><ele>205.0</ele><time>2026-05-02T09:30:25.256Z</time></trkpt><trkpt lat="43.855965" lon="7.94164"><ele>205.16666666666666</ele><time>2026-05-02T09:30:26.256Z</time></trkpt><trkpt lat="43.8560233" lon="7.9415633"><ele>205.33333333333331</ele><time>2026-05-02T09:30:27.256Z</time></trkpt><trkpt lat="43.856085" lon="7.9414817"><ele>205.5</ele><time>2026-05-02T09:30:28.256Z</time></trkpt><trkpt lat="43.8561533" lon="7.94141"><ele>205.66666666666669</ele><time>2026-05-02T09:30:29.256Z</time></trkpt><trkpt lat="43.856225" lon="7.9413733"><ele>205.83333333333334</ele><time>2026-05-02T09:30:30.256Z</time></trkpt><trkpt lat="43.8563083" lon="7.9413767"><ele>206.0</ele><time>2026-05-02T09:30:31.257Z</time></trkpt><trkpt lat="43.8564" lon="7.941415"><ele>206.0</ele><time>2026-05-02T09:30:32.256Z</time></trkpt><trkpt lat="43.85649" lon="7.941465"><ele>206.0</ele><time>2026-05-02T09:30:33.256Z</time></trkpt><trkpt lat="43.8565783" lon="7.9415083"><ele>206.0</ele><time>2026-05-02T09:30:34.256Z</time></trkpt><trkpt lat="43.8566617" lon="7.9415717"><ele>206.0</ele><time>2026-05-02T09:30:35.256Z</time></trkpt><trkpt lat="43.8567267" lon="7.9416567"><ele>206.0</ele><time>2026-05-02T09:30:36.256Z</time></trkpt><trkpt lat="43.856795" lon="7.9417383"><ele>205.66666666666669</ele><time>2026-05-02T09:30:37.256Z</time></trkpt><trkpt lat="43.8568617" lon="7.9418267"><ele>205.33333333333334</ele><time>2026-05-02T09:30:38.256Z</time></trkpt><trkpt lat="43.8569183" lon="7.9418817"><ele>205.0</ele><time>2026-05-02T09:30:39.257Z</time></trkpt><trkpt lat="43.856975" lon="7.9419433"><ele>204.66666666666669</ele><time>2026-05-02T09:30:40.256Z</time></trkpt><trkpt lat="43.8570317" lon="7.9420367"><ele>204.33333333333334</ele><time>2026-05-02T09:30:41.256Z</time></trkpt><trkpt lat="43.8570917" lon="7.94213"><ele>204.0</ele><time>2026-05-02T09:30:42.256Z</time></trkpt><trkpt lat="43.8571483" lon="7.9422167"><ele>204.0</ele><time>2026-05-02T09:30:43.256Z</time></trkpt><trkpt lat="43.8572083" lon="7.942315"><ele>204.0</ele><time>2026-05-02T09:30:44.257Z</time></trkpt><trkpt lat="43.8572633" lon="7.942395"><ele>204.0</ele><time>2026-05-02T09:30:45.256Z</time></trkpt><trkpt lat="43.8573167" lon="7.9424783"><ele>204.0</ele><time>2026-05-02T09:30:46.256Z</time></trkpt><trkpt lat="43.8573767" lon="7.9425633"><ele>204.0</ele><time>2026-05-02T09:30:47.256Z</time></trkpt><trkpt lat="43.8574433" lon="7.9426583"><ele>204.0</ele><time>2026-05-02T09:30:48.256Z</time></trkpt><trkpt lat="43.8575" lon="7.9427483"><ele>202.2</ele><time>2026-05-02T09:30:49.256Z</time></trkpt><trkpt lat="43.8575683" lon="7.942825"><ele>200.39999999999998</ele><time>2026-05-02T09:30:50.256Z</time></trkpt><trkpt lat="43.8576383" lon="7.9429083"><ele>198.6</ele><time>2026-05-02T09:30:51.256Z</time></trkpt><trkpt lat="43.8577083" lon="7.94299"><ele>196.8</ele><time>2026-05-02T09:30:52.256Z</time></trkpt><trkpt lat="43.8577767" lon="7.9430733"><ele>195.0</ele><time>2026-05-02T09:30:53.256Z</time></trkpt><trkpt lat="43.8578467" lon="7.9431533"><ele>195.0</ele><time>2026-05-02T09:30:54.256Z</time></trkpt><trkpt lat="43.8579017" lon="7.9432267"><ele>195.0</ele><time>2026-05-02T09:30:55.256Z</time></trkpt><trkpt lat="43.8579567" lon="7.9432983"><ele>195.0</ele><time>2026-05-02T09:30:56.256Z</time></trkpt><trkpt lat="43.858005" lon="7.94336"><ele>195.0</ele><time>2026-05-02T09:30:57.256Z</time></trkpt><trkpt lat="43.85809" lon="7.9434967"><ele>195.0</ele><time>2026-05-02T09:30:59.257Z</time></trkpt><trkpt lat="43.8581367" lon="7.94356"><ele>195.0</ele><time>2026-05-02T09:31:00.256Z</time></trkpt><trkpt lat="43.85819" lon="7.9436133"><ele>193.33333333333334</ele><time>2026-05-02T09:31:01.256Z</time></trkpt><trkpt lat="43.8582483" lon="7.9436483"><ele>191.66666666666666</ele><time>2026-05-02T09:31:02.256Z</time></trkpt><trkpt lat="43.8583667" lon="7.9436667"><ele>190.0</ele><time>2026-05-02T09:31:04.257Z</time></trkpt><trkpt lat="43.8584317" lon="7.94365"><ele>188.33333333333331</ele><time>2026-05-02T09:31:05.256Z</time></trkpt><trkpt lat="43.8584917" lon="7.9436117"><ele>186.66666666666666</ele><time>2026-05-02T09:31:06.256Z</time></trkpt><trkpt lat="43.858585" lon="7.9435167"><ele>185.0</ele><time>2026-05-02T09:31:08.256Z</time></trkpt><trkpt lat="43.8586133" lon="7.9433583"><ele>183.0</ele><time>2026-05-02T09:31:10.256Z</time></trkpt><trkpt lat="43.85862" lon="7.94319"><ele>181.0</ele><time>2026-05-02T09:31:12.256Z</time></trkpt><trkpt lat="43.8586267" lon="7.9430983"><ele>179.0</ele><time>2026-05-02T09:31:13.256Z</time></trkpt><trkpt lat="43.8586" lon="7.942965"><ele>177.0</ele><time>2026-05-02T09:31:15.256Z</time></trkpt><trkpt lat="43.858585" lon="7.94285"><ele>175.0</ele><time>2026-05-02T09:31:17.256Z</time></trkpt><trkpt lat="43.85858" lon="7.9427583"><ele>173.0</ele><time>2026-05-02T09:31:19.256Z</time></trkpt><trkpt lat="43.8585717" lon="7.942655"><ele>173.0</ele><time>2026-05-02T09:31:21.256Z</time></trkpt><trkpt lat="43.8585633" lon="7.9425533"><ele>173.0</ele><time>2026-05-02T09:31:23.256Z</time></trkpt><trkpt lat="43.85855" lon="7.9424167"><ele>173.0</ele><time>2026-05-02T09:31:26.256Z</time></trkpt><trkpt lat="43.8585333" lon="7.9423083"><ele>173.0</ele><time>2026-05-02T09:31:28.256Z</time></trkpt><trkpt lat="43.8585167" lon="7.9422"><ele>173.0</ele><time>2026-05-02T09:31:30.256Z</time></trkpt><trkpt lat="43.858495" lon="7.9420783"><ele>173.0</ele><time>2026-05-02T09:31:32.256Z</time></trkpt><trkpt lat="43.8584533" lon="7.9419533"><ele>178.0</ele><time>2026-05-02T09:31:34.256Z</time></trkpt><trkpt lat="43.8584317" lon="7.9418183"><ele>183.0</ele><time>2026-05-02T09:31:36.256Z</time></trkpt><trkpt lat="43.8584083" lon="7.9416833"><ele>188.0</ele><time>2026-05-02T09:31:38.256Z</time></trkpt><trkpt lat="43.8583883" lon="7.9415633"><ele>193.0</ele><time>2026-05-02T09:31:40.256Z</time></trkpt><trkpt lat="43.85837" lon="7.9414533"><ele>198.00000000000003</ele><time>2026-05-02T09:31:42.256Z</time></trkpt><trkpt lat="43.8583683" lon="7.9413467"><ele>203.0</ele><time>2026-05-02T09:31:44.256Z</time></trkpt><trkpt lat="43.85838" lon="7.94125"><ele>203.83333333333334</ele><time>2026-05-02T09:31:46.256Z</time></trkpt><trkpt lat="43.8584017" lon="7.941145"><ele>204.66666666666669</ele><time>2026-05-02T09:31:48.257Z</time></trkpt><trkpt lat="43.8584317" lon="7.9410433"><ele>205.5</ele><time>2026-05-02T09:31:50.256Z</time></trkpt><trkpt lat="43.8584567" lon="7.9409367"><ele>206.33333333333331</ele><time>2026-05-02T09:31:52.257Z</time></trkpt><trkpt lat="43.8584683" lon="7.9408283"><ele>207.16666666666666</ele><time>2026-05-02T09:31:54.256Z</time></trkpt><trkpt lat="43.85848" lon="7.94071"><ele>208.0</ele><time>2026-05-02T09:31:56.256Z</time></trkpt><trkpt lat="43.85849" lon="7.9405967"><ele>204.99999999999997</ele><time>2026-05-02T09:31:58.256Z</time></trkpt><trkpt lat="43.8585033" lon="7.940485"><ele>202.0</ele><time>2026-05-02T09:32:00.256Z</time></trkpt><trkpt lat="43.8585083" lon="7.9403683"><ele>199.0</ele><time>2026-05-02T09:32:02.256Z</time></trkpt><trkpt lat="43.8585117" lon="7.9402617"><ele>196.0</ele><time>2026-05-02T09:32:04.256Z</time></trkpt><trkpt lat="43.8585233" lon="7.9401417"><ele>193.0</ele><time>2026-05-02T09:32:06.256Z</time></trkpt><trkpt lat="43.858525" lon="7.9400183"><ele>190.0</ele><time>2026-05-02T09:32:08.256Z</time></trkpt><trkpt lat="43.858535" lon="7.9398983"><ele>190.0</ele><time>2026-05-02T09:32:10.256Z</time></trkpt><trkpt lat="43.8585533" lon="7.9397767"><ele>190.0</ele><time>2026-05-02T09:32:12.256Z</time></trkpt><trkpt lat="43.8585833" lon="7.93966"><ele>190.0</ele><time>2026-05-02T09:32:14.256Z</time></trkpt><trkpt lat="43.8586133" lon="7.9395617"><ele>190.0</ele><time>2026-05-02T09:32:16.256Z</time></trkpt><trkpt lat="43.8586417" lon="7.9394533"><ele>190.0</ele><time>2026-05-02T09:32:18.256Z</time></trkpt><trkpt lat="43.8586617" lon="7.9393283"><ele>190.0</ele><time>2026-05-02T09:32:20.256Z</time></trkpt><trkpt lat="43.8586583" lon="7.9392167"><ele>191.2</ele><time>2026-05-02T09:32:22.256Z</time></trkpt><trkpt lat="43.8586317" lon="7.9391067"><ele>192.4</ele><time>2026-05-02T09:32:24.257Z</time></trkpt><trkpt lat="43.8585733" lon="7.939"><ele>193.60000000000002</ele><time>2026-05-02T09:32:26.256Z</time></trkpt><trkpt lat="43.85852" lon="7.9388883"><ele>194.8</ele><time>2026-05-02T09:32:28.256Z</time></trkpt><trkpt lat="43.8584617" lon="7.93877"><ele>196.0</ele><time>2026-05-02T09:32:30.257Z</time></trkpt><trkpt lat="43.8584233" lon="7.9386683"><ele>199.99999999999997</ele><time>2026-05-02T09:32:32.256Z</time></trkpt><trkpt lat="43.8583833" lon="7.93858"><ele>204.0</ele><time>2026-05-02T09:32:34.256Z</time></trkpt><trkpt lat="43.858335" lon="7.9384833"><ele>208.0</ele><time>2026-05-02T09:32:36.256Z</time></trkpt><trkpt lat="43.8582867" lon="7.9383767"><ele>212.0</ele><time>2026-05-02T09:32:38.256Z</time></trkpt><trkpt lat="43.8582517" lon="7.9382683"><ele>215.99999999999997</ele><time>2026-05-02T09:32:40.256Z</time></trkpt><trkpt lat="43.8582217" lon="7.9381583"><ele>220.0</ele><time>2026-05-02T09:32:42.256Z</time></trkpt><trkpt lat="43.85821" lon="7.9380567"><ele>219.99999999999997</ele><time>2026-05-02T09:32:44.256Z</time></trkpt><trkpt lat="43.858195" lon="7.9379433"><ele>220.0</ele><time>2026-05-02T09:32:46.256Z</time></trkpt><trkpt lat="43.85819" lon="7.93783"><ele>220.0</ele><time>2026-05-02T09:32:48.256Z</time></trkpt><trkpt lat="43.85818" lon="7.9377283"><ele>220.0</ele><time>2026-05-02T09:32:50.256Z</time></trkpt><trkpt lat="43.858145" lon="7.9376333"><ele>219.99999999999997</ele><time>2026-05-02T09:32:52.257Z</time></trkpt><trkpt lat="43.8581417" lon="7.9375317"><ele>220.0</ele><time>2026-05-02T09:32:54.256Z</time></trkpt><trkpt lat="43.85815" lon="7.93741"><ele>219.33333333333331</ele><time>2026-05-02T09:32:56.256Z</time></trkpt><trkpt lat="43.85813" lon="7.9372967"><ele>218.66666666666666</ele><time>2026-05-02T09:32:58.256Z</time></trkpt><trkpt lat="43.8581217" lon="7.9371767"><ele>218.0</ele><time>2026-05-02T09:33:00.256Z</time></trkpt><trkpt lat="43.8581133" lon="7.9370533"><ele>217.33333333333331</ele><time>2026-05-02T09:33:02.256Z</time></trkpt><trkpt lat="43.8581067" lon="7.9369383"><ele>216.66666666666666</ele><time>2026-05-02T09:33:04.256Z</time></trkpt><trkpt lat="43.85811" lon="7.9368417"><ele>216.0</ele><time>2026-05-02T09:33:06.256Z</time></trkpt><trkpt lat="43.8581833" lon="7.9367667"><ele>216.0</ele><time>2026-05-02T09:33:09.256Z</time></trkpt><trkpt lat="43.8582717" lon="7.9367333"><ele>216.0</ele><time>2026-05-02T09:33:13.256Z</time></trkpt><trkpt lat="43.8583517" lon="7.936695"><ele>216.0</ele><time>2026-05-02T09:33:15.256Z</time></trkpt><trkpt lat="43.8584267" lon="7.9366417"><ele>216.0</ele><time>2026-05-02T09:33:17.256Z</time></trkpt><trkpt lat="43.8585017" lon="7.9365917"><ele>216.0</ele><time>2026-05-02T09:33:19.257Z</time></trkpt><trkpt lat="43.8585683" lon="7.9365633"><ele>216.0</ele><time>2026-05-02T09:33:21.256Z</time></trkpt><trkpt lat="43.8586383" lon="7.936595"><ele>215.66666666666666</ele><time>2026-05-02T09:33:24.256Z</time></trkpt><trkpt lat="43.858685" lon="7.936675"><ele>215.33333333333331</ele><time>2026-05-02T09:33:26.256Z</time></trkpt><trkpt lat="43.8587283" lon="7.9367433"><ele>215.0</ele><time>2026-05-02T09:33:28.256Z</time></trkpt><trkpt lat="43.8588067" lon="7.9368033"><ele>214.66666666666666</ele><time>2026-05-02T09:33:30.257Z</time></trkpt><trkpt lat="43.858875" lon="7.9368717"><ele>214.33333333333331</ele><time>2026-05-02T09:33:32.257Z</time></trkpt><trkpt lat="43.8589417" lon="7.9369333"><ele>214.0</ele><time>2026-05-02T09:33:34.256Z</time></trkpt><trkpt lat="43.859025" lon="7.9369833"><ele>214.0</ele><time>2026-05-02T09:33:36.256Z</time></trkpt><trkpt lat="43.859115" lon="7.9370333"><ele>213.99999999999997</ele><time>2026-05-02T09:33:38.256Z</time></trkpt><trkpt lat="43.8592133" lon="7.93708"><ele>213.99999999999997</ele><time>2026-05-02T09:33:40.256Z</time></trkpt><trkpt lat="43.8592983" lon="7.9371167"><ele>214.0</ele><time>2026-05-02T09:33:42.256Z</time></trkpt><trkpt lat="43.8593817" lon="7.937145"><ele>214.0</ele><time>2026-05-02T09:33:44.256Z</time></trkpt><trkpt lat="43.8594633" lon="7.9371783"><ele>215.49999999999997</ele><time>2026-05-02T09:33:46.256Z</time></trkpt><trkpt lat="43.8595483" lon="7.937205"><ele>217.0</ele><time>2026-05-02T09:33:48.256Z</time></trkpt><trkpt lat="43.8596317" lon="7.9372233"><ele>218.5</ele><time>2026-05-02T09:33:50.256Z</time></trkpt><trkpt lat="43.85971" lon="7.937225"><ele>220.0</ele><time>2026-05-02T09:33:52.256Z</time></trkpt><trkpt lat="43.8597917" lon="7.9372067"><ele>221.49999999999997</ele><time>2026-05-02T09:33:54.257Z</time></trkpt><trkpt lat="43.8598717" lon="7.9371883"><ele>223.0</ele><time>2026-05-02T09:33:56.256Z</time></trkpt><trkpt lat="43.8599483" lon="7.9371783"><ele>222.99999999999997</ele><time>2026-05-02T09:33:58.256Z</time></trkpt><trkpt lat="43.860025" lon="7.9371717"><ele>223.0</ele><time>2026-05-02T09:34:00.256Z</time></trkpt><trkpt lat="43.8600983" lon="7.93713"><ele>223.0</ele><time>2026-05-02T09:34:02.256Z</time></trkpt><trkpt lat="43.8601633" lon="7.9370667"><ele>223.0</ele><time>2026-05-02T09:34:05.256Z</time></trkpt><trkpt lat="43.8602283" lon="7.9370383"><ele>222.99999999999997</ele><time>2026-05-02T09:34:10.256Z</time></trkpt><trkpt lat="43.8602817" lon="7.937135"><ele>223.0</ele><time>2026-05-02T09:34:14.256Z</time></trkpt><trkpt lat="43.8603267" lon="7.93727"><ele>221.66666666666666</ele><time>2026-05-02T09:34:16.257Z</time></trkpt><trkpt lat="43.860395" lon="7.937395"><ele>220.33333333333331</ele><time>2026-05-02T09:34:18.256Z</time></trkpt><trkpt lat="43.8604633" lon="7.9374483"><ele>219.0</ele><time>2026-05-02T09:34:20.256Z</time></trkpt><trkpt lat="43.8605433" lon="7.9374633"><ele>217.66666666666669</ele><time>2026-05-02T09:34:23.256Z</time></trkpt><trkpt lat="43.860615" lon="7.9374967"><ele>216.33333333333334</ele><time>2026-05-02T09:34:26.256Z</time></trkpt><trkpt lat="43.860635" lon="7.9376017"><ele>215.0</ele><time>2026-05-02T09:34:29.256Z</time></trkpt><trkpt lat="43.8606683" lon="7.9377117"><ele>207.0</ele><time>2026-05-02T09:34:31.256Z</time></trkpt><trkpt lat="43.860715" lon="7.9378083"><ele>207.0</ele><time>2026-05-02T09:34:33.256Z</time></trkpt><trkpt lat="43.86075" lon="7.9378917"><ele>207.0</ele><time>2026-05-02T09:34:36.256Z</time></trkpt><trkpt lat="43.8607667" lon="7.9379767"><ele>207.0</ele><time>2026-05-02T09:34:40.256Z</time></trkpt><trkpt lat="43.8607583" lon="7.9381"><ele>207.0</ele><time>2026-05-02T09:34:43.256Z</time></trkpt></trkseg></trk></gpx>